<?xml version="1.0" encoding="UTF-8" standalone="no" ?>
<gpx xmlns="http://www.topografix.com/GPX/1/1" xmlns:xsi="http://www.w3.org/2001/XMLSchema-instance" xsi:schemaLocation="http://www.topografix.com/GPX/1/1 http://www.topografix.com/GPX/1/1/gpx.xsd" version="1.1" creator="VisuGPX - https://www.visugpx.com">
  <metadata>
    <name>boucle pyrénées 2000-refuge de farneils</name>
  </metadata>
  <trk>
    <name><![CDATA[boucle pyrénées 2000-refuge de farneils_1]]></name>
    <trkseg>
      <trkpt lat="42.52113" lon="2.05976">
        <ele>1831.9588982351</ele>
        <time>2001-05-23T15:56:51</time>
      </trkpt>
      <trkpt lat="42.52113" lon="2.05976">
        <ele>1832.0821301462</ele>
        <time>2001-05-23T15:56:52</time>
      </trkpt>
      <trkpt lat="42.52114" lon="2.05978">
        <ele>1833.953193794</ele>
        <time>2001-05-23T15:56:52.994</time>
      </trkpt>
      <trkpt lat="42.52114" lon="2.05978">
        <ele>1833.953193794</ele>
        <time>2001-05-23T15:56:53.994</time>
      </trkpt>
      <trkpt lat="42.52114" lon="2.05977">
        <ele>1833.1586967546</ele>
        <time>2001-05-23T15:56:54.994</time>
      </trkpt>
      <trkpt lat="42.52114" lon="2.05977">
        <ele>1833.5361306684</ele>
        <time>2001-05-23T15:56:55.994</time>
      </trkpt>
      <trkpt lat="42.52113" lon="2.05976">
        <ele>1833.6520425551</ele>
        <time>2001-05-23T15:56:56.993</time>
      </trkpt>
      <trkpt lat="42.52113" lon="2.05975">
        <ele>1833.490259058</ele>
        <time>2001-05-23T15:56:57.993</time>
      </trkpt>
      <trkpt lat="42.52113" lon="2.05976">
        <ele>1833.3368327919</ele>
        <time>2001-05-23T15:56:58.991</time>
      </trkpt>
      <trkpt lat="42.52113" lon="2.05975">
        <ele>1833.3573462555</ele>
        <time>2001-05-23T15:56:59.991</time>
      </trkpt>
      <trkpt lat="42.52112" lon="2.05975">
        <ele>1833.4092324693</ele>
        <time>2001-05-23T15:57:00.991</time>
      </trkpt>
      <trkpt lat="42.52112" lon="2.05975">
        <ele>1833.6979943279</ele>
        <time>2001-05-23T15:57:01.991</time>
      </trkpt>
      <trkpt lat="42.52112" lon="2.05976">
        <ele>1833.9298485424</ele>
        <time>2001-05-23T15:57:02.989</time>
      </trkpt>
      <trkpt lat="42.52112" lon="2.05976">
        <ele>1834.153345526</ele>
        <time>2001-05-23T15:57:03.989</time>
      </trkpt>
      <trkpt lat="42.52112" lon="2.05975">
        <ele>1834.1177239049</ele>
        <time>2001-05-23T15:57:04.988</time>
      </trkpt>
      <trkpt lat="42.52111" lon="2.05974">
        <ele>1834.049432376</ele>
        <time>2001-05-23T15:57:05.988</time>
      </trkpt>
      <trkpt lat="42.5211" lon="2.05973">
        <ele>1833.7928732073</ele>
        <time>2001-05-23T15:57:06.988</time>
      </trkpt>
      <trkpt lat="42.52109" lon="2.05972">
        <ele>1833.521769719</ele>
        <time>2001-05-23T15:57:07.988</time>
      </trkpt>
      <trkpt lat="42.52109" lon="2.05972">
        <ele>1833.1359681837</ele>
        <time>2001-05-23T15:57:08.988</time>
      </trkpt>
      <trkpt lat="42.52108" lon="2.05971">
        <ele>1832.962008317</ele>
        <time>2001-05-23T15:57:09.988</time>
      </trkpt>
      <trkpt lat="42.52109" lon="2.05971">
        <ele>1833.136860599</ele>
        <time>2001-05-23T15:57:10.986</time>
      </trkpt>
      <trkpt lat="42.5211" lon="2.0597">
        <ele>1833.518652473</ele>
        <time>2001-05-23T15:57:11.986</time>
      </trkpt>
      <trkpt lat="42.5211" lon="2.05967">
        <ele>1833.6928636948</ele>
        <time>2001-05-23T15:57:12.987</time>
      </trkpt>
      <trkpt lat="42.5211" lon="2.05967">
        <ele>1833.9817729635</ele>
        <time>2001-05-23T15:57:13.987</time>
      </trkpt>
      <trkpt lat="42.52112" lon="2.05967">
        <ele>1834.7141010886</ele>
        <time>2001-05-23T15:57:14.986</time>
      </trkpt>
      <trkpt lat="42.52113" lon="2.05967">
        <ele>1835.2584649278</ele>
        <time>2001-05-23T15:57:15.986</time>
      </trkpt>
      <trkpt lat="42.52114" lon="2.05966">
        <ele>1835.8204546003</ele>
        <time>2001-05-23T15:57:16.986</time>
      </trkpt>
      <trkpt lat="42.52115" lon="2.05966">
        <ele>1836.6677403998</ele>
        <time>2001-05-23T15:57:17.986</time>
      </trkpt>
      <trkpt lat="42.52115" lon="2.05966">
        <ele>1837.5150261993</ele>
        <time>2001-05-23T15:57:18.986</time>
      </trkpt>
      <trkpt lat="42.52114" lon="2.05967">
        <ele>1837.6229184255</ele>
        <time>2001-05-23T15:57:19.987</time>
      </trkpt>
      <trkpt lat="42.52114" lon="2.05967">
        <ele>1837.5712599466</ele>
        <time>2001-05-23T15:57:20.987</time>
      </trkpt>
      <trkpt lat="42.52114" lon="2.05968">
        <ele>1837.3594283726</ele>
        <time>2001-05-23T15:57:21.987</time>
      </trkpt>
      <trkpt lat="42.52114" lon="2.05968">
        <ele>1837.0448159417</ele>
        <time>2001-05-23T15:57:22.987</time>
      </trkpt>
      <trkpt lat="42.52114" lon="2.05968">
        <ele>1836.7313714564</ele>
        <time>2001-05-23T15:57:23.987</time>
      </trkpt>
      <trkpt lat="42.52114" lon="2.05968">
        <ele>1836.6086640924</ele>
        <time>2001-05-23T15:57:24.987</time>
      </trkpt>
      <trkpt lat="42.52113" lon="2.05967">
        <ele>1836.3458300594</ele>
        <time>2001-05-23T15:57:25.961</time>
      </trkpt>
      <trkpt lat="42.52112" lon="2.05966">
        <ele>1836.1106576154</ele>
        <time>2001-05-23T15:57:26.961</time>
      </trkpt>
      <trkpt lat="42.52111" lon="2.05964">
        <ele>1835.7623699971</ele>
        <time>2001-05-23T15:57:27.961</time>
      </trkpt>
      <trkpt lat="42.52111" lon="2.05964">
        <ele>1835.4129144331</ele>
        <time>2001-05-23T15:57:28.961</time>
      </trkpt>
      <trkpt lat="42.52111" lon="2.05964">
        <ele>1835.0634588692</ele>
        <time>2001-05-23T15:57:29.961</time>
      </trkpt>
      <trkpt lat="42.5211" lon="2.05964">
        <ele>1834.5638159253</ele>
        <time>2001-05-23T15:57:30.961</time>
      </trkpt>
      <trkpt lat="42.52109" lon="2.05963">
        <ele>1834.1373516222</ele>
        <time>2001-05-23T15:57:31.952</time>
      </trkpt>
      <trkpt lat="42.52109" lon="2.05963">
        <ele>1833.8240024935</ele>
        <time>2001-05-23T15:57:32.952</time>
      </trkpt>
      <trkpt lat="42.52108" lon="2.05962">
        <ele>1833.8144268757</ele>
        <time>2001-05-23T15:57:33.954</time>
      </trkpt>
      <trkpt lat="42.52108" lon="2.05962">
        <ele>1833.761497012</ele>
        <time>2001-05-23T15:57:34.954</time>
      </trkpt>
      <trkpt lat="42.52107" lon="2.05961">
        <ele>1833.911787181</ele>
        <time>2001-05-23T15:57:35.954</time>
      </trkpt>
      <trkpt lat="42.52106" lon="2.05959">
        <ele>1834.2628269209</ele>
        <time>2001-05-23T15:57:36.954</time>
      </trkpt>
      <trkpt lat="42.52106" lon="2.05958">
        <ele>1834.6646666821</ele>
        <time>2001-05-23T15:57:37.954</time>
      </trkpt>
      <trkpt lat="42.52105" lon="2.05957">
        <ele>1834.6461031659</ele>
        <time>2001-05-23T15:57:38.954</time>
      </trkpt>
      <trkpt lat="42.52105" lon="2.05956">
        <ele>1834.4677802622</ele>
        <time>2001-05-23T15:57:39.954</time>
      </trkpt>
      <trkpt lat="42.52105" lon="2.05955">
        <ele>1834.2846259132</ele>
        <time>2001-05-23T15:57:40.954</time>
      </trkpt>
      <trkpt lat="42.52104" lon="2.05954">
        <ele>1833.8717865275</ele>
        <time>2001-05-23T15:57:41.954</time>
      </trkpt>
      <trkpt lat="42.52103" lon="2.05953">
        <ele>1833.323900903</ele>
        <time>2001-05-23T15:57:42.954</time>
      </trkpt>
      <trkpt lat="42.52102" lon="2.05952">
        <ele>1832.7491270222</ele>
        <time>2001-05-23T15:57:43.954</time>
      </trkpt>
      <trkpt lat="42.52102" lon="2.05951">
        <ele>1832.3025148511</ele>
        <time>2001-05-23T15:57:44.954</time>
      </trkpt>
      <trkpt lat="42.52103" lon="2.05951">
        <ele>1832.2049496895</ele>
        <time>2001-05-23T15:57:45.954</time>
      </trkpt>
      <trkpt lat="42.52102" lon="2.05949">
        <ele>1831.9338315846</ele>
        <time>2001-05-23T15:57:46.954</time>
      </trkpt>
      <trkpt lat="42.52101" lon="2.05948">
        <ele>1831.5980672134</ele>
        <time>2001-05-23T15:57:47.954</time>
      </trkpt>
      <trkpt lat="42.521" lon="2.05947">
        <ele>1831.3748727493</ele>
        <time>2001-05-23T15:57:48.954</time>
      </trkpt>
      <trkpt lat="42.521" lon="2.05946">
        <ele>1831.154117316</ele>
        <time>2001-05-23T15:57:49.954</time>
      </trkpt>
      <trkpt lat="42.52101" lon="2.05945">
        <ele>1830.6784651836</ele>
        <time>2001-05-23T15:57:50.954</time>
      </trkpt>
      <trkpt lat="42.521" lon="2.05945">
        <ele>1830.4891190339</ele>
        <time>2001-05-23T15:57:51.954</time>
      </trkpt>
      <trkpt lat="42.52099" lon="2.05944">
        <ele>1830.3934065659</ele>
        <time>2001-05-23T15:57:52.954</time>
      </trkpt>
      <trkpt lat="42.52098" lon="2.05943">
        <ele>1830.2144236024</ele>
        <time>2001-05-23T15:57:53.954</time>
      </trkpt>
      <trkpt lat="42.52098" lon="2.05942">
        <ele>1830.1097785594</ele>
        <time>2001-05-23T15:57:54.954</time>
      </trkpt>
      <trkpt lat="42.52097" lon="2.05941">
        <ele>1829.8890712034</ele>
        <time>2001-05-23T15:57:55.954</time>
      </trkpt>
      <trkpt lat="42.52097" lon="2.0594">
        <ele>1829.5445998421</ele>
        <time>2001-05-23T15:57:56.954</time>
      </trkpt>
      <trkpt lat="42.52096" lon="2.0594">
        <ele>1829.2824114762</ele>
        <time>2001-05-23T15:57:57.954</time>
      </trkpt>
      <trkpt lat="42.52094" lon="2.05939">
        <ele>1828.8775473217</ele>
        <time>2001-05-23T15:57:58.954</time>
      </trkpt>
      <trkpt lat="42.52094" lon="2.05938">
        <ele>1828.4470204635</ele>
        <time>2001-05-23T15:57:59.954</time>
      </trkpt>
      <trkpt lat="42.52093" lon="2.05937">
        <ele>1828.0378004503</ele>
        <time>2001-05-23T15:58:00.954</time>
      </trkpt>
      <trkpt lat="42.52093" lon="2.05936">
        <ele>1827.6813778041</ele>
        <time>2001-05-23T15:58:01.954</time>
      </trkpt>
      <trkpt lat="42.52092" lon="2.05935">
        <ele>1827.2943714973</ele>
        <time>2001-05-23T15:58:02.954</time>
      </trkpt>
      <trkpt lat="42.52091" lon="2.05935">
        <ele>1827.1178090794</ele>
        <time>2001-05-23T15:58:03.954</time>
      </trkpt>
      <trkpt lat="42.5209" lon="2.05934">
        <ele>1827.0106384693</ele>
        <time>2001-05-23T15:58:04.954</time>
      </trkpt>
      <trkpt lat="42.52089" lon="2.05933">
        <ele>1827.1340900581</ele>
        <time>2001-05-23T15:58:05.954</time>
      </trkpt>
      <trkpt lat="42.52089" lon="2.05932">
        <ele>1827.5382314295</ele>
        <time>2001-05-23T15:58:06.954</time>
      </trkpt>
      <trkpt lat="42.52089" lon="2.05931">
        <ele>1828.0415385462</ele>
        <time>2001-05-23T15:58:07.954</time>
      </trkpt>
      <trkpt lat="42.52089" lon="2.0593">
        <ele>1828.6030431308</ele>
        <time>2001-05-23T15:58:08.954</time>
      </trkpt>
      <trkpt lat="42.52087" lon="2.05927">
        <ele>1828.4978913618</ele>
        <time>2001-05-23T15:58:09.958</time>
      </trkpt>
      <trkpt lat="42.52086" lon="2.05926">
        <ele>1828.0845027093</ele>
        <time>2001-05-23T15:58:10.958</time>
      </trkpt>
      <trkpt lat="42.52084" lon="2.05925">
        <ele>1827.129759125</ele>
        <time>2001-05-23T15:58:11.958</time>
      </trkpt>
      <trkpt lat="42.52084" lon="2.05924">
        <ele>1826.1445513222</ele>
        <time>2001-05-23T15:58:12.958</time>
      </trkpt>
      <trkpt lat="42.52083" lon="2.05923">
        <ele>1825.0188664915</ele>
        <time>2001-05-23T15:58:13.958</time>
      </trkpt>
      <trkpt lat="42.52083" lon="2.05922">
        <ele>1824.8388736775</ele>
        <time>2001-05-23T15:58:14.958</time>
      </trkpt>
      <trkpt lat="42.52083" lon="2.05921">
        <ele>1824.6589980207</ele>
        <time>2001-05-23T15:58:15.958</time>
      </trkpt>
      <trkpt lat="42.52083" lon="2.0592">
        <ele>1824.6335585022</ele>
        <time>2001-05-23T15:58:16.958</time>
      </trkpt>
      <trkpt lat="42.52082" lon="2.05919">
        <ele>1824.580548292</ele>
        <time>2001-05-23T15:58:17.958</time>
      </trkpt>
      <trkpt lat="42.52082" lon="2.05917">
        <ele>1825.0266426552</ele>
        <time>2001-05-23T15:58:18.958</time>
      </trkpt>
      <trkpt lat="42.52081" lon="2.05917">
        <ele>1825.1507830806</ele>
        <time>2001-05-23T15:58:19.958</time>
      </trkpt>
      <trkpt lat="42.5208" lon="2.05916">
        <ele>1825.4736333724</ele>
        <time>2001-05-23T15:58:20.958</time>
      </trkpt>
      <trkpt lat="42.5208" lon="2.05915">
        <ele>1825.8624277405</ele>
        <time>2001-05-23T15:58:21.958</time>
      </trkpt>
      <trkpt lat="42.5208" lon="2.05914">
        <ele>1826.3519543873</ele>
        <time>2001-05-23T15:58:22.958</time>
      </trkpt>
      <trkpt lat="42.52079" lon="2.05914">
        <ele>1826.3986005757</ele>
        <time>2001-05-23T15:58:23.958</time>
      </trkpt>
      <trkpt lat="42.52078" lon="2.05911">
        <ele>1826.4007334551</ele>
        <time>2001-05-23T15:58:24.956</time>
      </trkpt>
      <trkpt lat="42.52078" lon="2.0591">
        <ele>1826.5606205683</ele>
        <time>2001-05-23T15:58:25.956</time>
      </trkpt>
      <trkpt lat="42.52077" lon="2.05909">
        <ele>1826.8381866377</ele>
        <time>2001-05-23T15:58:26.956</time>
      </trkpt>
      <trkpt lat="42.52077" lon="2.05908">
        <ele>1827.0639845101</ele>
        <time>2001-05-23T15:58:27.956</time>
      </trkpt>
      <trkpt lat="42.52076" lon="2.05907">
        <ele>1827.3390120294</ele>
        <time>2001-05-23T15:58:28.956</time>
      </trkpt>
      <trkpt lat="42.52076" lon="2.05906">
        <ele>1827.5638428496</ele>
        <time>2001-05-23T15:58:29.956</time>
      </trkpt>
      <trkpt lat="42.52076" lon="2.05905">
        <ele>1827.5310543552</ele>
        <time>2001-05-23T15:58:30.956</time>
      </trkpt>
      <trkpt lat="42.52075" lon="2.05904">
        <ele>1827.3065713929</ele>
        <time>2001-05-23T15:58:31.956</time>
      </trkpt>
      <trkpt lat="42.52075" lon="2.05902">
        <ele>1826.9664940841</ele>
        <time>2001-05-23T15:58:32.956</time>
      </trkpt>
      <trkpt lat="42.52074" lon="2.05901">
        <ele>1826.5444877924</ele>
        <time>2001-05-23T15:58:33.956</time>
      </trkpt>
      <trkpt lat="42.52073" lon="2.059">
        <ele>1825.8683807246</ele>
        <time>2001-05-23T15:58:34.956</time>
      </trkpt>
      <trkpt lat="42.52073" lon="2.05899">
        <ele>1825.1808953006</ele>
        <time>2001-05-23T15:58:35.956</time>
      </trkpt>
      <trkpt lat="42.52072" lon="2.05898">
        <ele>1824.5367669018</ele>
        <time>2001-05-23T15:58:36.956</time>
      </trkpt>
      <trkpt lat="42.52071" lon="2.05897">
        <ele>1823.9477343028</ele>
        <time>2001-05-23T15:58:37.956</time>
      </trkpt>
      <trkpt lat="42.52071" lon="2.05896">
        <ele>1823.4016382094</ele>
        <time>2001-05-23T15:58:38.956</time>
      </trkpt>
      <trkpt lat="42.52071" lon="2.05895">
        <ele>1823.1355551526</ele>
        <time>2001-05-23T15:58:39.956</time>
      </trkpt>
      <trkpt lat="42.5207" lon="2.05895">
        <ele>1823.1687020283</ele>
        <time>2001-05-23T15:58:40.956</time>
      </trkpt>
      <trkpt lat="42.52069" lon="2.05893">
        <ele>1823.6762975425</ele>
        <time>2001-05-23T15:58:41.960</time>
      </trkpt>
      <trkpt lat="42.52069" lon="2.05892">
        <ele>1824.2672974432</ele>
        <time>2001-05-23T15:58:42.960</time>
      </trkpt>
      <trkpt lat="42.52068" lon="2.0589">
        <ele>1824.9020496951</ele>
        <time>2001-05-23T15:58:43.960</time>
      </trkpt>
      <trkpt lat="42.52068" lon="2.05889">
        <ele>1825.6805022692</ele>
        <time>2001-05-23T15:58:44.960</time>
      </trkpt>
      <trkpt lat="42.52067" lon="2.05888">
        <ele>1825.8328992603</ele>
        <time>2001-05-23T15:58:45.960</time>
      </trkpt>
      <trkpt lat="42.52066" lon="2.05887">
        <ele>1825.451091451</ele>
        <time>2001-05-23T15:58:46.960</time>
      </trkpt>
      <trkpt lat="42.52065" lon="2.05886">
        <ele>1824.7115255417</ele>
        <time>2001-05-23T15:58:47.960</time>
      </trkpt>
      <trkpt lat="42.52065" lon="2.05886">
        <ele>1824.0736315988</ele>
        <time>2001-05-23T15:58:48.960</time>
      </trkpt>
      <trkpt lat="42.52064" lon="2.05885">
        <ele>1823.4787087532</ele>
        <time>2001-05-23T15:58:49.960</time>
      </trkpt>
      <trkpt lat="42.52064" lon="2.05884">
        <ele>1823.3386861322</ele>
        <time>2001-05-23T15:58:50.960</time>
      </trkpt>
      <trkpt lat="42.52063" lon="2.05883">
        <ele>1823.4048913687</ele>
        <time>2001-05-23T15:58:51.960</time>
      </trkpt>
      <trkpt lat="42.52063" lon="2.05882">
        <ele>1823.7991635446</ele>
        <time>2001-05-23T15:58:52.960</time>
      </trkpt>
      <trkpt lat="42.52062" lon="2.05881">
        <ele>1824.0012521492</ele>
        <time>2001-05-23T15:58:53.960</time>
      </trkpt>
      <trkpt lat="42.52061" lon="2.0588">
        <ele>1823.8381810466</ele>
        <time>2001-05-23T15:58:54.960</time>
      </trkpt>
      <trkpt lat="42.5206" lon="2.05879">
        <ele>1823.5082411757</ele>
        <time>2001-05-23T15:58:55.960</time>
      </trkpt>
      <trkpt lat="42.5206" lon="2.05878">
        <ele>1823.0844560649</ele>
        <time>2001-05-23T15:58:56.960</time>
      </trkpt>
      <trkpt lat="42.5206" lon="2.05877">
        <ele>1822.6409147952</ele>
        <time>2001-05-23T15:58:57.960</time>
      </trkpt>
      <trkpt lat="42.52059" lon="2.05876">
        <ele>1822.3199146315</ele>
        <time>2001-05-23T15:58:58.960</time>
      </trkpt>
      <trkpt lat="42.52059" lon="2.05875">
        <ele>1822.4766555099</ele>
        <time>2001-05-23T15:58:59.960</time>
      </trkpt>
      <trkpt lat="42.52058" lon="2.05874">
        <ele>1822.8616428116</ele>
        <time>2001-05-23T15:59:00.960</time>
      </trkpt>
      <trkpt lat="42.52058" lon="2.05873">
        <ele>1823.4295323607</ele>
        <time>2001-05-23T15:59:01.960</time>
      </trkpt>
      <trkpt lat="42.52057" lon="2.05872">
        <ele>1823.9960463036</ele>
        <time>2001-05-23T15:59:02.960</time>
      </trkpt>
      <trkpt lat="42.52056" lon="2.05871">
        <ele>1824.6465414574</ele>
        <time>2001-05-23T15:59:03.960</time>
      </trkpt>
      <trkpt lat="42.52056" lon="2.05871">
        <ele>1825.2445765896</ele>
        <time>2001-05-23T15:59:04.960</time>
      </trkpt>
      <trkpt lat="42.52056" lon="2.0587">
        <ele>1825.774699907</ele>
        <time>2001-05-23T15:59:05.960</time>
      </trkpt>
      <trkpt lat="42.52055" lon="2.0587">
        <ele>1825.9833517032</ele>
        <time>2001-05-23T15:59:06.960</time>
      </trkpt>
      <trkpt lat="42.52055" lon="2.0587">
        <ele>1826.1333851356</ele>
        <time>2001-05-23T15:59:07.960</time>
      </trkpt>
      <trkpt lat="42.52054" lon="2.05867">
        <ele>1826.0800579919</ele>
        <time>2001-05-23T15:59:08.960</time>
      </trkpt>
      <trkpt lat="42.52053" lon="2.05866">
        <ele>1825.6079647318</ele>
        <time>2001-05-23T15:59:09.960</time>
      </trkpt>
      <trkpt lat="42.52052" lon="2.05865">
        <ele>1824.9797374601</ele>
        <time>2001-05-23T15:59:10.960</time>
      </trkpt>
      <trkpt lat="42.52051" lon="2.05864">
        <ele>1824.4359163556</ele>
        <time>2001-05-23T15:59:11.960</time>
      </trkpt>
      <trkpt lat="42.5205" lon="2.05863">
        <ele>1823.7937497914</ele>
        <time>2001-05-23T15:59:12.960</time>
      </trkpt>
      <trkpt lat="42.52049" lon="2.05862">
        <ele>1823.0668975445</ele>
        <time>2001-05-23T15:59:13.960</time>
      </trkpt>
      <trkpt lat="42.52049" lon="2.05861">
        <ele>1822.7349599045</ele>
        <time>2001-05-23T15:59:14.960</time>
      </trkpt>
      <trkpt lat="42.52048" lon="2.05861">
        <ele>1822.650803344</ele>
        <time>2001-05-23T15:59:15.960</time>
      </trkpt>
      <trkpt lat="42.52048" lon="2.0586">
        <ele>1823.0008150369</ele>
        <time>2001-05-23T15:59:16.960</time>
      </trkpt>
      <trkpt lat="42.52047" lon="2.05859">
        <ele>1823.4382866928</ele>
        <time>2001-05-23T15:59:17.960</time>
      </trkpt>
      <trkpt lat="42.52047" lon="2.05858">
        <ele>1823.9514692869</ele>
        <time>2001-05-23T15:59:18.960</time>
      </trkpt>
      <trkpt lat="42.52046" lon="2.05857">
        <ele>1824.3640635764</ele>
        <time>2001-05-23T15:59:19.960</time>
      </trkpt>
      <trkpt lat="42.52046" lon="2.05856">
        <ele>1824.7562609125</ele>
        <time>2001-05-23T15:59:20.960</time>
      </trkpt>
      <trkpt lat="42.52045" lon="2.05855">
        <ele>1824.7533382593</ele>
        <time>2001-05-23T15:59:21.960</time>
      </trkpt>
      <trkpt lat="42.52045" lon="2.05854">
        <ele>1824.6784752501</ele>
        <time>2001-05-23T15:59:22.960</time>
      </trkpt>
      <trkpt lat="42.52044" lon="2.05853">
        <ele>1824.5111881513</ele>
        <time>2001-05-23T15:59:23.960</time>
      </trkpt>
      <trkpt lat="42.52044" lon="2.05852">
        <ele>1824.2176201504</ele>
        <time>2001-05-23T15:59:24.960</time>
      </trkpt>
      <trkpt lat="42.52043" lon="2.05851">
        <ele>1823.8450521586</ele>
        <time>2001-05-23T15:59:25.960</time>
      </trkpt>
      <trkpt lat="42.52043" lon="2.05851">
        <ele>1823.424288339</ele>
        <time>2001-05-23T15:59:26.960</time>
      </trkpt>
      <trkpt lat="42.52042" lon="2.0585">
        <ele>1823.076799944</ele>
        <time>2001-05-23T15:59:27.960</time>
      </trkpt>
      <trkpt lat="42.52042" lon="2.05848">
        <ele>1823.3526831115</ele>
        <time>2001-05-23T15:59:28.959</time>
      </trkpt>
      <trkpt lat="42.52042" lon="2.05846">
        <ele>1823.8042760119</ele>
        <time>2001-05-23T15:59:29.959</time>
      </trkpt>
      <trkpt lat="42.52041" lon="2.05846">
        <ele>1824.2875843789</ele>
        <time>2001-05-23T15:59:30.959</time>
      </trkpt>
      <trkpt lat="42.5204" lon="2.05845">
        <ele>1824.7364623109</ele>
        <time>2001-05-23T15:59:31.959</time>
      </trkpt>
      <trkpt lat="42.5204" lon="2.05844">
        <ele>1825.2497186048</ele>
        <time>2001-05-23T15:59:32.959</time>
      </trkpt>
      <trkpt lat="42.52039" lon="2.05843">
        <ele>1825.2190737637</ele>
        <time>2001-05-23T15:59:33.959</time>
      </trkpt>
      <trkpt lat="42.52039" lon="2.05842">
        <ele>1825.0453850558</ele>
        <time>2001-05-23T15:59:34.959</time>
      </trkpt>
      <trkpt lat="42.52039" lon="2.05842">
        <ele>1824.6706423506</ele>
        <time>2001-05-23T15:59:35.959</time>
      </trkpt>
      <trkpt lat="42.5204" lon="2.05841">
        <ele>1824.9181443999</ele>
        <time>2001-05-23T15:59:36.956</time>
      </trkpt>
      <trkpt lat="42.52041" lon="2.05841">
        <ele>1825.2267932137</ele>
        <time>2001-05-23T15:59:37.956</time>
      </trkpt>
      <trkpt lat="42.5204" lon="2.05838">
        <ele>1825.5516743349</ele>
        <time>2001-05-23T15:59:38.956</time>
      </trkpt>
      <trkpt lat="42.52039" lon="2.05837">
        <ele>1825.9266783733</ele>
        <time>2001-05-23T15:59:39.956</time>
      </trkpt>
      <trkpt lat="42.52039" lon="2.05837">
        <ele>1826.3821338713</ele>
        <time>2001-05-23T15:59:40.956</time>
      </trkpt>
      <trkpt lat="42.52038" lon="2.05836">
        <ele>1826.3283325171</ele>
        <time>2001-05-23T15:59:41.956</time>
      </trkpt>
      <trkpt lat="42.52037" lon="2.05834">
        <ele>1825.758572676</ele>
        <time>2001-05-23T15:59:42.956</time>
      </trkpt>
      <trkpt lat="42.52036" lon="2.05833">
        <ele>1825.1479495093</ele>
        <time>2001-05-23T15:59:43.956</time>
      </trkpt>
      <trkpt lat="42.52035" lon="2.05832">
        <ele>1824.5041133374</ele>
        <time>2001-05-23T15:59:44.956</time>
      </trkpt>
      <trkpt lat="42.52035" lon="2.05831">
        <ele>1823.9298689732</ele>
        <time>2001-05-23T15:59:45.956</time>
      </trkpt>
      <trkpt lat="42.52034" lon="2.0583">
        <ele>1823.3032403987</ele>
        <time>2001-05-23T15:59:46.956</time>
      </trkpt>
      <trkpt lat="42.52033" lon="2.05828">
        <ele>1822.7113796834</ele>
        <time>2001-05-23T15:59:47.956</time>
      </trkpt>
      <trkpt lat="42.52032" lon="2.05827">
        <ele>1822.2919964112</ele>
        <time>2001-05-23T15:59:48.956</time>
      </trkpt>
      <trkpt lat="42.52031" lon="2.05826">
        <ele>1822.0088186169</ele>
        <time>2001-05-23T15:59:49.956</time>
      </trkpt>
      <trkpt lat="42.5203" lon="2.05825">
        <ele>1821.7313987594</ele>
        <time>2001-05-23T15:59:50.956</time>
      </trkpt>
      <trkpt lat="42.52029" lon="2.05824">
        <ele>1821.7537595144</ele>
        <time>2001-05-23T15:59:51.956</time>
      </trkpt>
      <trkpt lat="42.52029" lon="2.05823">
        <ele>1822.1596947242</ele>
        <time>2001-05-23T15:59:52.956</time>
      </trkpt>
      <trkpt lat="42.52029" lon="2.05823">
        <ele>1822.5760319136</ele>
        <time>2001-05-23T15:59:53.956</time>
      </trkpt>
      <trkpt lat="42.52028" lon="2.05821">
        <ele>1822.8567000533</ele>
        <time>2001-05-23T15:59:54.956</time>
      </trkpt>
      <trkpt lat="42.52028" lon="2.0582">
        <ele>1823.0193883333</ele>
        <time>2001-05-23T15:59:55.956</time>
      </trkpt>
      <trkpt lat="42.52027" lon="2.05818">
        <ele>1822.5700819019</ele>
        <time>2001-05-23T15:59:56.956</time>
      </trkpt>
      <trkpt lat="42.52027" lon="2.05817">
        <ele>1822.1732829453</ele>
        <time>2001-05-23T15:59:57.956</time>
      </trkpt>
      <trkpt lat="42.52027" lon="2.05817">
        <ele>1822.059628916</ele>
        <time>2001-05-23T15:59:58.956</time>
      </trkpt>
      <trkpt lat="42.52026" lon="2.05816">
        <ele>1822.1968701575</ele>
        <time>2001-05-23T15:59:59.956</time>
      </trkpt>
      <trkpt lat="42.52026" lon="2.05815">
        <ele>1822.6319989914</ele>
        <time>2001-05-23T16:00:00.956</time>
      </trkpt>
      <trkpt lat="42.52027" lon="2.05812">
        <ele>1823.7253704328</ele>
        <time>2001-05-23T16:00:01.957</time>
      </trkpt>
      <trkpt lat="42.52026" lon="2.05812">
        <ele>1824.9756820498</ele>
        <time>2001-05-23T16:00:02.957</time>
      </trkpt>
      <trkpt lat="42.52026" lon="2.05809">
        <ele>1826.094895554</ele>
        <time>2001-05-23T16:00:03.957</time>
      </trkpt>
      <trkpt lat="42.52025" lon="2.05808">
        <ele>1826.8642905498</ele>
        <time>2001-05-23T16:00:04.957</time>
      </trkpt>
      <trkpt lat="42.52024" lon="2.05806">
        <ele>1826.9767485633</ele>
        <time>2001-05-23T16:00:05.957</time>
      </trkpt>
      <trkpt lat="42.52024" lon="2.05805">
        <ele>1826.4527646055</ele>
        <time>2001-05-23T16:00:06.957</time>
      </trkpt>
      <trkpt lat="42.52023" lon="2.05804">
        <ele>1825.422107604</ele>
        <time>2001-05-23T16:00:07.957</time>
      </trkpt>
      <trkpt lat="42.52023" lon="2.05803">
        <ele>1824.2324657122</ele>
        <time>2001-05-23T16:00:08.957</time>
      </trkpt>
      <trkpt lat="42.52023" lon="2.05801">
        <ele>1823.6112231074</ele>
        <time>2001-05-23T16:00:09.957</time>
      </trkpt>
      <trkpt lat="42.52023" lon="2.05801">
        <ele>1823.5966066204</ele>
        <time>2001-05-23T16:00:10.957</time>
      </trkpt>
      <trkpt lat="42.52023" lon="2.05799">
        <ele>1824.0026169509</ele>
        <time>2001-05-23T16:00:11.957</time>
      </trkpt>
      <trkpt lat="42.52023" lon="2.05798">
        <ele>1824.7903437091</ele>
        <time>2001-05-23T16:00:12.957</time>
      </trkpt>
      <trkpt lat="42.52023" lon="2.05797">
        <ele>1825.7036006698</ele>
        <time>2001-05-23T16:00:13.957</time>
      </trkpt>
      <trkpt lat="42.52023" lon="2.05796">
        <ele>1826.4599550761</ele>
        <time>2001-05-23T16:00:14.957</time>
      </trkpt>
      <trkpt lat="42.52022" lon="2.05795">
        <ele>1827.3976561176</ele>
        <time>2001-05-23T16:00:15.957</time>
      </trkpt>
      <trkpt lat="42.52021" lon="2.05794">
        <ele>1828.4487532988</ele>
        <time>2001-05-23T16:00:16.953</time>
      </trkpt>
      <trkpt lat="42.52019" lon="2.05794">
        <ele>1829.310943044</ele>
        <time>2001-05-23T16:00:17.953</time>
      </trkpt>
      <trkpt lat="42.52019" lon="2.05793">
        <ele>1830.1218739221</ele>
        <time>2001-05-23T16:00:18.953</time>
      </trkpt>
      <trkpt lat="42.52018" lon="2.05793">
        <ele>1830.9256139327</ele>
        <time>2001-05-23T16:00:19.953</time>
      </trkpt>
      <trkpt lat="42.52018" lon="2.05792">
        <ele>1831.1754808048</ele>
        <time>2001-05-23T16:00:20.953</time>
      </trkpt>
      <trkpt lat="42.52018" lon="2.05791">
        <ele>1831.0636794735</ele>
        <time>2001-05-23T16:00:21.953</time>
      </trkpt>
      <trkpt lat="42.52017" lon="2.05789">
        <ele>1830.5537044762</ele>
        <time>2001-05-23T16:00:22.950</time>
      </trkpt>
      <trkpt lat="42.52016" lon="2.05789">
        <ele>1829.9584869234</ele>
        <time>2001-05-23T16:00:23.950</time>
      </trkpt>
      <trkpt lat="42.52015" lon="2.05788">
        <ele>1829.0055567909</ele>
        <time>2001-05-23T16:00:24.950</time>
      </trkpt>
      <trkpt lat="42.52015" lon="2.05787">
        <ele>1828.3030559663</ele>
        <time>2001-05-23T16:00:25.950</time>
      </trkpt>
      <trkpt lat="42.52015" lon="2.05786">
        <ele>1827.7037047297</ele>
        <time>2001-05-23T16:00:26.950</time>
      </trkpt>
      <trkpt lat="42.52015" lon="2.05785">
        <ele>1827.5832031848</ele>
        <time>2001-05-23T16:00:27.950</time>
      </trkpt>
      <trkpt lat="42.52014" lon="2.05784">
        <ele>1827.3254880048</ele>
        <time>2001-05-23T16:00:28.950</time>
      </trkpt>
      <trkpt lat="42.52014" lon="2.05783">
        <ele>1827.4550498106</ele>
        <time>2001-05-23T16:00:29.950</time>
      </trkpt>
      <trkpt lat="42.52013" lon="2.05782">
        <ele>1827.6464172347</ele>
        <time>2001-05-23T16:00:30.950</time>
      </trkpt>
      <trkpt lat="42.52013" lon="2.05781">
        <ele>1827.9041918343</ele>
        <time>2001-05-23T16:00:31.950</time>
      </trkpt>
      <trkpt lat="42.52013" lon="2.0578">
        <ele>1828.1896388948</ele>
        <time>2001-05-23T16:00:32.950</time>
      </trkpt>
      <trkpt lat="42.52012" lon="2.05777">
        <ele>1829.0320361096</ele>
        <time>2001-05-23T16:00:33.961</time>
      </trkpt>
      <trkpt lat="42.52012" lon="2.05776">
        <ele>1829.4761589391</ele>
        <time>2001-05-23T16:00:34.961</time>
      </trkpt>
      <trkpt lat="42.52012" lon="2.05775">
        <ele>1829.7877850296</ele>
        <time>2001-05-23T16:00:35.961</time>
      </trkpt>
      <trkpt lat="42.52011" lon="2.05774">
        <ele>1830.2483246131</ele>
        <time>2001-05-23T16:00:36.961</time>
      </trkpt>
      <trkpt lat="42.5201" lon="2.05774">
        <ele>1830.870093211</ele>
        <time>2001-05-23T16:00:37.961</time>
      </trkpt>
      <trkpt lat="42.52009" lon="2.05773">
        <ele>1830.8838403301</ele>
        <time>2001-05-23T16:00:38.961</time>
      </trkpt>
      <trkpt lat="42.52009" lon="2.05773">
        <ele>1830.9338915296</ele>
        <time>2001-05-23T16:00:39.961</time>
      </trkpt>
      <trkpt lat="42.52008" lon="2.05772">
        <ele>1831.2580143433</ele>
        <time>2001-05-23T16:00:40.961</time>
      </trkpt>
      <trkpt lat="42.52007" lon="2.0577">
        <ele>1832.0901096137</ele>
        <time>2001-05-23T16:00:41.965</time>
      </trkpt>
      <trkpt lat="42.52007" lon="2.05769">
        <ele>1832.6976261493</ele>
        <time>2001-05-23T16:00:42.965</time>
      </trkpt>
      <trkpt lat="42.52007" lon="2.05768">
        <ele>1833.5133719081</ele>
        <time>2001-05-23T16:00:43.965</time>
      </trkpt>
      <trkpt lat="42.52004" lon="2.05767">
        <ele>1834.0848237671</ele>
        <time>2001-05-23T16:00:44.962</time>
      </trkpt>
      <trkpt lat="42.52003" lon="2.05766">
        <ele>1834.161445648</ele>
        <time>2001-05-23T16:00:45.962</time>
      </trkpt>
      <trkpt lat="42.52003" lon="2.05765">
        <ele>1833.8450552499</ele>
        <time>2001-05-23T16:00:46.962</time>
      </trkpt>
      <trkpt lat="42.52003" lon="2.05764">
        <ele>1833.9909157313</ele>
        <time>2001-05-23T16:00:47.962</time>
      </trkpt>
      <trkpt lat="42.52003" lon="2.05763">
        <ele>1834.2533990556</ele>
        <time>2001-05-23T16:00:48.962</time>
      </trkpt>
      <trkpt lat="42.52003" lon="2.05763">
        <ele>1834.4455567792</ele>
        <time>2001-05-23T16:00:49.962</time>
      </trkpt>
      <trkpt lat="42.52002" lon="2.05764">
        <ele>1835.3709544767</ele>
        <time>2001-05-23T16:00:50.964</time>
      </trkpt>
      <trkpt lat="42.52002" lon="2.05764">
        <ele>1836.0466189725</ele>
        <time>2001-05-23T16:00:51.964</time>
      </trkpt>
      <trkpt lat="42.52001" lon="2.05763">
        <ele>1836.1034189321</ele>
        <time>2001-05-23T16:00:52.966</time>
      </trkpt>
      <trkpt lat="42.52" lon="2.05763">
        <ele>1835.8003089117</ele>
        <time>2001-05-23T16:00:53.966</time>
      </trkpt>
      <trkpt lat="42.51999" lon="2.05763">
        <ele>1835.7956868442</ele>
        <time>2001-05-23T16:00:54.966</time>
      </trkpt>
      <trkpt lat="42.51999" lon="2.05762">
        <ele>1835.421455959</ele>
        <time>2001-05-23T16:00:55.966</time>
      </trkpt>
      <trkpt lat="42.51998" lon="2.05762">
        <ele>1835.0702468289</ele>
        <time>2001-05-23T16:00:56.966</time>
      </trkpt>
      <trkpt lat="42.51996" lon="2.0576">
        <ele>1835.2001149908</ele>
        <time>2001-05-23T16:00:57.961</time>
      </trkpt>
      <trkpt lat="42.51995" lon="2.05758">
        <ele>1835.2674624473</ele>
        <time>2001-05-23T16:00:58.961</time>
      </trkpt>
      <trkpt lat="42.51995" lon="2.05757">
        <ele>1835.3547668381</ele>
        <time>2001-05-23T16:00:59.961</time>
      </trkpt>
      <trkpt lat="42.51995" lon="2.05757">
        <ele>1835.3852089401</ele>
        <time>2001-05-23T16:01:00.961</time>
      </trkpt>
      <trkpt lat="42.51995" lon="2.05756">
        <ele>1835.3953729074</ele>
        <time>2001-05-23T16:01:01.961</time>
      </trkpt>
      <trkpt lat="42.51993" lon="2.05756">
        <ele>1834.9727422772</ele>
        <time>2001-05-23T16:01:02.962</time>
      </trkpt>
      <trkpt lat="42.51992" lon="2.05756">
        <ele>1835.004847217</ele>
        <time>2001-05-23T16:01:03.962</time>
      </trkpt>
      <trkpt lat="42.51992" lon="2.05755">
        <ele>1835.3478431582</ele>
        <time>2001-05-23T16:01:04.962</time>
      </trkpt>
      <trkpt lat="42.5199" lon="2.05754">
        <ele>1836.0059916699</ele>
        <time>2001-05-23T16:01:05.962</time>
      </trkpt>
      <trkpt lat="42.51989" lon="2.05753">
        <ele>1836.667285577</ele>
        <time>2001-05-23T16:01:06.962</time>
      </trkpt>
      <trkpt lat="42.51989" lon="2.05752">
        <ele>1837.5084465895</ele>
        <time>2001-05-23T16:01:07.962</time>
      </trkpt>
      <trkpt lat="42.51989" lon="2.05751">
        <ele>1838.4757680392</ele>
        <time>2001-05-23T16:01:08.962</time>
      </trkpt>
      <trkpt lat="42.51989" lon="2.05751">
        <ele>1839.438923887</ele>
        <time>2001-05-23T16:01:09.962</time>
      </trkpt>
      <trkpt lat="42.51987" lon="2.05748">
        <ele>1840.1276350582</ele>
        <time>2001-05-23T16:01:10.962</time>
      </trkpt>
      <trkpt lat="42.51988" lon="2.05747">
        <ele>1840.9966175549</ele>
        <time>2001-05-23T16:01:11.962</time>
      </trkpt>
      <trkpt lat="42.51988" lon="2.05746">
        <ele>1841.8233656581</ele>
        <time>2001-05-23T16:01:12.962</time>
      </trkpt>
      <trkpt lat="42.51988" lon="2.05745">
        <ele>1842.3546797004</ele>
        <time>2001-05-23T16:01:13.962</time>
      </trkpt>
      <trkpt lat="42.51987" lon="2.05744">
        <ele>1842.6227866126</ele>
        <time>2001-05-23T16:01:14.962</time>
      </trkpt>
      <trkpt lat="42.51986" lon="2.05743">
        <ele>1842.5190063264</ele>
        <time>2001-05-23T16:01:15.962</time>
      </trkpt>
      <trkpt lat="42.51985" lon="2.05742">
        <ele>1842.2393114606</ele>
        <time>2001-05-23T16:01:16.962</time>
      </trkpt>
      <trkpt lat="42.51984" lon="2.05741">
        <ele>1842.1045722265</ele>
        <time>2001-05-23T16:01:17.962</time>
      </trkpt>
      <trkpt lat="42.51983" lon="2.05741">
        <ele>1842.0715815084</ele>
        <time>2001-05-23T16:01:18.962</time>
      </trkpt>
      <trkpt lat="42.51982" lon="2.0574">
        <ele>1842.4485139422</ele>
        <time>2001-05-23T16:01:19.962</time>
      </trkpt>
      <trkpt lat="42.51981" lon="2.05739">
        <ele>1843.0307855632</ele>
        <time>2001-05-23T16:01:20.962</time>
      </trkpt>
      <trkpt lat="42.51979" lon="2.05739">
        <ele>1842.8327333381</ele>
        <time>2001-05-23T16:01:21.962</time>
      </trkpt>
      <trkpt lat="42.51977" lon="2.05738">
        <ele>1842.2905545019</ele>
        <time>2001-05-23T16:01:22.962</time>
      </trkpt>
      <trkpt lat="42.51977" lon="2.05739">
        <ele>1841.6644080376</ele>
        <time>2001-05-23T16:01:23.962</time>
      </trkpt>
      <trkpt lat="42.51976" lon="2.05739">
        <ele>1840.812939127</ele>
        <time>2001-05-23T16:01:24.962</time>
      </trkpt>
      <trkpt lat="42.51976" lon="2.05739">
        <ele>1840.142525767</ele>
        <time>2001-05-23T16:01:25.962</time>
      </trkpt>
      <trkpt lat="42.51976" lon="2.05738">
        <ele>1840.4487553179</ele>
        <time>2001-05-23T16:01:26.962</time>
      </trkpt>
      <trkpt lat="42.51975" lon="2.05736">
        <ele>1840.9175763028</ele>
        <time>2001-05-23T16:01:27.959</time>
      </trkpt>
      <trkpt lat="42.51975" lon="2.05735">
        <ele>1841.7922870884</ele>
        <time>2001-05-23T16:01:28.959</time>
      </trkpt>
      <trkpt lat="42.51976" lon="2.05731">
        <ele>1843.39701811</ele>
        <time>2001-05-23T16:01:29.958</time>
      </trkpt>
      <trkpt lat="42.51976" lon="2.0573">
        <ele>1844.6246241922</ele>
        <time>2001-05-23T16:01:30.958</time>
      </trkpt>
      <trkpt lat="42.51975" lon="2.05729">
        <ele>1845.6133358527</ele>
        <time>2001-05-23T16:01:31.958</time>
      </trkpt>
      <trkpt lat="42.51975" lon="2.05729">
        <ele>1846.6361236183</ele>
        <time>2001-05-23T16:01:32.958</time>
      </trkpt>
      <trkpt lat="42.51974" lon="2.05728">
        <ele>1847.1838332908</ele>
        <time>2001-05-23T16:01:33.958</time>
      </trkpt>
      <trkpt lat="42.51973" lon="2.05727">
        <ele>1846.5865833007</ele>
        <time>2001-05-23T16:01:34.958</time>
      </trkpt>
      <trkpt lat="42.51972" lon="2.05727">
        <ele>1846.1347498598</ele>
        <time>2001-05-23T16:01:35.958</time>
      </trkpt>
      <trkpt lat="42.51971" lon="2.05724">
        <ele>1845.6634661511</ele>
        <time>2001-05-23T16:01:36.957</time>
      </trkpt>
      <trkpt lat="42.51971" lon="2.05724">
        <ele>1845.5212014861</ele>
        <time>2001-05-23T16:01:37.957</time>
      </trkpt>
      <trkpt lat="42.51967" lon="2.05722">
        <ele>1845.2532247828</ele>
        <time>2001-05-23T16:01:38.955</time>
      </trkpt>
      <trkpt lat="42.51966" lon="2.05721">
        <ele>1845.192521028</ele>
        <time>2001-05-23T16:01:39.955</time>
      </trkpt>
      <trkpt lat="42.51965" lon="2.05719">
        <ele>1845.1668342063</ele>
        <time>2001-05-23T16:01:40.955</time>
      </trkpt>
      <trkpt lat="42.51965" lon="2.05719">
        <ele>1845.1641935857</ele>
        <time>2001-05-23T16:01:41.955</time>
      </trkpt>
      <trkpt lat="42.51965" lon="2.05718">
        <ele>1844.8606421644</ele>
        <time>2001-05-23T16:01:42.955</time>
      </trkpt>
      <trkpt lat="42.51964" lon="2.05717">
        <ele>1844.7786947036</ele>
        <time>2001-05-23T16:01:43.955</time>
      </trkpt>
      <trkpt lat="42.51964" lon="2.05716">
        <ele>1845.0067881336</ele>
        <time>2001-05-23T16:01:44.955</time>
      </trkpt>
      <trkpt lat="42.51963" lon="2.05715">
        <ele>1845.4615800284</ele>
        <time>2001-05-23T16:01:45.956</time>
      </trkpt>
      <trkpt lat="42.51963" lon="2.05715">
        <ele>1846.0485029565</ele>
        <time>2001-05-23T16:01:46.956</time>
      </trkpt>
      <trkpt lat="42.51962" lon="2.05714">
        <ele>1846.3409678347</ele>
        <time>2001-05-23T16:01:47.956</time>
      </trkpt>
      <trkpt lat="42.5196" lon="2.05712">
        <ele>1846.2529979467</ele>
        <time>2001-05-23T16:01:48.956</time>
      </trkpt>
      <trkpt lat="42.5196" lon="2.05711">
        <ele>1845.8378223423</ele>
        <time>2001-05-23T16:01:49.956</time>
      </trkpt>
      <trkpt lat="42.5196" lon="2.05711">
        <ele>1845.2962718036</ele>
        <time>2001-05-23T16:01:50.956</time>
      </trkpt>
      <trkpt lat="42.51959" lon="2.0571">
        <ele>1844.6706314808</ele>
        <time>2001-05-23T16:01:51.956</time>
      </trkpt>
      <trkpt lat="42.51959" lon="2.05709">
        <ele>1844.2618218688</ele>
        <time>2001-05-23T16:01:52.956</time>
      </trkpt>
      <trkpt lat="42.51958" lon="2.05708">
        <ele>1843.9650102403</ele>
        <time>2001-05-23T16:01:53.956</time>
      </trkpt>
      <trkpt lat="42.51958" lon="2.05707">
        <ele>1843.6025901385</ele>
        <time>2001-05-23T16:01:54.956</time>
      </trkpt>
      <trkpt lat="42.51958" lon="2.05706">
        <ele>1843.1495785145</ele>
        <time>2001-05-23T16:01:55.956</time>
      </trkpt>
      <trkpt lat="42.51958" lon="2.05704">
        <ele>1842.5492961347</ele>
        <time>2001-05-23T16:01:56.956</time>
      </trkpt>
      <trkpt lat="42.51958" lon="2.05703">
        <ele>1842.0931195609</ele>
        <time>2001-05-23T16:01:57.956</time>
      </trkpt>
      <trkpt lat="42.51958" lon="2.05702">
        <ele>1841.9974171057</ele>
        <time>2001-05-23T16:01:58.956</time>
      </trkpt>
      <trkpt lat="42.51958" lon="2.05701">
        <ele>1841.9192006929</ele>
        <time>2001-05-23T16:01:59.956</time>
      </trkpt>
      <trkpt lat="42.51957" lon="2.05701">
        <ele>1842.0176391128</ele>
        <time>2001-05-23T16:02:00.956</time>
      </trkpt>
      <trkpt lat="42.51956" lon="2.057">
        <ele>1842.3662192196</ele>
        <time>2001-05-23T16:02:01.956</time>
      </trkpt>
      <trkpt lat="42.51956" lon="2.05699">
        <ele>1842.6854101041</ele>
        <time>2001-05-23T16:02:02.956</time>
      </trkpt>
      <trkpt lat="42.51957" lon="2.05697">
        <ele>1843.042398678</ele>
        <time>2001-05-23T16:02:03.956</time>
      </trkpt>
      <trkpt lat="42.51958" lon="2.05696">
        <ele>1843.9059236608</ele>
        <time>2001-05-23T16:02:04.956</time>
      </trkpt>
      <trkpt lat="42.51958" lon="2.05695">
        <ele>1844.7541263413</ele>
        <time>2001-05-23T16:02:05.956</time>
      </trkpt>
      <trkpt lat="42.51958" lon="2.05694">
        <ele>1845.6537468657</ele>
        <time>2001-05-23T16:02:06.956</time>
      </trkpt>
      <trkpt lat="42.51958" lon="2.05694">
        <ele>1846.5780501902</ele>
        <time>2001-05-23T16:02:07.956</time>
      </trkpt>
      <trkpt lat="42.51957" lon="2.05693">
        <ele>1847.2815237772</ele>
        <time>2001-05-23T16:02:08.956</time>
      </trkpt>
      <trkpt lat="42.51956" lon="2.05692">
        <ele>1847.7120997915</ele>
        <time>2001-05-23T16:02:09.956</time>
      </trkpt>
      <trkpt lat="42.51955" lon="2.05691">
        <ele>1848.027305286</ele>
        <time>2001-05-23T16:02:10.956</time>
      </trkpt>
      <trkpt lat="42.51954" lon="2.05691">
        <ele>1847.5884994434</ele>
        <time>2001-05-23T16:02:11.956</time>
      </trkpt>
      <trkpt lat="42.51954" lon="2.0569">
        <ele>1846.6747435831</ele>
        <time>2001-05-23T16:02:12.956</time>
      </trkpt>
      <trkpt lat="42.51953" lon="2.05689">
        <ele>1845.8260408938</ele>
        <time>2001-05-23T16:02:13.956</time>
      </trkpt>
      <trkpt lat="42.51952" lon="2.05689">
        <ele>1844.7027891176</ele>
        <time>2001-05-23T16:02:14.956</time>
      </trkpt>
      <trkpt lat="42.51951" lon="2.05688">
        <ele>1843.5721913539</ele>
        <time>2001-05-23T16:02:15.956</time>
      </trkpt>
      <trkpt lat="42.5195" lon="2.05687">
        <ele>1842.9622475242</ele>
        <time>2001-05-23T16:02:16.956</time>
      </trkpt>
      <trkpt lat="42.51949" lon="2.05686">
        <ele>1842.5050243244</ele>
        <time>2001-05-23T16:02:17.956</time>
      </trkpt>
      <trkpt lat="42.51949" lon="2.05684">
        <ele>1842.4095560778</ele>
        <time>2001-05-23T16:02:18.956</time>
      </trkpt>
      <trkpt lat="42.51948" lon="2.05683">
        <ele>1842.3089267062</ele>
        <time>2001-05-23T16:02:19.956</time>
      </trkpt>
      <trkpt lat="42.51948" lon="2.05682">
        <ele>1842.3058662051</ele>
        <time>2001-05-23T16:02:20.956</time>
      </trkpt>
      <trkpt lat="42.51947" lon="2.05681">
        <ele>1842.3296461441</ele>
        <time>2001-05-23T16:02:21.956</time>
      </trkpt>
      <trkpt lat="42.51947" lon="2.05679">
        <ele>1842.6422418229</ele>
        <time>2001-05-23T16:02:22.956</time>
      </trkpt>
      <trkpt lat="42.51946" lon="2.05678">
        <ele>1842.7782308383</ele>
        <time>2001-05-23T16:02:23.956</time>
      </trkpt>
      <trkpt lat="42.51946" lon="2.05677">
        <ele>1843.1938470142</ele>
        <time>2001-05-23T16:02:24.956</time>
      </trkpt>
      <trkpt lat="42.51945" lon="2.05676">
        <ele>1843.5656470163</ele>
        <time>2001-05-23T16:02:25.956</time>
      </trkpt>
      <trkpt lat="42.51945" lon="2.05675">
        <ele>1844.0838267937</ele>
        <time>2001-05-23T16:02:26.956</time>
      </trkpt>
      <trkpt lat="42.51945" lon="2.05674">
        <ele>1844.7375361102</ele>
        <time>2001-05-23T16:02:27.956</time>
      </trkpt>
      <trkpt lat="42.51945" lon="2.05674">
        <ele>1845.2852541238</ele>
        <time>2001-05-23T16:02:28.956</time>
      </trkpt>
      <trkpt lat="42.51945" lon="2.05672">
        <ele>1845.3397180989</ele>
        <time>2001-05-23T16:02:29.958</time>
      </trkpt>
      <trkpt lat="42.51945" lon="2.0567">
        <ele>1845.4245599052</ele>
        <time>2001-05-23T16:02:30.958</time>
      </trkpt>
      <trkpt lat="42.51945" lon="2.05669">
        <ele>1845.3698781887</ele>
        <time>2001-05-23T16:02:31.958</time>
      </trkpt>
      <trkpt lat="42.51944" lon="2.05667">
        <ele>1845.0339705052</ele>
        <time>2001-05-23T16:02:32.958</time>
      </trkpt>
      <trkpt lat="42.51945" lon="2.05666">
        <ele>1844.7792384356</ele>
        <time>2001-05-23T16:02:33.958</time>
      </trkpt>
      <trkpt lat="42.51945" lon="2.05665">
        <ele>1844.9216446802</ele>
        <time>2001-05-23T16:02:34.958</time>
      </trkpt>
      <trkpt lat="42.51944" lon="2.05664">
        <ele>1844.9801807368</ele>
        <time>2001-05-23T16:02:35.958</time>
      </trkpt>
      <trkpt lat="42.51944" lon="2.05662">
        <ele>1845.2625077639</ele>
        <time>2001-05-23T16:02:36.958</time>
      </trkpt>
      <trkpt lat="42.51944" lon="2.05662">
        <ele>1845.9837305252</ele>
        <time>2001-05-23T16:02:37.958</time>
      </trkpt>
      <trkpt lat="42.51944" lon="2.05661">
        <ele>1846.6362652864</ele>
        <time>2001-05-23T16:02:38.958</time>
      </trkpt>
      <trkpt lat="42.51943" lon="2.0566">
        <ele>1847.2724419309</ele>
        <time>2001-05-23T16:02:39.958</time>
      </trkpt>
      <trkpt lat="42.51943" lon="2.05658">
        <ele>1847.5494376438</ele>
        <time>2001-05-23T16:02:40.958</time>
      </trkpt>
      <trkpt lat="42.51943" lon="2.05657">
        <ele>1847.5520371713</ele>
        <time>2001-05-23T16:02:41.958</time>
      </trkpt>
      <trkpt lat="42.51942" lon="2.05655">
        <ele>1847.0194990119</ele>
        <time>2001-05-23T16:02:42.958</time>
      </trkpt>
      <trkpt lat="42.51943" lon="2.05653">
        <ele>1846.5377825089</ele>
        <time>2001-05-23T16:02:43.958</time>
      </trkpt>
      <trkpt lat="42.51943" lon="2.05652">
        <ele>1846.2481270947</ele>
        <time>2001-05-23T16:02:44.958</time>
      </trkpt>
      <trkpt lat="42.51943" lon="2.05652">
        <ele>1846.7234105892</ele>
        <time>2001-05-23T16:02:45.958</time>
      </trkpt>
      <trkpt lat="42.51943" lon="2.05652">
        <ele>1847.3449238861</ele>
        <time>2001-05-23T16:02:46.958</time>
      </trkpt>
      <trkpt lat="42.51944" lon="2.0565">
        <ele>1848.7429161709</ele>
        <time>2001-05-23T16:02:47.958</time>
      </trkpt>
      <trkpt lat="42.51945" lon="2.05649">
        <ele>1850.2454142231</ele>
        <time>2001-05-23T16:02:48.958</time>
      </trkpt>
      <trkpt lat="42.51946" lon="2.05647">
        <ele>1851.4782923833</ele>
        <time>2001-05-23T16:02:49.958</time>
      </trkpt>
      <trkpt lat="42.51946" lon="2.05645">
        <ele>1852.3412689958</ele>
        <time>2001-05-23T16:02:50.958</time>
      </trkpt>
      <trkpt lat="42.51946" lon="2.05644">
        <ele>1853.1950773371</ele>
        <time>2001-05-23T16:02:51.958</time>
      </trkpt>
      <trkpt lat="42.51945" lon="2.05643">
        <ele>1853.5646409316</ele>
        <time>2001-05-23T16:02:52.958</time>
      </trkpt>
      <trkpt lat="42.51944" lon="2.05642">
        <ele>1853.5498614579</ele>
        <time>2001-05-23T16:02:53.958</time>
      </trkpt>
      <trkpt lat="42.51944" lon="2.05642">
        <ele>1853.6766070783</ele>
        <time>2001-05-23T16:02:54.958</time>
      </trkpt>
      <trkpt lat="42.51944" lon="2.05642">
        <ele>1853.9227148075</ele>
        <time>2001-05-23T16:02:55.958</time>
      </trkpt>
      <trkpt lat="42.51944" lon="2.05641">
        <ele>1854.2267945603</ele>
        <time>2001-05-23T16:02:56.958</time>
      </trkpt>
      <trkpt lat="42.51944" lon="2.05639">
        <ele>1854.5660363037</ele>
        <time>2001-05-23T16:02:57.958</time>
      </trkpt>
      <trkpt lat="42.51944" lon="2.05638">
        <ele>1855.0707821621</ele>
        <time>2001-05-23T16:02:58.958</time>
      </trkpt>
      <trkpt lat="42.51944" lon="2.05637">
        <ele>1855.4970970057</ele>
        <time>2001-05-23T16:02:59.958</time>
      </trkpt>
      <trkpt lat="42.51943" lon="2.05636">
        <ele>1855.7562717805</ele>
        <time>2001-05-23T16:03:00.958</time>
      </trkpt>
      <trkpt lat="42.51942" lon="2.05635">
        <ele>1855.6452728253</ele>
        <time>2001-05-23T16:03:01.958</time>
      </trkpt>
      <trkpt lat="42.51942" lon="2.05633">
        <ele>1855.2805740792</ele>
        <time>2001-05-23T16:03:02.958</time>
      </trkpt>
      <trkpt lat="42.51944" lon="2.05632">
        <ele>1855.2638860891</ele>
        <time>2001-05-23T16:03:03.958</time>
      </trkpt>
      <trkpt lat="42.51943" lon="2.05631">
        <ele>1855.2004565677</ele>
        <time>2001-05-23T16:03:04.958</time>
      </trkpt>
      <trkpt lat="42.51943" lon="2.0563">
        <ele>1855.2083550183</ele>
        <time>2001-05-23T16:03:05.958</time>
      </trkpt>
      <trkpt lat="42.51943" lon="2.05629">
        <ele>1855.4768886589</ele>
        <time>2001-05-23T16:03:06.958</time>
      </trkpt>
      <trkpt lat="42.51943" lon="2.05628">
        <ele>1855.863080439</ele>
        <time>2001-05-23T16:03:07.958</time>
      </trkpt>
      <trkpt lat="42.51943" lon="2.05626">
        <ele>1855.9736958677</ele>
        <time>2001-05-23T16:03:08.958</time>
      </trkpt>
      <trkpt lat="42.51943" lon="2.05625">
        <ele>1856.0974021601</ele>
        <time>2001-05-23T16:03:09.958</time>
      </trkpt>
      <trkpt lat="42.51942" lon="2.05624">
        <ele>1856.0675297428</ele>
        <time>2001-05-23T16:03:10.958</time>
      </trkpt>
      <trkpt lat="42.51941" lon="2.05623">
        <ele>1855.9202037569</ele>
        <time>2001-05-23T16:03:11.958</time>
      </trkpt>
      <trkpt lat="42.51941" lon="2.05622">
        <ele>1855.8685869941</ele>
        <time>2001-05-23T16:03:12.958</time>
      </trkpt>
      <trkpt lat="42.5194" lon="2.0562">
        <ele>1855.5290855082</ele>
        <time>2001-05-23T16:03:13.958</time>
      </trkpt>
      <trkpt lat="42.5194" lon="2.05619">
        <ele>1855.1498027965</ele>
        <time>2001-05-23T16:03:14.958</time>
      </trkpt>
      <trkpt lat="42.51939" lon="2.05618">
        <ele>1854.7682133513</ele>
        <time>2001-05-23T16:03:15.958</time>
      </trkpt>
      <trkpt lat="42.5194" lon="2.05617">
        <ele>1854.5941271964</ele>
        <time>2001-05-23T16:03:16.958</time>
      </trkpt>
      <trkpt lat="42.51941" lon="2.05615">
        <ele>1854.4208359132</ele>
        <time>2001-05-23T16:03:17.958</time>
      </trkpt>
      <trkpt lat="42.51941" lon="2.05614">
        <ele>1854.4806485778</ele>
        <time>2001-05-23T16:03:18.958</time>
      </trkpt>
      <trkpt lat="42.51941" lon="2.05613">
        <ele>1854.6313224047</ele>
        <time>2001-05-23T16:03:19.958</time>
      </trkpt>
      <trkpt lat="42.5194" lon="2.05612">
        <ele>1854.7883306187</ele>
        <time>2001-05-23T16:03:20.958</time>
      </trkpt>
      <trkpt lat="42.5194" lon="2.0561">
        <ele>1854.6265421372</ele>
        <time>2001-05-23T16:03:21.958</time>
      </trkpt>
      <trkpt lat="42.51939" lon="2.05608">
        <ele>1854.2358533394</ele>
        <time>2001-05-23T16:03:22.958</time>
      </trkpt>
      <trkpt lat="42.51939" lon="2.05607">
        <ele>1853.931102623</ele>
        <time>2001-05-23T16:03:23.958</time>
      </trkpt>
      <trkpt lat="42.51939" lon="2.05606">
        <ele>1853.7237719093</ele>
        <time>2001-05-23T16:03:24.958</time>
      </trkpt>
      <trkpt lat="42.51939" lon="2.05605">
        <ele>1853.6839254761</ele>
        <time>2001-05-23T16:03:25.958</time>
      </trkpt>
      <trkpt lat="42.51939" lon="2.05604">
        <ele>1853.9843478184</ele>
        <time>2001-05-23T16:03:26.958</time>
      </trkpt>
      <trkpt lat="42.51937" lon="2.05604">
        <ele>1854.635371132</ele>
        <time>2001-05-23T16:03:27.958</time>
      </trkpt>
      <trkpt lat="42.51937" lon="2.05602">
        <ele>1855.1201495713</ele>
        <time>2001-05-23T16:03:28.958</time>
      </trkpt>
      <trkpt lat="42.51937" lon="2.05602">
        <ele>1855.5759259503</ele>
        <time>2001-05-23T16:03:29.958</time>
      </trkpt>
      <trkpt lat="42.51936" lon="2.056">
        <ele>1856.2121948216</ele>
        <time>2001-05-23T16:03:30.958</time>
      </trkpt>
      <trkpt lat="42.51936" lon="2.05599">
        <ele>1856.8313446483</ele>
        <time>2001-05-23T16:03:31.958</time>
      </trkpt>
      <trkpt lat="42.51935" lon="2.05598">
        <ele>1857.1955306232</ele>
        <time>2001-05-23T16:03:32.958</time>
      </trkpt>
      <trkpt lat="42.51934" lon="2.05597">
        <ele>1857.6471053088</ele>
        <time>2001-05-23T16:03:33.958</time>
      </trkpt>
      <trkpt lat="42.51936" lon="2.05596">
        <ele>1858.4319009179</ele>
        <time>2001-05-23T16:03:34.958</time>
      </trkpt>
      <trkpt lat="42.51936" lon="2.05595">
        <ele>1859.1566491803</ele>
        <time>2001-05-23T16:03:35.958</time>
      </trkpt>
      <trkpt lat="42.51935" lon="2.05594">
        <ele>1859.8816613996</ele>
        <time>2001-05-23T16:03:36.958</time>
      </trkpt>
      <trkpt lat="42.51935" lon="2.05592">
        <ele>1860.7062927045</ele>
        <time>2001-05-23T16:03:37.958</time>
      </trkpt>
      <trkpt lat="42.51935" lon="2.05591">
        <ele>1861.4597459115</ele>
        <time>2001-05-23T16:03:38.958</time>
      </trkpt>
      <trkpt lat="42.51935" lon="2.0559">
        <ele>1861.7974497376</ele>
        <time>2001-05-23T16:03:39.958</time>
      </trkpt>
      <trkpt lat="42.51934" lon="2.05588">
        <ele>1861.9969606055</ele>
        <time>2001-05-23T16:03:40.958</time>
      </trkpt>
      <trkpt lat="42.51934" lon="2.05587">
        <ele>1862.2127529195</ele>
        <time>2001-05-23T16:03:41.958</time>
      </trkpt>
      <trkpt lat="42.51933" lon="2.05586">
        <ele>1862.3934249705</ele>
        <time>2001-05-23T16:03:42.958</time>
      </trkpt>
      <trkpt lat="42.51933" lon="2.05585">
        <ele>1862.5569303835</ele>
        <time>2001-05-23T16:03:43.958</time>
      </trkpt>
      <trkpt lat="42.51933" lon="2.05583">
        <ele>1862.7785743063</ele>
        <time>2001-05-23T16:03:44.958</time>
      </trkpt>
      <trkpt lat="42.51932" lon="2.05582">
        <ele>1862.6649355205</ele>
        <time>2001-05-23T16:03:45.958</time>
      </trkpt>
      <trkpt lat="42.51931" lon="2.05582">
        <ele>1862.3210191069</ele>
        <time>2001-05-23T16:03:46.958</time>
      </trkpt>
      <trkpt lat="42.51931" lon="2.05581">
        <ele>1861.9391555747</ele>
        <time>2001-05-23T16:03:47.958</time>
      </trkpt>
      <trkpt lat="42.51931" lon="2.05579">
        <ele>1861.4648417423</ele>
        <time>2001-05-23T16:03:48.958</time>
      </trkpt>
      <trkpt lat="42.51931" lon="2.05579">
        <ele>1860.9583435385</ele>
        <time>2001-05-23T16:03:49.958</time>
      </trkpt>
      <trkpt lat="42.5193" lon="2.05577">
        <ele>1860.598927216</ele>
        <time>2001-05-23T16:03:50.959</time>
      </trkpt>
      <trkpt lat="42.51928" lon="2.05575">
        <ele>1860.1717249984</ele>
        <time>2001-05-23T16:03:51.959</time>
      </trkpt>
      <trkpt lat="42.51927" lon="2.05574">
        <ele>1859.9676407764</ele>
        <time>2001-05-23T16:03:52.959</time>
      </trkpt>
      <trkpt lat="42.51927" lon="2.05573">
        <ele>1860.0463948283</ele>
        <time>2001-05-23T16:03:53.959</time>
      </trkpt>
      <trkpt lat="42.51926" lon="2.05572">
        <ele>1860.2342310041</ele>
        <time>2001-05-23T16:03:54.959</time>
      </trkpt>
      <trkpt lat="42.51925" lon="2.05571">
        <ele>1860.6923209228</ele>
        <time>2001-05-23T16:03:55.959</time>
      </trkpt>
      <trkpt lat="42.51924" lon="2.05569">
        <ele>1861.2979661448</ele>
        <time>2001-05-23T16:03:56.959</time>
      </trkpt>
      <trkpt lat="42.51924" lon="2.05569">
        <ele>1861.8092316419</ele>
        <time>2001-05-23T16:03:57.959</time>
      </trkpt>
      <trkpt lat="42.51923" lon="2.05569">
        <ele>1862.1242298003</ele>
        <time>2001-05-23T16:03:58.959</time>
      </trkpt>
      <trkpt lat="42.51923" lon="2.05569">
        <ele>1862.3594644001</ele>
        <time>2001-05-23T16:03:59.959</time>
      </trkpt>
      <trkpt lat="42.51922" lon="2.05567">
        <ele>1862.5970719075</ele>
        <time>2001-05-23T16:04:00.959</time>
      </trkpt>
      <trkpt lat="42.5192" lon="2.05565">
        <ele>1862.9348760391</ele>
        <time>2001-05-23T16:04:01.959</time>
      </trkpt>
      <trkpt lat="42.5192" lon="2.05564">
        <ele>1863.0546551947</ele>
        <time>2001-05-23T16:04:02.959</time>
      </trkpt>
      <trkpt lat="42.51919" lon="2.05564">
        <ele>1863.035563791</ele>
        <time>2001-05-23T16:04:03.959</time>
      </trkpt>
      <trkpt lat="42.51918" lon="2.05564">
        <ele>1862.7889008768</ele>
        <time>2001-05-23T16:04:04.959</time>
      </trkpt>
      <trkpt lat="42.51919" lon="2.05563">
        <ele>1862.4869636232</ele>
        <time>2001-05-23T16:04:05.959</time>
      </trkpt>
      <trkpt lat="42.51919" lon="2.05563">
        <ele>1862.3223881511</ele>
        <time>2001-05-23T16:04:06.959</time>
      </trkpt>
      <trkpt lat="42.5192" lon="2.05562">
        <ele>1862.5024367759</ele>
        <time>2001-05-23T16:04:07.959</time>
      </trkpt>
      <trkpt lat="42.51921" lon="2.05561">
        <ele>1862.8103292847</ele>
        <time>2001-05-23T16:04:08.959</time>
      </trkpt>
      <trkpt lat="42.51921" lon="2.05561">
        <ele>1863.2685949389</ele>
        <time>2001-05-23T16:04:09.959</time>
      </trkpt>
      <trkpt lat="42.5192" lon="2.05561">
        <ele>1863.6056985632</ele>
        <time>2001-05-23T16:04:10.960</time>
      </trkpt>
      <trkpt lat="42.51919" lon="2.05561">
        <ele>1863.9582154369</ele>
        <time>2001-05-23T16:04:11.960</time>
      </trkpt>
      <trkpt lat="42.51918" lon="2.05561">
        <ele>1864.2721937299</ele>
        <time>2001-05-23T16:04:12.960</time>
      </trkpt>
      <trkpt lat="42.51918" lon="2.0556">
        <ele>1864.7003888031</ele>
        <time>2001-05-23T16:04:13.960</time>
      </trkpt>
      <trkpt lat="42.51917" lon="2.0556">
        <ele>1864.9690825703</ele>
        <time>2001-05-23T16:04:14.956</time>
      </trkpt>
      <trkpt lat="42.51916" lon="2.0556">
        <ele>1865.408886732</ele>
        <time>2001-05-23T16:04:15.956</time>
      </trkpt>
      <trkpt lat="42.51914" lon="2.0556">
        <ele>1865.4831707245</ele>
        <time>2001-05-23T16:04:16.957</time>
      </trkpt>
      <trkpt lat="42.51911" lon="2.05562">
        <ele>1865.2541358871</ele>
        <time>2001-05-23T16:04:17.957</time>
      </trkpt>
      <trkpt lat="42.51907" lon="2.05562">
        <ele>1864.624885753</ele>
        <time>2001-05-23T16:04:18.957</time>
      </trkpt>
      <trkpt lat="42.51905" lon="2.05562">
        <ele>1863.9837992875</ele>
        <time>2001-05-23T16:04:19.957</time>
      </trkpt>
      <trkpt lat="42.51903" lon="2.05562">
        <ele>1863.2805114998</ele>
        <time>2001-05-23T16:04:20.957</time>
      </trkpt>
      <trkpt lat="42.51901" lon="2.05563">
        <ele>1862.6655737652</ele>
        <time>2001-05-23T16:04:21.957</time>
      </trkpt>
      <trkpt lat="42.519" lon="2.05563">
        <ele>1862.2553502221</ele>
        <time>2001-05-23T16:04:22.957</time>
      </trkpt>
      <trkpt lat="42.51899" lon="2.05563">
        <ele>1862.2452574693</ele>
        <time>2001-05-23T16:04:23.957</time>
      </trkpt>
      <trkpt lat="42.51898" lon="2.05563">
        <ele>1862.4729402682</ele>
        <time>2001-05-23T16:04:24.957</time>
      </trkpt>
      <trkpt lat="42.51896" lon="2.05564">
        <ele>1862.6722309344</ele>
        <time>2001-05-23T16:04:25.957</time>
      </trkpt>
      <trkpt lat="42.51895" lon="2.05565">
        <ele>1863.1108772818</ele>
        <time>2001-05-23T16:04:26.957</time>
      </trkpt>
      <trkpt lat="42.51895" lon="2.05565">
        <ele>1863.3806765547</ele>
        <time>2001-05-23T16:04:27.957</time>
      </trkpt>
      <trkpt lat="42.51893" lon="2.05565">
        <ele>1863.5182441058</ele>
        <time>2001-05-23T16:04:28.957</time>
      </trkpt>
      <trkpt lat="42.51892" lon="2.05566">
        <ele>1863.6983975401</ele>
        <time>2001-05-23T16:04:29.957</time>
      </trkpt>
      <trkpt lat="42.51892" lon="2.05566">
        <ele>1863.8428936172</ele>
        <time>2001-05-23T16:04:30.957</time>
      </trkpt>
      <trkpt lat="42.51891" lon="2.05567">
        <ele>1863.5844373398</ele>
        <time>2001-05-23T16:04:31.957</time>
      </trkpt>
      <trkpt lat="42.51889" lon="2.05568">
        <ele>1863.2077844869</ele>
        <time>2001-05-23T16:04:32.957</time>
      </trkpt>
      <trkpt lat="42.51889" lon="2.05569">
        <ele>1862.8269722534</ele>
        <time>2001-05-23T16:04:33.957</time>
      </trkpt>
      <trkpt lat="42.51888" lon="2.05569">
        <ele>1862.1996869883</ele>
        <time>2001-05-23T16:04:34.957</time>
      </trkpt>
      <trkpt lat="42.51887" lon="2.05569">
        <ele>1861.7536887817</ele>
        <time>2001-05-23T16:04:35.957</time>
      </trkpt>
      <trkpt lat="42.51886" lon="2.0557">
        <ele>1861.6494843282</ele>
        <time>2001-05-23T16:04:36.957</time>
      </trkpt>
      <trkpt lat="42.51885" lon="2.0557">
        <ele>1861.9492703898</ele>
        <time>2001-05-23T16:04:37.957</time>
      </trkpt>
      <trkpt lat="42.51885" lon="2.0557">
        <ele>1862.6741494766</ele>
        <time>2001-05-23T16:04:38.957</time>
      </trkpt>
      <trkpt lat="42.51884" lon="2.05571">
        <ele>1863.3786807496</ele>
        <time>2001-05-23T16:04:39.957</time>
      </trkpt>
      <trkpt lat="42.51884" lon="2.05572">
        <ele>1863.9252152689</ele>
        <time>2001-05-23T16:04:40.957</time>
      </trkpt>
      <trkpt lat="42.51882" lon="2.05573">
        <ele>1863.7620154008</ele>
        <time>2001-05-23T16:04:41.957</time>
      </trkpt>
      <trkpt lat="42.5188" lon="2.05573">
        <ele>1863.3928286668</ele>
        <time>2001-05-23T16:04:42.957</time>
      </trkpt>
      <trkpt lat="42.51879" lon="2.05573">
        <ele>1862.6055745292</ele>
        <time>2001-05-23T16:04:43.957</time>
      </trkpt>
      <trkpt lat="42.51878" lon="2.05573">
        <ele>1862.1022466773</ele>
        <time>2001-05-23T16:04:44.957</time>
      </trkpt>
      <trkpt lat="42.51878" lon="2.05573">
        <ele>1861.8479445368</ele>
        <time>2001-05-23T16:04:45.957</time>
      </trkpt>
      <trkpt lat="42.51877" lon="2.05573">
        <ele>1862.3820795011</ele>
        <time>2001-05-23T16:04:46.957</time>
      </trkpt>
      <trkpt lat="42.51876" lon="2.05573">
        <ele>1862.9422663374</ele>
        <time>2001-05-23T16:04:47.957</time>
      </trkpt>
      <trkpt lat="42.51875" lon="2.05574">
        <ele>1863.5261646686</ele>
        <time>2001-05-23T16:04:48.957</time>
      </trkpt>
      <trkpt lat="42.51875" lon="2.05575">
        <ele>1864.0306741768</ele>
        <time>2001-05-23T16:04:49.957</time>
      </trkpt>
      <trkpt lat="42.51873" lon="2.05575">
        <ele>1864.2058203157</ele>
        <time>2001-05-23T16:04:50.957</time>
      </trkpt>
      <trkpt lat="42.51872" lon="2.05576">
        <ele>1863.6882214081</ele>
        <time>2001-05-23T16:04:51.957</time>
      </trkpt>
      <trkpt lat="42.51871" lon="2.05577">
        <ele>1862.7959219426</ele>
        <time>2001-05-23T16:04:52.957</time>
      </trkpt>
      <trkpt lat="42.5187" lon="2.05578">
        <ele>1861.8636547321</ele>
        <time>2001-05-23T16:04:53.957</time>
      </trkpt>
      <trkpt lat="42.51869" lon="2.05578">
        <ele>1860.9934335243</ele>
        <time>2001-05-23T16:04:54.957</time>
      </trkpt>
      <trkpt lat="42.51869" lon="2.05579">
        <ele>1860.6229056021</ele>
        <time>2001-05-23T16:04:55.957</time>
      </trkpt>
      <trkpt lat="42.51868" lon="2.0558">
        <ele>1861.1730426488</ele>
        <time>2001-05-23T16:04:56.957</time>
      </trkpt>
      <trkpt lat="42.51867" lon="2.05581">
        <ele>1862.3061601406</ele>
        <time>2001-05-23T16:04:57.957</time>
      </trkpt>
      <trkpt lat="42.51866" lon="2.05581">
        <ele>1863.6506820204</ele>
        <time>2001-05-23T16:04:58.957</time>
      </trkpt>
      <trkpt lat="42.51866" lon="2.05582">
        <ele>1865.0180667508</ele>
        <time>2001-05-23T16:04:59.957</time>
      </trkpt>
      <trkpt lat="42.51864" lon="2.05582">
        <ele>1865.8445893347</ele>
        <time>2001-05-23T16:05:00.957</time>
      </trkpt>
      <trkpt lat="42.51863" lon="2.05582">
        <ele>1866.1427636312</ele>
        <time>2001-05-23T16:05:01.957</time>
      </trkpt>
      <trkpt lat="42.51862" lon="2.05583">
        <ele>1866.0140257636</ele>
        <time>2001-05-23T16:05:02.957</time>
      </trkpt>
      <trkpt lat="42.51861" lon="2.05584">
        <ele>1865.6264210302</ele>
        <time>2001-05-23T16:05:03.957</time>
      </trkpt>
      <trkpt lat="42.5186" lon="2.05584">
        <ele>1864.4297692129</ele>
        <time>2001-05-23T16:05:04.957</time>
      </trkpt>
      <trkpt lat="42.51859" lon="2.05584">
        <ele>1863.2338078212</ele>
        <time>2001-05-23T16:05:05.957</time>
      </trkpt>
      <trkpt lat="42.51859" lon="2.05585">
        <ele>1862.1030019626</ele>
        <time>2001-05-23T16:05:06.957</time>
      </trkpt>
      <trkpt lat="42.51858" lon="2.05585">
        <ele>1861.1850681592</ele>
        <time>2001-05-23T16:05:07.957</time>
      </trkpt>
      <trkpt lat="42.51857" lon="2.05585">
        <ele>1860.471686459</ele>
        <time>2001-05-23T16:05:08.957</time>
      </trkpt>
      <trkpt lat="42.51855" lon="2.05585">
        <ele>1860.2682564884</ele>
        <time>2001-05-23T16:05:09.954</time>
      </trkpt>
      <trkpt lat="42.51854" lon="2.05585">
        <ele>1860.0815506646</ele>
        <time>2001-05-23T16:05:10.954</time>
      </trkpt>
      <trkpt lat="42.51853" lon="2.05585">
        <ele>1860.1703710683</ele>
        <time>2001-05-23T16:05:11.954</time>
      </trkpt>
      <trkpt lat="42.51852" lon="2.05585">
        <ele>1860.184769246</ele>
        <time>2001-05-23T16:05:12.954</time>
      </trkpt>
      <trkpt lat="42.51852" lon="2.05585">
        <ele>1860.1351816684</ele>
        <time>2001-05-23T16:05:13.954</time>
      </trkpt>
      <trkpt lat="42.51851" lon="2.05586">
        <ele>1860.078245458</ele>
        <time>2001-05-23T16:05:14.954</time>
      </trkpt>
      <trkpt lat="42.5185" lon="2.05586">
        <ele>1860.2757076511</ele>
        <time>2001-05-23T16:05:15.953</time>
      </trkpt>
      <trkpt lat="42.51848" lon="2.05587">
        <ele>1859.8470338574</ele>
        <time>2001-05-23T16:05:16.953</time>
      </trkpt>
      <trkpt lat="42.51847" lon="2.05587">
        <ele>1859.3406725308</ele>
        <time>2001-05-23T16:05:17.953</time>
      </trkpt>
      <trkpt lat="42.51845" lon="2.05588">
        <ele>1858.7580186792</ele>
        <time>2001-05-23T16:05:18.953</time>
      </trkpt>
      <trkpt lat="42.51845" lon="2.05588">
        <ele>1858.4753763927</ele>
        <time>2001-05-23T16:05:19.953</time>
      </trkpt>
      <trkpt lat="42.51845" lon="2.05588">
        <ele>1858.1099880127</ele>
        <time>2001-05-23T16:05:20.953</time>
      </trkpt>
      <trkpt lat="42.51844" lon="2.05588">
        <ele>1858.0531187329</ele>
        <time>2001-05-23T16:05:21.953</time>
      </trkpt>
      <trkpt lat="42.51843" lon="2.05589">
        <ele>1858.3382155787</ele>
        <time>2001-05-23T16:05:22.953</time>
      </trkpt>
      <trkpt lat="42.51842" lon="2.0559">
        <ele>1858.6767135244</ele>
        <time>2001-05-23T16:05:23.953</time>
      </trkpt>
      <trkpt lat="42.51842" lon="2.0559">
        <ele>1858.911994252</ele>
        <time>2001-05-23T16:05:24.953</time>
      </trkpt>
      <trkpt lat="42.5184" lon="2.0559">
        <ele>1859.0378091874</ele>
        <time>2001-05-23T16:05:25.953</time>
      </trkpt>
      <trkpt lat="42.51839" lon="2.05591">
        <ele>1859.1287834046</ele>
        <time>2001-05-23T16:05:26.953</time>
      </trkpt>
      <trkpt lat="42.51838" lon="2.05591">
        <ele>1859.0185392618</ele>
        <time>2001-05-23T16:05:27.953</time>
      </trkpt>
      <trkpt lat="42.51838" lon="2.05592">
        <ele>1859.0772397202</ele>
        <time>2001-05-23T16:05:28.953</time>
      </trkpt>
      <trkpt lat="42.51837" lon="2.05592">
        <ele>1859.2825637706</ele>
        <time>2001-05-23T16:05:29.953</time>
      </trkpt>
      <trkpt lat="42.51836" lon="2.05592">
        <ele>1859.803380348</ele>
        <time>2001-05-23T16:05:30.953</time>
      </trkpt>
      <trkpt lat="42.51836" lon="2.05593">
        <ele>1861.0772377528</ele>
        <time>2001-05-23T16:05:31.953</time>
      </trkpt>
      <trkpt lat="42.51835" lon="2.05594">
        <ele>1862.830157149</ele>
        <time>2001-05-23T16:05:32.955</time>
      </trkpt>
      <trkpt lat="42.51833" lon="2.05594">
        <ele>1864.5815229755</ele>
        <time>2001-05-23T16:05:33.955</time>
      </trkpt>
      <trkpt lat="42.51831" lon="2.05594">
        <ele>1866.0842580521</ele>
        <time>2001-05-23T16:05:34.955</time>
      </trkpt>
      <trkpt lat="42.5183" lon="2.05594">
        <ele>1867.3937108915</ele>
        <time>2001-05-23T16:05:35.955</time>
      </trkpt>
      <trkpt lat="42.5183" lon="2.05594">
        <ele>1868.0764557611</ele>
        <time>2001-05-23T16:05:36.955</time>
      </trkpt>
      <trkpt lat="42.51828" lon="2.05595">
        <ele>1867.8703846652</ele>
        <time>2001-05-23T16:05:37.955</time>
      </trkpt>
      <trkpt lat="42.51827" lon="2.05595">
        <ele>1867.307238346</ele>
        <time>2001-05-23T16:05:38.955</time>
      </trkpt>
      <trkpt lat="42.51826" lon="2.05596">
        <ele>1866.8489200074</ele>
        <time>2001-05-23T16:05:39.955</time>
      </trkpt>
      <trkpt lat="42.51825" lon="2.05596">
        <ele>1866.6094108164</ele>
        <time>2001-05-23T16:05:40.955</time>
      </trkpt>
      <trkpt lat="42.51823" lon="2.05596">
        <ele>1866.4469631832</ele>
        <time>2001-05-23T16:05:41.955</time>
      </trkpt>
      <trkpt lat="42.51823" lon="2.05596">
        <ele>1866.7183756527</ele>
        <time>2001-05-23T16:05:42.955</time>
      </trkpt>
      <trkpt lat="42.51822" lon="2.05596">
        <ele>1867.1930768056</ele>
        <time>2001-05-23T16:05:43.955</time>
      </trkpt>
      <trkpt lat="42.51821" lon="2.05596">
        <ele>1867.5618239624</ele>
        <time>2001-05-23T16:05:44.955</time>
      </trkpt>
      <trkpt lat="42.5182" lon="2.05596">
        <ele>1867.605239768</ele>
        <time>2001-05-23T16:05:45.955</time>
      </trkpt>
      <trkpt lat="42.51818" lon="2.05596">
        <ele>1867.4413172847</ele>
        <time>2001-05-23T16:05:46.955</time>
      </trkpt>
      <trkpt lat="42.51818" lon="2.05595">
        <ele>1867.2700741509</ele>
        <time>2001-05-23T16:05:47.955</time>
      </trkpt>
      <trkpt lat="42.51817" lon="2.05595">
        <ele>1867.0863804834</ele>
        <time>2001-05-23T16:05:48.955</time>
      </trkpt>
      <trkpt lat="42.51816" lon="2.05595">
        <ele>1867.0453578701</ele>
        <time>2001-05-23T16:05:49.955</time>
      </trkpt>
      <trkpt lat="42.51815" lon="2.05595">
        <ele>1867.0321285479</ele>
        <time>2001-05-23T16:05:50.955</time>
      </trkpt>
      <trkpt lat="42.51814" lon="2.05594">
        <ele>1867.0117188442</ele>
        <time>2001-05-23T16:05:51.955</time>
      </trkpt>
      <trkpt lat="42.51813" lon="2.05594">
        <ele>1866.7772100382</ele>
        <time>2001-05-23T16:05:52.955</time>
      </trkpt>
      <trkpt lat="42.51813" lon="2.05594">
        <ele>1866.4370569406</ele>
        <time>2001-05-23T16:05:53.955</time>
      </trkpt>
      <trkpt lat="42.51812" lon="2.05594">
        <ele>1865.980133315</ele>
        <time>2001-05-23T16:05:54.955</time>
      </trkpt>
      <trkpt lat="42.5181" lon="2.05595">
        <ele>1865.3174791662</ele>
        <time>2001-05-23T16:05:55.955</time>
      </trkpt>
      <trkpt lat="42.51809" lon="2.05595">
        <ele>1864.6655481417</ele>
        <time>2001-05-23T16:05:56.955</time>
      </trkpt>
      <trkpt lat="42.51809" lon="2.05595">
        <ele>1864.2184421087</ele>
        <time>2001-05-23T16:05:57.955</time>
      </trkpt>
      <trkpt lat="42.51807" lon="2.05595">
        <ele>1864.0136248402</ele>
        <time>2001-05-23T16:05:58.955</time>
      </trkpt>
      <trkpt lat="42.51805" lon="2.05594">
        <ele>1864.0888135567</ele>
        <time>2001-05-23T16:05:59.955</time>
      </trkpt>
      <trkpt lat="42.51803" lon="2.05592">
        <ele>1864.4885222301</ele>
        <time>2001-05-23T16:06:00.955</time>
      </trkpt>
      <trkpt lat="42.51801" lon="2.05592">
        <ele>1864.9995376658</ele>
        <time>2001-05-23T16:06:01.955</time>
      </trkpt>
      <trkpt lat="42.518" lon="2.05592">
        <ele>1865.4549927285</ele>
        <time>2001-05-23T16:06:02.955</time>
      </trkpt>
      <trkpt lat="42.518" lon="2.05592">
        <ele>1865.7664661538</ele>
        <time>2001-05-23T16:06:03.955</time>
      </trkpt>
      <trkpt lat="42.518" lon="2.05592">
        <ele>1866.0738997715</ele>
        <time>2001-05-23T16:06:04.955</time>
      </trkpt>
      <trkpt lat="42.51799" lon="2.05593">
        <ele>1866.3613442639</ele>
        <time>2001-05-23T16:06:05.955</time>
      </trkpt>
      <trkpt lat="42.51797" lon="2.05592">
        <ele>1867.0092711678</ele>
        <time>2001-05-23T16:06:06.955</time>
      </trkpt>
      <trkpt lat="42.51796" lon="2.05593">
        <ele>1867.6384065691</ele>
        <time>2001-05-23T16:06:07.955</time>
      </trkpt>
      <trkpt lat="42.51795" lon="2.05594">
        <ele>1868.2404482605</ele>
        <time>2001-05-23T16:06:08.956</time>
      </trkpt>
      <trkpt lat="42.51794" lon="2.05595">
        <ele>1868.4023562873</ele>
        <time>2001-05-23T16:06:09.956</time>
      </trkpt>
      <trkpt lat="42.51794" lon="2.05595">
        <ele>1868.3248443503</ele>
        <time>2001-05-23T16:06:10.956</time>
      </trkpt>
      <trkpt lat="42.51793" lon="2.05595">
        <ele>1867.7746786468</ele>
        <time>2001-05-23T16:06:11.956</time>
      </trkpt>
      <trkpt lat="42.51792" lon="2.05595">
        <ele>1867.502613299</ele>
        <time>2001-05-23T16:06:12.956</time>
      </trkpt>
      <trkpt lat="42.51791" lon="2.05595">
        <ele>1867.2295177436</ele>
        <time>2001-05-23T16:06:13.956</time>
      </trkpt>
      <trkpt lat="42.5179" lon="2.05595">
        <ele>1867.2767085861</ele>
        <time>2001-05-23T16:06:14.956</time>
      </trkpt>
      <trkpt lat="42.5179" lon="2.05596">
        <ele>1867.3267410137</ele>
        <time>2001-05-23T16:06:15.956</time>
      </trkpt>
      <trkpt lat="42.5179" lon="2.05596">
        <ele>1867.4996597188</ele>
        <time>2001-05-23T16:06:16.956</time>
      </trkpt>
      <trkpt lat="42.51789" lon="2.05597">
        <ele>1867.3264930146</ele>
        <time>2001-05-23T16:06:17.956</time>
      </trkpt>
      <trkpt lat="42.51787" lon="2.05598">
        <ele>1867.235516773</ele>
        <time>2001-05-23T16:06:18.955</time>
      </trkpt>
      <trkpt lat="42.51786" lon="2.05598">
        <ele>1867.182138923</ele>
        <time>2001-05-23T16:06:19.955</time>
      </trkpt>
      <trkpt lat="42.51785" lon="2.05598">
        <ele>1867.1152018085</ele>
        <time>2001-05-23T16:06:20.957</time>
      </trkpt>
      <trkpt lat="42.51784" lon="2.05599">
        <ele>1867.1470041972</ele>
        <time>2001-05-23T16:06:21.957</time>
      </trkpt>
      <trkpt lat="42.51782" lon="2.05599">
        <ele>1867.3473537132</ele>
        <time>2001-05-23T16:06:22.953</time>
      </trkpt>
      <trkpt lat="42.51781" lon="2.05599">
        <ele>1867.3035464752</ele>
        <time>2001-05-23T16:06:23.953</time>
      </trkpt>
      <trkpt lat="42.5178" lon="2.05599">
        <ele>1867.1242858786</ele>
        <time>2001-05-23T16:06:24.953</time>
      </trkpt>
      <trkpt lat="42.51778" lon="2.056">
        <ele>1867.2097436734</ele>
        <time>2001-05-23T16:06:25.953</time>
      </trkpt>
      <trkpt lat="42.51778" lon="2.05601">
        <ele>1867.1360990256</ele>
        <time>2001-05-23T16:06:26.953</time>
      </trkpt>
      <trkpt lat="42.51776" lon="2.056">
        <ele>1866.7799374687</ele>
        <time>2001-05-23T16:06:27.953</time>
      </trkpt>
      <trkpt lat="42.51774" lon="2.056">
        <ele>1866.8504563253</ele>
        <time>2001-05-23T16:06:28.953</time>
      </trkpt>
      <trkpt lat="42.51773" lon="2.05601">
        <ele>1866.6908115692</ele>
        <time>2001-05-23T16:06:29.953</time>
      </trkpt>
      <trkpt lat="42.51772" lon="2.05601">
        <ele>1866.4439217258</ele>
        <time>2001-05-23T16:06:30.953</time>
      </trkpt>
      <trkpt lat="42.51772" lon="2.05602">
        <ele>1866.3285304748</ele>
        <time>2001-05-23T16:06:31.953</time>
      </trkpt>
      <trkpt lat="42.51771" lon="2.05602">
        <ele>1866.8114351425</ele>
        <time>2001-05-23T16:06:32.953</time>
      </trkpt>
      <trkpt lat="42.51769" lon="2.05602">
        <ele>1867.0918072814</ele>
        <time>2001-05-23T16:06:33.953</time>
      </trkpt>
      <trkpt lat="42.51768" lon="2.05602">
        <ele>1867.6088584283</ele>
        <time>2001-05-23T16:06:34.953</time>
      </trkpt>
      <trkpt lat="42.51767" lon="2.05602">
        <ele>1868.3701935504</ele>
        <time>2001-05-23T16:06:35.953</time>
      </trkpt>
      <trkpt lat="42.51766" lon="2.05602">
        <ele>1869.0717823818</ele>
        <time>2001-05-23T16:06:36.953</time>
      </trkpt>
      <trkpt lat="42.51766" lon="2.05602">
        <ele>1869.4043721685</ele>
        <time>2001-05-23T16:06:37.953</time>
      </trkpt>
      <trkpt lat="42.51764" lon="2.05602">
        <ele>1869.617163874</ele>
        <time>2001-05-23T16:06:38.953</time>
      </trkpt>
      <trkpt lat="42.51763" lon="2.05602">
        <ele>1869.7411537597</ele>
        <time>2001-05-23T16:06:39.953</time>
      </trkpt>
      <trkpt lat="42.51761" lon="2.05602">
        <ele>1869.5531799339</ele>
        <time>2001-05-23T16:06:40.953</time>
      </trkpt>
      <trkpt lat="42.51761" lon="2.05602">
        <ele>1869.3129435202</ele>
        <time>2001-05-23T16:06:41.953</time>
      </trkpt>
      <trkpt lat="42.5176" lon="2.05602">
        <ele>1868.9808437491</ele>
        <time>2001-05-23T16:06:42.953</time>
      </trkpt>
      <trkpt lat="42.51759" lon="2.05603">
        <ele>1868.5827377232</ele>
        <time>2001-05-23T16:06:43.953</time>
      </trkpt>
      <trkpt lat="42.51758" lon="2.05604">
        <ele>1868.0878805885</ele>
        <time>2001-05-23T16:06:44.953</time>
      </trkpt>
      <trkpt lat="42.51757" lon="2.05604">
        <ele>1867.736888966</ele>
        <time>2001-05-23T16:06:45.953</time>
      </trkpt>
      <trkpt lat="42.51756" lon="2.05604">
        <ele>1867.7095977293</ele>
        <time>2001-05-23T16:06:46.953</time>
      </trkpt>
      <trkpt lat="42.51755" lon="2.05603">
        <ele>1867.8610437527</ele>
        <time>2001-05-23T16:06:47.953</time>
      </trkpt>
      <trkpt lat="42.51754" lon="2.05603">
        <ele>1868.2329442326</ele>
        <time>2001-05-23T16:06:48.953</time>
      </trkpt>
      <trkpt lat="42.51753" lon="2.05602">
        <ele>1868.83401671</ele>
        <time>2001-05-23T16:06:49.953</time>
      </trkpt>
      <trkpt lat="42.51751" lon="2.05603">
        <ele>1869.0012531819</ele>
        <time>2001-05-23T16:06:50.953</time>
      </trkpt>
      <trkpt lat="42.51751" lon="2.05603">
        <ele>1868.8442482661</ele>
        <time>2001-05-23T16:06:51.953</time>
      </trkpt>
      <trkpt lat="42.5175" lon="2.05604">
        <ele>1868.3507035388</ele>
        <time>2001-05-23T16:06:52.953</time>
      </trkpt>
      <trkpt lat="42.51748" lon="2.05605">
        <ele>1867.4982654223</ele>
        <time>2001-05-23T16:06:53.953</time>
      </trkpt>
      <trkpt lat="42.51747" lon="2.05605">
        <ele>1866.738651794</ele>
        <time>2001-05-23T16:06:54.953</time>
      </trkpt>
      <trkpt lat="42.51747" lon="2.05605">
        <ele>1866.4808089197</ele>
        <time>2001-05-23T16:06:55.953</time>
      </trkpt>
      <trkpt lat="42.51746" lon="2.05606">
        <ele>1866.2047540512</ele>
        <time>2001-05-23T16:06:56.953</time>
      </trkpt>
      <trkpt lat="42.51744" lon="2.05606">
        <ele>1866.1187915325</ele>
        <time>2001-05-23T16:06:57.953</time>
      </trkpt>
      <trkpt lat="42.51743" lon="2.05606">
        <ele>1866.4749972954</ele>
        <time>2001-05-23T16:06:58.953</time>
      </trkpt>
      <trkpt lat="42.51743" lon="2.05607">
        <ele>1866.7402007319</ele>
        <time>2001-05-23T16:06:59.953</time>
      </trkpt>
      <trkpt lat="42.51742" lon="2.05607">
        <ele>1866.8275034741</ele>
        <time>2001-05-23T16:07:00.953</time>
      </trkpt>
      <trkpt lat="42.51742" lon="2.05607">
        <ele>1867.0706343813</ele>
        <time>2001-05-23T16:07:01.953</time>
      </trkpt>
      <trkpt lat="42.51739" lon="2.05607">
        <ele>1867.4453221189</ele>
        <time>2001-05-23T16:07:02.956</time>
      </trkpt>
      <trkpt lat="42.51738" lon="2.05607">
        <ele>1867.6231349915</ele>
        <time>2001-05-23T16:07:03.956</time>
      </trkpt>
      <trkpt lat="42.51737" lon="2.05606">
        <ele>1867.6946681898</ele>
        <time>2001-05-23T16:07:04.956</time>
      </trkpt>
      <trkpt lat="42.51737" lon="2.05607">
        <ele>1867.9144481787</ele>
        <time>2001-05-23T16:07:05.956</time>
      </trkpt>
      <trkpt lat="42.51735" lon="2.05608">
        <ele>1868.1035530794</ele>
        <time>2001-05-23T16:07:06.956</time>
      </trkpt>
      <trkpt lat="42.51734" lon="2.05608">
        <ele>1868.4295341693</ele>
        <time>2001-05-23T16:07:07.956</time>
      </trkpt>
      <trkpt lat="42.51732" lon="2.05608">
        <ele>1868.6830672882</ele>
        <time>2001-05-23T16:07:08.956</time>
      </trkpt>
      <trkpt lat="42.51732" lon="2.0561">
        <ele>1869.3508669026</ele>
        <time>2001-05-23T16:07:09.956</time>
      </trkpt>
      <trkpt lat="42.51729" lon="2.05609">
        <ele>1870.026678969</ele>
        <time>2001-05-23T16:07:10.956</time>
      </trkpt>
      <trkpt lat="42.51727" lon="2.05609">
        <ele>1870.9838127362</ele>
        <time>2001-05-23T16:07:11.956</time>
      </trkpt>
      <trkpt lat="42.51725" lon="2.05609">
        <ele>1872.4787023362</ele>
        <time>2001-05-23T16:07:12.956</time>
      </trkpt>
      <trkpt lat="42.51721" lon="2.0561">
        <ele>1872.9725314587</ele>
        <time>2001-05-23T16:07:13.956</time>
      </trkpt>
      <trkpt lat="42.5172" lon="2.05611">
        <ele>1872.921112287</ele>
        <time>2001-05-23T16:07:14.956</time>
      </trkpt>
      <trkpt lat="42.51719" lon="2.05611">
        <ele>1872.6819554465</ele>
        <time>2001-05-23T16:07:15.956</time>
      </trkpt>
      <trkpt lat="42.5172" lon="2.0561">
        <ele>1871.526384367</ele>
        <time>2001-05-23T16:07:16.956</time>
      </trkpt>
      <trkpt lat="42.5172" lon="2.0561">
        <ele>1869.7110208927</ele>
        <time>2001-05-23T16:07:17.956</time>
      </trkpt>
      <trkpt lat="42.51717" lon="2.05609">
        <ele>1868.533915348</ele>
        <time>2001-05-23T16:07:18.956</time>
      </trkpt>
      <trkpt lat="42.51716" lon="2.0561">
        <ele>1867.3695952138</ele>
        <time>2001-05-23T16:07:19.956</time>
      </trkpt>
      <trkpt lat="42.51716" lon="2.0561">
        <ele>1866.2657031167</ele>
        <time>2001-05-23T16:07:20.956</time>
      </trkpt>
      <trkpt lat="42.51715" lon="2.0561">
        <ele>1865.7528514287</ele>
        <time>2001-05-23T16:07:21.956</time>
      </trkpt>
      <trkpt lat="42.51714" lon="2.0561">
        <ele>1865.1064943418</ele>
        <time>2001-05-23T16:07:22.956</time>
      </trkpt>
      <trkpt lat="42.51714" lon="2.05609">
        <ele>1864.9449985763</ele>
        <time>2001-05-23T16:07:23.956</time>
      </trkpt>
      <trkpt lat="42.51712" lon="2.05608">
        <ele>1864.781341503</ele>
        <time>2001-05-23T16:07:24.959</time>
      </trkpt>
      <trkpt lat="42.5171" lon="2.05606">
        <ele>1864.9180656392</ele>
        <time>2001-05-23T16:07:25.959</time>
      </trkpt>
      <trkpt lat="42.5171" lon="2.05606">
        <ele>1865.0219319753</ele>
        <time>2001-05-23T16:07:26.959</time>
      </trkpt>
      <trkpt lat="42.51709" lon="2.05604">
        <ele>1865.2843977107</ele>
        <time>2001-05-23T16:07:27.958</time>
      </trkpt>
      <trkpt lat="42.51709" lon="2.05604">
        <ele>1865.5313014492</ele>
        <time>2001-05-23T16:07:28.958</time>
      </trkpt>
      <trkpt lat="42.51708" lon="2.056">
        <ele>1866.3075044258</ele>
        <time>2001-05-23T16:07:29.960</time>
      </trkpt>
      <trkpt lat="42.51707" lon="2.05599">
        <ele>1866.7425560882</ele>
        <time>2001-05-23T16:07:30.960</time>
      </trkpt>
      <trkpt lat="42.51706" lon="2.05599">
        <ele>1866.9454253467</ele>
        <time>2001-05-23T16:07:31.960</time>
      </trkpt>
      <trkpt lat="42.51706" lon="2.05598">
        <ele>1867.2703540273</ele>
        <time>2001-05-23T16:07:32.960</time>
      </trkpt>
      <trkpt lat="42.51705" lon="2.05597">
        <ele>1867.6186558856</ele>
        <time>2001-05-23T16:07:33.960</time>
      </trkpt>
      <trkpt lat="42.51705" lon="2.05596">
        <ele>1867.6504822711</ele>
        <time>2001-05-23T16:07:34.960</time>
      </trkpt>
      <trkpt lat="42.51704" lon="2.05595">
        <ele>1867.6856755069</ele>
        <time>2001-05-23T16:07:35.960</time>
      </trkpt>
      <trkpt lat="42.51703" lon="2.05594">
        <ele>1867.9045229968</ele>
        <time>2001-05-23T16:07:36.960</time>
      </trkpt>
      <trkpt lat="42.51702" lon="2.05593">
        <ele>1867.4180950554</ele>
        <time>2001-05-23T16:07:37.960</time>
      </trkpt>
      <trkpt lat="42.51701" lon="2.05591">
        <ele>1866.747747403</ele>
        <time>2001-05-23T16:07:38.960</time>
      </trkpt>
      <trkpt lat="42.517" lon="2.05589">
        <ele>1865.9059039075</ele>
        <time>2001-05-23T16:07:39.960</time>
      </trkpt>
      <trkpt lat="42.51699" lon="2.05588">
        <ele>1864.9437284257</ele>
        <time>2001-05-23T16:07:40.960</time>
      </trkpt>
      <trkpt lat="42.51698" lon="2.05587">
        <ele>1864.027443013</ele>
        <time>2001-05-23T16:07:41.960</time>
      </trkpt>
      <trkpt lat="42.51698" lon="2.05586">
        <ele>1863.3350262756</ele>
        <time>2001-05-23T16:07:42.960</time>
      </trkpt>
      <trkpt lat="42.51697" lon="2.05585">
        <ele>1862.9087744283</ele>
        <time>2001-05-23T16:07:43.960</time>
      </trkpt>
      <trkpt lat="42.51696" lon="2.05585">
        <ele>1862.6177844983</ele>
        <time>2001-05-23T16:07:44.960</time>
      </trkpt>
      <trkpt lat="42.51696" lon="2.05584">
        <ele>1862.5960147133</ele>
        <time>2001-05-23T16:07:45.960</time>
      </trkpt>
      <trkpt lat="42.51696" lon="2.05584">
        <ele>1862.6015828017</ele>
        <time>2001-05-23T16:07:46.960</time>
      </trkpt>
      <trkpt lat="42.51696" lon="2.0558">
        <ele>1863.1201678887</ele>
        <time>2001-05-23T16:07:47.961</time>
      </trkpt>
      <trkpt lat="42.51694" lon="2.05579">
        <ele>1863.57364766</ele>
        <time>2001-05-23T16:07:48.961</time>
      </trkpt>
      <trkpt lat="42.51694" lon="2.05578">
        <ele>1863.9750787197</ele>
        <time>2001-05-23T16:07:49.961</time>
      </trkpt>
      <trkpt lat="42.51695" lon="2.05577">
        <ele>1864.4690428495</ele>
        <time>2001-05-23T16:07:50.961</time>
      </trkpt>
      <trkpt lat="42.51695" lon="2.05575">
        <ele>1864.857054217</ele>
        <time>2001-05-23T16:07:51.961</time>
      </trkpt>
      <trkpt lat="42.51695" lon="2.05574">
        <ele>1865.002026427</ele>
        <time>2001-05-23T16:07:52.961</time>
      </trkpt>
      <trkpt lat="42.51695" lon="2.05573">
        <ele>1865.083915768</ele>
        <time>2001-05-23T16:07:53.961</time>
      </trkpt>
      <trkpt lat="42.51695" lon="2.05572">
        <ele>1865.32108292</ele>
        <time>2001-05-23T16:07:54.961</time>
      </trkpt>
      <trkpt lat="42.51694" lon="2.05571">
        <ele>1865.2155686378</ele>
        <time>2001-05-23T16:07:55.961</time>
      </trkpt>
      <trkpt lat="42.51693" lon="2.05569">
        <ele>1865.2767787486</ele>
        <time>2001-05-23T16:07:56.966</time>
      </trkpt>
      <trkpt lat="42.51691" lon="2.05568">
        <ele>1865.7266546346</ele>
        <time>2001-05-23T16:07:57.966</time>
      </trkpt>
      <trkpt lat="42.51691" lon="2.05566">
        <ele>1866.5217503546</ele>
        <time>2001-05-23T16:07:58.966</time>
      </trkpt>
      <trkpt lat="42.51691" lon="2.05564">
        <ele>1866.9055156803</ele>
        <time>2001-05-23T16:07:59.966</time>
      </trkpt>
      <trkpt lat="42.51691" lon="2.05563">
        <ele>1867.4678521307</ele>
        <time>2001-05-23T16:08:00.966</time>
      </trkpt>
      <trkpt lat="42.51691" lon="2.05561">
        <ele>1867.8185162047</ele>
        <time>2001-05-23T16:08:01.966</time>
      </trkpt>
      <trkpt lat="42.5169" lon="2.0556">
        <ele>1867.5185590539</ele>
        <time>2001-05-23T16:08:02.966</time>
      </trkpt>
      <trkpt lat="42.51689" lon="2.05558">
        <ele>1866.5168710049</ele>
        <time>2001-05-23T16:08:03.966</time>
      </trkpt>
      <trkpt lat="42.51689" lon="2.05557">
        <ele>1865.8134620378</ele>
        <time>2001-05-23T16:08:04.966</time>
      </trkpt>
      <trkpt lat="42.51689" lon="2.05556">
        <ele>1865.1115623057</ele>
        <time>2001-05-23T16:08:05.966</time>
      </trkpt>
      <trkpt lat="42.51689" lon="2.05554">
        <ele>1864.8329267696</ele>
        <time>2001-05-23T16:08:06.966</time>
      </trkpt>
      <trkpt lat="42.51689" lon="2.05553">
        <ele>1864.3743254799</ele>
        <time>2001-05-23T16:08:07.966</time>
      </trkpt>
      <trkpt lat="42.5169" lon="2.05552">
        <ele>1864.4270610774</ele>
        <time>2001-05-23T16:08:08.966</time>
      </trkpt>
      <trkpt lat="42.51689" lon="2.05551">
        <ele>1864.4676799005</ele>
        <time>2001-05-23T16:08:09.966</time>
      </trkpt>
      <trkpt lat="42.5169" lon="2.0555">
        <ele>1864.845632875</ele>
        <time>2001-05-23T16:08:10.966</time>
      </trkpt>
      <trkpt lat="42.5169" lon="2.05549">
        <ele>1865.0521843638</ele>
        <time>2001-05-23T16:08:11.966</time>
      </trkpt>
      <trkpt lat="42.51689" lon="2.05546">
        <ele>1865.7293465624</ele>
        <time>2001-05-23T16:08:12.966</time>
      </trkpt>
      <trkpt lat="42.51689" lon="2.05545">
        <ele>1866.3424552249</ele>
        <time>2001-05-23T16:08:13.966</time>
      </trkpt>
      <trkpt lat="42.51687" lon="2.05544">
        <ele>1866.7282164274</ele>
        <time>2001-05-23T16:08:14.966</time>
      </trkpt>
      <trkpt lat="42.51688" lon="2.05543">
        <ele>1866.2430858145</ele>
        <time>2001-05-23T16:08:15.966</time>
      </trkpt>
      <trkpt lat="42.51688" lon="2.05542">
        <ele>1865.3346100118</ele>
        <time>2001-05-23T16:08:16.966</time>
      </trkpt>
      <trkpt lat="42.51687" lon="2.05541">
        <ele>1864.066331291</ele>
        <time>2001-05-23T16:08:17.966</time>
      </trkpt>
      <trkpt lat="42.51686" lon="2.0554">
        <ele>1862.6607934134</ele>
        <time>2001-05-23T16:08:18.966</time>
      </trkpt>
      <trkpt lat="42.51686" lon="2.05539">
        <ele>1861.1628895797</ele>
        <time>2001-05-23T16:08:19.966</time>
      </trkpt>
      <trkpt lat="42.51685" lon="2.05538">
        <ele>1860.0879832946</ele>
        <time>2001-05-23T16:08:20.966</time>
      </trkpt>
      <trkpt lat="42.51685" lon="2.05537">
        <ele>1859.3741427261</ele>
        <time>2001-05-23T16:08:21.966</time>
      </trkpt>
      <trkpt lat="42.51683" lon="2.05535">
        <ele>1859.0905287715</ele>
        <time>2001-05-23T16:08:22.966</time>
      </trkpt>
      <trkpt lat="42.51682" lon="2.05533">
        <ele>1858.9766022505</ele>
        <time>2001-05-23T16:08:23.966</time>
      </trkpt>
      <trkpt lat="42.51682" lon="2.05532">
        <ele>1859.2408799525</ele>
        <time>2001-05-23T16:08:24.966</time>
      </trkpt>
      <trkpt lat="42.51681" lon="2.0553">
        <ele>1859.453845541</ele>
        <time>2001-05-23T16:08:25.966</time>
      </trkpt>
      <trkpt lat="42.5168" lon="2.05528">
        <ele>1859.655513685</ele>
        <time>2001-05-23T16:08:26.966</time>
      </trkpt>
      <trkpt lat="42.5168" lon="2.05528">
        <ele>1859.8341319703</ele>
        <time>2001-05-23T16:08:27.966</time>
      </trkpt>
      <trkpt lat="42.51679" lon="2.05527">
        <ele>1860.1221765</ele>
        <time>2001-05-23T16:08:28.966</time>
      </trkpt>
      <trkpt lat="42.51679" lon="2.05527">
        <ele>1860.3687291909</ele>
        <time>2001-05-23T16:08:29.966</time>
      </trkpt>
      <trkpt lat="42.51678" lon="2.05527">
        <ele>1860.7454761274</ele>
        <time>2001-05-23T16:08:30.966</time>
      </trkpt>
      <trkpt lat="42.51677" lon="2.05526">
        <ele>1860.669964944</ele>
        <time>2001-05-23T16:08:31.966</time>
      </trkpt>
      <trkpt lat="42.51676" lon="2.05526">
        <ele>1860.330389248</ele>
        <time>2001-05-23T16:08:32.966</time>
      </trkpt>
      <trkpt lat="42.51675" lon="2.05525">
        <ele>1860.099071723</ele>
        <time>2001-05-23T16:08:33.970</time>
      </trkpt>
      <trkpt lat="42.51674" lon="2.05525">
        <ele>1859.9428722885</ele>
        <time>2001-05-23T16:08:34.970</time>
      </trkpt>
      <trkpt lat="42.51674" lon="2.05523">
        <ele>1860.0474699426</ele>
        <time>2001-05-23T16:08:35.970</time>
      </trkpt>
      <trkpt lat="42.51673" lon="2.05522">
        <ele>1860.4456896253</ele>
        <time>2001-05-23T16:08:36.970</time>
      </trkpt>
      <trkpt lat="42.51673" lon="2.05522">
        <ele>1860.8491294125</ele>
        <time>2001-05-23T16:08:37.970</time>
      </trkpt>
      <trkpt lat="42.51672" lon="2.05521">
        <ele>1860.8635517946</ele>
        <time>2001-05-23T16:08:38.970</time>
      </trkpt>
      <trkpt lat="42.51671" lon="2.0552">
        <ele>1860.7872484384</ele>
        <time>2001-05-23T16:08:39.970</time>
      </trkpt>
      <trkpt lat="42.5167" lon="2.05516">
        <ele>1860.6629686682</ele>
        <time>2001-05-23T16:08:40.970</time>
      </trkpt>
      <trkpt lat="42.51669" lon="2.05515">
        <ele>1860.6623990918</ele>
        <time>2001-05-23T16:08:41.970</time>
      </trkpt>
      <trkpt lat="42.51669" lon="2.05515">
        <ele>1860.9138929017</ele>
        <time>2001-05-23T16:08:42.970</time>
      </trkpt>
      <trkpt lat="42.51668" lon="2.05514">
        <ele>1861.1328914639</ele>
        <time>2001-05-23T16:08:43.970</time>
      </trkpt>
      <trkpt lat="42.51668" lon="2.05513">
        <ele>1861.3226465711</ele>
        <time>2001-05-23T16:08:44.970</time>
      </trkpt>
      <trkpt lat="42.51667" lon="2.05512">
        <ele>1861.668512016</ele>
        <time>2001-05-23T16:08:45.970</time>
      </trkpt>
      <trkpt lat="42.51667" lon="2.05512">
        <ele>1861.93977284</ele>
        <time>2001-05-23T16:08:46.970</time>
      </trkpt>
      <trkpt lat="42.51666" lon="2.05512">
        <ele>1862.2409561032</ele>
        <time>2001-05-23T16:08:47.970</time>
      </trkpt>
      <trkpt lat="42.51665" lon="2.05511">
        <ele>1862.7801946243</ele>
        <time>2001-05-23T16:08:48.970</time>
      </trkpt>
      <trkpt lat="42.51665" lon="2.0551">
        <ele>1863.3425557874</ele>
        <time>2001-05-23T16:08:49.970</time>
      </trkpt>
      <trkpt lat="42.51664" lon="2.05509">
        <ele>1863.6081918228</ele>
        <time>2001-05-23T16:08:50.970</time>
      </trkpt>
      <trkpt lat="42.51662" lon="2.05509">
        <ele>1863.9704331234</ele>
        <time>2001-05-23T16:08:51.970</time>
      </trkpt>
      <trkpt lat="42.51661" lon="2.05508">
        <ele>1864.0672156457</ele>
        <time>2001-05-23T16:08:52.970</time>
      </trkpt>
      <trkpt lat="42.5166" lon="2.05508">
        <ele>1863.9256459149</ele>
        <time>2001-05-23T16:08:53.970</time>
      </trkpt>
      <trkpt lat="42.51659" lon="2.05508">
        <ele>1863.75968195</ele>
        <time>2001-05-23T16:08:54.970</time>
      </trkpt>
      <trkpt lat="42.51659" lon="2.05508">
        <ele>1863.7867246395</ele>
        <time>2001-05-23T16:08:55.970</time>
      </trkpt>
      <trkpt lat="42.51658" lon="2.05508">
        <ele>1863.7770144686</ele>
        <time>2001-05-23T16:08:56.973</time>
      </trkpt>
      <trkpt lat="42.51658" lon="2.05508">
        <ele>1864.0016966322</ele>
        <time>2001-05-23T16:08:57.973</time>
      </trkpt>
      <trkpt lat="42.51656" lon="2.05507">
        <ele>1864.3162398385</ele>
        <time>2001-05-23T16:08:58.972</time>
      </trkpt>
      <trkpt lat="42.51655" lon="2.05506">
        <ele>1864.9745885346</ele>
        <time>2001-05-23T16:08:59.972</time>
      </trkpt>
      <trkpt lat="42.51654" lon="2.05507">
        <ele>1865.4962198749</ele>
        <time>2001-05-23T16:09:00.972</time>
      </trkpt>
      <trkpt lat="42.51654" lon="2.05506">
        <ele>1866.2306079267</ele>
        <time>2001-05-23T16:09:01.972</time>
      </trkpt>
      <trkpt lat="42.51654" lon="2.05504">
        <ele>1866.9754504999</ele>
        <time>2001-05-23T16:09:02.972</time>
      </trkpt>
      <trkpt lat="42.51652" lon="2.05504">
        <ele>1867.6360088181</ele>
        <time>2001-05-23T16:09:03.972</time>
      </trkpt>
      <trkpt lat="42.51651" lon="2.05503">
        <ele>1867.71672286</ele>
        <time>2001-05-23T16:09:04.972</time>
      </trkpt>
      <trkpt lat="42.5165" lon="2.05502">
        <ele>1867.6516455472</ele>
        <time>2001-05-23T16:09:05.972</time>
      </trkpt>
      <trkpt lat="42.51648" lon="2.05502">
        <ele>1867.5952142641</ele>
        <time>2001-05-23T16:09:06.972</time>
      </trkpt>
      <trkpt lat="42.51647" lon="2.05502">
        <ele>1867.7040320104</ele>
        <time>2001-05-23T16:09:07.972</time>
      </trkpt>
      <trkpt lat="42.51645" lon="2.05501">
        <ele>1868.1859350296</ele>
        <time>2001-05-23T16:09:08.972</time>
      </trkpt>
      <trkpt lat="42.51644" lon="2.05501">
        <ele>1869.0704606265</ele>
        <time>2001-05-23T16:09:09.972</time>
      </trkpt>
      <trkpt lat="42.51644" lon="2.05501">
        <ele>1870.0222199477</ele>
        <time>2001-05-23T16:09:10.972</time>
      </trkpt>
      <trkpt lat="42.51642" lon="2.05502">
        <ele>1871.3842448274</ele>
        <time>2001-05-23T16:09:11.972</time>
      </trkpt>
      <trkpt lat="42.51642" lon="2.05501">
        <ele>1872.6829258723</ele>
        <time>2001-05-23T16:09:12.972</time>
      </trkpt>
      <trkpt lat="42.51642" lon="2.05501">
        <ele>1873.5925038749</ele>
        <time>2001-05-23T16:09:13.972</time>
      </trkpt>
      <trkpt lat="42.51641" lon="2.05501">
        <ele>1874.6123069791</ele>
        <time>2001-05-23T16:09:14.973</time>
      </trkpt>
      <trkpt lat="42.51639" lon="2.055">
        <ele>1875.7537120569</ele>
        <time>2001-05-23T16:09:15.973</time>
      </trkpt>
      <trkpt lat="42.51638" lon="2.05499">
        <ele>1876.3419447679</ele>
        <time>2001-05-23T16:09:16.973</time>
      </trkpt>
      <trkpt lat="42.51637" lon="2.05499">
        <ele>1876.8260482218</ele>
        <time>2001-05-23T16:09:17.973</time>
      </trkpt>
      <trkpt lat="42.51636" lon="2.05499">
        <ele>1877.8188605219</ele>
        <time>2001-05-23T16:09:18.973</time>
      </trkpt>
      <trkpt lat="42.51635" lon="2.05499">
        <ele>1878.8008099765</ele>
        <time>2001-05-23T16:09:19.973</time>
      </trkpt>
      <trkpt lat="42.51634" lon="2.05498">
        <ele>1879.5722836034</ele>
        <time>2001-05-23T16:09:20.973</time>
      </trkpt>
      <trkpt lat="42.51633" lon="2.05498">
        <ele>1880.0824732739</ele>
        <time>2001-05-23T16:09:21.973</time>
      </trkpt>
      <trkpt lat="42.51633" lon="2.05498">
        <ele>1880.4937467622</ele>
        <time>2001-05-23T16:09:22.973</time>
      </trkpt>
      <trkpt lat="42.51634" lon="2.05498">
        <ele>1880.8390208269</ele>
        <time>2001-05-23T16:09:23.972</time>
      </trkpt>
      <trkpt lat="42.51634" lon="2.05498">
        <ele>1880.9644715389</ele>
        <time>2001-05-23T16:09:24.972</time>
      </trkpt>
      <trkpt lat="42.51634" lon="2.05499">
        <ele>1880.4878897684</ele>
        <time>2001-05-23T16:09:25.972</time>
      </trkpt>
      <trkpt lat="42.51635" lon="2.05502">
        <ele>1879.7292273983</ele>
        <time>2001-05-23T16:09:26.972</time>
      </trkpt>
      <trkpt lat="42.51635" lon="2.05502">
        <ele>1878.9705650283</ele>
        <time>2001-05-23T16:09:27.972</time>
      </trkpt>
      <trkpt lat="42.51635" lon="2.05502">
        <ele>1877.8831287144</ele>
        <time>2001-05-23T16:09:28.972</time>
      </trkpt>
      <trkpt lat="42.51632" lon="2.05503">
        <ele>1876.6846539056</ele>
        <time>2001-05-23T16:09:29.974</time>
      </trkpt>
      <trkpt lat="42.5163" lon="2.05503">
        <ele>1875.8459424464</ele>
        <time>2001-05-23T16:09:30.974</time>
      </trkpt>
      <trkpt lat="42.51629" lon="2.05503">
        <ele>1875.3248022418</ele>
        <time>2001-05-23T16:09:31.974</time>
      </trkpt>
      <trkpt lat="42.51628" lon="2.05504">
        <ele>1874.5220729884</ele>
        <time>2001-05-23T16:09:32.974</time>
      </trkpt>
      <trkpt lat="42.51627" lon="2.05505">
        <ele>1873.457417777</ele>
        <time>2001-05-23T16:09:33.974</time>
      </trkpt>
      <trkpt lat="42.51626" lon="2.05506">
        <ele>1872.3457843404</ele>
        <time>2001-05-23T16:09:34.974</time>
      </trkpt>
      <trkpt lat="42.51625" lon="2.05506">
        <ele>1871.5889542585</ele>
        <time>2001-05-23T16:09:35.974</time>
      </trkpt>
      <trkpt lat="42.51623" lon="2.05505">
        <ele>1870.9671271319</ele>
        <time>2001-05-23T16:09:36.974</time>
      </trkpt>
      <trkpt lat="42.51619" lon="2.05504">
        <ele>1870.0545568151</ele>
        <time>2001-05-23T16:09:37.974</time>
      </trkpt>
      <trkpt lat="42.51618" lon="2.05505">
        <ele>1869.2569431707</ele>
        <time>2001-05-23T16:09:38.974</time>
      </trkpt>
      <trkpt lat="42.51617" lon="2.05507">
        <ele>1868.3142421925</ele>
        <time>2001-05-23T16:09:39.974</time>
      </trkpt>
      <trkpt lat="42.51616" lon="2.05507">
        <ele>1867.2633411745</ele>
        <time>2001-05-23T16:09:40.974</time>
      </trkpt>
      <trkpt lat="42.51616" lon="2.05508">
        <ele>1866.1461892679</ele>
        <time>2001-05-23T16:09:41.974</time>
      </trkpt>
      <trkpt lat="42.51615" lon="2.05509">
        <ele>1866.2061355378</ele>
        <time>2001-05-23T16:09:42.974</time>
      </trkpt>
      <trkpt lat="42.51614" lon="2.0551">
        <ele>1866.6605783038</ele>
        <time>2001-05-23T16:09:43.974</time>
      </trkpt>
      <trkpt lat="42.51614" lon="2.0551">
        <ele>1867.5547049075</ele>
        <time>2001-05-23T16:09:44.974</time>
      </trkpt>
      <trkpt lat="42.51613" lon="2.05511">
        <ele>1868.2705911322</ele>
        <time>2001-05-23T16:09:45.974</time>
      </trkpt>
      <trkpt lat="42.51611" lon="2.05514">
        <ele>1868.531476015</ele>
        <time>2001-05-23T16:09:46.974</time>
      </trkpt>
      <trkpt lat="42.5161" lon="2.05513">
        <ele>1867.9032569233</ele>
        <time>2001-05-23T16:09:47.974</time>
      </trkpt>
      <trkpt lat="42.51607" lon="2.05514">
        <ele>1866.7104762636</ele>
        <time>2001-05-23T16:09:48.974</time>
      </trkpt>
      <trkpt lat="42.51605" lon="2.05515">
        <ele>1865.1597189354</ele>
        <time>2001-05-23T16:09:49.974</time>
      </trkpt>
      <trkpt lat="42.51604" lon="2.05515">
        <ele>1863.9799694862</ele>
        <time>2001-05-23T16:09:50.974</time>
      </trkpt>
      <trkpt lat="42.51603" lon="2.05516">
        <ele>1863.5584645713</ele>
        <time>2001-05-23T16:09:51.974</time>
      </trkpt>
      <trkpt lat="42.51603" lon="2.05516">
        <ele>1863.3244893083</ele>
        <time>2001-05-23T16:09:52.974</time>
      </trkpt>
      <trkpt lat="42.51603" lon="2.05517">
        <ele>1863.1236083705</ele>
        <time>2001-05-23T16:09:53.974</time>
      </trkpt>
      <trkpt lat="42.51602" lon="2.05518">
        <ele>1863.2739553956</ele>
        <time>2001-05-23T16:09:54.974</time>
      </trkpt>
      <trkpt lat="42.51602" lon="2.05519">
        <ele>1863.0229041327</ele>
        <time>2001-05-23T16:09:55.974</time>
      </trkpt>
      <trkpt lat="42.51602" lon="2.0552">
        <ele>1862.4384588266</ele>
        <time>2001-05-23T16:09:56.974</time>
      </trkpt>
      <trkpt lat="42.51601" lon="2.05521">
        <ele>1861.942269578</ele>
        <time>2001-05-23T16:09:57.974</time>
      </trkpt>
      <trkpt lat="42.516" lon="2.05521">
        <ele>1861.9636174237</ele>
        <time>2001-05-23T16:09:58.974</time>
      </trkpt>
      <trkpt lat="42.51599" lon="2.05521">
        <ele>1862.212556091</ele>
        <time>2001-05-23T16:09:59.974</time>
      </trkpt>
      <trkpt lat="42.51598" lon="2.05521">
        <ele>1862.6145054854</ele>
        <time>2001-05-23T16:10:00.974</time>
      </trkpt>
      <trkpt lat="42.51598" lon="2.05522">
        <ele>1863.1930454772</ele>
        <time>2001-05-23T16:10:01.974</time>
      </trkpt>
      <trkpt lat="42.51596" lon="2.05522">
        <ele>1863.6990244091</ele>
        <time>2001-05-23T16:10:02.974</time>
      </trkpt>
      <trkpt lat="42.51596" lon="2.05523">
        <ele>1864.2281916888</ele>
        <time>2001-05-23T16:10:03.974</time>
      </trkpt>
      <trkpt lat="42.51595" lon="2.05522">
        <ele>1864.3277929224</ele>
        <time>2001-05-23T16:10:04.974</time>
      </trkpt>
      <trkpt lat="42.51594" lon="2.05522">
        <ele>1864.3808548871</ele>
        <time>2001-05-23T16:10:05.974</time>
      </trkpt>
      <trkpt lat="42.51594" lon="2.05522">
        <ele>1864.4733516097</ele>
        <time>2001-05-23T16:10:06.974</time>
      </trkpt>
      <trkpt lat="42.51593" lon="2.05523">
        <ele>1864.8949987803</ele>
        <time>2001-05-23T16:10:07.974</time>
      </trkpt>
      <trkpt lat="42.51591" lon="2.05523">
        <ele>1865.1722077774</ele>
        <time>2001-05-23T16:10:08.974</time>
      </trkpt>
      <trkpt lat="42.51588" lon="2.05524">
        <ele>1865.0781836454</ele>
        <time>2001-05-23T16:10:09.974</time>
      </trkpt>
      <trkpt lat="42.51587" lon="2.05526">
        <ele>1864.8505854167</ele>
        <time>2001-05-23T16:10:10.974</time>
      </trkpt>
      <trkpt lat="42.51587" lon="2.05527">
        <ele>1864.2646661546</ele>
        <time>2001-05-23T16:10:11.974</time>
      </trkpt>
      <trkpt lat="42.51587" lon="2.05527">
        <ele>1863.3837719692</ele>
        <time>2001-05-23T16:10:12.974</time>
      </trkpt>
      <trkpt lat="42.51586" lon="2.05528">
        <ele>1862.3384149034</ele>
        <time>2001-05-23T16:10:13.974</time>
      </trkpt>
      <trkpt lat="42.51586" lon="2.05529">
        <ele>1861.5618576834</ele>
        <time>2001-05-23T16:10:14.974</time>
      </trkpt>
      <trkpt lat="42.51585" lon="2.0553">
        <ele>1861.1900890941</ele>
        <time>2001-05-23T16:10:15.971</time>
      </trkpt>
      <trkpt lat="42.51583" lon="2.05532">
        <ele>1861.3835740656</ele>
        <time>2001-05-23T16:10:16.971</time>
      </trkpt>
      <trkpt lat="42.51581" lon="2.05534">
        <ele>1861.3311207863</ele>
        <time>2001-05-23T16:10:17.971</time>
      </trkpt>
      <trkpt lat="42.5158" lon="2.05535">
        <ele>1861.2581020631</ele>
        <time>2001-05-23T16:10:18.971</time>
      </trkpt>
      <trkpt lat="42.51578" lon="2.05534">
        <ele>1861.3299826398</ele>
        <time>2001-05-23T16:10:19.971</time>
      </trkpt>
      <trkpt lat="42.51577" lon="2.05535">
        <ele>1861.0643773993</ele>
        <time>2001-05-23T16:10:20.971</time>
      </trkpt>
      <trkpt lat="42.51576" lon="2.05536">
        <ele>1860.3820893476</ele>
        <time>2001-05-23T16:10:21.971</time>
      </trkpt>
      <trkpt lat="42.51576" lon="2.05536">
        <ele>1859.8010270447</ele>
        <time>2001-05-23T16:10:22.971</time>
      </trkpt>
      <trkpt lat="42.51576" lon="2.05536">
        <ele>1859.2342301801</ele>
        <time>2001-05-23T16:10:23.971</time>
      </trkpt>
      <trkpt lat="42.51572" lon="2.05537">
        <ele>1858.1804619793</ele>
        <time>2001-05-23T16:10:24.972</time>
      </trkpt>
      <trkpt lat="42.51571" lon="2.05537">
        <ele>1857.1589868784</ele>
        <time>2001-05-23T16:10:25.972</time>
      </trkpt>
      <trkpt lat="42.51571" lon="2.05537">
        <ele>1856.3900437994</ele>
        <time>2001-05-23T16:10:26.972</time>
      </trkpt>
      <trkpt lat="42.5157" lon="2.05538">
        <ele>1855.8313547734</ele>
        <time>2001-05-23T16:10:27.972</time>
      </trkpt>
      <trkpt lat="42.51569" lon="2.05538">
        <ele>1855.2067323081</ele>
        <time>2001-05-23T16:10:28.972</time>
      </trkpt>
      <trkpt lat="42.51568" lon="2.05539">
        <ele>1855.1429052262</ele>
        <time>2001-05-23T16:10:29.972</time>
      </trkpt>
      <trkpt lat="42.51568" lon="2.05539">
        <ele>1855.3944239842</ele>
        <time>2001-05-23T16:10:30.972</time>
      </trkpt>
      <trkpt lat="42.51567" lon="2.05539">
        <ele>1855.4444414925</ele>
        <time>2001-05-23T16:10:31.972</time>
      </trkpt>
      <trkpt lat="42.51566" lon="2.05539">
        <ele>1855.1249804573</ele>
        <time>2001-05-23T16:10:32.972</time>
      </trkpt>
      <trkpt lat="42.51564" lon="2.05541">
        <ele>1855.0260589642</ele>
        <time>2001-05-23T16:10:33.973</time>
      </trkpt>
      <trkpt lat="42.51564" lon="2.0554">
        <ele>1855.0161944343</ele>
        <time>2001-05-23T16:10:34.973</time>
      </trkpt>
      <trkpt lat="42.51562" lon="2.0554">
        <ele>1855.2846364884</ele>
        <time>2001-05-23T16:10:35.974</time>
      </trkpt>
      <trkpt lat="42.51561" lon="2.0554">
        <ele>1855.5507876907</ele>
        <time>2001-05-23T16:10:36.974</time>
      </trkpt>
      <trkpt lat="42.51561" lon="2.05541">
        <ele>1856.1352783704</ele>
        <time>2001-05-23T16:10:37.974</time>
      </trkpt>
      <trkpt lat="42.5156" lon="2.0554">
        <ele>1856.5920632133</ele>
        <time>2001-05-23T16:10:38.974</time>
      </trkpt>
      <trkpt lat="42.51558" lon="2.0554">
        <ele>1856.8507315129</ele>
        <time>2001-05-23T16:10:39.974</time>
      </trkpt>
      <trkpt lat="42.51557" lon="2.05541">
        <ele>1856.6370619122</ele>
        <time>2001-05-23T16:10:40.974</time>
      </trkpt>
      <trkpt lat="42.51557" lon="2.05541">
        <ele>1856.4746667467</ele>
        <time>2001-05-23T16:10:41.974</time>
      </trkpt>
      <trkpt lat="42.51557" lon="2.05542">
        <ele>1856.3013178535</ele>
        <time>2001-05-23T16:10:42.974</time>
      </trkpt>
      <trkpt lat="42.51556" lon="2.05542">
        <ele>1856.4955236131</ele>
        <time>2001-05-23T16:10:43.974</time>
      </trkpt>
      <trkpt lat="42.51555" lon="2.0554">
        <ele>1857.1547711842</ele>
        <time>2001-05-23T16:10:44.974</time>
      </trkpt>
      <trkpt lat="42.51555" lon="2.0554">
        <ele>1857.8474494966</ele>
        <time>2001-05-23T16:10:45.974</time>
      </trkpt>
      <trkpt lat="42.51555" lon="2.05543">
        <ele>1859.0091485241</ele>
        <time>2001-05-23T16:10:46.975</time>
      </trkpt>
      <trkpt lat="42.51555" lon="2.05543">
        <ele>1860.2143366572</ele>
        <time>2001-05-23T16:10:47.975</time>
      </trkpt>
      <trkpt lat="42.51554" lon="2.05543">
        <ele>1861.0351825092</ele>
        <time>2001-05-23T16:10:48.980</time>
      </trkpt>
      <trkpt lat="42.51554" lon="2.05543">
        <ele>1861.4559002126</ele>
        <time>2001-05-23T16:10:49.980</time>
      </trkpt>
      <trkpt lat="42.51553" lon="2.05543">
        <ele>1861.7692762181</ele>
        <time>2001-05-23T16:10:50.975</time>
      </trkpt>
      <trkpt lat="42.51553" lon="2.05543">
        <ele>1861.6136315085</ele>
        <time>2001-05-23T16:10:51.975</time>
      </trkpt>
      <trkpt lat="42.51554" lon="2.05544">
        <ele>1861.2887414366</ele>
        <time>2001-05-23T16:10:52.972</time>
      </trkpt>
      <trkpt lat="42.51554" lon="2.05544">
        <ele>1861.0121543765</ele>
        <time>2001-05-23T16:10:53.972</time>
      </trkpt>
      <trkpt lat="42.51553" lon="2.05543">
        <ele>1860.6311485477</ele>
        <time>2001-05-23T16:10:54.976</time>
      </trkpt>
      <trkpt lat="42.51552" lon="2.05542">
        <ele>1859.930023828</ele>
        <time>2001-05-23T16:10:55.976</time>
      </trkpt>
      <trkpt lat="42.51551" lon="2.05542">
        <ele>1858.9359079624</ele>
        <time>2001-05-23T16:10:56.976</time>
      </trkpt>
      <trkpt lat="42.5155" lon="2.05542">
        <ele>1858.1386223279</ele>
        <time>2001-05-23T16:10:57.976</time>
      </trkpt>
      <trkpt lat="42.51549" lon="2.05542">
        <ele>1857.4646375734</ele>
        <time>2001-05-23T16:10:58.976</time>
      </trkpt>
      <trkpt lat="42.51548" lon="2.05541">
        <ele>1856.9208009981</ele>
        <time>2001-05-23T16:10:59.976</time>
      </trkpt>
      <trkpt lat="42.51547" lon="2.0554">
        <ele>1856.811113623</ele>
        <time>2001-05-23T16:11:00.976</time>
      </trkpt>
      <trkpt lat="42.51545" lon="2.05539">
        <ele>1857.1553072324</ele>
        <time>2001-05-23T16:11:01.976</time>
      </trkpt>
      <trkpt lat="42.51544" lon="2.05539">
        <ele>1856.8771410603</ele>
        <time>2001-05-23T16:11:02.976</time>
      </trkpt>
      <trkpt lat="42.51544" lon="2.05539">
        <ele>1857.0428850489</ele>
        <time>2001-05-23T16:11:03.976</time>
      </trkpt>
      <trkpt lat="42.51544" lon="2.05539">
        <ele>1857.1828996271</ele>
        <time>2001-05-23T16:11:04.976</time>
      </trkpt>
      <trkpt lat="42.51544" lon="2.05539">
        <ele>1857.1091653254</ele>
        <time>2001-05-23T16:11:05.976</time>
      </trkpt>
      <trkpt lat="42.51543" lon="2.05538">
        <ele>1856.8142459948</ele>
        <time>2001-05-23T16:11:06.976</time>
      </trkpt>
      <trkpt lat="42.51542" lon="2.05538">
        <ele>1857.1143267086</ele>
        <time>2001-05-23T16:11:07.976</time>
      </trkpt>
      <trkpt lat="42.51541" lon="2.05537">
        <ele>1856.8200148694</ele>
        <time>2001-05-23T16:11:08.976</time>
      </trkpt>
      <trkpt lat="42.5154" lon="2.05536">
        <ele>1856.4823375892</ele>
        <time>2001-05-23T16:11:09.976</time>
      </trkpt>
      <trkpt lat="42.5154" lon="2.05536">
        <ele>1856.3517205773</ele>
        <time>2001-05-23T16:11:10.976</time>
      </trkpt>
      <trkpt lat="42.51539" lon="2.05536">
        <ele>1856.4297973089</ele>
        <time>2001-05-23T16:11:11.979</time>
      </trkpt>
      <trkpt lat="42.51538" lon="2.05535">
        <ele>1856.7180597512</ele>
        <time>2001-05-23T16:11:12.979</time>
      </trkpt>
      <trkpt lat="42.51537" lon="2.05534">
        <ele>1857.0624424646</ele>
        <time>2001-05-23T16:11:13.977</time>
      </trkpt>
      <trkpt lat="42.51537" lon="2.05534">
        <ele>1857.450190619</ele>
        <time>2001-05-23T16:11:14.977</time>
      </trkpt>
      <trkpt lat="42.51536" lon="2.05533">
        <ele>1857.5940263916</ele>
        <time>2001-05-23T16:11:15.976</time>
      </trkpt>
      <trkpt lat="42.51535" lon="2.05532">
        <ele>1857.5428498892</ele>
        <time>2001-05-23T16:11:16.976</time>
      </trkpt>
      <trkpt lat="42.51534" lon="2.05531">
        <ele>1857.2507638186</ele>
        <time>2001-05-23T16:11:17.976</time>
      </trkpt>
      <trkpt lat="42.51534" lon="2.05531">
        <ele>1856.9297389893</ele>
        <time>2001-05-23T16:11:18.976</time>
      </trkpt>
      <trkpt lat="42.51533" lon="2.05531">
        <ele>1856.4436240425</ele>
        <time>2001-05-23T16:11:19.975</time>
      </trkpt>
      <trkpt lat="42.51532" lon="2.0553">
        <ele>1855.9572318513</ele>
        <time>2001-05-23T16:11:20.975</time>
      </trkpt>
      <trkpt lat="42.51531" lon="2.0553">
        <ele>1855.4846515294</ele>
        <time>2001-05-23T16:11:21.975</time>
      </trkpt>
      <trkpt lat="42.5153" lon="2.05529">
        <ele>1854.9222377002</ele>
        <time>2001-05-23T16:11:22.975</time>
      </trkpt>
      <trkpt lat="42.51528" lon="2.05528">
        <ele>1854.3201425418</ele>
        <time>2001-05-23T16:11:23.975</time>
      </trkpt>
      <trkpt lat="42.51528" lon="2.05527">
        <ele>1853.9381327003</ele>
        <time>2001-05-23T16:11:24.975</time>
      </trkpt>
      <trkpt lat="42.51527" lon="2.05526">
        <ele>1853.6988482254</ele>
        <time>2001-05-23T16:11:25.975</time>
      </trkpt>
      <trkpt lat="42.51526" lon="2.05525">
        <ele>1853.875130045</ele>
        <time>2001-05-23T16:11:26.975</time>
      </trkpt>
      <trkpt lat="42.51525" lon="2.05524">
        <ele>1854.3904754018</ele>
        <time>2001-05-23T16:11:27.975</time>
      </trkpt>
      <trkpt lat="42.51524" lon="2.05524">
        <ele>1854.9142917942</ele>
        <time>2001-05-23T16:11:28.975</time>
      </trkpt>
      <trkpt lat="42.51524" lon="2.05523">
        <ele>1855.2441451155</ele>
        <time>2001-05-23T16:11:29.975</time>
      </trkpt>
      <trkpt lat="42.51523" lon="2.05523">
        <ele>1855.4590969853</ele>
        <time>2001-05-23T16:11:30.975</time>
      </trkpt>
      <trkpt lat="42.51522" lon="2.05522">
        <ele>1855.1788888514</ele>
        <time>2001-05-23T16:11:31.975</time>
      </trkpt>
      <trkpt lat="42.51522" lon="2.05522">
        <ele>1854.4190706564</ele>
        <time>2001-05-23T16:11:32.975</time>
      </trkpt>
      <trkpt lat="42.51521" lon="2.05522">
        <ele>1853.5553257657</ele>
        <time>2001-05-23T16:11:33.975</time>
      </trkpt>
      <trkpt lat="42.5152" lon="2.05521">
        <ele>1852.8590205666</ele>
        <time>2001-05-23T16:11:34.975</time>
      </trkpt>
      <trkpt lat="42.51518" lon="2.05521">
        <ele>1852.2242008174</ele>
        <time>2001-05-23T16:11:35.975</time>
      </trkpt>
      <trkpt lat="42.51517" lon="2.05521">
        <ele>1851.6416749801</ele>
        <time>2001-05-23T16:11:36.975</time>
      </trkpt>
      <trkpt lat="42.51516" lon="2.0552">
        <ele>1851.2919637714</ele>
        <time>2001-05-23T16:11:37.975</time>
      </trkpt>
      <trkpt lat="42.51515" lon="2.0552">
        <ele>1851.0979275836</ele>
        <time>2001-05-23T16:11:38.975</time>
      </trkpt>
      <trkpt lat="42.51515" lon="2.0552">
        <ele>1851.0798389003</ele>
        <time>2001-05-23T16:11:39.975</time>
      </trkpt>
      <trkpt lat="42.51514" lon="2.0552">
        <ele>1851.1913947707</ele>
        <time>2001-05-23T16:11:40.975</time>
      </trkpt>
      <trkpt lat="42.51513" lon="2.0552">
        <ele>1851.5221514205</ele>
        <time>2001-05-23T16:11:41.975</time>
      </trkpt>
      <trkpt lat="42.51513" lon="2.05521">
        <ele>1851.5442617174</ele>
        <time>2001-05-23T16:11:42.976</time>
      </trkpt>
      <trkpt lat="42.51513" lon="2.05521">
        <ele>1851.5458339827</ele>
        <time>2001-05-23T16:11:43.976</time>
      </trkpt>
      <trkpt lat="42.51514" lon="2.0552">
        <ele>1851.3407479212</ele>
        <time>2001-05-23T16:11:44.977</time>
      </trkpt>
      <trkpt lat="42.51515" lon="2.05521">
        <ele>1851.0550918547</ele>
        <time>2001-05-23T16:11:45.977</time>
      </trkpt>
      <trkpt lat="42.51516" lon="2.05521">
        <ele>1850.4795121379</ele>
        <time>2001-05-23T16:11:46.977</time>
      </trkpt>
      <trkpt lat="42.51516" lon="2.05522">
        <ele>1850.2175580354</ele>
        <time>2001-05-23T16:11:47.977</time>
      </trkpt>
      <trkpt lat="42.51518" lon="2.05523">
        <ele>1850.1068808697</ele>
        <time>2001-05-23T16:11:48.977</time>
      </trkpt>
      <trkpt lat="42.51519" lon="2.05523">
        <ele>1849.9820696259</ele>
        <time>2001-05-23T16:11:49.977</time>
      </trkpt>
      <trkpt lat="42.5152" lon="2.05522">
        <ele>1849.9002584226</ele>
        <time>2001-05-23T16:11:50.977</time>
      </trkpt>
      <trkpt lat="42.5152" lon="2.05523">
        <ele>1849.7899314681</ele>
        <time>2001-05-23T16:11:51.977</time>
      </trkpt>
      <trkpt lat="42.5152" lon="2.05523">
        <ele>1849.8750574186</ele>
        <time>2001-05-23T16:11:52.977</time>
      </trkpt>
      <trkpt lat="42.51522" lon="2.05525">
        <ele>1850.2133389018</ele>
        <time>2001-05-23T16:11:53.984</time>
      </trkpt>
      <trkpt lat="42.51523" lon="2.05525">
        <ele>1850.7675748946</ele>
        <time>2001-05-23T16:11:54.984</time>
      </trkpt>
      <trkpt lat="42.51525" lon="2.05528">
        <ele>1851.244197919</ele>
        <time>2001-05-23T16:11:56.11</time>
      </trkpt>
      <trkpt lat="42.51526" lon="2.05529">
        <ele>1852.0788335314</ele>
        <time>2001-05-23T16:11:57.11</time>
      </trkpt>
      <trkpt lat="42.51527" lon="2.0553">
        <ele>1852.8338251539</ele>
        <time>2001-05-23T16:11:58.11</time>
      </trkpt>
      <trkpt lat="42.51528" lon="2.0553">
        <ele>1853.2192289237</ele>
        <time>2001-05-23T16:11:59.11</time>
      </trkpt>
      <trkpt lat="42.51529" lon="2.05531">
        <ele>1853.2955439044</ele>
        <time>2001-05-23T16:12:00.11</time>
      </trkpt>
      <trkpt lat="42.5153" lon="2.05532">
        <ele>1853.4020753944</ele>
        <time>2001-05-23T16:12:01.11</time>
      </trkpt>
      <trkpt lat="42.51531" lon="2.05533">
        <ele>1853.2249289922</ele>
        <time>2001-05-23T16:12:02.11</time>
      </trkpt>
      <trkpt lat="42.51532" lon="2.05534">
        <ele>1853.0125973886</ele>
        <time>2001-05-23T16:12:03.11</time>
      </trkpt>
      <trkpt lat="42.51532" lon="2.05534">
        <ele>1852.7729860703</ele>
        <time>2001-05-23T16:12:04.11</time>
      </trkpt>
      <trkpt lat="42.51532" lon="2.05534">
        <ele>1852.642882112</ele>
        <time>2001-05-23T16:12:05.11</time>
      </trkpt>
      <trkpt lat="42.51533" lon="2.05535">
        <ele>1852.5524828449</ele>
        <time>2001-05-23T16:12:06.11</time>
      </trkpt>
      <trkpt lat="42.51535" lon="2.05536">
        <ele>1852.6372465823</ele>
        <time>2001-05-23T16:12:07.17</time>
      </trkpt>
      <trkpt lat="42.51536" lon="2.05537">
        <ele>1852.819729138</ele>
        <time>2001-05-23T16:12:08.17</time>
      </trkpt>
      <trkpt lat="42.51536" lon="2.05538">
        <ele>1852.802271569</ele>
        <time>2001-05-23T16:12:09.17</time>
      </trkpt>
      <trkpt lat="42.51537" lon="2.05539">
        <ele>1852.9333632583</ele>
        <time>2001-05-23T16:12:10.17</time>
      </trkpt>
      <trkpt lat="42.51538" lon="2.05539">
        <ele>1853.2198868796</ele>
        <time>2001-05-23T16:12:11.17</time>
      </trkpt>
      <trkpt lat="42.51538" lon="2.05539">
        <ele>1853.5342602728</ele>
        <time>2001-05-23T16:12:12.17</time>
      </trkpt>
      <trkpt lat="42.51539" lon="2.0554">
        <ele>1853.5869977536</ele>
        <time>2001-05-23T16:12:13.17</time>
      </trkpt>
      <trkpt lat="42.5154" lon="2.0554">
        <ele>1853.7306541022</ele>
        <time>2001-05-23T16:12:14.17</time>
      </trkpt>
      <trkpt lat="42.51541" lon="2.05541">
        <ele>1853.3443453208</ele>
        <time>2001-05-23T16:12:15.17</time>
      </trkpt>
      <trkpt lat="42.51542" lon="2.05542">
        <ele>1852.6493166853</ele>
        <time>2001-05-23T16:12:16.17</time>
      </trkpt>
      <trkpt lat="42.51543" lon="2.05542">
        <ele>1851.9695472401</ele>
        <time>2001-05-23T16:12:17.17</time>
      </trkpt>
      <trkpt lat="42.51544" lon="2.05543">
        <ele>1851.6229283264</ele>
        <time>2001-05-23T16:12:18.17</time>
      </trkpt>
      <trkpt lat="42.51545" lon="2.05543">
        <ele>1851.6643602321</ele>
        <time>2001-05-23T16:12:19.18</time>
      </trkpt>
      <trkpt lat="42.51545" lon="2.05543">
        <ele>1852.0872080095</ele>
        <time>2001-05-23T16:12:20.18</time>
      </trkpt>
      <trkpt lat="42.51548" lon="2.05545">
        <ele>1853.3983845476</ele>
        <time>2001-05-23T16:12:21.18</time>
      </trkpt>
      <trkpt lat="42.51548" lon="2.05545">
        <ele>1854.5762946952</ele>
        <time>2001-05-23T16:12:22.18</time>
      </trkpt>
      <trkpt lat="42.51549" lon="2.05546">
        <ele>1855.5005131785</ele>
        <time>2001-05-23T16:12:23.19</time>
      </trkpt>
      <trkpt lat="42.5155" lon="2.05546">
        <ele>1856.1887734888</ele>
        <time>2001-05-23T16:12:24.19</time>
      </trkpt>
      <trkpt lat="42.51552" lon="2.05547">
        <ele>1856.9517488761</ele>
        <time>2001-05-23T16:12:25.19</time>
      </trkpt>
      <trkpt lat="42.51553" lon="2.05546">
        <ele>1856.8924477927</ele>
        <time>2001-05-23T16:12:26.19</time>
      </trkpt>
      <trkpt lat="42.51554" lon="2.05546">
        <ele>1856.9910132151</ele>
        <time>2001-05-23T16:12:27.19</time>
      </trkpt>
      <trkpt lat="42.51554" lon="2.05546">
        <ele>1857.1164980177</ele>
        <time>2001-05-23T16:12:28.19</time>
      </trkpt>
      <trkpt lat="42.51554" lon="2.05547">
        <ele>1857.0328807786</ele>
        <time>2001-05-23T16:12:29.19</time>
      </trkpt>
      <trkpt lat="42.51557" lon="2.05548">
        <ele>1856.8077478472</ele>
        <time>2001-05-23T16:12:30.19</time>
      </trkpt>
      <trkpt lat="42.51557" lon="2.05547">
        <ele>1856.9333427168</ele>
        <time>2001-05-23T16:12:31.19</time>
      </trkpt>
      <trkpt lat="42.51558" lon="2.05548">
        <ele>1856.6997226899</ele>
        <time>2001-05-23T16:12:32.19</time>
      </trkpt>
      <trkpt lat="42.51559" lon="2.05547">
        <ele>1856.7354614619</ele>
        <time>2001-05-23T16:12:33.19</time>
      </trkpt>
      <trkpt lat="42.51559" lon="2.05547">
        <ele>1856.9296659838</ele>
        <time>2001-05-23T16:12:34.19</time>
      </trkpt>
      <trkpt lat="42.5156" lon="2.05547">
        <ele>1857.1300600566</ele>
        <time>2001-05-23T16:12:35.22</time>
      </trkpt>
      <trkpt lat="42.51562" lon="2.05547">
        <ele>1857.0144043202</ele>
        <time>2001-05-23T16:12:36.22</time>
      </trkpt>
      <trkpt lat="42.51563" lon="2.05547">
        <ele>1856.8416572016</ele>
        <time>2001-05-23T16:12:37.22</time>
      </trkpt>
      <trkpt lat="42.51565" lon="2.05547">
        <ele>1856.3516804732</ele>
        <time>2001-05-23T16:12:38.22</time>
      </trkpt>
      <trkpt lat="42.51567" lon="2.05546">
        <ele>1855.8675529271</ele>
        <time>2001-05-23T16:12:39.22</time>
      </trkpt>
      <trkpt lat="42.51569" lon="2.05545">
        <ele>1855.4648158928</ele>
        <time>2001-05-23T16:12:40.22</time>
      </trkpt>
      <trkpt lat="42.5157" lon="2.05544">
        <ele>1855.3234380944</ele>
        <time>2001-05-23T16:12:41.22</time>
      </trkpt>
      <trkpt lat="42.51571" lon="2.05544">
        <ele>1855.8532487387</ele>
        <time>2001-05-23T16:12:42.22</time>
      </trkpt>
      <trkpt lat="42.51572" lon="2.05544">
        <ele>1856.4155690808</ele>
        <time>2001-05-23T16:12:43.22</time>
      </trkpt>
      <trkpt lat="42.51573" lon="2.05544">
        <ele>1857.0086816831</ele>
        <time>2001-05-23T16:12:44.22</time>
      </trkpt>
      <trkpt lat="42.51573" lon="2.05544">
        <ele>1857.5848928837</ele>
        <time>2001-05-23T16:12:45.22</time>
      </trkpt>
      <trkpt lat="42.51574" lon="2.05544">
        <ele>1858.0800632989</ele>
        <time>2001-05-23T16:12:46.23</time>
      </trkpt>
      <trkpt lat="42.51575" lon="2.05544">
        <ele>1858.2544320893</ele>
        <time>2001-05-23T16:12:47.23</time>
      </trkpt>
      <trkpt lat="42.51578" lon="2.05543">
        <ele>1858.691429474</ele>
        <time>2001-05-23T16:12:48.23</time>
      </trkpt>
      <trkpt lat="42.51579" lon="2.05542">
        <ele>1859.2826599633</ele>
        <time>2001-05-23T16:12:49.23</time>
      </trkpt>
      <trkpt lat="42.5158" lon="2.05542">
        <ele>1859.7827995822</ele>
        <time>2001-05-23T16:12:50.23</time>
      </trkpt>
      <trkpt lat="42.51581" lon="2.05541">
        <ele>1860.2248525968</ele>
        <time>2001-05-23T16:12:51.23</time>
      </trkpt>
      <trkpt lat="42.51581" lon="2.05541">
        <ele>1860.6044633232</ele>
        <time>2001-05-23T16:12:52.23</time>
      </trkpt>
      <trkpt lat="42.5158" lon="2.0554">
        <ele>1860.7798282498</ele>
        <time>2001-05-23T16:12:53.23</time>
      </trkpt>
      <trkpt lat="42.51581" lon="2.0554">
        <ele>1860.6574820053</ele>
        <time>2001-05-23T16:12:54.23</time>
      </trkpt>
      <trkpt lat="42.51582" lon="2.0554">
        <ele>1861.0103939438</ele>
        <time>2001-05-23T16:12:55.22</time>
      </trkpt>
      <trkpt lat="42.51583" lon="2.0554">
        <ele>1861.2339745047</ele>
        <time>2001-05-23T16:12:56.22</time>
      </trkpt>
      <trkpt lat="42.51585" lon="2.05538">
        <ele>1860.9767574968</ele>
        <time>2001-05-23T16:12:57.22</time>
      </trkpt>
      <trkpt lat="42.51587" lon="2.05538">
        <ele>1860.5952974495</ele>
        <time>2001-05-23T16:12:58.22</time>
      </trkpt>
      <trkpt lat="42.51588" lon="2.05537">
        <ele>1860.2796388967</ele>
        <time>2001-05-23T16:12:59.22</time>
      </trkpt>
      <trkpt lat="42.51588" lon="2.05537">
        <ele>1859.4721204087</ele>
        <time>2001-05-23T16:13:00.22</time>
      </trkpt>
      <trkpt lat="42.51587" lon="2.05536">
        <ele>1858.9417656377</ele>
        <time>2001-05-23T16:13:01.22</time>
      </trkpt>
      <trkpt lat="42.51587" lon="2.05536">
        <ele>1858.8627036786</ele>
        <time>2001-05-23T16:13:02.22</time>
      </trkpt>
      <trkpt lat="42.51589" lon="2.05535">
        <ele>1858.7400479043</ele>
        <time>2001-05-23T16:13:03.18</time>
      </trkpt>
      <trkpt lat="42.5159" lon="2.05534">
        <ele>1858.873677545</ele>
        <time>2001-05-23T16:13:04.18</time>
      </trkpt>
      <trkpt lat="42.51591" lon="2.05533">
        <ele>1859.1888768125</ele>
        <time>2001-05-23T16:13:05.18</time>
      </trkpt>
      <trkpt lat="42.51592" lon="2.05532">
        <ele>1859.4640796959</ele>
        <time>2001-05-23T16:13:06.18</time>
      </trkpt>
      <trkpt lat="42.51592" lon="2.05531">
        <ele>1859.8196576623</ele>
        <time>2001-05-23T16:13:07.18</time>
      </trkpt>
      <trkpt lat="42.51593" lon="2.0553">
        <ele>1860.4536211796</ele>
        <time>2001-05-23T16:13:08.18</time>
      </trkpt>
      <trkpt lat="42.51594" lon="2.05529">
        <ele>1861.5175599568</ele>
        <time>2001-05-23T16:13:09.18</time>
      </trkpt>
      <trkpt lat="42.51596" lon="2.05529">
        <ele>1862.9730285663</ele>
        <time>2001-05-23T16:13:10.18</time>
      </trkpt>
      <trkpt lat="42.51597" lon="2.05529">
        <ele>1864.5541446876</ele>
        <time>2001-05-23T16:13:11.18</time>
      </trkpt>
      <trkpt lat="42.51598" lon="2.05529">
        <ele>1866.0590781741</ele>
        <time>2001-05-23T16:13:12.18</time>
      </trkpt>
      <trkpt lat="42.516" lon="2.05529">
        <ele>1867.2360284528</ele>
        <time>2001-05-23T16:13:13.18</time>
      </trkpt>
      <trkpt lat="42.51601" lon="2.05528">
        <ele>1867.7700768963</ele>
        <time>2001-05-23T16:13:14.18</time>
      </trkpt>
      <trkpt lat="42.51602" lon="2.05528">
        <ele>1867.8037386695</ele>
        <time>2001-05-23T16:13:15.18</time>
      </trkpt>
      <trkpt lat="42.51604" lon="2.05529">
        <ele>1867.3768649139</ele>
        <time>2001-05-23T16:13:16.18</time>
      </trkpt>
      <trkpt lat="42.51606" lon="2.05529">
        <ele>1866.8322054096</ele>
        <time>2001-05-23T16:13:17.18</time>
      </trkpt>
      <trkpt lat="42.51607" lon="2.05528">
        <ele>1866.4485866439</ele>
        <time>2001-05-23T16:13:18.18</time>
      </trkpt>
      <trkpt lat="42.51608" lon="2.05528">
        <ele>1866.0172886254</ele>
        <time>2001-05-23T16:13:19.18</time>
      </trkpt>
      <trkpt lat="42.5161" lon="2.05528">
        <ele>1865.3516154399</ele>
        <time>2001-05-23T16:13:20.18</time>
      </trkpt>
      <trkpt lat="42.5161" lon="2.05528">
        <ele>1865.0894618664</ele>
        <time>2001-05-23T16:13:21.18</time>
      </trkpt>
      <trkpt lat="42.5161" lon="2.05528">
        <ele>1864.9409015933</ele>
        <time>2001-05-23T16:13:22.18</time>
      </trkpt>
      <trkpt lat="42.51611" lon="2.05527">
        <ele>1865.133128034</ele>
        <time>2001-05-23T16:13:23.18</time>
      </trkpt>
      <trkpt lat="42.51612" lon="2.05526">
        <ele>1865.5496897662</ele>
        <time>2001-05-23T16:13:24.18</time>
      </trkpt>
      <trkpt lat="42.51613" lon="2.05526">
        <ele>1866.435502694</ele>
        <time>2001-05-23T16:13:25.15</time>
      </trkpt>
      <trkpt lat="42.51614" lon="2.05525">
        <ele>1867.2101012876</ele>
        <time>2001-05-23T16:13:26.15</time>
      </trkpt>
      <trkpt lat="42.51614" lon="2.05524">
        <ele>1867.9006622441</ele>
        <time>2001-05-23T16:13:27.15</time>
      </trkpt>
      <trkpt lat="42.51615" lon="2.05522">
        <ele>1867.7812405938</ele>
        <time>2001-05-23T16:13:28.15</time>
      </trkpt>
      <trkpt lat="42.51617" lon="2.05522">
        <ele>1867.5678847454</ele>
        <time>2001-05-23T16:13:29.15</time>
      </trkpt>
      <trkpt lat="42.51617" lon="2.05521">
        <ele>1867.1313022118</ele>
        <time>2001-05-23T16:13:30.15</time>
      </trkpt>
      <trkpt lat="42.51617" lon="2.05521">
        <ele>1866.7203346813</ele>
        <time>2001-05-23T16:13:31.15</time>
      </trkpt>
      <trkpt lat="42.51617" lon="2.05521">
        <ele>1866.393404788</ele>
        <time>2001-05-23T16:13:32.15</time>
      </trkpt>
      <trkpt lat="42.51619" lon="2.05521">
        <ele>1866.8869098689</ele>
        <time>2001-05-23T16:13:33.20</time>
      </trkpt>
      <trkpt lat="42.51619" lon="2.0552">
        <ele>1867.5904887743</ele>
        <time>2001-05-23T16:13:34.20</time>
      </trkpt>
      <trkpt lat="42.5162" lon="2.0552">
        <ele>1868.5009515999</ele>
        <time>2001-05-23T16:13:35.20</time>
      </trkpt>
      <trkpt lat="42.51622" lon="2.05518">
        <ele>1869.1417921297</ele>
        <time>2001-05-23T16:13:36.20</time>
      </trkpt>
      <trkpt lat="42.51622" lon="2.05518">
        <ele>1869.7826326596</ele>
        <time>2001-05-23T16:13:37.20</time>
      </trkpt>
      <trkpt lat="42.51622" lon="2.05517">
        <ele>1870.4387328668</ele>
        <time>2001-05-23T16:13:38.20</time>
      </trkpt>
      <trkpt lat="42.51622" lon="2.05517">
        <ele>1870.7997136988</ele>
        <time>2001-05-23T16:13:39.20</time>
      </trkpt>
      <trkpt lat="42.51623" lon="2.05516">
        <ele>1871.0055761503</ele>
        <time>2001-05-23T16:13:40.20</time>
      </trkpt>
      <trkpt lat="42.51626" lon="2.05515">
        <ele>1871.7199951271</ele>
        <time>2001-05-23T16:13:41.21</time>
      </trkpt>
      <trkpt lat="42.51627" lon="2.05515">
        <ele>1872.8490765784</ele>
        <time>2001-05-23T16:13:42.21</time>
      </trkpt>
      <trkpt lat="42.51628" lon="2.05514">
        <ele>1873.615246488</ele>
        <time>2001-05-23T16:13:43.21</time>
      </trkpt>
      <trkpt lat="42.51628" lon="2.05514">
        <ele>1874.5339405365</ele>
        <time>2001-05-23T16:13:44.21</time>
      </trkpt>
      <trkpt lat="42.51629" lon="2.05513">
        <ele>1875.3513521751</ele>
        <time>2001-05-23T16:13:45.21</time>
      </trkpt>
      <trkpt lat="42.5163" lon="2.05513">
        <ele>1876.0718384972</ele>
        <time>2001-05-23T16:13:46.21</time>
      </trkpt>
      <trkpt lat="42.5163" lon="2.05512">
        <ele>1876.6170721738</ele>
        <time>2001-05-23T16:13:47.21</time>
      </trkpt>
      <trkpt lat="42.51631" lon="2.0551">
        <ele>1877.1894266179</ele>
        <time>2001-05-23T16:13:48.20</time>
      </trkpt>
      <trkpt lat="42.51631" lon="2.0551">
        <ele>1877.609256923</ele>
        <time>2001-05-23T16:13:49.20</time>
      </trkpt>
      <trkpt lat="42.51631" lon="2.05509">
        <ele>1877.9652523089</ele>
        <time>2001-05-23T16:13:50.20</time>
      </trkpt>
      <trkpt lat="42.51632" lon="2.05508">
        <ele>1877.8270058982</ele>
        <time>2001-05-23T16:13:51.20</time>
      </trkpt>
      <trkpt lat="42.51632" lon="2.05507">
        <ele>1877.3164631303</ele>
        <time>2001-05-23T16:13:52.20</time>
      </trkpt>
      <trkpt lat="42.51634" lon="2.05506">
        <ele>1876.6450965518</ele>
        <time>2001-05-23T16:13:53.20</time>
      </trkpt>
      <trkpt lat="42.51635" lon="2.05504">
        <ele>1876.1450468354</ele>
        <time>2001-05-23T16:13:54.20</time>
      </trkpt>
      <trkpt lat="42.51636" lon="2.05504">
        <ele>1875.6861390257</ele>
        <time>2001-05-23T16:13:55.20</time>
      </trkpt>
      <trkpt lat="42.51637" lon="2.05503">
        <ele>1875.4786986621</ele>
        <time>2001-05-23T16:13:56.20</time>
      </trkpt>
      <trkpt lat="42.51637" lon="2.05503">
        <ele>1875.49363034</ele>
        <time>2001-05-23T16:13:57.20</time>
      </trkpt>
      <trkpt lat="42.51637" lon="2.05502">
        <ele>1875.6390736043</ele>
        <time>2001-05-23T16:13:58.20</time>
      </trkpt>
      <trkpt lat="42.51638" lon="2.05502">
        <ele>1875.6229204705</ele>
        <time>2001-05-23T16:13:59.20</time>
      </trkpt>
      <trkpt lat="42.5164" lon="2.05501">
        <ele>1875.522930404</ele>
        <time>2001-05-23T16:14:00.20</time>
      </trkpt>
      <trkpt lat="42.5164" lon="2.055">
        <ele>1875.0363571692</ele>
        <time>2001-05-23T16:14:01.20</time>
      </trkpt>
      <trkpt lat="42.5164" lon="2.05498">
        <ele>1873.9177032914</ele>
        <time>2001-05-23T16:14:02.20</time>
      </trkpt>
      <trkpt lat="42.51642" lon="2.05498">
        <ele>1873.1138450682</ele>
        <time>2001-05-23T16:14:03.20</time>
      </trkpt>
      <trkpt lat="42.51642" lon="2.05498">
        <ele>1872.3002663812</ele>
        <time>2001-05-23T16:14:04.20</time>
      </trkpt>
      <trkpt lat="42.51642" lon="2.05498">
        <ele>1871.5296690203</ele>
        <time>2001-05-23T16:14:05.20</time>
      </trkpt>
      <trkpt lat="42.51643" lon="2.05496">
        <ele>1871.0019730873</ele>
        <time>2001-05-23T16:14:06.19</time>
      </trkpt>
      <trkpt lat="42.51643" lon="2.05496">
        <ele>1871.016872284</ele>
        <time>2001-05-23T16:14:07.19</time>
      </trkpt>
      <trkpt lat="42.51645" lon="2.05495">
        <ele>1871.0161904534</ele>
        <time>2001-05-23T16:14:08.18</time>
      </trkpt>
      <trkpt lat="42.51646" lon="2.05494">
        <ele>1870.8916323222</ele>
        <time>2001-05-23T16:14:09.18</time>
      </trkpt>
      <trkpt lat="42.51647" lon="2.05494">
        <ele>1870.8969230566</ele>
        <time>2001-05-23T16:14:10.18</time>
      </trkpt>
      <trkpt lat="42.51648" lon="2.05493">
        <ele>1870.836320713</ele>
        <time>2001-05-23T16:14:11.18</time>
      </trkpt>
      <trkpt lat="42.51649" lon="2.05492">
        <ele>1870.7243628614</ele>
        <time>2001-05-23T16:14:12.18</time>
      </trkpt>
      <trkpt lat="42.51651" lon="2.05492">
        <ele>1870.3972365724</ele>
        <time>2001-05-23T16:14:13.18</time>
      </trkpt>
      <trkpt lat="42.51653" lon="2.05492">
        <ele>1870.4688307595</ele>
        <time>2001-05-23T16:14:14.18</time>
      </trkpt>
      <trkpt lat="42.51654" lon="2.05491">
        <ele>1870.6023226358</ele>
        <time>2001-05-23T16:14:15.18</time>
      </trkpt>
      <trkpt lat="42.51655" lon="2.05491">
        <ele>1870.9352788512</ele>
        <time>2001-05-23T16:14:16.18</time>
      </trkpt>
      <trkpt lat="42.51655" lon="2.0549">
        <ele>1871.3456669014</ele>
        <time>2001-05-23T16:14:17.18</time>
      </trkpt>
      <trkpt lat="42.51656" lon="2.05491">
        <ele>1870.9434708269</ele>
        <time>2001-05-23T16:14:18.18</time>
      </trkpt>
      <trkpt lat="42.51657" lon="2.0549">
        <ele>1869.824803214</ele>
        <time>2001-05-23T16:14:19.18</time>
      </trkpt>
      <trkpt lat="42.51658" lon="2.0549">
        <ele>1868.2478367679</ele>
        <time>2001-05-23T16:14:20.18</time>
      </trkpt>
      <trkpt lat="42.51659" lon="2.05489">
        <ele>1866.9342017209</ele>
        <time>2001-05-23T16:14:21.18</time>
      </trkpt>
      <trkpt lat="42.51659" lon="2.05488">
        <ele>1865.6279188167</ele>
        <time>2001-05-23T16:14:22.18</time>
      </trkpt>
      <trkpt lat="42.5166" lon="2.05487">
        <ele>1865.2874691382</ele>
        <time>2001-05-23T16:14:23.18</time>
      </trkpt>
      <trkpt lat="42.51661" lon="2.05487">
        <ele>1865.8593135934</ele>
        <time>2001-05-23T16:14:24.18</time>
      </trkpt>
      <trkpt lat="42.51663" lon="2.05487">
        <ele>1866.9682982603</ele>
        <time>2001-05-23T16:14:25.18</time>
      </trkpt>
      <trkpt lat="42.51664" lon="2.05486">
        <ele>1867.5270364609</ele>
        <time>2001-05-23T16:14:26.18</time>
      </trkpt>
      <trkpt lat="42.51665" lon="2.05485">
        <ele>1867.9960281406</ele>
        <time>2001-05-23T16:14:27.18</time>
      </trkpt>
      <trkpt lat="42.51666" lon="2.05483">
        <ele>1867.8764148079</ele>
        <time>2001-05-23T16:14:28.18</time>
      </trkpt>
      <trkpt lat="42.51668" lon="2.05482">
        <ele>1867.0698506961</ele>
        <time>2001-05-23T16:14:29.18</time>
      </trkpt>
      <trkpt lat="42.51669" lon="2.05481">
        <ele>1866.0116342969</ele>
        <time>2001-05-23T16:14:30.18</time>
      </trkpt>
      <trkpt lat="42.51669" lon="2.0548">
        <ele>1865.1114639694</ele>
        <time>2001-05-23T16:14:31.18</time>
      </trkpt>
      <trkpt lat="42.51669" lon="2.0548">
        <ele>1864.267611693</ele>
        <time>2001-05-23T16:14:32.18</time>
      </trkpt>
      <trkpt lat="42.51671" lon="2.05479">
        <ele>1863.526487715</ele>
        <time>2001-05-23T16:14:33.18</time>
      </trkpt>
      <trkpt lat="42.51671" lon="2.05479">
        <ele>1863.0285228409</ele>
        <time>2001-05-23T16:14:34.18</time>
      </trkpt>
      <trkpt lat="42.51673" lon="2.05479">
        <ele>1862.7569996445</ele>
        <time>2001-05-23T16:14:35.18</time>
      </trkpt>
      <trkpt lat="42.51675" lon="2.05478">
        <ele>1862.8291287141</ele>
        <time>2001-05-23T16:14:36.18</time>
      </trkpt>
      <trkpt lat="42.51677" lon="2.05477">
        <ele>1862.69355157</ele>
        <time>2001-05-23T16:14:37.18</time>
      </trkpt>
      <trkpt lat="42.51679" lon="2.05477">
        <ele>1863.1165411884</ele>
        <time>2001-05-23T16:14:38.18</time>
      </trkpt>
      <trkpt lat="42.5168" lon="2.05476">
        <ele>1863.247976239</ele>
        <time>2001-05-23T16:14:39.18</time>
      </trkpt>
      <trkpt lat="42.5168" lon="2.05476">
        <ele>1862.9131567866</ele>
        <time>2001-05-23T16:14:40.18</time>
      </trkpt>
      <trkpt lat="42.5168" lon="2.05474">
        <ele>1861.6104072617</ele>
        <time>2001-05-23T16:14:41.18</time>
      </trkpt>
      <trkpt lat="42.51679" lon="2.05473">
        <ele>1859.9832947867</ele>
        <time>2001-05-23T16:14:42.18</time>
      </trkpt>
      <trkpt lat="42.5168" lon="2.05472">
        <ele>1858.4691550232</ele>
        <time>2001-05-23T16:14:43.18</time>
      </trkpt>
      <trkpt lat="42.5168" lon="2.05471">
        <ele>1857.7288275829</ele>
        <time>2001-05-23T16:14:44.18</time>
      </trkpt>
      <trkpt lat="42.51682" lon="2.05471">
        <ele>1857.7438199811</ele>
        <time>2001-05-23T16:14:45.18</time>
      </trkpt>
      <trkpt lat="42.51683" lon="2.05472">
        <ele>1858.7492464218</ele>
        <time>2001-05-23T16:14:46.18</time>
      </trkpt>
      <trkpt lat="42.51684" lon="2.05473">
        <ele>1860.5604631163</ele>
        <time>2001-05-23T16:14:47.18</time>
      </trkpt>
      <trkpt lat="42.51684" lon="2.05473">
        <ele>1861.9616980908</ele>
        <time>2001-05-23T16:14:48.18</time>
      </trkpt>
      <trkpt lat="42.51683" lon="2.05473">
        <ele>1862.6908452388</ele>
        <time>2001-05-23T16:14:49.18</time>
      </trkpt>
      <trkpt lat="42.51683" lon="2.05472">
        <ele>1863.4479292141</ele>
        <time>2001-05-23T16:14:50.18</time>
      </trkpt>
      <trkpt lat="42.51684" lon="2.05472">
        <ele>1864.4467316184</ele>
        <time>2001-05-23T16:14:51.18</time>
      </trkpt>
      <trkpt lat="42.51685" lon="2.05471">
        <ele>1865.4952017942</ele>
        <time>2001-05-23T16:14:52.18</time>
      </trkpt>
      <trkpt lat="42.51686" lon="2.0547">
        <ele>1866.6791176034</ele>
        <time>2001-05-23T16:14:53.18</time>
      </trkpt>
      <trkpt lat="42.51688" lon="2.05469">
        <ele>1868.1775377396</ele>
        <time>2001-05-23T16:14:54.18</time>
      </trkpt>
      <trkpt lat="42.51687" lon="2.05469">
        <ele>1869.611761329</ele>
        <time>2001-05-23T16:14:55.18</time>
      </trkpt>
      <trkpt lat="42.51688" lon="2.05469">
        <ele>1870.9766093548</ele>
        <time>2001-05-23T16:14:56.18</time>
      </trkpt>
      <trkpt lat="42.51689" lon="2.05468">
        <ele>1871.6660813652</ele>
        <time>2001-05-23T16:14:57.18</time>
      </trkpt>
      <trkpt lat="42.5169" lon="2.05467">
        <ele>1871.5460132739</ele>
        <time>2001-05-23T16:14:58.18</time>
      </trkpt>
      <trkpt lat="42.51691" lon="2.05466">
        <ele>1871.4216944164</ele>
        <time>2001-05-23T16:14:59.18</time>
      </trkpt>
      <trkpt lat="42.51691" lon="2.05466">
        <ele>1871.5047140975</ele>
        <time>2001-05-23T16:15:00.18</time>
      </trkpt>
      <trkpt lat="42.51692" lon="2.05465">
        <ele>1871.2273835799</ele>
        <time>2001-05-23T16:15:01.18</time>
      </trkpt>
      <trkpt lat="42.51693" lon="2.05465">
        <ele>1871.3936032772</ele>
        <time>2001-05-23T16:15:02.18</time>
      </trkpt>
      <trkpt lat="42.51693" lon="2.05465">
        <ele>1872.2339174429</ele>
        <time>2001-05-23T16:15:03.18</time>
      </trkpt>
      <trkpt lat="42.51694" lon="2.05466">
        <ele>1872.919953667</ele>
        <time>2001-05-23T16:15:04.14</time>
      </trkpt>
      <trkpt lat="42.51694" lon="2.05466">
        <ele>1873.0329863468</ele>
        <time>2001-05-23T16:15:05.14</time>
      </trkpt>
      <trkpt lat="42.51695" lon="2.05465">
        <ele>1873.0170771072</ele>
        <time>2001-05-23T16:15:06.13</time>
      </trkpt>
      <trkpt lat="42.51696" lon="2.05465">
        <ele>1872.4986561012</ele>
        <time>2001-05-23T16:15:07.13</time>
      </trkpt>
      <trkpt lat="42.51697" lon="2.05465">
        <ele>1871.958508209</ele>
        <time>2001-05-23T16:15:08.13</time>
      </trkpt>
      <trkpt lat="42.51698" lon="2.05465">
        <ele>1871.5149978597</ele>
        <time>2001-05-23T16:15:09.13</time>
      </trkpt>
      <trkpt lat="42.51699" lon="2.05465">
        <ele>1871.0710352143</ele>
        <time>2001-05-23T16:15:10.13</time>
      </trkpt>
      <trkpt lat="42.51701" lon="2.05465">
        <ele>1870.9565809283</ele>
        <time>2001-05-23T16:15:11.13</time>
      </trkpt>
      <trkpt lat="42.51703" lon="2.05465">
        <ele>1871.5690737098</ele>
        <time>2001-05-23T16:15:12.13</time>
      </trkpt>
      <trkpt lat="42.51704" lon="2.05465">
        <ele>1872.6767665729</ele>
        <time>2001-05-23T16:15:13.13</time>
      </trkpt>
      <trkpt lat="42.51704" lon="2.05465">
        <ele>1874.1815543877</ele>
        <time>2001-05-23T16:15:14.13</time>
      </trkpt>
      <trkpt lat="42.51704" lon="2.05465">
        <ele>1875.9882082267</ele>
        <time>2001-05-23T16:15:15.13</time>
      </trkpt>
      <trkpt lat="42.51705" lon="2.05464">
        <ele>1877.5094831914</ele>
        <time>2001-05-23T16:15:16.4</time>
      </trkpt>
      <trkpt lat="42.51706" lon="2.05463">
        <ele>1879.0358242501</ele>
        <time>2001-05-23T16:15:17.4</time>
      </trkpt>
      <trkpt lat="42.51707" lon="2.05463">
        <ele>1880.4610698959</ele>
        <time>2001-05-23T16:15:18.4</time>
      </trkpt>
      <trkpt lat="42.51709" lon="2.05463">
        <ele>1881.6704482459</ele>
        <time>2001-05-23T16:15:19.4</time>
      </trkpt>
      <trkpt lat="42.5171" lon="2.05463">
        <ele>1882.5819298232</ele>
        <time>2001-05-23T16:15:20.4</time>
      </trkpt>
      <trkpt lat="42.5171" lon="2.05462">
        <ele>1883.4410241881</ele>
        <time>2001-05-23T16:15:21.4</time>
      </trkpt>
      <trkpt lat="42.51711" lon="2.05462">
        <ele>1884.185132209</ele>
        <time>2001-05-23T16:15:22.4</time>
      </trkpt>
      <trkpt lat="42.51711" lon="2.05462">
        <ele>1884.5568624474</ele>
        <time>2001-05-23T16:15:23.4</time>
      </trkpt>
      <trkpt lat="42.51713" lon="2.05461">
        <ele>1884.5080343902</ele>
        <time>2001-05-23T16:15:23.953</time>
      </trkpt>
      <trkpt lat="42.51715" lon="2.05461">
        <ele>1884.8702913286</ele>
        <time>2001-05-23T16:15:24.953</time>
      </trkpt>
      <trkpt lat="42.51715" lon="2.05461">
        <ele>1885.3412989382</ele>
        <time>2001-05-23T16:15:25.953</time>
      </trkpt>
      <trkpt lat="42.51715" lon="2.05461">
        <ele>1885.8318191787</ele>
        <time>2001-05-23T16:15:26.953</time>
      </trkpt>
      <trkpt lat="42.51718" lon="2.05461">
        <ele>1886.7146553334</ele>
        <time>2001-05-23T16:15:27.953</time>
      </trkpt>
      <trkpt lat="42.5172" lon="2.0546">
        <ele>1887.4370943097</ele>
        <time>2001-05-23T16:15:28.953</time>
      </trkpt>
      <trkpt lat="42.5172" lon="2.05459">
        <ele>1887.5366090506</ele>
        <time>2001-05-23T16:15:29.953</time>
      </trkpt>
      <trkpt lat="42.5172" lon="2.05457">
        <ele>1887.6699390322</ele>
        <time>2001-05-23T16:15:30.953</time>
      </trkpt>
      <trkpt lat="42.51721" lon="2.05457">
        <ele>1887.9467672642</ele>
        <time>2001-05-23T16:15:31.953</time>
      </trkpt>
      <trkpt lat="42.51723" lon="2.05456">
        <ele>1887.6427464727</ele>
        <time>2001-05-23T16:15:32.953</time>
      </trkpt>
      <trkpt lat="42.51725" lon="2.05456">
        <ele>1887.4060138116</ele>
        <time>2001-05-23T16:15:33.953</time>
      </trkpt>
      <trkpt lat="42.51726" lon="2.05455">
        <ele>1887.3563417548</ele>
        <time>2001-05-23T16:15:34.953</time>
      </trkpt>
      <trkpt lat="42.51726" lon="2.05455">
        <ele>1887.1840802167</ele>
        <time>2001-05-23T16:15:35.953</time>
      </trkpt>
      <trkpt lat="42.51728" lon="2.05455">
        <ele>1886.687790006</ele>
        <time>2001-05-23T16:15:36.953</time>
      </trkpt>
      <trkpt lat="42.51728" lon="2.05455">
        <ele>1886.5425472429</ele>
        <time>2001-05-23T16:15:37.953</time>
      </trkpt>
      <trkpt lat="42.5173" lon="2.05455">
        <ele>1886.194759327</ele>
        <time>2001-05-23T16:15:38.953</time>
      </trkpt>
      <trkpt lat="42.51731" lon="2.05454">
        <ele>1885.4137416381</ele>
        <time>2001-05-23T16:15:39.953</time>
      </trkpt>
      <trkpt lat="42.51733" lon="2.05453">
        <ele>1884.2475971904</ele>
        <time>2001-05-23T16:15:40.953</time>
      </trkpt>
      <trkpt lat="42.51734" lon="2.05452">
        <ele>1882.7188550247</ele>
        <time>2001-05-23T16:15:41.953</time>
      </trkpt>
      <trkpt lat="42.51735" lon="2.05451">
        <ele>1880.8599942559</ele>
        <time>2001-05-23T16:15:42.953</time>
      </trkpt>
      <trkpt lat="42.51737" lon="2.0545">
        <ele>1879.5785096237</ele>
        <time>2001-05-23T16:15:43.953</time>
      </trkpt>
      <trkpt lat="42.51738" lon="2.0545">
        <ele>1879.1092695821</ele>
        <time>2001-05-23T16:15:44.953</time>
      </trkpt>
      <trkpt lat="42.51738" lon="2.05449">
        <ele>1879.1455719948</ele>
        <time>2001-05-23T16:15:45.953</time>
      </trkpt>
      <trkpt lat="42.51738" lon="2.05449">
        <ele>1879.5525120888</ele>
        <time>2001-05-23T16:15:46.953</time>
      </trkpt>
      <trkpt lat="42.51739" lon="2.05449">
        <ele>1879.9405728441</ele>
        <time>2001-05-23T16:15:47.953</time>
      </trkpt>
      <trkpt lat="42.5174" lon="2.05448">
        <ele>1880.4828899575</ele>
        <time>2001-05-23T16:15:48.953</time>
      </trkpt>
      <trkpt lat="42.51742" lon="2.05447">
        <ele>1880.8148515794</ele>
        <time>2001-05-23T16:15:49.953</time>
      </trkpt>
      <trkpt lat="42.51742" lon="2.05447">
        <ele>1880.8806118915</ele>
        <time>2001-05-23T16:15:50.953</time>
      </trkpt>
      <trkpt lat="42.51743" lon="2.05446">
        <ele>1880.5435503481</ele>
        <time>2001-05-23T16:15:51.953</time>
      </trkpt>
      <trkpt lat="42.51745" lon="2.05446">
        <ele>1880.3473901656</ele>
        <time>2001-05-23T16:15:52.953</time>
      </trkpt>
      <trkpt lat="42.51746" lon="2.05445">
        <ele>1879.8126082461</ele>
        <time>2001-05-23T16:15:53.953</time>
      </trkpt>
      <trkpt lat="42.51747" lon="2.05445">
        <ele>1879.0342099382</ele>
        <time>2001-05-23T16:15:54.953</time>
      </trkpt>
      <trkpt lat="42.51748" lon="2.05443">
        <ele>1878.3892973937</ele>
        <time>2001-05-23T16:15:55.953</time>
      </trkpt>
      <trkpt lat="42.51749" lon="2.05442">
        <ele>1878.4326715093</ele>
        <time>2001-05-23T16:15:56.953</time>
      </trkpt>
      <trkpt lat="42.5175" lon="2.05442">
        <ele>1878.5484502601</ele>
        <time>2001-05-23T16:15:57.953</time>
      </trkpt>
      <trkpt lat="42.51749" lon="2.05441">
        <ele>1878.8699419422</ele>
        <time>2001-05-23T16:15:58.953</time>
      </trkpt>
      <trkpt lat="42.51748" lon="2.0544">
        <ele>1878.9410191635</ele>
        <time>2001-05-23T16:15:59.953</time>
      </trkpt>
      <trkpt lat="42.51749" lon="2.0544">
        <ele>1878.6668801859</ele>
        <time>2001-05-23T16:16:00.953</time>
      </trkpt>
      <trkpt lat="42.5175" lon="2.0544">
        <ele>1877.9391043046</ele>
        <time>2001-05-23T16:16:01.953</time>
      </trkpt>
      <trkpt lat="42.51751" lon="2.0544">
        <ele>1877.3455618601</ele>
        <time>2001-05-23T16:16:02.953</time>
      </trkpt>
      <trkpt lat="42.51753" lon="2.05439">
        <ele>1876.8469996559</ele>
        <time>2001-05-23T16:16:03.953</time>
      </trkpt>
      <trkpt lat="42.51753" lon="2.05437">
        <ele>1876.6496344449</ele>
        <time>2001-05-23T16:16:04.953</time>
      </trkpt>
      <trkpt lat="42.51754" lon="2.05436">
        <ele>1876.8959399464</ele>
        <time>2001-05-23T16:16:05.953</time>
      </trkpt>
      <trkpt lat="42.51755" lon="2.05436">
        <ele>1877.3197562421</ele>
        <time>2001-05-23T16:16:06.953</time>
      </trkpt>
      <trkpt lat="42.51756" lon="2.05435">
        <ele>1877.691028</ele>
        <time>2001-05-23T16:16:07.953</time>
      </trkpt>
      <trkpt lat="42.51757" lon="2.05434">
        <ele>1877.6024233695</ele>
        <time>2001-05-23T16:16:08.953</time>
      </trkpt>
      <trkpt lat="42.51758" lon="2.05433">
        <ele>1877.614498839</ele>
        <time>2001-05-23T16:16:09.953</time>
      </trkpt>
      <trkpt lat="42.51759" lon="2.05433">
        <ele>1877.7533136006</ele>
        <time>2001-05-23T16:16:10.953</time>
      </trkpt>
      <trkpt lat="42.5176" lon="2.05432">
        <ele>1877.8110538453</ele>
        <time>2001-05-23T16:16:11.953</time>
      </trkpt>
      <trkpt lat="42.51761" lon="2.05431">
        <ele>1878.0047909562</ele>
        <time>2001-05-23T16:16:12.953</time>
      </trkpt>
      <trkpt lat="42.51763" lon="2.05429">
        <ele>1878.6070288368</ele>
        <time>2001-05-23T16:16:13.953</time>
      </trkpt>
      <trkpt lat="42.51764" lon="2.05428">
        <ele>1879.2553784024</ele>
        <time>2001-05-23T16:16:14.953</time>
      </trkpt>
      <trkpt lat="42.51765" lon="2.05428">
        <ele>1879.8846941398</ele>
        <time>2001-05-23T16:16:15.953</time>
      </trkpt>
      <trkpt lat="42.51767" lon="2.05427">
        <ele>1880.5580099588</ele>
        <time>2001-05-23T16:16:16.953</time>
      </trkpt>
      <trkpt lat="42.51767" lon="2.05426">
        <ele>1881.2140881736</ele>
        <time>2001-05-23T16:16:17.953</time>
      </trkpt>
      <trkpt lat="42.51768" lon="2.05426">
        <ele>1881.6143644931</ele>
        <time>2001-05-23T16:16:18.953</time>
      </trkpt>
      <trkpt lat="42.51768" lon="2.05425">
        <ele>1881.933837218</ele>
        <time>2001-05-23T16:16:19.953</time>
      </trkpt>
      <trkpt lat="42.51769" lon="2.05424">
        <ele>1881.8634334926</ele>
        <time>2001-05-23T16:16:20.953</time>
      </trkpt>
      <trkpt lat="42.51769" lon="2.05423">
        <ele>1881.9066437308</ele>
        <time>2001-05-23T16:16:21.953</time>
      </trkpt>
      <trkpt lat="42.51769" lon="2.05422">
        <ele>1881.7655626239</ele>
        <time>2001-05-23T16:16:22.953</time>
      </trkpt>
      <trkpt lat="42.5177" lon="2.05422">
        <ele>1881.8181199878</ele>
        <time>2001-05-23T16:16:23.953</time>
      </trkpt>
      <trkpt lat="42.51771" lon="2.05422">
        <ele>1881.8154728472</ele>
        <time>2001-05-23T16:16:24.953</time>
      </trkpt>
      <trkpt lat="42.51772" lon="2.05422">
        <ele>1881.9556611933</ele>
        <time>2001-05-23T16:16:25.953</time>
      </trkpt>
      <trkpt lat="42.51772" lon="2.05421">
        <ele>1881.4267047035</ele>
        <time>2001-05-23T16:16:26.953</time>
      </trkpt>
      <trkpt lat="42.51773" lon="2.0542">
        <ele>1880.9337559516</ele>
        <time>2001-05-23T16:16:27.953</time>
      </trkpt>
      <trkpt lat="42.51774" lon="2.0542">
        <ele>1880.4205057763</ele>
        <time>2001-05-23T16:16:28.953</time>
      </trkpt>
      <trkpt lat="42.51776" lon="2.05419">
        <ele>1880.2914806655</ele>
        <time>2001-05-23T16:16:29.957</time>
      </trkpt>
      <trkpt lat="42.51776" lon="2.05418">
        <ele>1880.0206444293</ele>
        <time>2001-05-23T16:16:30.957</time>
      </trkpt>
      <trkpt lat="42.51777" lon="2.05417">
        <ele>1879.6643019304</ele>
        <time>2001-05-23T16:16:31.957</time>
      </trkpt>
      <trkpt lat="42.51778" lon="2.05416">
        <ele>1879.1335427698</ele>
        <time>2001-05-23T16:16:32.957</time>
      </trkpt>
      <trkpt lat="42.51779" lon="2.05415">
        <ele>1878.6392148752</ele>
        <time>2001-05-23T16:16:33.957</time>
      </trkpt>
      <trkpt lat="42.5178" lon="2.05415">
        <ele>1877.8685777292</ele>
        <time>2001-05-23T16:16:34.957</time>
      </trkpt>
      <trkpt lat="42.5178" lon="2.05414">
        <ele>1877.4942382807</ele>
        <time>2001-05-23T16:16:35.957</time>
      </trkpt>
      <trkpt lat="42.5178" lon="2.05414">
        <ele>1877.6553285012</ele>
        <time>2001-05-23T16:16:36.957</time>
      </trkpt>
      <trkpt lat="42.51779" lon="2.05412">
        <ele>1877.4942796063</ele>
        <time>2001-05-23T16:16:37.957</time>
      </trkpt>
      <trkpt lat="42.5178" lon="2.05411">
        <ele>1876.8415413516</ele>
        <time>2001-05-23T16:16:38.957</time>
      </trkpt>
      <trkpt lat="42.51781" lon="2.0541">
        <ele>1876.1328332072</ele>
        <time>2001-05-23T16:16:39.957</time>
      </trkpt>
      <trkpt lat="42.51782" lon="2.05409">
        <ele>1875.2882902155</ele>
        <time>2001-05-23T16:16:40.957</time>
      </trkpt>
      <trkpt lat="42.51782" lon="2.05408">
        <ele>1874.2161184911</ele>
        <time>2001-05-23T16:16:41.957</time>
      </trkpt>
      <trkpt lat="42.51783" lon="2.05407">
        <ele>1873.5931844663</ele>
        <time>2001-05-23T16:16:42.957</time>
      </trkpt>
      <trkpt lat="42.51783" lon="2.05407">
        <ele>1873.4827680096</ele>
        <time>2001-05-23T16:16:43.957</time>
      </trkpt>
      <trkpt lat="42.51784" lon="2.05406">
        <ele>1872.9083700931</ele>
        <time>2001-05-23T16:16:44.957</time>
      </trkpt>
      <trkpt lat="42.51784" lon="2.05405">
        <ele>1872.0269874632</ele>
        <time>2001-05-23T16:16:45.957</time>
      </trkpt>
      <trkpt lat="42.51785" lon="2.05404">
        <ele>1871.5363495892</ele>
        <time>2001-05-23T16:16:46.957</time>
      </trkpt>
      <trkpt lat="42.51785" lon="2.05403">
        <ele>1871.1181553291</ele>
        <time>2001-05-23T16:16:47.957</time>
      </trkpt>
      <trkpt lat="42.51785" lon="2.05401">
        <ele>1870.5620669879</ele>
        <time>2001-05-23T16:16:48.957</time>
      </trkpt>
      <trkpt lat="42.51786" lon="2.05398">
        <ele>1870.203965128</ele>
        <time>2001-05-23T16:16:49.957</time>
      </trkpt>
      <trkpt lat="42.51785" lon="2.05395">
        <ele>1870.2495989954</ele>
        <time>2001-05-23T16:16:50.957</time>
      </trkpt>
      <trkpt lat="42.51785" lon="2.05392">
        <ele>1870.6939604545</ele>
        <time>2001-05-23T16:16:51.957</time>
      </trkpt>
      <trkpt lat="42.51785" lon="2.05391">
        <ele>1871.0610992534</ele>
        <time>2001-05-23T16:16:52.957</time>
      </trkpt>
      <trkpt lat="42.51785" lon="2.05389">
        <ele>1871.259519746</ele>
        <time>2001-05-23T16:16:53.957</time>
      </trkpt>
      <trkpt lat="42.51786" lon="2.05388">
        <ele>1871.7535868166</ele>
        <time>2001-05-23T16:16:54.957</time>
      </trkpt>
      <trkpt lat="42.51787" lon="2.05387">
        <ele>1872.272988219</ele>
        <time>2001-05-23T16:16:55.957</time>
      </trkpt>
      <trkpt lat="42.51789" lon="2.05386">
        <ele>1872.7502772022</ele>
        <time>2001-05-23T16:16:56.957</time>
      </trkpt>
      <trkpt lat="42.51789" lon="2.05385">
        <ele>1873.5003984377</ele>
        <time>2001-05-23T16:16:57.957</time>
      </trkpt>
      <trkpt lat="42.5179" lon="2.05385">
        <ele>1874.6002820581</ele>
        <time>2001-05-23T16:16:58.957</time>
      </trkpt>
      <trkpt lat="42.51791" lon="2.05385">
        <ele>1875.6901055697</ele>
        <time>2001-05-23T16:16:59.957</time>
      </trkpt>
      <trkpt lat="42.5179" lon="2.05384">
        <ele>1877.0632580938</ele>
        <time>2001-05-23T16:17:00.957</time>
      </trkpt>
      <trkpt lat="42.5179" lon="2.05383">
        <ele>1878.0135286506</ele>
        <time>2001-05-23T16:17:01.957</time>
      </trkpt>
      <trkpt lat="42.51791" lon="2.05382">
        <ele>1878.6812644847</ele>
        <time>2001-05-23T16:17:02.957</time>
      </trkpt>
      <trkpt lat="42.51791" lon="2.05381">
        <ele>1879.1267623583</ele>
        <time>2001-05-23T16:17:03.957</time>
      </trkpt>
      <trkpt lat="42.51791" lon="2.05379">
        <ele>1879.1130237775</ele>
        <time>2001-05-23T16:17:04.957</time>
      </trkpt>
      <trkpt lat="42.51791" lon="2.05379">
        <ele>1878.4151729863</ele>
        <time>2001-05-23T16:17:05.957</time>
      </trkpt>
      <trkpt lat="42.51792" lon="2.05378">
        <ele>1877.8524584228</ele>
        <time>2001-05-23T16:17:06.957</time>
      </trkpt>
      <trkpt lat="42.51792" lon="2.05377">
        <ele>1877.5581637628</ele>
        <time>2001-05-23T16:17:07.957</time>
      </trkpt>
      <trkpt lat="42.51793" lon="2.05377">
        <ele>1877.4499076962</ele>
        <time>2001-05-23T16:17:08.957</time>
      </trkpt>
      <trkpt lat="42.51793" lon="2.05376">
        <ele>1877.6846805988</ele>
        <time>2001-05-23T16:17:09.957</time>
      </trkpt>
      <trkpt lat="42.51793" lon="2.05374">
        <ele>1877.8226327669</ele>
        <time>2001-05-23T16:17:10.957</time>
      </trkpt>
      <trkpt lat="42.51795" lon="2.05373">
        <ele>1878.0367233951</ele>
        <time>2001-05-23T16:17:11.957</time>
      </trkpt>
      <trkpt lat="42.51796" lon="2.05372">
        <ele>1878.061344648</ele>
        <time>2001-05-23T16:17:12.957</time>
      </trkpt>
      <trkpt lat="42.51797" lon="2.05371">
        <ele>1878.0418069921</ele>
        <time>2001-05-23T16:17:13.957</time>
      </trkpt>
      <trkpt lat="42.51797" lon="2.0537">
        <ele>1877.680242558</ele>
        <time>2001-05-23T16:17:14.957</time>
      </trkpt>
      <trkpt lat="42.51798" lon="2.0537">
        <ele>1877.6669692801</ele>
        <time>2001-05-23T16:17:15.957</time>
      </trkpt>
      <trkpt lat="42.51798" lon="2.05369">
        <ele>1877.5087674694</ele>
        <time>2001-05-23T16:17:16.957</time>
      </trkpt>
      <trkpt lat="42.51799" lon="2.05368">
        <ele>1877.2378055146</ele>
        <time>2001-05-23T16:17:17.957</time>
      </trkpt>
      <trkpt lat="42.51801" lon="2.05366">
        <ele>1876.2420810737</ele>
        <time>2001-05-23T16:17:18.957</time>
      </trkpt>
      <trkpt lat="42.51801" lon="2.05365">
        <ele>1875.4076858349</ele>
        <time>2001-05-23T16:17:19.957</time>
      </trkpt>
      <trkpt lat="42.51802" lon="2.05364">
        <ele>1874.6249009293</ele>
        <time>2001-05-23T16:17:20.957</time>
      </trkpt>
      <trkpt lat="42.51801" lon="2.05362">
        <ele>1873.9479059508</ele>
        <time>2001-05-23T16:17:21.957</time>
      </trkpt>
      <trkpt lat="42.51801" lon="2.05361">
        <ele>1873.3162825095</ele>
        <time>2001-05-23T16:17:22.957</time>
      </trkpt>
      <trkpt lat="42.51801" lon="2.05361">
        <ele>1873.2764347596</ele>
        <time>2001-05-23T16:17:23.957</time>
      </trkpt>
      <trkpt lat="42.51803" lon="2.0536">
        <ele>1873.7686143136</ele>
        <time>2001-05-23T16:17:24.955</time>
      </trkpt>
      <trkpt lat="42.51804" lon="2.05359">
        <ele>1874.2215823369</ele>
        <time>2001-05-23T16:17:25.955</time>
      </trkpt>
      <trkpt lat="42.51805" lon="2.05359">
        <ele>1874.4247114616</ele>
        <time>2001-05-23T16:17:26.955</time>
      </trkpt>
      <trkpt lat="42.51806" lon="2.05359">
        <ele>1874.6603705183</ele>
        <time>2001-05-23T16:17:27.955</time>
      </trkpt>
      <trkpt lat="42.51806" lon="2.05358">
        <ele>1875.0917985983</ele>
        <time>2001-05-23T16:17:28.955</time>
      </trkpt>
      <trkpt lat="42.51807" lon="2.05358">
        <ele>1875.3265539769</ele>
        <time>2001-05-23T16:17:29.955</time>
      </trkpt>
      <trkpt lat="42.51808" lon="2.05358">
        <ele>1875.575431733</ele>
        <time>2001-05-23T16:17:30.955</time>
      </trkpt>
      <trkpt lat="42.51809" lon="2.05357">
        <ele>1875.718103742</ele>
        <time>2001-05-23T16:17:31.955</time>
      </trkpt>
      <trkpt lat="42.5181" lon="2.05357">
        <ele>1875.5821974523</ele>
        <time>2001-05-23T16:17:32.955</time>
      </trkpt>
      <trkpt lat="42.51811" lon="2.05356">
        <ele>1875.4955197921</ele>
        <time>2001-05-23T16:17:33.955</time>
      </trkpt>
      <trkpt lat="42.51812" lon="2.05355">
        <ele>1875.4854462603</ele>
        <time>2001-05-23T16:17:34.955</time>
      </trkpt>
      <trkpt lat="42.51812" lon="2.05355">
        <ele>1875.6862869566</ele>
        <time>2001-05-23T16:17:35.955</time>
      </trkpt>
      <trkpt lat="42.51813" lon="2.05355">
        <ele>1876.4886718594</ele>
        <time>2001-05-23T16:17:36.955</time>
      </trkpt>
      <trkpt lat="42.51814" lon="2.05355">
        <ele>1877.6298689915</ele>
        <time>2001-05-23T16:17:37.955</time>
      </trkpt>
      <trkpt lat="42.51816" lon="2.05355">
        <ele>1878.9555428579</ele>
        <time>2001-05-23T16:17:38.959</time>
      </trkpt>
      <trkpt lat="42.51817" lon="2.05355">
        <ele>1880.1577176567</ele>
        <time>2001-05-23T16:17:39.959</time>
      </trkpt>
      <trkpt lat="42.51818" lon="2.05355">
        <ele>1881.0415552817</ele>
        <time>2001-05-23T16:17:40.959</time>
      </trkpt>
      <trkpt lat="42.51819" lon="2.05355">
        <ele>1881.5551283304</ele>
        <time>2001-05-23T16:17:41.959</time>
      </trkpt>
      <trkpt lat="42.5182" lon="2.05355">
        <ele>1881.8945344549</ele>
        <time>2001-05-23T16:17:42.959</time>
      </trkpt>
      <trkpt lat="42.5182" lon="2.05355">
        <ele>1881.9779356167</ele>
        <time>2001-05-23T16:17:43.959</time>
      </trkpt>
      <trkpt lat="42.51821" lon="2.05355">
        <ele>1882.2642134501</ele>
        <time>2001-05-23T16:17:44.959</time>
      </trkpt>
      <trkpt lat="42.51822" lon="2.05355">
        <ele>1882.3916796252</ele>
        <time>2001-05-23T16:17:45.961</time>
      </trkpt>
      <trkpt lat="42.51824" lon="2.05355">
        <ele>1882.4142808167</ele>
        <time>2001-05-23T16:17:46.961</time>
      </trkpt>
      <trkpt lat="42.51824" lon="2.05355">
        <ele>1882.520519178</ele>
        <time>2001-05-23T16:17:47.961</time>
      </trkpt>
      <trkpt lat="42.51826" lon="2.05355">
        <ele>1882.6244084494</ele>
        <time>2001-05-23T16:17:48.961</time>
      </trkpt>
      <trkpt lat="42.51826" lon="2.05355">
        <ele>1882.367760272</ele>
        <time>2001-05-23T16:17:49.961</time>
      </trkpt>
      <trkpt lat="42.51827" lon="2.05354">
        <ele>1882.4197393995</ele>
        <time>2001-05-23T16:17:50.961</time>
      </trkpt>
      <trkpt lat="42.51828" lon="2.05354">
        <ele>1882.6622161537</ele>
        <time>2001-05-23T16:17:51.961</time>
      </trkpt>
      <trkpt lat="42.51829" lon="2.05354">
        <ele>1882.8108558562</ele>
        <time>2001-05-23T16:17:52.961</time>
      </trkpt>
      <trkpt lat="42.5183" lon="2.05353">
        <ele>1882.7636890192</ele>
        <time>2001-05-23T16:17:53.961</time>
      </trkpt>
      <trkpt lat="42.51831" lon="2.05353">
        <ele>1882.9072219849</ele>
        <time>2001-05-23T16:17:54.961</time>
      </trkpt>
      <trkpt lat="42.51832" lon="2.05352">
        <ele>1883.6332673667</ele>
        <time>2001-05-23T16:17:55.961</time>
      </trkpt>
      <trkpt lat="42.51833" lon="2.05351">
        <ele>1884.5167078799</ele>
        <time>2001-05-23T16:17:56.961</time>
      </trkpt>
      <trkpt lat="42.51834" lon="2.05351">
        <ele>1885.3324406082</ele>
        <time>2001-05-23T16:17:57.961</time>
      </trkpt>
      <trkpt lat="42.51835" lon="2.05351">
        <ele>1886.1882221347</ele>
        <time>2001-05-23T16:17:58.961</time>
      </trkpt>
      <trkpt lat="42.51836" lon="2.05351">
        <ele>1886.9320608001</ele>
        <time>2001-05-23T16:17:59.961</time>
      </trkpt>
      <trkpt lat="42.51836" lon="2.05352">
        <ele>1887.1873604938</ele>
        <time>2001-05-23T16:18:00.961</time>
      </trkpt>
      <trkpt lat="42.51837" lon="2.05351">
        <ele>1887.0937100247</ele>
        <time>2001-05-23T16:18:01.961</time>
      </trkpt>
      <trkpt lat="42.5184" lon="2.05351">
        <ele>1886.4298800364</ele>
        <time>2001-05-23T16:18:02.958</time>
      </trkpt>
      <trkpt lat="42.51841" lon="2.0535">
        <ele>1885.6475812692</ele>
        <time>2001-05-23T16:18:03.958</time>
      </trkpt>
      <trkpt lat="42.51842" lon="2.0535">
        <ele>1885.0250367001</ele>
        <time>2001-05-23T16:18:04.958</time>
      </trkpt>
      <trkpt lat="42.51843" lon="2.0535">
        <ele>1884.3549906502</ele>
        <time>2001-05-23T16:18:05.958</time>
      </trkpt>
      <trkpt lat="42.51844" lon="2.05349">
        <ele>1883.7567089969</ele>
        <time>2001-05-23T16:18:06.958</time>
      </trkpt>
      <trkpt lat="42.51845" lon="2.05349">
        <ele>1883.7796543138</ele>
        <time>2001-05-23T16:18:07.958</time>
      </trkpt>
      <trkpt lat="42.51845" lon="2.05349">
        <ele>1883.9041046061</ele>
        <time>2001-05-23T16:18:08.958</time>
      </trkpt>
      <trkpt lat="42.51846" lon="2.05348">
        <ele>1884.0409397736</ele>
        <time>2001-05-23T16:18:09.958</time>
      </trkpt>
      <trkpt lat="42.51847" lon="2.05347">
        <ele>1884.0173206257</ele>
        <time>2001-05-23T16:18:10.958</time>
      </trkpt>
      <trkpt lat="42.51847" lon="2.05346">
        <ele>1883.7894949513</ele>
        <time>2001-05-23T16:18:11.958</time>
      </trkpt>
      <trkpt lat="42.51848" lon="2.05346">
        <ele>1883.5303391526</ele>
        <time>2001-05-23T16:18:12.958</time>
      </trkpt>
      <trkpt lat="42.51849" lon="2.05345">
        <ele>1883.0136856202</ele>
        <time>2001-05-23T16:18:13.958</time>
      </trkpt>
      <trkpt lat="42.5185" lon="2.05345">
        <ele>1882.4153947646</ele>
        <time>2001-05-23T16:18:14.958</time>
      </trkpt>
      <trkpt lat="42.51851" lon="2.05345">
        <ele>1881.8682115659</ele>
        <time>2001-05-23T16:18:15.958</time>
      </trkpt>
      <trkpt lat="42.51852" lon="2.05345">
        <ele>1882.0618451541</ele>
        <time>2001-05-23T16:18:16.958</time>
      </trkpt>
      <trkpt lat="42.51853" lon="2.05344">
        <ele>1882.6700172918</ele>
        <time>2001-05-23T16:18:17.958</time>
      </trkpt>
      <trkpt lat="42.51854" lon="2.05341">
        <ele>1883.6055240186</ele>
        <time>2001-05-23T16:18:18.958</time>
      </trkpt>
      <trkpt lat="42.51855" lon="2.05341">
        <ele>1884.5913704088</ele>
        <time>2001-05-23T16:18:19.958</time>
      </trkpt>
      <trkpt lat="42.51856" lon="2.05341">
        <ele>1885.881379178</ele>
        <time>2001-05-23T16:18:20.958</time>
      </trkpt>
      <trkpt lat="42.51857" lon="2.05341">
        <ele>1886.7229380745</ele>
        <time>2001-05-23T16:18:21.958</time>
      </trkpt>
      <trkpt lat="42.51858" lon="2.05341">
        <ele>1887.5727000847</ele>
        <time>2001-05-23T16:18:22.958</time>
      </trkpt>
      <trkpt lat="42.51859" lon="2.0534">
        <ele>1888.1969458614</ele>
        <time>2001-05-23T16:18:23.958</time>
      </trkpt>
      <trkpt lat="42.5186" lon="2.0534">
        <ele>1888.7416490534</ele>
        <time>2001-05-23T16:18:24.958</time>
      </trkpt>
      <trkpt lat="42.5186" lon="2.05339">
        <ele>1888.6764038187</ele>
        <time>2001-05-23T16:18:25.958</time>
      </trkpt>
      <trkpt lat="42.51861" lon="2.05337">
        <ele>1887.510457387</ele>
        <time>2001-05-23T16:18:26.958</time>
      </trkpt>
      <trkpt lat="42.51862" lon="2.05334">
        <ele>1885.1670240996</ele>
        <time>2001-05-23T16:18:27.958</time>
      </trkpt>
      <trkpt lat="42.51863" lon="2.05333">
        <ele>1882.554412123</ele>
        <time>2001-05-23T16:18:28.958</time>
      </trkpt>
      <trkpt lat="42.51864" lon="2.05333">
        <ele>1879.5669430245</ele>
        <time>2001-05-23T16:18:29.958</time>
      </trkpt>
      <trkpt lat="42.51865" lon="2.05332">
        <ele>1876.7928763047</ele>
        <time>2001-05-23T16:18:30.958</time>
      </trkpt>
      <trkpt lat="42.51866" lon="2.05333">
        <ele>1875.2721096598</ele>
        <time>2001-05-23T16:18:31.958</time>
      </trkpt>
      <trkpt lat="42.51866" lon="2.05333">
        <ele>1874.8752374187</ele>
        <time>2001-05-23T16:18:32.958</time>
      </trkpt>
      <trkpt lat="42.51868" lon="2.05333">
        <ele>1875.3092904894</ele>
        <time>2001-05-23T16:18:33.958</time>
      </trkpt>
      <trkpt lat="42.51868" lon="2.05333">
        <ele>1875.9986738563</ele>
        <time>2001-05-23T16:18:34.958</time>
      </trkpt>
      <trkpt lat="42.51869" lon="2.05332">
        <ele>1876.7295541825</ele>
        <time>2001-05-23T16:18:35.958</time>
      </trkpt>
      <trkpt lat="42.5187" lon="2.05332">
        <ele>1877.3376591444</ele>
        <time>2001-05-23T16:18:36.958</time>
      </trkpt>
      <trkpt lat="42.51872" lon="2.05332">
        <ele>1877.7823512569</ele>
        <time>2001-05-23T16:18:37.958</time>
      </trkpt>
      <trkpt lat="42.51872" lon="2.05332">
        <ele>1877.8209761251</ele>
        <time>2001-05-23T16:18:38.958</time>
      </trkpt>
      <trkpt lat="42.51873" lon="2.05331">
        <ele>1878.0281390622</ele>
        <time>2001-05-23T16:18:39.956</time>
      </trkpt>
      <trkpt lat="42.51875" lon="2.05331">
        <ele>1878.5187208517</ele>
        <time>2001-05-23T16:18:40.956</time>
      </trkpt>
      <trkpt lat="42.51876" lon="2.05331">
        <ele>1879.2601372536</ele>
        <time>2001-05-23T16:18:41.956</time>
      </trkpt>
      <trkpt lat="42.51877" lon="2.05329">
        <ele>1879.9915847098</ele>
        <time>2001-05-23T16:18:42.956</time>
      </trkpt>
      <trkpt lat="42.51878" lon="2.05329">
        <ele>1880.9004078567</ele>
        <time>2001-05-23T16:18:43.956</time>
      </trkpt>
      <trkpt lat="42.51879" lon="2.05329">
        <ele>1881.8300533244</ele>
        <time>2001-05-23T16:18:44.956</time>
      </trkpt>
      <trkpt lat="42.51881" lon="2.05329">
        <ele>1883.1137575962</ele>
        <time>2001-05-23T16:18:45.956</time>
      </trkpt>
      <trkpt lat="42.51882" lon="2.05329">
        <ele>1883.8274551596</ele>
        <time>2001-05-23T16:18:46.956</time>
      </trkpt>
      <trkpt lat="42.51883" lon="2.05329">
        <ele>1884.4450355215</ele>
        <time>2001-05-23T16:18:47.956</time>
      </trkpt>
      <trkpt lat="42.51883" lon="2.05328">
        <ele>1884.6116282884</ele>
        <time>2001-05-23T16:18:48.956</time>
      </trkpt>
      <trkpt lat="42.51883" lon="2.05328">
        <ele>1884.697553006</ele>
        <time>2001-05-23T16:18:49.956</time>
      </trkpt>
      <trkpt lat="42.51884" lon="2.05326">
        <ele>1883.785073135</ele>
        <time>2001-05-23T16:18:50.958</time>
      </trkpt>
      <trkpt lat="42.51885" lon="2.05326">
        <ele>1882.6128739869</ele>
        <time>2001-05-23T16:18:51.958</time>
      </trkpt>
      <trkpt lat="42.51885" lon="2.05326">
        <ele>1881.4144103184</ele>
        <time>2001-05-23T16:18:52.958</time>
      </trkpt>
      <trkpt lat="42.51886" lon="2.05325">
        <ele>1880.4498354258</ele>
        <time>2001-05-23T16:18:53.958</time>
      </trkpt>
      <trkpt lat="42.51887" lon="2.05324">
        <ele>1879.392434461</ele>
        <time>2001-05-23T16:18:54.958</time>
      </trkpt>
      <trkpt lat="42.51888" lon="2.05321">
        <ele>1878.3709264981</ele>
        <time>2001-05-23T16:18:55.958</time>
      </trkpt>
      <trkpt lat="42.51888" lon="2.0532">
        <ele>1877.8164687162</ele>
        <time>2001-05-23T16:18:56.958</time>
      </trkpt>
      <trkpt lat="42.51889" lon="2.05319">
        <ele>1877.4062724667</ele>
        <time>2001-05-23T16:18:57.958</time>
      </trkpt>
      <trkpt lat="42.51889" lon="2.05318">
        <ele>1876.9754824871</ele>
        <time>2001-05-23T16:18:58.958</time>
      </trkpt>
      <trkpt lat="42.5189" lon="2.05318">
        <ele>1876.7970556131</ele>
        <time>2001-05-23T16:18:59.958</time>
      </trkpt>
      <trkpt lat="42.5189" lon="2.05316">
        <ele>1876.7952030167</ele>
        <time>2001-05-23T16:19:00.958</time>
      </trkpt>
      <trkpt lat="42.5189" lon="2.05314">
        <ele>1876.4454535253</ele>
        <time>2001-05-23T16:19:01.958</time>
      </trkpt>
      <trkpt lat="42.51891" lon="2.05312">
        <ele>1875.830262056</ele>
        <time>2001-05-23T16:19:02.958</time>
      </trkpt>
      <trkpt lat="42.51892" lon="2.05311">
        <ele>1875.10892158</ele>
        <time>2001-05-23T16:19:03.958</time>
      </trkpt>
      <trkpt lat="42.51893" lon="2.0531">
        <ele>1874.3044098124</ele>
        <time>2001-05-23T16:19:04.958</time>
      </trkpt>
      <trkpt lat="42.51894" lon="2.05309">
        <ele>1873.7576163633</ele>
        <time>2001-05-23T16:19:05.958</time>
      </trkpt>
      <trkpt lat="42.51894" lon="2.05308">
        <ele>1873.0429301711</ele>
        <time>2001-05-23T16:19:06.958</time>
      </trkpt>
      <trkpt lat="42.51893" lon="2.05305">
        <ele>1871.6566570766</ele>
        <time>2001-05-23T16:19:07.958</time>
      </trkpt>
      <trkpt lat="42.51894" lon="2.05304">
        <ele>1870.3617304167</ele>
        <time>2001-05-23T16:19:08.958</time>
      </trkpt>
      <trkpt lat="42.51895" lon="2.05301">
        <ele>1869.0417352309</ele>
        <time>2001-05-23T16:19:09.958</time>
      </trkpt>
      <trkpt lat="42.51896" lon="2.053">
        <ele>1867.9934833445</ele>
        <time>2001-05-23T16:19:10.958</time>
      </trkpt>
      <trkpt lat="42.51895" lon="2.05298">
        <ele>1867.4260653382</ele>
        <time>2001-05-23T16:19:11.958</time>
      </trkpt>
      <trkpt lat="42.51895" lon="2.05297">
        <ele>1867.4914135529</ele>
        <time>2001-05-23T16:19:12.958</time>
      </trkpt>
      <trkpt lat="42.51895" lon="2.05296">
        <ele>1867.5800514329</ele>
        <time>2001-05-23T16:19:13.958</time>
      </trkpt>
      <trkpt lat="42.51894" lon="2.05295">
        <ele>1867.6237105303</ele>
        <time>2001-05-23T16:19:14.958</time>
      </trkpt>
      <trkpt lat="42.51894" lon="2.05294">
        <ele>1867.4698216079</ele>
        <time>2001-05-23T16:19:15.958</time>
      </trkpt>
      <trkpt lat="42.51893" lon="2.05293">
        <ele>1867.3717302538</ele>
        <time>2001-05-23T16:19:16.958</time>
      </trkpt>
      <trkpt lat="42.51892" lon="2.05292">
        <ele>1867.5342489298</ele>
        <time>2001-05-23T16:19:17.958</time>
      </trkpt>
      <trkpt lat="42.51892" lon="2.0529">
        <ele>1867.6700369947</ele>
        <time>2001-05-23T16:19:18.958</time>
      </trkpt>
      <trkpt lat="42.51892" lon="2.0529">
        <ele>1867.6981495405</ele>
        <time>2001-05-23T16:19:19.958</time>
      </trkpt>
      <trkpt lat="42.51892" lon="2.05288">
        <ele>1867.5428566562</ele>
        <time>2001-05-23T16:19:20.958</time>
      </trkpt>
      <trkpt lat="42.51892" lon="2.05286">
        <ele>1867.3778738497</ele>
        <time>2001-05-23T16:19:21.958</time>
      </trkpt>
      <trkpt lat="42.51892" lon="2.05285">
        <ele>1867.2495273177</ele>
        <time>2001-05-23T16:19:22.958</time>
      </trkpt>
      <trkpt lat="42.51892" lon="2.05284">
        <ele>1867.1928047298</ele>
        <time>2001-05-23T16:19:23.958</time>
      </trkpt>
      <trkpt lat="42.51892" lon="2.05282">
        <ele>1867.0552863758</ele>
        <time>2001-05-23T16:19:24.958</time>
      </trkpt>
      <trkpt lat="42.51892" lon="2.05281">
        <ele>1866.9072753141</ele>
        <time>2001-05-23T16:19:25.958</time>
      </trkpt>
      <trkpt lat="42.51892" lon="2.0528">
        <ele>1866.7767630681</ele>
        <time>2001-05-23T16:19:26.958</time>
      </trkpt>
      <trkpt lat="42.51892" lon="2.05278">
        <ele>1866.8126456354</ele>
        <time>2001-05-23T16:19:27.958</time>
      </trkpt>
      <trkpt lat="42.51893" lon="2.05277">
        <ele>1866.9671553368</ele>
        <time>2001-05-23T16:19:28.958</time>
      </trkpt>
      <trkpt lat="42.51894" lon="2.05276">
        <ele>1867.3581741929</ele>
        <time>2001-05-23T16:19:29.958</time>
      </trkpt>
      <trkpt lat="42.51894" lon="2.05275">
        <ele>1867.3405804319</ele>
        <time>2001-05-23T16:19:30.958</time>
      </trkpt>
      <trkpt lat="42.51894" lon="2.05274">
        <ele>1867.1670437794</ele>
        <time>2001-05-23T16:19:31.958</time>
      </trkpt>
      <trkpt lat="42.51895" lon="2.05272">
        <ele>1866.5739833694</ele>
        <time>2001-05-23T16:19:32.958</time>
      </trkpt>
      <trkpt lat="42.51894" lon="2.05271">
        <ele>1865.4589927536</ele>
        <time>2001-05-23T16:19:33.958</time>
      </trkpt>
      <trkpt lat="42.51894" lon="2.0527">
        <ele>1864.3164122494</ele>
        <time>2001-05-23T16:19:34.958</time>
      </trkpt>
      <trkpt lat="42.51894" lon="2.0527">
        <ele>1863.8700478178</ele>
        <time>2001-05-23T16:19:35.958</time>
      </trkpt>
      <trkpt lat="42.51895" lon="2.0527">
        <ele>1863.8345270559</ele>
        <time>2001-05-23T16:19:36.958</time>
      </trkpt>
      <trkpt lat="42.51896" lon="2.05268">
        <ele>1863.4799226075</ele>
        <time>2001-05-23T16:19:37.957</time>
      </trkpt>
      <trkpt lat="42.51896" lon="2.05267">
        <ele>1863.3937765418</ele>
        <time>2001-05-23T16:19:38.957</time>
      </trkpt>
      <trkpt lat="42.51897" lon="2.05264">
        <ele>1863.2702775687</ele>
        <time>2001-05-23T16:19:39.957</time>
      </trkpt>
      <trkpt lat="42.51898" lon="2.05263">
        <ele>1863.4303371605</ele>
        <time>2001-05-23T16:19:40.957</time>
      </trkpt>
      <trkpt lat="42.51899" lon="2.05262">
        <ele>1863.4053937446</ele>
        <time>2001-05-23T16:19:41.957</time>
      </trkpt>
      <trkpt lat="42.51899" lon="2.05261">
        <ele>1863.9748889208</ele>
        <time>2001-05-23T16:19:42.957</time>
      </trkpt>
      <trkpt lat="42.519" lon="2.0526">
        <ele>1864.8501654314</ele>
        <time>2001-05-23T16:19:43.957</time>
      </trkpt>
      <trkpt lat="42.519" lon="2.05259">
        <ele>1866.133953367</ele>
        <time>2001-05-23T16:19:44.957</time>
      </trkpt>
      <trkpt lat="42.51901" lon="2.05258">
        <ele>1867.3664678402</ele>
        <time>2001-05-23T16:19:45.957</time>
      </trkpt>
      <trkpt lat="42.51901" lon="2.05258">
        <ele>1868.5450740244</ele>
        <time>2001-05-23T16:19:46.957</time>
      </trkpt>
      <trkpt lat="42.51902" lon="2.05257">
        <ele>1869.8215721451</ele>
        <time>2001-05-23T16:19:47.957</time>
      </trkpt>
      <trkpt lat="42.51903" lon="2.05256">
        <ele>1871.0949593505</ele>
        <time>2001-05-23T16:19:48.957</time>
      </trkpt>
      <trkpt lat="42.51903" lon="2.05255">
        <ele>1872.1000868592</ele>
        <time>2001-05-23T16:19:49.957</time>
      </trkpt>
      <trkpt lat="42.51904" lon="2.05253">
        <ele>1872.7022928456</ele>
        <time>2001-05-23T16:19:50.971</time>
      </trkpt>
      <trkpt lat="42.51904" lon="2.05252">
        <ele>1873.2055330712</ele>
        <time>2001-05-23T16:19:51.971</time>
      </trkpt>
      <trkpt lat="42.51903" lon="2.05251">
        <ele>1873.443632029</ele>
        <time>2001-05-23T16:19:52.971</time>
      </trkpt>
      <trkpt lat="42.51903" lon="2.0525">
        <ele>1873.6315991612</ele>
        <time>2001-05-23T16:19:53.971</time>
      </trkpt>
      <trkpt lat="42.51903" lon="2.05249">
        <ele>1873.6082201807</ele>
        <time>2001-05-23T16:19:54.971</time>
      </trkpt>
      <trkpt lat="42.51904" lon="2.05247">
        <ele>1873.7348864513</ele>
        <time>2001-05-23T16:19:55.971</time>
      </trkpt>
      <trkpt lat="42.51904" lon="2.05246">
        <ele>1873.8906861337</ele>
        <time>2001-05-23T16:19:56.971</time>
      </trkpt>
      <trkpt lat="42.51904" lon="2.05245">
        <ele>1874.0628302043</ele>
        <time>2001-05-23T16:19:57.971</time>
      </trkpt>
      <trkpt lat="42.51904" lon="2.05245">
        <ele>1874.2041387485</ele>
        <time>2001-05-23T16:19:58.971</time>
      </trkpt>
      <trkpt lat="42.51907" lon="2.05242">
        <ele>1874.7836836088</ele>
        <time>2001-05-23T16:19:59.972</time>
      </trkpt>
      <trkpt lat="42.51906" lon="2.0524">
        <ele>1874.9277219454</ele>
        <time>2001-05-23T16:20:00.972</time>
      </trkpt>
      <trkpt lat="42.51906" lon="2.0524">
        <ele>1875.1379786339</ele>
        <time>2001-05-23T16:20:01.972</time>
      </trkpt>
      <trkpt lat="42.51906" lon="2.0524">
        <ele>1875.6008899098</ele>
        <time>2001-05-23T16:20:02.972</time>
      </trkpt>
      <trkpt lat="42.51907" lon="2.05239">
        <ele>1876.9717328561</ele>
        <time>2001-05-23T16:20:03.976</time>
      </trkpt>
      <trkpt lat="42.51909" lon="2.05238">
        <ele>1878.1787852915</ele>
        <time>2001-05-23T16:20:04.976</time>
      </trkpt>
      <trkpt lat="42.51909" lon="2.05237">
        <ele>1879.5629446246</ele>
        <time>2001-05-23T16:20:05.976</time>
      </trkpt>
      <trkpt lat="42.51909" lon="2.05237">
        <ele>1880.6239633437</ele>
        <time>2001-05-23T16:20:06.976</time>
      </trkpt>
      <trkpt lat="42.5191" lon="2.05236">
        <ele>1881.603365186</ele>
        <time>2001-05-23T16:20:07.976</time>
      </trkpt>
      <trkpt lat="42.51911" lon="2.05235">
        <ele>1881.6705805039</ele>
        <time>2001-05-23T16:20:08.976</time>
      </trkpt>
      <trkpt lat="42.51912" lon="2.05234">
        <ele>1881.2735481905</ele>
        <time>2001-05-23T16:20:09.976</time>
      </trkpt>
      <trkpt lat="42.51913" lon="2.05233">
        <ele>1880.7958837451</ele>
        <time>2001-05-23T16:20:10.976</time>
      </trkpt>
      <trkpt lat="42.51913" lon="2.05233">
        <ele>1880.5507535027</ele>
        <time>2001-05-23T16:20:11.976</time>
      </trkpt>
      <trkpt lat="42.51914" lon="2.05233">
        <ele>1880.2190146917</ele>
        <time>2001-05-23T16:20:12.976</time>
      </trkpt>
      <trkpt lat="42.51913" lon="2.05231">
        <ele>1879.4311049068</ele>
        <time>2001-05-23T16:20:13.976</time>
      </trkpt>
      <trkpt lat="42.51912" lon="2.05229">
        <ele>1878.882314088</ele>
        <time>2001-05-23T16:20:14.976</time>
      </trkpt>
      <trkpt lat="42.51912" lon="2.05228">
        <ele>1878.5304530663</ele>
        <time>2001-05-23T16:20:15.976</time>
      </trkpt>
      <trkpt lat="42.51913" lon="2.05226">
        <ele>1878.1236481816</ele>
        <time>2001-05-23T16:20:16.976</time>
      </trkpt>
      <trkpt lat="42.51914" lon="2.05224">
        <ele>1877.4980993025</ele>
        <time>2001-05-23T16:20:17.976</time>
      </trkpt>
      <trkpt lat="42.51915" lon="2.05223">
        <ele>1877.2473243186</ele>
        <time>2001-05-23T16:20:18.976</time>
      </trkpt>
      <trkpt lat="42.51916" lon="2.05222">
        <ele>1877.0346458755</ele>
        <time>2001-05-23T16:20:19.976</time>
      </trkpt>
      <trkpt lat="42.51916" lon="2.05221">
        <ele>1876.9103185749</ele>
        <time>2001-05-23T16:20:20.976</time>
      </trkpt>
      <trkpt lat="42.51917" lon="2.05221">
        <ele>1876.8321168821</ele>
        <time>2001-05-23T16:20:21.976</time>
      </trkpt>
      <trkpt lat="42.51918" lon="2.05221">
        <ele>1877.0425418472</ele>
        <time>2001-05-23T16:20:22.976</time>
      </trkpt>
      <trkpt lat="42.51918" lon="2.0522">
        <ele>1877.2029003482</ele>
        <time>2001-05-23T16:20:23.976</time>
      </trkpt>
      <trkpt lat="42.51919" lon="2.0522">
        <ele>1877.3491886009</ele>
        <time>2001-05-23T16:20:24.976</time>
      </trkpt>
      <trkpt lat="42.5192" lon="2.05219">
        <ele>1877.3216860592</ele>
        <time>2001-05-23T16:20:25.974</time>
      </trkpt>
      <trkpt lat="42.51921" lon="2.05218">
        <ele>1877.3221938143</ele>
        <time>2001-05-23T16:20:26.974</time>
      </trkpt>
      <trkpt lat="42.5192" lon="2.05217">
        <ele>1877.3623539805</ele>
        <time>2001-05-23T16:20:27.975</time>
      </trkpt>
      <trkpt lat="42.51921" lon="2.05215">
        <ele>1877.3396257175</ele>
        <time>2001-05-23T16:20:28.975</time>
      </trkpt>
      <trkpt lat="42.51922" lon="2.05214">
        <ele>1877.153280326</ele>
        <time>2001-05-23T16:20:29.975</time>
      </trkpt>
      <trkpt lat="42.51922" lon="2.05212">
        <ele>1876.6218033383</ele>
        <time>2001-05-23T16:20:30.975</time>
      </trkpt>
      <trkpt lat="42.51923" lon="2.0521">
        <ele>1875.6509065654</ele>
        <time>2001-05-23T16:20:31.975</time>
      </trkpt>
      <trkpt lat="42.51923" lon="2.0521">
        <ele>1874.4916375797</ele>
        <time>2001-05-23T16:20:32.975</time>
      </trkpt>
      <trkpt lat="42.51924" lon="2.05209">
        <ele>1873.7349933958</ele>
        <time>2001-05-23T16:20:33.975</time>
      </trkpt>
      <trkpt lat="42.51925" lon="2.05208">
        <ele>1873.3786809631</ele>
        <time>2001-05-23T16:20:34.975</time>
      </trkpt>
      <trkpt lat="42.51925" lon="2.05207">
        <ele>1873.4433289783</ele>
        <time>2001-05-23T16:20:35.975</time>
      </trkpt>
      <trkpt lat="42.51926" lon="2.05206">
        <ele>1873.8369450353</ele>
        <time>2001-05-23T16:20:36.975</time>
      </trkpt>
      <trkpt lat="42.51925" lon="2.05205">
        <ele>1874.0738712283</ele>
        <time>2001-05-23T16:20:37.975</time>
      </trkpt>
      <trkpt lat="42.51925" lon="2.05204">
        <ele>1873.7815332262</ele>
        <time>2001-05-23T16:20:38.975</time>
      </trkpt>
      <trkpt lat="42.51924" lon="2.05203">
        <ele>1873.1573109766</ele>
        <time>2001-05-23T16:20:39.975</time>
      </trkpt>
      <trkpt lat="42.51924" lon="2.05202">
        <ele>1872.674913287</ele>
        <time>2001-05-23T16:20:40.975</time>
      </trkpt>
      <trkpt lat="42.51924" lon="2.05201">
        <ele>1872.3303971011</ele>
        <time>2001-05-23T16:20:41.975</time>
      </trkpt>
      <trkpt lat="42.51924" lon="2.052">
        <ele>1872.3873531023</ele>
        <time>2001-05-23T16:20:42.975</time>
      </trkpt>
      <trkpt lat="42.51925" lon="2.05199">
        <ele>1872.9301350059</ele>
        <time>2001-05-23T16:20:43.975</time>
      </trkpt>
      <trkpt lat="42.51925" lon="2.05198">
        <ele>1873.8714043241</ele>
        <time>2001-05-23T16:20:44.975</time>
      </trkpt>
      <trkpt lat="42.51925" lon="2.05197">
        <ele>1874.6291932028</ele>
        <time>2001-05-23T16:20:45.975</time>
      </trkpt>
      <trkpt lat="42.51927" lon="2.05194">
        <ele>1875.1725767801</ele>
        <time>2001-05-23T16:20:46.974</time>
      </trkpt>
      <trkpt lat="42.51927" lon="2.05193">
        <ele>1875.5578351019</ele>
        <time>2001-05-23T16:20:47.974</time>
      </trkpt>
      <trkpt lat="42.51928" lon="2.05189">
        <ele>1875.4832245428</ele>
        <time>2001-05-23T16:20:48.973</time>
      </trkpt>
      <trkpt lat="42.51929" lon="2.05189">
        <ele>1875.2818198813</ele>
        <time>2001-05-23T16:20:49.973</time>
      </trkpt>
      <trkpt lat="42.5193" lon="2.05189">
        <ele>1875.1654680716</ele>
        <time>2001-05-23T16:20:50.973</time>
      </trkpt>
      <trkpt lat="42.5193" lon="2.05188">
        <ele>1875.1469795387</ele>
        <time>2001-05-23T16:20:51.973</time>
      </trkpt>
      <trkpt lat="42.5193" lon="2.05188">
        <ele>1874.8990096446</ele>
        <time>2001-05-23T16:20:52.973</time>
      </trkpt>
      <trkpt lat="42.5193" lon="2.05187">
        <ele>1874.6401452353</ele>
        <time>2001-05-23T16:20:53.973</time>
      </trkpt>
      <trkpt lat="42.5193" lon="2.05187">
        <ele>1874.2130945833</ele>
        <time>2001-05-23T16:20:54.973</time>
      </trkpt>
      <trkpt lat="42.51931" lon="2.05186">
        <ele>1873.9870904859</ele>
        <time>2001-05-23T16:20:55.974</time>
      </trkpt>
      <trkpt lat="42.51931" lon="2.05186">
        <ele>1873.8446247427</ele>
        <time>2001-05-23T16:20:56.974</time>
      </trkpt>
      <trkpt lat="42.51931" lon="2.05185">
        <ele>1873.9947608486</ele>
        <time>2001-05-23T16:20:57.449</time>
      </trkpt>
      <trkpt lat="42.51931" lon="2.05185">
        <ele>1874.3751587218</ele>
        <time>2001-05-23T16:20:58.449</time>
      </trkpt>
      <trkpt lat="42.5193" lon="2.05183">
        <ele>1874.9581690561</ele>
        <time>2001-05-23T16:20:59.449</time>
      </trkpt>
      <trkpt lat="42.51929" lon="2.05182">
        <ele>1875.3569825783</ele>
        <time>2001-05-23T16:21:00.449</time>
      </trkpt>
      <trkpt lat="42.5193" lon="2.05181">
        <ele>1876.1947874511</ele>
        <time>2001-05-23T16:21:01.449</time>
      </trkpt>
      <trkpt lat="42.51931" lon="2.05182">
        <ele>1876.8918614568</ele>
        <time>2001-05-23T16:21:02.449</time>
      </trkpt>
      <trkpt lat="42.51931" lon="2.05182">
        <ele>1877.5889354626</ele>
        <time>2001-05-23T16:21:03.449</time>
      </trkpt>
      <trkpt lat="42.51932" lon="2.05182">
        <ele>1877.9506504601</ele>
        <time>2001-05-23T16:21:04.449</time>
      </trkpt>
      <trkpt lat="42.51932" lon="2.05181">
        <ele>1878.4561612397</ele>
        <time>2001-05-23T16:21:05.456</time>
      </trkpt>
      <trkpt lat="42.51932" lon="2.05181">
        <ele>1878.5226806689</ele>
        <time>2001-05-23T16:21:06.456</time>
      </trkpt>
      <trkpt lat="42.51932" lon="2.05179">
        <ele>1879.5542658636</ele>
        <time>2001-05-23T16:21:07.457</time>
      </trkpt>
      <trkpt lat="42.51932" lon="2.05179">
        <ele>1880.5858510584</ele>
        <time>2001-05-23T16:21:08.457</time>
      </trkpt>
      <trkpt lat="42.51932" lon="2.05178">
        <ele>1881.6306371009</ele>
        <time>2001-05-23T16:21:09.459</time>
      </trkpt>
      <trkpt lat="42.51934" lon="2.05179">
        <ele>1882.3294727786</ele>
        <time>2001-05-23T16:21:10.459</time>
      </trkpt>
      <trkpt lat="42.51934" lon="2.0518">
        <ele>1883.033233715</ele>
        <time>2001-05-23T16:21:11.459</time>
      </trkpt>
      <trkpt lat="42.51934" lon="2.0518">
        <ele>1882.7861824324</ele>
        <time>2001-05-23T16:21:12.459</time>
      </trkpt>
      <trkpt lat="42.51935" lon="2.05178">
        <ele>1882.6261936452</ele>
        <time>2001-05-23T16:21:13.459</time>
      </trkpt>
      <trkpt lat="42.51936" lon="2.05177">
        <ele>1882.487090949</ele>
        <time>2001-05-23T16:21:14.459</time>
      </trkpt>
      <trkpt lat="42.51936" lon="2.05177">
        <ele>1882.2279765839</ele>
        <time>2001-05-23T16:21:15.459</time>
      </trkpt>
      <trkpt lat="42.51937" lon="2.05176">
        <ele>1881.7341010168</ele>
        <time>2001-05-23T16:21:16.459</time>
      </trkpt>
      <trkpt lat="42.51938" lon="2.05174">
        <ele>1881.1540655291</ele>
        <time>2001-05-23T16:21:17.459</time>
      </trkpt>
      <trkpt lat="42.51938" lon="2.05173">
        <ele>1880.3737895045</ele>
        <time>2001-05-23T16:21:18.459</time>
      </trkpt>
      <trkpt lat="42.51939" lon="2.05171">
        <ele>1879.7600368503</ele>
        <time>2001-05-23T16:21:19.459</time>
      </trkpt>
      <trkpt lat="42.51938" lon="2.05169">
        <ele>1879.4787237739</ele>
        <time>2001-05-23T16:21:20.459</time>
      </trkpt>
      <trkpt lat="42.51938" lon="2.05167">
        <ele>1878.8898845168</ele>
        <time>2001-05-23T16:21:21.459</time>
      </trkpt>
      <trkpt lat="42.5194" lon="2.05164">
        <ele>1877.1579988765</ele>
        <time>2001-05-23T16:21:22.459</time>
      </trkpt>
      <trkpt lat="42.51941" lon="2.05163">
        <ele>1875.456851626</ele>
        <time>2001-05-23T16:21:23.459</time>
      </trkpt>
      <trkpt lat="42.51942" lon="2.05162">
        <ele>1873.7504600205</ele>
        <time>2001-05-23T16:21:24.459</time>
      </trkpt>
      <trkpt lat="42.51942" lon="2.05161">
        <ele>1872.0351065386</ele>
        <time>2001-05-23T16:21:25.459</time>
      </trkpt>
      <trkpt lat="42.51942" lon="2.0516">
        <ele>1870.831068239</ele>
        <time>2001-05-23T16:21:26.459</time>
      </trkpt>
      <trkpt lat="42.51942" lon="2.05159">
        <ele>1870.8059574421</ele>
        <time>2001-05-23T16:21:27.459</time>
      </trkpt>
      <trkpt lat="42.51942" lon="2.05157">
        <ele>1870.8812755762</ele>
        <time>2001-05-23T16:21:28.459</time>
      </trkpt>
      <trkpt lat="42.51942" lon="2.05156">
        <ele>1870.8555199983</ele>
        <time>2001-05-23T16:21:29.459</time>
      </trkpt>
      <trkpt lat="42.51942" lon="2.05155">
        <ele>1870.8720053496</ele>
        <time>2001-05-23T16:21:30.459</time>
      </trkpt>
      <trkpt lat="42.51941" lon="2.05153">
        <ele>1871.1082479935</ele>
        <time>2001-05-23T16:21:31.459</time>
      </trkpt>
      <trkpt lat="42.51941" lon="2.05152">
        <ele>1871.2300551552</ele>
        <time>2001-05-23T16:21:32.459</time>
      </trkpt>
      <trkpt lat="42.51941" lon="2.05151">
        <ele>1871.3204553787</ele>
        <time>2001-05-23T16:21:33.459</time>
      </trkpt>
      <trkpt lat="42.51942" lon="2.0515">
        <ele>1871.8697720142</ele>
        <time>2001-05-23T16:21:34.459</time>
      </trkpt>
      <trkpt lat="42.51942" lon="2.05149">
        <ele>1872.5753423067</ele>
        <time>2001-05-23T16:21:35.459</time>
      </trkpt>
      <trkpt lat="42.51941" lon="2.05148">
        <ele>1873.511857922</ele>
        <time>2001-05-23T16:21:36.459</time>
      </trkpt>
      <trkpt lat="42.5194" lon="2.05147">
        <ele>1874.7245901642</ele>
        <time>2001-05-23T16:21:37.459</time>
      </trkpt>
      <trkpt lat="42.51939" lon="2.05146">
        <ele>1876.0062188243</ele>
        <time>2001-05-23T16:21:38.459</time>
      </trkpt>
      <trkpt lat="42.51939" lon="2.05145">
        <ele>1876.8030096533</ele>
        <time>2001-05-23T16:21:39.459</time>
      </trkpt>
      <trkpt lat="42.51939" lon="2.05143">
        <ele>1877.371213281</ele>
        <time>2001-05-23T16:21:40.459</time>
      </trkpt>
      <trkpt lat="42.51939" lon="2.05141">
        <ele>1877.7060077989</ele>
        <time>2001-05-23T16:21:41.459</time>
      </trkpt>
      <trkpt lat="42.51939" lon="2.0514">
        <ele>1878.0705368891</ele>
        <time>2001-05-23T16:21:42.459</time>
      </trkpt>
      <trkpt lat="42.5194" lon="2.05139">
        <ele>1878.6686101064</ele>
        <time>2001-05-23T16:21:43.459</time>
      </trkpt>
      <trkpt lat="42.5194" lon="2.05138">
        <ele>1879.4149463639</ele>
        <time>2001-05-23T16:21:44.459</time>
      </trkpt>
      <trkpt lat="42.5194" lon="2.05137">
        <ele>1879.9006158324</ele>
        <time>2001-05-23T16:21:45.459</time>
      </trkpt>
      <trkpt lat="42.51941" lon="2.05136">
        <ele>1879.9496550452</ele>
        <time>2001-05-23T16:21:46.459</time>
      </trkpt>
      <trkpt lat="42.51941" lon="2.05136">
        <ele>1879.8292499181</ele>
        <time>2001-05-23T16:21:47.459</time>
      </trkpt>
      <trkpt lat="42.51941" lon="2.05133">
        <ele>1878.773640671</ele>
        <time>2001-05-23T16:21:48.459</time>
      </trkpt>
      <trkpt lat="42.51941" lon="2.0513">
        <ele>1877.2448516248</ele>
        <time>2001-05-23T16:21:49.459</time>
      </trkpt>
      <trkpt lat="42.5194" lon="2.05129">
        <ele>1876.0178414157</ele>
        <time>2001-05-23T16:21:50.459</time>
      </trkpt>
      <trkpt lat="42.51939" lon="2.05127">
        <ele>1875.380709633</ele>
        <time>2001-05-23T16:21:51.459</time>
      </trkpt>
      <trkpt lat="42.51939" lon="2.05126">
        <ele>1875.34820677</ele>
        <time>2001-05-23T16:21:52.459</time>
      </trkpt>
      <trkpt lat="42.51939" lon="2.05124">
        <ele>1876.3064330382</ele>
        <time>2001-05-23T16:21:53.459</time>
      </trkpt>
      <trkpt lat="42.51938" lon="2.05123">
        <ele>1877.7745572846</ele>
        <time>2001-05-23T16:21:54.459</time>
      </trkpt>
      <trkpt lat="42.51938" lon="2.05122">
        <ele>1879.1540495619</ele>
        <time>2001-05-23T16:21:55.459</time>
      </trkpt>
      <trkpt lat="42.51938" lon="2.05121">
        <ele>1880.0402262727</ele>
        <time>2001-05-23T16:21:56.459</time>
      </trkpt>
      <trkpt lat="42.51938" lon="2.0512">
        <ele>1880.1031563878</ele>
        <time>2001-05-23T16:21:57.459</time>
      </trkpt>
      <trkpt lat="42.51938" lon="2.05119">
        <ele>1879.5735001469</ele>
        <time>2001-05-23T16:21:58.459</time>
      </trkpt>
      <trkpt lat="42.51938" lon="2.05117">
        <ele>1878.9837046674</ele>
        <time>2001-05-23T16:21:59.459</time>
      </trkpt>
      <trkpt lat="42.51937" lon="2.05116">
        <ele>1878.9215678403</ele>
        <time>2001-05-23T16:22:00.459</time>
      </trkpt>
      <trkpt lat="42.51936" lon="2.05115">
        <ele>1879.1980210628</ele>
        <time>2001-05-23T16:22:01.459</time>
      </trkpt>
      <trkpt lat="42.51937" lon="2.05116">
        <ele>1879.3987989627</ele>
        <time>2001-05-23T16:22:02.459</time>
      </trkpt>
      <trkpt lat="42.51937" lon="2.05115">
        <ele>1879.5658000298</ele>
        <time>2001-05-23T16:22:03.459</time>
      </trkpt>
      <trkpt lat="42.51937" lon="2.05114">
        <ele>1879.2815010577</ele>
        <time>2001-05-23T16:22:04.459</time>
      </trkpt>
      <trkpt lat="42.51937" lon="2.05113">
        <ele>1878.2237649027</ele>
        <time>2001-05-23T16:22:05.459</time>
      </trkpt>
      <trkpt lat="42.51937" lon="2.0511">
        <ele>1876.8357036367</ele>
        <time>2001-05-23T16:22:06.459</time>
      </trkpt>
      <trkpt lat="42.51939" lon="2.05108">
        <ele>1876.2112182263</ele>
        <time>2001-05-23T16:22:07.459</time>
      </trkpt>
      <trkpt lat="42.51939" lon="2.05107">
        <ele>1875.368613057</ele>
        <time>2001-05-23T16:22:08.459</time>
      </trkpt>
      <trkpt lat="42.51939" lon="2.05106">
        <ele>1874.8317591075</ele>
        <time>2001-05-23T16:22:09.459</time>
      </trkpt>
      <trkpt lat="42.51939" lon="2.05105">
        <ele>1874.5350220738</ele>
        <time>2001-05-23T16:22:10.459</time>
      </trkpt>
      <trkpt lat="42.51939" lon="2.05104">
        <ele>1874.2804270621</ele>
        <time>2001-05-23T16:22:11.459</time>
      </trkpt>
      <trkpt lat="42.5194" lon="2.05104">
        <ele>1873.6911555348</ele>
        <time>2001-05-23T16:22:12.459</time>
      </trkpt>
      <trkpt lat="42.51941" lon="2.05102">
        <ele>1873.6663387502</ele>
        <time>2001-05-23T16:22:13.461</time>
      </trkpt>
      <trkpt lat="42.51943" lon="2.05101">
        <ele>1873.8343933647</ele>
        <time>2001-05-23T16:22:14.461</time>
      </trkpt>
      <trkpt lat="42.51943" lon="2.05101">
        <ele>1873.847766342</ele>
        <time>2001-05-23T16:22:15.461</time>
      </trkpt>
      <trkpt lat="42.51944" lon="2.051">
        <ele>1873.8728558611</ele>
        <time>2001-05-23T16:22:16.461</time>
      </trkpt>
      <trkpt lat="42.51944" lon="2.05099">
        <ele>1873.7619740702</ele>
        <time>2001-05-23T16:22:17.461</time>
      </trkpt>
      <trkpt lat="42.51945" lon="2.05098">
        <ele>1873.5325385284</ele>
        <time>2001-05-23T16:22:18.461</time>
      </trkpt>
      <trkpt lat="42.51946" lon="2.05098">
        <ele>1873.1993453024</ele>
        <time>2001-05-23T16:22:19.461</time>
      </trkpt>
      <trkpt lat="42.51947" lon="2.05097">
        <ele>1873.0173182284</ele>
        <time>2001-05-23T16:22:20.461</time>
      </trkpt>
      <trkpt lat="42.51947" lon="2.05096">
        <ele>1872.9756398791</ele>
        <time>2001-05-23T16:22:21.461</time>
      </trkpt>
      <trkpt lat="42.51947" lon="2.05095">
        <ele>1872.7571143458</ele>
        <time>2001-05-23T16:22:22.461</time>
      </trkpt>
      <trkpt lat="42.51948" lon="2.05094">
        <ele>1872.6336553644</ele>
        <time>2001-05-23T16:22:23.461</time>
      </trkpt>
      <trkpt lat="42.51949" lon="2.05093">
        <ele>1872.6042357821</ele>
        <time>2001-05-23T16:22:24.461</time>
      </trkpt>
      <trkpt lat="42.51949" lon="2.05092">
        <ele>1872.6619331233</ele>
        <time>2001-05-23T16:22:25.461</time>
      </trkpt>
      <trkpt lat="42.51949" lon="2.05091">
        <ele>1872.6432811333</ele>
        <time>2001-05-23T16:22:26.461</time>
      </trkpt>
      <trkpt lat="42.51949" lon="2.0509">
        <ele>1872.7551393947</ele>
        <time>2001-05-23T16:22:27.461</time>
      </trkpt>
      <trkpt lat="42.51949" lon="2.05089">
        <ele>1872.6461781016</ele>
        <time>2001-05-23T16:22:28.461</time>
      </trkpt>
      <trkpt lat="42.51948" lon="2.05088">
        <ele>1872.3793056754</ele>
        <time>2001-05-23T16:22:29.461</time>
      </trkpt>
      <trkpt lat="42.51949" lon="2.05087">
        <ele>1872.3038253073</ele>
        <time>2001-05-23T16:22:30.461</time>
      </trkpt>
      <trkpt lat="42.5195" lon="2.05086">
        <ele>1872.1893388364</ele>
        <time>2001-05-23T16:22:31.461</time>
      </trkpt>
      <trkpt lat="42.51951" lon="2.05085">
        <ele>1872.7005424585</ele>
        <time>2001-05-23T16:22:32.461</time>
      </trkpt>
      <trkpt lat="42.51952" lon="2.05085">
        <ele>1873.7386641597</ele>
        <time>2001-05-23T16:22:33.461</time>
      </trkpt>
      <trkpt lat="42.51952" lon="2.05084">
        <ele>1874.9205160676</ele>
        <time>2001-05-23T16:22:34.461</time>
      </trkpt>
      <trkpt lat="42.51952" lon="2.05084">
        <ele>1875.8012010332</ele>
        <time>2001-05-23T16:22:35.461</time>
      </trkpt>
      <trkpt lat="42.51953" lon="2.05084">
        <ele>1876.9025256742</ele>
        <time>2001-05-23T16:22:36.464</time>
      </trkpt>
      <trkpt lat="42.51954" lon="2.05083">
        <ele>1877.6828038909</ele>
        <time>2001-05-23T16:22:37.464</time>
      </trkpt>
      <trkpt lat="42.51955" lon="2.05083">
        <ele>1878.2207497161</ele>
        <time>2001-05-23T16:22:38.464</time>
      </trkpt>
      <trkpt lat="42.51956" lon="2.05082">
        <ele>1878.5742407799</ele>
        <time>2001-05-23T16:22:39.464</time>
      </trkpt>
      <trkpt lat="42.51956" lon="2.05081">
        <ele>1878.9273850033</ele>
        <time>2001-05-23T16:22:40.464</time>
      </trkpt>
      <trkpt lat="42.51955" lon="2.0508">
        <ele>1879.8282156847</ele>
        <time>2001-05-23T16:22:41.480</time>
      </trkpt>
      <trkpt lat="42.51955" lon="2.05079">
        <ele>1880.6953143086</ele>
        <time>2001-05-23T16:22:42.480</time>
      </trkpt>
      <trkpt lat="42.51954" lon="2.05078">
        <ele>1881.8595653333</ele>
        <time>2001-05-23T16:22:43.480</time>
      </trkpt>
      <trkpt lat="42.51954" lon="2.05076">
        <ele>1883.6206751956</ele>
        <time>2001-05-23T16:22:44.480</time>
      </trkpt>
      <trkpt lat="42.51952" lon="2.05073">
        <ele>1885.5563365379</ele>
        <time>2001-05-23T16:22:45.480</time>
      </trkpt>
      <trkpt lat="42.51952" lon="2.05072">
        <ele>1886.9456103694</ele>
        <time>2001-05-23T16:22:46.480</time>
      </trkpt>
      <trkpt lat="42.51952" lon="2.0507">
        <ele>1888.1174633648</ele>
        <time>2001-05-23T16:22:47.480</time>
      </trkpt>
      <trkpt lat="42.51952" lon="2.05069">
        <ele>1888.823465576</ele>
        <time>2001-05-23T16:22:48.480</time>
      </trkpt>
      <trkpt lat="42.5195" lon="2.05068">
        <ele>1888.9569522159</ele>
        <time>2001-05-23T16:22:49.480</time>
      </trkpt>
      <trkpt lat="42.51948" lon="2.05067">
        <ele>1888.7686680119</ele>
        <time>2001-05-23T16:22:50.480</time>
      </trkpt>
      <trkpt lat="42.51947" lon="2.05066">
        <ele>1888.3608600797</ele>
        <time>2001-05-23T16:22:51.480</time>
      </trkpt>
      <trkpt lat="42.51946" lon="2.05064">
        <ele>1887.9002817474</ele>
        <time>2001-05-23T16:22:52.480</time>
      </trkpt>
      <trkpt lat="42.51946" lon="2.05062">
        <ele>1887.1453804502</ele>
        <time>2001-05-23T16:22:53.480</time>
      </trkpt>
      <trkpt lat="42.51947" lon="2.0506">
        <ele>1886.2170417223</ele>
        <time>2001-05-23T16:22:54.480</time>
      </trkpt>
      <trkpt lat="42.51947" lon="2.05059">
        <ele>1885.3443443073</ele>
        <time>2001-05-23T16:22:55.480</time>
      </trkpt>
      <trkpt lat="42.51946" lon="2.05058">
        <ele>1884.4029900717</ele>
        <time>2001-05-23T16:22:56.480</time>
      </trkpt>
      <trkpt lat="42.51946" lon="2.05056">
        <ele>1883.4035984114</ele>
        <time>2001-05-23T16:22:57.480</time>
      </trkpt>
      <trkpt lat="42.51945" lon="2.05055">
        <ele>1882.6870306889</ele>
        <time>2001-05-23T16:22:58.480</time>
      </trkpt>
      <trkpt lat="42.51945" lon="2.05054">
        <ele>1882.1683438113</ele>
        <time>2001-05-23T16:22:59.480</time>
      </trkpt>
      <trkpt lat="42.51944" lon="2.05052">
        <ele>1881.7065557668</ele>
        <time>2001-05-23T16:23:00.480</time>
      </trkpt>
      <trkpt lat="42.51944" lon="2.05052">
        <ele>1881.0028704489</ele>
        <time>2001-05-23T16:23:01.480</time>
      </trkpt>
      <trkpt lat="42.51943" lon="2.05051">
        <ele>1880.5235963179</ele>
        <time>2001-05-23T16:23:02.480</time>
      </trkpt>
      <trkpt lat="42.51942" lon="2.0505">
        <ele>1880.3831912408</ele>
        <time>2001-05-23T16:23:03.480</time>
      </trkpt>
      <trkpt lat="42.51941" lon="2.05049">
        <ele>1880.34090339</ele>
        <time>2001-05-23T16:23:04.480</time>
      </trkpt>
      <trkpt lat="42.51942" lon="2.05047">
        <ele>1880.3119075352</ele>
        <time>2001-05-23T16:23:05.480</time>
      </trkpt>
      <trkpt lat="42.51942" lon="2.05046">
        <ele>1880.6539907286</ele>
        <time>2001-05-23T16:23:06.480</time>
      </trkpt>
      <trkpt lat="42.51942" lon="2.05046">
        <ele>1880.9048891101</ele>
        <time>2001-05-23T16:23:07.480</time>
      </trkpt>
      <trkpt lat="42.51941" lon="2.05046">
        <ele>1881.3711049398</ele>
        <time>2001-05-23T16:23:08.480</time>
      </trkpt>
      <trkpt lat="42.51939" lon="2.05045">
        <ele>1881.8032829711</ele>
        <time>2001-05-23T16:23:09.480</time>
      </trkpt>
      <trkpt lat="42.51939" lon="2.05044">
        <ele>1882.3178130399</ele>
        <time>2001-05-23T16:23:10.480</time>
      </trkpt>
      <trkpt lat="42.51939" lon="2.05044">
        <ele>1882.8366676675</ele>
        <time>2001-05-23T16:23:11.480</time>
      </trkpt>
      <trkpt lat="42.51938" lon="2.05043">
        <ele>1883.2257313991</ele>
        <time>2001-05-23T16:23:12.480</time>
      </trkpt>
      <trkpt lat="42.51938" lon="2.05042">
        <ele>1883.1329297207</ele>
        <time>2001-05-23T16:23:13.480</time>
      </trkpt>
      <trkpt lat="42.51936" lon="2.05039">
        <ele>1883.5867598273</ele>
        <time>2001-05-23T16:23:14.479</time>
      </trkpt>
      <trkpt lat="42.51936" lon="2.05039">
        <ele>1884.0183843646</ele>
        <time>2001-05-23T16:23:15.479</time>
      </trkpt>
      <trkpt lat="42.51935" lon="2.05039">
        <ele>1884.2585419063</ele>
        <time>2001-05-23T16:23:16.476</time>
      </trkpt>
      <trkpt lat="42.51935" lon="2.0504">
        <ele>1884.6942132454</ele>
        <time>2001-05-23T16:23:17.476</time>
      </trkpt>
      <trkpt lat="42.51934" lon="2.05038">
        <ele>1885.3986660376</ele>
        <time>2001-05-23T16:23:18.482</time>
      </trkpt>
      <trkpt lat="42.51934" lon="2.05038">
        <ele>1885.544186073</ele>
        <time>2001-05-23T16:23:19.482</time>
      </trkpt>
      <trkpt lat="42.51934" lon="2.05037">
        <ele>1885.8199498072</ele>
        <time>2001-05-23T16:23:20.482</time>
      </trkpt>
      <trkpt lat="42.51933" lon="2.05036">
        <ele>1886.343833667</ele>
        <time>2001-05-23T16:23:21.482</time>
      </trkpt>
      <trkpt lat="42.51935" lon="2.05034">
        <ele>1887.4239237092</ele>
        <time>2001-05-23T16:23:22.482</time>
      </trkpt>
      <trkpt lat="42.51935" lon="2.05033">
        <ele>1888.2152309457</ele>
        <time>2001-05-23T16:23:23.482</time>
      </trkpt>
      <trkpt lat="42.51935" lon="2.05032">
        <ele>1889.0551615261</ele>
        <time>2001-05-23T16:23:24.482</time>
      </trkpt>
      <trkpt lat="42.51934" lon="2.05031">
        <ele>1889.910011993</ele>
        <time>2001-05-23T16:23:25.482</time>
      </trkpt>
      <trkpt lat="42.51933" lon="2.0503">
        <ele>1891.0525046818</ele>
        <time>2001-05-23T16:23:26.482</time>
      </trkpt>
      <trkpt lat="42.51933" lon="2.0503">
        <ele>1891.5513158787</ele>
        <time>2001-05-23T16:23:27.482</time>
      </trkpt>
      <trkpt lat="42.51933" lon="2.05029">
        <ele>1892.3158876726</ele>
        <time>2001-05-23T16:23:28.482</time>
      </trkpt>
      <trkpt lat="42.51933" lon="2.05029">
        <ele>1893.0318361226</ele>
        <time>2001-05-23T16:23:29.482</time>
      </trkpt>
      <trkpt lat="42.51932" lon="2.05026">
        <ele>1893.6645545313</ele>
        <time>2001-05-23T16:23:30.478</time>
      </trkpt>
      <trkpt lat="42.51931" lon="2.05025">
        <ele>1893.9139642976</ele>
        <time>2001-05-23T16:23:31.478</time>
      </trkpt>
      <trkpt lat="42.51931" lon="2.05024">
        <ele>1894.2575330816</ele>
        <time>2001-05-23T16:23:32.481</time>
      </trkpt>
      <trkpt lat="42.51931" lon="2.05024">
        <ele>1894.3584203133</ele>
        <time>2001-05-23T16:23:33.481</time>
      </trkpt>
      <trkpt lat="42.51929" lon="2.05022">
        <ele>1894.2393892094</ele>
        <time>2001-05-23T16:23:34.480</time>
      </trkpt>
      <trkpt lat="42.51928" lon="2.05021">
        <ele>1893.8325414648</ele>
        <time>2001-05-23T16:23:35.480</time>
      </trkpt>
      <trkpt lat="42.51928" lon="2.0502">
        <ele>1893.4333957301</ele>
        <time>2001-05-23T16:23:36.480</time>
      </trkpt>
      <trkpt lat="42.51928" lon="2.05019">
        <ele>1893.0128699558</ele>
        <time>2001-05-23T16:23:37.480</time>
      </trkpt>
      <trkpt lat="42.51928" lon="2.05019">
        <ele>1892.5923441814</ele>
        <time>2001-05-23T16:23:38.480</time>
      </trkpt>
      <trkpt lat="42.51928" lon="2.05018">
        <ele>1892.1711309398</ele>
        <time>2001-05-23T16:23:39.480</time>
      </trkpt>
      <trkpt lat="42.51927" lon="2.05016">
        <ele>1891.780293208</ele>
        <time>2001-05-23T16:23:40.480</time>
      </trkpt>
      <trkpt lat="42.51926" lon="2.05015">
        <ele>1891.4713150652</ele>
        <time>2001-05-23T16:23:41.480</time>
      </trkpt>
      <trkpt lat="42.51926" lon="2.05014">
        <ele>1891.3355322948</ele>
        <time>2001-05-23T16:23:42.480</time>
      </trkpt>
      <trkpt lat="42.51925" lon="2.05013">
        <ele>1891.2563931121</ele>
        <time>2001-05-23T16:23:43.480</time>
      </trkpt>
      <trkpt lat="42.51924" lon="2.05012">
        <ele>1891.4395446533</ele>
        <time>2001-05-23T16:23:44.480</time>
      </trkpt>
      <trkpt lat="42.51924" lon="2.05012">
        <ele>1891.8182037814</ele>
        <time>2001-05-23T16:23:45.480</time>
      </trkpt>
      <trkpt lat="42.51924" lon="2.05012">
        <ele>1892.0863810372</ele>
        <time>2001-05-23T16:23:46.482</time>
      </trkpt>
      <trkpt lat="42.51924" lon="2.05012">
        <ele>1892.1303363506</ele>
        <time>2001-05-23T16:23:47.482</time>
      </trkpt>
      <trkpt lat="42.51923" lon="2.0501">
        <ele>1892.0082824115</ele>
        <time>2001-05-23T16:23:48.482</time>
      </trkpt>
      <trkpt lat="42.51924" lon="2.05009">
        <ele>1891.7432067746</ele>
        <time>2001-05-23T16:23:49.482</time>
      </trkpt>
      <trkpt lat="42.51922" lon="2.05007">
        <ele>1891.6232978789</ele>
        <time>2001-05-23T16:23:50.482</time>
      </trkpt>
      <trkpt lat="42.51921" lon="2.05006">
        <ele>1891.5250727748</ele>
        <time>2001-05-23T16:23:51.482</time>
      </trkpt>
      <trkpt lat="42.5192" lon="2.05004">
        <ele>1891.5316385733</ele>
        <time>2001-05-23T16:23:52.482</time>
      </trkpt>
      <trkpt lat="42.51919" lon="2.05003">
        <ele>1891.5205706397</ele>
        <time>2001-05-23T16:23:53.482</time>
      </trkpt>
      <trkpt lat="42.51919" lon="2.05002">
        <ele>1891.7327443635</ele>
        <time>2001-05-23T16:23:54.482</time>
      </trkpt>
      <trkpt lat="42.51919" lon="2.05001">
        <ele>1891.7749315666</ele>
        <time>2001-05-23T16:23:55.482</time>
      </trkpt>
      <trkpt lat="42.51919" lon="2.05001">
        <ele>1891.8498081734</ele>
        <time>2001-05-23T16:23:56.482</time>
      </trkpt>
      <trkpt lat="42.51919" lon="2.04997">
        <ele>1892.4714929689</ele>
        <time>2001-05-23T16:23:57.479</time>
      </trkpt>
      <trkpt lat="42.51919" lon="2.04996">
        <ele>1893.1375569087</ele>
        <time>2001-05-23T16:23:58.479</time>
      </trkpt>
      <trkpt lat="42.51918" lon="2.04995">
        <ele>1893.9016127406</ele>
        <time>2001-05-23T16:23:59.482</time>
      </trkpt>
      <trkpt lat="42.51918" lon="2.04995">
        <ele>1894.8713072501</ele>
        <time>2001-05-23T16:24:00.482</time>
      </trkpt>
      <trkpt lat="42.51918" lon="2.04992">
        <ele>1896.0559143657</ele>
        <time>2001-05-23T16:24:01.482</time>
      </trkpt>
      <trkpt lat="42.51918" lon="2.04992">
        <ele>1896.9081231954</ele>
        <time>2001-05-23T16:24:02.482</time>
      </trkpt>
      <trkpt lat="42.51917" lon="2.04991">
        <ele>1898.0337168396</ele>
        <time>2001-05-23T16:24:03.482</time>
      </trkpt>
      <trkpt lat="42.51916" lon="2.04989">
        <ele>1898.9038184846</ele>
        <time>2001-05-23T16:24:04.481</time>
      </trkpt>
      <trkpt lat="42.51916" lon="2.04988">
        <ele>1899.5967375407</ele>
        <time>2001-05-23T16:24:05.481</time>
      </trkpt>
      <trkpt lat="42.51916" lon="2.04987">
        <ele>1900.0748501517</ele>
        <time>2001-05-23T16:24:06.481</time>
      </trkpt>
      <trkpt lat="42.51916" lon="2.04985">
        <ele>1900.0716871278</ele>
        <time>2001-05-23T16:24:07.481</time>
      </trkpt>
      <trkpt lat="42.51916" lon="2.04984">
        <ele>1899.467694208</ele>
        <time>2001-05-23T16:24:08.481</time>
      </trkpt>
      <trkpt lat="42.51916" lon="2.04983">
        <ele>1898.6738890229</ele>
        <time>2001-05-23T16:24:09.481</time>
      </trkpt>
      <trkpt lat="42.51916" lon="2.04981">
        <ele>1898.1047838338</ele>
        <time>2001-05-23T16:24:10.481</time>
      </trkpt>
      <trkpt lat="42.51916" lon="2.0498">
        <ele>1897.6618279438</ele>
        <time>2001-05-23T16:24:11.481</time>
      </trkpt>
      <trkpt lat="42.51916" lon="2.04979">
        <ele>1897.4366936507</ele>
        <time>2001-05-23T16:24:12.481</time>
      </trkpt>
      <trkpt lat="42.51916" lon="2.04978">
        <ele>1897.6804576891</ele>
        <time>2001-05-23T16:24:13.481</time>
      </trkpt>
      <trkpt lat="42.51915" lon="2.04978">
        <ele>1898.0355245303</ele>
        <time>2001-05-23T16:24:14.481</time>
      </trkpt>
      <trkpt lat="42.51914" lon="2.04977">
        <ele>1897.9342313314</ele>
        <time>2001-05-23T16:24:15.481</time>
      </trkpt>
      <trkpt lat="42.51914" lon="2.04974">
        <ele>1897.1710290968</ele>
        <time>2001-05-23T16:24:16.483</time>
      </trkpt>
      <trkpt lat="42.51914" lon="2.04972">
        <ele>1896.1649838613</ele>
        <time>2001-05-23T16:24:17.483</time>
      </trkpt>
      <trkpt lat="42.51913" lon="2.04971">
        <ele>1894.8417846559</ele>
        <time>2001-05-23T16:24:18.483</time>
      </trkpt>
      <trkpt lat="42.51913" lon="2.04969">
        <ele>1893.4717349341</ele>
        <time>2001-05-23T16:24:19.483</time>
      </trkpt>
      <trkpt lat="42.51912" lon="2.04969">
        <ele>1892.5659913111</ele>
        <time>2001-05-23T16:24:20.483</time>
      </trkpt>
      <trkpt lat="42.51912" lon="2.04968">
        <ele>1892.2455978217</ele>
        <time>2001-05-23T16:24:21.483</time>
      </trkpt>
      <trkpt lat="42.51911" lon="2.04968">
        <ele>1892.249816384</ele>
        <time>2001-05-23T16:24:22.483</time>
      </trkpt>
      <trkpt lat="42.51911" lon="2.04967">
        <ele>1892.6162310962</ele>
        <time>2001-05-23T16:24:23.483</time>
      </trkpt>
      <trkpt lat="42.51912" lon="2.04965">
        <ele>1893.5095212035</ele>
        <time>2001-05-23T16:24:24.483</time>
      </trkpt>
      <trkpt lat="42.51912" lon="2.04964">
        <ele>1894.7580466172</ele>
        <time>2001-05-23T16:24:25.483</time>
      </trkpt>
      <trkpt lat="42.51913" lon="2.04963">
        <ele>1896.1076055005</ele>
        <time>2001-05-23T16:24:26.483</time>
      </trkpt>
      <trkpt lat="42.51912" lon="2.04961">
        <ele>1897.3614631228</ele>
        <time>2001-05-23T16:24:27.483</time>
      </trkpt>
      <trkpt lat="42.51912" lon="2.0496">
        <ele>1898.5349513039</ele>
        <time>2001-05-23T16:24:28.483</time>
      </trkpt>
      <trkpt lat="42.51914" lon="2.04959">
        <ele>1899.6993211381</ele>
        <time>2001-05-23T16:24:29.483</time>
      </trkpt>
      <trkpt lat="42.51916" lon="2.04959">
        <ele>1900.0880608372</ele>
        <time>2001-05-23T16:24:30.483</time>
      </trkpt>
      <trkpt lat="42.51916" lon="2.04959">
        <ele>1900.4828212555</ele>
        <time>2001-05-23T16:24:31.483</time>
      </trkpt>
      <trkpt lat="42.51916" lon="2.04958">
        <ele>1900.5816766582</ele>
        <time>2001-05-23T16:24:32.483</time>
      </trkpt>
      <trkpt lat="42.51916" lon="2.04958">
        <ele>1900.6570263246</ele>
        <time>2001-05-23T16:24:33.483</time>
      </trkpt>
      <trkpt lat="42.51915" lon="2.04959">
        <ele>1900.5637948535</ele>
        <time>2001-05-23T16:24:34.486</time>
      </trkpt>
      <trkpt lat="42.51915" lon="2.04959">
        <ele>1900.6546758475</ele>
        <time>2001-05-23T16:24:35.486</time>
      </trkpt>
      <trkpt lat="42.51916" lon="2.04958">
        <ele>1900.7190641055</ele>
        <time>2001-05-23T16:24:36.485</time>
      </trkpt>
      <trkpt lat="42.51917" lon="2.04958">
        <ele>1901.2205353342</ele>
        <time>2001-05-23T16:24:37.485</time>
      </trkpt>
      <trkpt lat="42.51916" lon="2.04957">
        <ele>1901.2745933451</ele>
        <time>2001-05-23T16:24:38.486</time>
      </trkpt>
      <trkpt lat="42.51916" lon="2.04957">
        <ele>1901.1404306501</ele>
        <time>2001-05-23T16:24:39.486</time>
      </trkpt>
      <trkpt lat="42.51917" lon="2.04954">
        <ele>1900.5350258827</ele>
        <time>2001-05-23T16:24:40.487</time>
      </trkpt>
      <trkpt lat="42.51917" lon="2.04952">
        <ele>1900.4550449174</ele>
        <time>2001-05-23T16:24:41.487</time>
      </trkpt>
      <trkpt lat="42.51917" lon="2.04951">
        <ele>1900.2670286706</ele>
        <time>2001-05-23T16:24:42.487</time>
      </trkpt>
      <trkpt lat="42.51917" lon="2.04951">
        <ele>1900.5264256416</ele>
        <time>2001-05-23T16:24:43.487</time>
      </trkpt>
      <trkpt lat="42.51918" lon="2.0495">
        <ele>1901.0096362514</ele>
        <time>2001-05-23T16:24:44.487</time>
      </trkpt>
      <trkpt lat="42.51918" lon="2.04949">
        <ele>1902.1623464335</ele>
        <time>2001-05-23T16:24:45.487</time>
      </trkpt>
      <trkpt lat="42.51918" lon="2.04949">
        <ele>1902.6593748026</ele>
        <time>2001-05-23T16:24:46.487</time>
      </trkpt>
      <trkpt lat="42.51917" lon="2.04948">
        <ele>1903.2472822547</ele>
        <time>2001-05-23T16:24:47.488</time>
      </trkpt>
      <trkpt lat="42.51918" lon="2.04947">
        <ele>1903.8576477056</ele>
        <time>2001-05-23T16:24:48.488</time>
      </trkpt>
      <trkpt lat="42.51917" lon="2.04946">
        <ele>1904.3700893775</ele>
        <time>2001-05-23T16:24:49.490</time>
      </trkpt>
      <trkpt lat="42.51917" lon="2.04945">
        <ele>1904.6441256629</ele>
        <time>2001-05-23T16:24:50.490</time>
      </trkpt>
      <trkpt lat="42.51918" lon="2.04943">
        <ele>1904.7808192205</ele>
        <time>2001-05-23T16:24:51.490</time>
      </trkpt>
      <trkpt lat="42.51919" lon="2.04942">
        <ele>1904.7766019952</ele>
        <time>2001-05-23T16:24:52.490</time>
      </trkpt>
      <trkpt lat="42.5192" lon="2.0494">
        <ele>1904.58144914</ele>
        <time>2001-05-23T16:24:53.490</time>
      </trkpt>
      <trkpt lat="42.51919" lon="2.04939">
        <ele>1904.2956354296</ele>
        <time>2001-05-23T16:24:54.490</time>
      </trkpt>
      <trkpt lat="42.51919" lon="2.04939">
        <ele>1904.0499696057</ele>
        <time>2001-05-23T16:24:55.490</time>
      </trkpt>
      <trkpt lat="42.51918" lon="2.04938">
        <ele>1904.0173048409</ele>
        <time>2001-05-23T16:24:56.490</time>
      </trkpt>
      <trkpt lat="42.51918" lon="2.04937">
        <ele>1904.137781867</ele>
        <time>2001-05-23T16:24:57.490</time>
      </trkpt>
      <trkpt lat="42.51918" lon="2.04936">
        <ele>1904.5739978906</ele>
        <time>2001-05-23T16:24:58.490</time>
      </trkpt>
      <trkpt lat="42.51918" lon="2.04935">
        <ele>1904.8694290482</ele>
        <time>2001-05-23T16:24:59.490</time>
      </trkpt>
      <trkpt lat="42.51919" lon="2.04934">
        <ele>1905.623534647</ele>
        <time>2001-05-23T16:25:00.489</time>
      </trkpt>
      <trkpt lat="42.5192" lon="2.04933">
        <ele>1906.0809805647</ele>
        <time>2001-05-23T16:25:01.489</time>
      </trkpt>
      <trkpt lat="42.5192" lon="2.04932">
        <ele>1906.5054622369</ele>
        <time>2001-05-23T16:25:02.489</time>
      </trkpt>
      <trkpt lat="42.51921" lon="2.04931">
        <ele>1906.6540858945</ele>
        <time>2001-05-23T16:25:03.489</time>
      </trkpt>
      <trkpt lat="42.51921" lon="2.0493">
        <ele>1906.6604384255</ele>
        <time>2001-05-23T16:25:04.489</time>
      </trkpt>
      <trkpt lat="42.51921" lon="2.04929">
        <ele>1906.1037689891</ele>
        <time>2001-05-23T16:25:05.489</time>
      </trkpt>
      <trkpt lat="42.51921" lon="2.04927">
        <ele>1905.614243369</ele>
        <time>2001-05-23T16:25:06.489</time>
      </trkpt>
      <trkpt lat="42.51921" lon="2.04927">
        <ele>1904.9796146726</ele>
        <time>2001-05-23T16:25:07.489</time>
      </trkpt>
      <trkpt lat="42.5192" lon="2.04926">
        <ele>1904.6328688439</ele>
        <time>2001-05-23T16:25:08.489</time>
      </trkpt>
      <trkpt lat="42.51919" lon="2.04924">
        <ele>1904.5915860001</ele>
        <time>2001-05-23T16:25:09.489</time>
      </trkpt>
      <trkpt lat="42.51918" lon="2.04923">
        <ele>1904.622500601</ele>
        <time>2001-05-23T16:25:10.489</time>
      </trkpt>
      <trkpt lat="42.51918" lon="2.04923">
        <ele>1904.8072727358</ele>
        <time>2001-05-23T16:25:11.489</time>
      </trkpt>
      <trkpt lat="42.51918" lon="2.04923">
        <ele>1904.9920448706</ele>
        <time>2001-05-23T16:25:12.489</time>
      </trkpt>
      <trkpt lat="42.51919" lon="2.04921">
        <ele>1905.180971412</ele>
        <time>2001-05-23T16:25:13.487</time>
      </trkpt>
      <trkpt lat="42.5192" lon="2.0492">
        <ele>1905.3509332115</ele>
        <time>2001-05-23T16:25:14.487</time>
      </trkpt>
      <trkpt lat="42.51921" lon="2.04919">
        <ele>1905.5002006406</ele>
        <time>2001-05-23T16:25:15.487</time>
      </trkpt>
      <trkpt lat="42.51921" lon="2.04918">
        <ele>1905.4562754685</ele>
        <time>2001-05-23T16:25:16.487</time>
      </trkpt>
      <trkpt lat="42.51921" lon="2.04916">
        <ele>1905.2837525252</ele>
        <time>2001-05-23T16:25:17.487</time>
      </trkpt>
      <trkpt lat="42.51921" lon="2.04916">
        <ele>1904.9477889558</ele>
        <time>2001-05-23T16:25:18.487</time>
      </trkpt>
      <trkpt lat="42.51921" lon="2.04914">
        <ele>1904.4891930191</ele>
        <time>2001-05-23T16:25:19.486</time>
      </trkpt>
      <trkpt lat="42.51921" lon="2.04913">
        <ele>1904.1355513623</ele>
        <time>2001-05-23T16:25:20.486</time>
      </trkpt>
      <trkpt lat="42.51921" lon="2.04911">
        <ele>1904.1162160773</ele>
        <time>2001-05-23T16:25:21.486</time>
      </trkpt>
      <trkpt lat="42.5192" lon="2.0491">
        <ele>1904.1942077469</ele>
        <time>2001-05-23T16:25:22.486</time>
      </trkpt>
      <trkpt lat="42.5192" lon="2.04908">
        <ele>1904.235848411</ele>
        <time>2001-05-23T16:25:23.486</time>
      </trkpt>
      <trkpt lat="42.51919" lon="2.04907">
        <ele>1904.3570272533</ele>
        <time>2001-05-23T16:25:24.486</time>
      </trkpt>
      <trkpt lat="42.5192" lon="2.04906">
        <ele>1904.4868583018</ele>
        <time>2001-05-23T16:25:25.486</time>
      </trkpt>
      <trkpt lat="42.5192" lon="2.04905">
        <ele>1904.6232336862</ele>
        <time>2001-05-23T16:25:26.486</time>
      </trkpt>
      <trkpt lat="42.5192" lon="2.04904">
        <ele>1904.9451535916</ele>
        <time>2001-05-23T16:25:27.486</time>
      </trkpt>
      <trkpt lat="42.51919" lon="2.04903">
        <ele>1905.2499430349</ele>
        <time>2001-05-23T16:25:28.486</time>
      </trkpt>
      <trkpt lat="42.51919" lon="2.049">
        <ele>1905.6758885853</ele>
        <time>2001-05-23T16:25:29.472</time>
      </trkpt>
      <trkpt lat="42.5192" lon="2.04898">
        <ele>1906.0179217169</ele>
        <time>2001-05-23T16:25:30.472</time>
      </trkpt>
      <trkpt lat="42.5192" lon="2.04897">
        <ele>1906.3309089052</ele>
        <time>2001-05-23T16:25:31.472</time>
      </trkpt>
      <trkpt lat="42.51919" lon="2.04896">
        <ele>1906.7043647161</ele>
        <time>2001-05-23T16:25:32.472</time>
      </trkpt>
      <trkpt lat="42.51919" lon="2.04896">
        <ele>1907.1313019946</ele>
        <time>2001-05-23T16:25:33.472</time>
      </trkpt>
      <trkpt lat="42.51918" lon="2.04894">
        <ele>1907.7034426171</ele>
        <time>2001-05-23T16:25:34.477</time>
      </trkpt>
      <trkpt lat="42.51918" lon="2.04894">
        <ele>1908.2987336241</ele>
        <time>2001-05-23T16:25:35.477</time>
      </trkpt>
      <trkpt lat="42.51918" lon="2.04893">
        <ele>1908.8694733584</ele>
        <time>2001-05-23T16:25:36.476</time>
      </trkpt>
      <trkpt lat="42.51918" lon="2.04892">
        <ele>1909.0436018899</ele>
        <time>2001-05-23T16:25:37.476</time>
      </trkpt>
      <trkpt lat="42.51917" lon="2.04891">
        <ele>1909.6122059496</ele>
        <time>2001-05-23T16:25:38.478</time>
      </trkpt>
      <trkpt lat="42.51917" lon="2.04891">
        <ele>1909.9188734926</ele>
        <time>2001-05-23T16:25:39.478</time>
      </trkpt>
      <trkpt lat="42.51916" lon="2.0489">
        <ele>1910.2328129372</ele>
        <time>2001-05-23T16:25:40.479</time>
      </trkpt>
      <trkpt lat="42.51916" lon="2.0489">
        <ele>1910.4526914911</ele>
        <time>2001-05-23T16:25:41.479</time>
      </trkpt>
      <trkpt lat="42.51915" lon="2.04889">
        <ele>1910.6096102362</ele>
        <time>2001-05-23T16:25:42.479</time>
      </trkpt>
      <trkpt lat="42.51913" lon="2.04888">
        <ele>1910.571726625</ele>
        <time>2001-05-23T16:25:43.479</time>
      </trkpt>
      <trkpt lat="42.51912" lon="2.04887">
        <ele>1910.6809004327</ele>
        <time>2001-05-23T16:25:44.479</time>
      </trkpt>
      <trkpt lat="42.51911" lon="2.04887">
        <ele>1910.8230627375</ele>
        <time>2001-05-23T16:25:45.479</time>
      </trkpt>
      <trkpt lat="42.5191" lon="2.04886">
        <ele>1910.9849159811</ele>
        <time>2001-05-23T16:25:46.479</time>
      </trkpt>
      <trkpt lat="42.51909" lon="2.04885">
        <ele>1911.7355813121</ele>
        <time>2001-05-23T16:25:47.479</time>
      </trkpt>
      <trkpt lat="42.51909" lon="2.04884">
        <ele>1912.6110884769</ele>
        <time>2001-05-23T16:25:48.479</time>
      </trkpt>
      <trkpt lat="42.51909" lon="2.04883">
        <ele>1914.0883779462</ele>
        <time>2001-05-23T16:25:49.479</time>
      </trkpt>
      <trkpt lat="42.51911" lon="2.04882">
        <ele>1916.0802151887</ele>
        <time>2001-05-23T16:25:50.479</time>
      </trkpt>
      <trkpt lat="42.51911" lon="2.04881">
        <ele>1918.1806114949</ele>
        <time>2001-05-23T16:25:51.479</time>
      </trkpt>
      <trkpt lat="42.51911" lon="2.04881">
        <ele>1919.9370243983</ele>
        <time>2001-05-23T16:25:52.479</time>
      </trkpt>
      <trkpt lat="42.5191" lon="2.04881">
        <ele>1920.9632491527</ele>
        <time>2001-05-23T16:25:53.479</time>
      </trkpt>
      <trkpt lat="42.5191" lon="2.0488">
        <ele>1921.0938781168</ele>
        <time>2001-05-23T16:25:54.479</time>
      </trkpt>
      <trkpt lat="42.5191" lon="2.04876">
        <ele>1920.3899955461</ele>
        <time>2001-05-23T16:25:55.477</time>
      </trkpt>
      <trkpt lat="42.5191" lon="2.04874">
        <ele>1919.2846782822</ele>
        <time>2001-05-23T16:25:56.477</time>
      </trkpt>
      <trkpt lat="42.51909" lon="2.04872">
        <ele>1917.6817739628</ele>
        <time>2001-05-23T16:25:57.477</time>
      </trkpt>
      <trkpt lat="42.51908" lon="2.04872">
        <ele>1915.9788541205</ele>
        <time>2001-05-23T16:25:58.477</time>
      </trkpt>
      <trkpt lat="42.51907" lon="2.04872">
        <ele>1913.8995020354</ele>
        <time>2001-05-23T16:25:59.477</time>
      </trkpt>
      <trkpt lat="42.51907" lon="2.04871">
        <ele>1912.0370803848</ele>
        <time>2001-05-23T16:26:00.477</time>
      </trkpt>
      <trkpt lat="42.51907" lon="2.0487">
        <ele>1910.3648640329</ele>
        <time>2001-05-23T16:26:01.477</time>
      </trkpt>
      <trkpt lat="42.51907" lon="2.0487">
        <ele>1909.1520685142</ele>
        <time>2001-05-23T16:26:02.477</time>
      </trkpt>
      <trkpt lat="42.51906" lon="2.04869">
        <ele>1908.4635671096</ele>
        <time>2001-05-23T16:26:03.476</time>
      </trkpt>
      <trkpt lat="42.51905" lon="2.04868">
        <ele>1908.1253847595</ele>
        <time>2001-05-23T16:26:04.476</time>
      </trkpt>
      <trkpt lat="42.51905" lon="2.04867">
        <ele>1907.7189001013</ele>
        <time>2001-05-23T16:26:05.476</time>
      </trkpt>
      <trkpt lat="42.51904" lon="2.04866">
        <ele>1907.3403673381</ele>
        <time>2001-05-23T16:26:06.475</time>
      </trkpt>
      <trkpt lat="42.51904" lon="2.04866">
        <ele>1907.173248302</ele>
        <time>2001-05-23T16:26:07.475</time>
      </trkpt>
      <trkpt lat="42.51903" lon="2.04864">
        <ele>1906.9474261733</ele>
        <time>2001-05-23T16:26:08.474</time>
      </trkpt>
      <trkpt lat="42.51902" lon="2.04863">
        <ele>1906.8932900725</ele>
        <time>2001-05-23T16:26:09.474</time>
      </trkpt>
      <trkpt lat="42.51904" lon="2.04861">
        <ele>1907.2723966636</ele>
        <time>2001-05-23T16:26:10.474</time>
      </trkpt>
      <trkpt lat="42.51905" lon="2.0486">
        <ele>1907.7119509889</ele>
        <time>2001-05-23T16:26:11.474</time>
      </trkpt>
      <trkpt lat="42.51906" lon="2.04859">
        <ele>1908.2869020527</ele>
        <time>2001-05-23T16:26:12.474</time>
      </trkpt>
      <trkpt lat="42.51906" lon="2.04859">
        <ele>1908.9036200678</ele>
        <time>2001-05-23T16:26:13.474</time>
      </trkpt>
      <trkpt lat="42.51905" lon="2.04859">
        <ele>1909.4794657495</ele>
        <time>2001-05-23T16:26:14.474</time>
      </trkpt>
      <trkpt lat="42.51905" lon="2.04858">
        <ele>1909.7447632616</ele>
        <time>2001-05-23T16:26:15.474</time>
      </trkpt>
      <trkpt lat="42.51905" lon="2.04855">
        <ele>1909.8496097472</ele>
        <time>2001-05-23T16:26:16.473</time>
      </trkpt>
      <trkpt lat="42.51905" lon="2.04855">
        <ele>1909.5823270775</ele>
        <time>2001-05-23T16:26:17.473</time>
      </trkpt>
      <trkpt lat="42.51905" lon="2.04852">
        <ele>1909.1703448184</ele>
        <time>2001-05-23T16:26:18.473</time>
      </trkpt>
      <trkpt lat="42.51905" lon="2.04852">
        <ele>1908.8004181197</ele>
        <time>2001-05-23T16:26:19.473</time>
      </trkpt>
      <trkpt lat="42.51905" lon="2.04851">
        <ele>1908.3943795443</ele>
        <time>2001-05-23T16:26:20.476</time>
      </trkpt>
      <trkpt lat="42.51906" lon="2.04851">
        <ele>1908.2994215423</ele>
        <time>2001-05-23T16:26:21.476</time>
      </trkpt>
      <trkpt lat="42.51907" lon="2.0485">
        <ele>1908.2842038931</ele>
        <time>2001-05-23T16:26:22.476</time>
      </trkpt>
      <trkpt lat="42.51907" lon="2.04848">
        <ele>1908.1255623495</ele>
        <time>2001-05-23T16:26:23.480</time>
      </trkpt>
      <trkpt lat="42.51906" lon="2.04846">
        <ele>1907.8760320535</ele>
        <time>2001-05-23T16:26:24.480</time>
      </trkpt>
      <trkpt lat="42.51905" lon="2.04845">
        <ele>1907.7633552816</ele>
        <time>2001-05-23T16:26:25.480</time>
      </trkpt>
      <trkpt lat="42.51905" lon="2.04844">
        <ele>1907.5850899469</ele>
        <time>2001-05-23T16:26:26.480</time>
      </trkpt>
      <trkpt lat="42.51904" lon="2.04844">
        <ele>1907.0362327572</ele>
        <time>2001-05-23T16:26:27.480</time>
      </trkpt>
      <trkpt lat="42.51902" lon="2.04843">
        <ele>1907.025420648</ele>
        <time>2001-05-23T16:26:28.480</time>
      </trkpt>
      <trkpt lat="42.51902" lon="2.04842">
        <ele>1907.1382189274</ele>
        <time>2001-05-23T16:26:29.480</time>
      </trkpt>
      <trkpt lat="42.51902" lon="2.04841">
        <ele>1907.2368621858</ele>
        <time>2001-05-23T16:26:30.480</time>
      </trkpt>
      <trkpt lat="42.51901" lon="2.0484">
        <ele>1907.2542670894</ele>
        <time>2001-05-23T16:26:31.480</time>
      </trkpt>
      <trkpt lat="42.519" lon="2.04839">
        <ele>1907.588037255</ele>
        <time>2001-05-23T16:26:32.480</time>
      </trkpt>
      <trkpt lat="42.51899" lon="2.04837">
        <ele>1907.5916842859</ele>
        <time>2001-05-23T16:26:33.480</time>
      </trkpt>
      <trkpt lat="42.51899" lon="2.04836">
        <ele>1908.0376518482</ele>
        <time>2001-05-23T16:26:34.480</time>
      </trkpt>
      <trkpt lat="42.519" lon="2.04834">
        <ele>1908.4424668089</ele>
        <time>2001-05-23T16:26:35.480</time>
      </trkpt>
      <trkpt lat="42.51901" lon="2.04833">
        <ele>1908.950756586</ele>
        <time>2001-05-23T16:26:36.480</time>
      </trkpt>
      <trkpt lat="42.51901" lon="2.04832">
        <ele>1909.6635717928</ele>
        <time>2001-05-23T16:26:37.480</time>
      </trkpt>
      <trkpt lat="42.51902" lon="2.04831">
        <ele>1910.4601798458</ele>
        <time>2001-05-23T16:26:38.480</time>
      </trkpt>
      <trkpt lat="42.51901" lon="2.0483">
        <ele>1910.7261083698</ele>
        <time>2001-05-23T16:26:39.480</time>
      </trkpt>
      <trkpt lat="42.51901" lon="2.04828">
        <ele>1911.0693734642</ele>
        <time>2001-05-23T16:26:40.480</time>
      </trkpt>
      <trkpt lat="42.51901" lon="2.04828">
        <ele>1911.251364655</ele>
        <time>2001-05-23T16:26:41.480</time>
      </trkpt>
      <trkpt lat="42.51901" lon="2.04827">
        <ele>1911.3062542517</ele>
        <time>2001-05-23T16:26:42.480</time>
      </trkpt>
      <trkpt lat="42.51901" lon="2.04826">
        <ele>1911.5352765294</ele>
        <time>2001-05-23T16:26:43.480</time>
      </trkpt>
      <trkpt lat="42.51902" lon="2.04825">
        <ele>1912.0470646674</ele>
        <time>2001-05-23T16:26:44.480</time>
      </trkpt>
      <trkpt lat="42.51903" lon="2.04824">
        <ele>1912.647392072</ele>
        <time>2001-05-23T16:26:45.480</time>
      </trkpt>
      <trkpt lat="42.51903" lon="2.04823">
        <ele>1913.3694530362</ele>
        <time>2001-05-23T16:26:46.480</time>
      </trkpt>
      <trkpt lat="42.51902" lon="2.04822">
        <ele>1914.0254891558</ele>
        <time>2001-05-23T16:26:47.480</time>
      </trkpt>
      <trkpt lat="42.51902" lon="2.04821">
        <ele>1914.4756016934</ele>
        <time>2001-05-23T16:26:48.480</time>
      </trkpt>
      <trkpt lat="42.51902" lon="2.04818">
        <ele>1914.5251467213</ele>
        <time>2001-05-23T16:26:49.481</time>
      </trkpt>
      <trkpt lat="42.51903" lon="2.04817">
        <ele>1914.3948453341</ele>
        <time>2001-05-23T16:26:50.481</time>
      </trkpt>
      <trkpt lat="42.51902" lon="2.04816">
        <ele>1914.2520164128</ele>
        <time>2001-05-23T16:26:51.481</time>
      </trkpt>
      <trkpt lat="42.51902" lon="2.04815">
        <ele>1913.9358454715</ele>
        <time>2001-05-23T16:26:52.481</time>
      </trkpt>
      <trkpt lat="42.51902" lon="2.04814">
        <ele>1913.6997809021</ele>
        <time>2001-05-23T16:26:53.481</time>
      </trkpt>
      <trkpt lat="42.51902" lon="2.04812">
        <ele>1913.7912256576</ele>
        <time>2001-05-23T16:26:54.481</time>
      </trkpt>
      <trkpt lat="42.51901" lon="2.04811">
        <ele>1913.9666172666</ele>
        <time>2001-05-23T16:26:55.481</time>
      </trkpt>
      <trkpt lat="42.51901" lon="2.04811">
        <ele>1914.3255924283</ele>
        <time>2001-05-23T16:26:56.481</time>
      </trkpt>
      <trkpt lat="42.519" lon="2.04808">
        <ele>1914.4984162321</ele>
        <time>2001-05-23T16:26:57.478</time>
      </trkpt>
      <trkpt lat="42.51901" lon="2.04806">
        <ele>1914.8560513759</ele>
        <time>2001-05-23T16:26:58.478</time>
      </trkpt>
      <trkpt lat="42.519" lon="2.04805">
        <ele>1914.9122478422</ele>
        <time>2001-05-23T16:26:59.478</time>
      </trkpt>
      <trkpt lat="42.51899" lon="2.04804">
        <ele>1914.8948095597</ele>
        <time>2001-05-23T16:27:00.478</time>
      </trkpt>
      <trkpt lat="42.51899" lon="2.04803">
        <ele>1914.5218629908</ele>
        <time>2001-05-23T16:27:01.478</time>
      </trkpt>
      <trkpt lat="42.51899" lon="2.04802">
        <ele>1914.4811760454</ele>
        <time>2001-05-23T16:27:02.478</time>
      </trkpt>
      <trkpt lat="42.51898" lon="2.04802">
        <ele>1914.2570436686</ele>
        <time>2001-05-23T16:27:03.478</time>
      </trkpt>
      <trkpt lat="42.51897" lon="2.04801">
        <ele>1914.259429124</ele>
        <time>2001-05-23T16:27:04.478</time>
      </trkpt>
      <trkpt lat="42.51897" lon="2.04799">
        <ele>1914.3205522403</ele>
        <time>2001-05-23T16:27:05.478</time>
      </trkpt>
      <trkpt lat="42.51897" lon="2.04798">
        <ele>1914.68660878</ele>
        <time>2001-05-23T16:27:06.478</time>
      </trkpt>
      <trkpt lat="42.51897" lon="2.04797">
        <ele>1915.2418467481</ele>
        <time>2001-05-23T16:27:07.478</time>
      </trkpt>
      <trkpt lat="42.51897" lon="2.04797">
        <ele>1915.7885647126</ele>
        <time>2001-05-23T16:27:08.478</time>
      </trkpt>
      <trkpt lat="42.51897" lon="2.04796">
        <ele>1916.2841370229</ele>
        <time>2001-05-23T16:27:09.478</time>
      </trkpt>
      <trkpt lat="42.51896" lon="2.04794">
        <ele>1916.7422788139</ele>
        <time>2001-05-23T16:27:10.478</time>
      </trkpt>
      <trkpt lat="42.51897" lon="2.04793">
        <ele>1916.7026229125</ele>
        <time>2001-05-23T16:27:11.478</time>
      </trkpt>
      <trkpt lat="42.51896" lon="2.04792">
        <ele>1916.3386296302</ele>
        <time>2001-05-23T16:27:12.478</time>
      </trkpt>
      <trkpt lat="42.51896" lon="2.0479">
        <ele>1916.0319105051</ele>
        <time>2001-05-23T16:27:13.478</time>
      </trkpt>
      <trkpt lat="42.51895" lon="2.0479">
        <ele>1915.9313139532</ele>
        <time>2001-05-23T16:27:14.478</time>
      </trkpt>
      <trkpt lat="42.51895" lon="2.04789">
        <ele>1916.0294128718</ele>
        <time>2001-05-23T16:27:15.478</time>
      </trkpt>
      <trkpt lat="42.51895" lon="2.04788">
        <ele>1916.5045270171</ele>
        <time>2001-05-23T16:27:16.478</time>
      </trkpt>
      <trkpt lat="42.51896" lon="2.04787">
        <ele>1917.7249856353</ele>
        <time>2001-05-23T16:27:17.478</time>
      </trkpt>
      <trkpt lat="42.51894" lon="2.04785">
        <ele>1919.5615569882</ele>
        <time>2001-05-23T16:27:18.478</time>
      </trkpt>
      <trkpt lat="42.51893" lon="2.04784">
        <ele>1920.9160710691</ele>
        <time>2001-05-23T16:27:19.478</time>
      </trkpt>
      <trkpt lat="42.51893" lon="2.04783">
        <ele>1921.9135957032</ele>
        <time>2001-05-23T16:27:20.478</time>
      </trkpt>
      <trkpt lat="42.51892" lon="2.04783">
        <ele>1922.8428971151</ele>
        <time>2001-05-23T16:27:21.478</time>
      </trkpt>
      <trkpt lat="42.51893" lon="2.04783">
        <ele>1922.8876528023</ele>
        <time>2001-05-23T16:27:22.477</time>
      </trkpt>
      <trkpt lat="42.51893" lon="2.04783">
        <ele>1922.2125996072</ele>
        <time>2001-05-23T16:27:23.477</time>
      </trkpt>
      <trkpt lat="42.51893" lon="2.04782">
        <ele>1922.0197667245</ele>
        <time>2001-05-23T16:27:24.480</time>
      </trkpt>
      <trkpt lat="42.51892" lon="2.0478">
        <ele>1922.4286469527</ele>
        <time>2001-05-23T16:27:25.480</time>
      </trkpt>
      <trkpt lat="42.51893" lon="2.04779">
        <ele>1922.8190375658</ele>
        <time>2001-05-23T16:27:26.480</time>
      </trkpt>
      <trkpt lat="42.51893" lon="2.04778">
        <ele>1923.6747355511</ele>
        <time>2001-05-23T16:27:27.480</time>
      </trkpt>
      <trkpt lat="42.51892" lon="2.04778">
        <ele>1924.7709959855</ele>
        <time>2001-05-23T16:27:28.480</time>
      </trkpt>
      <trkpt lat="42.51892" lon="2.04777">
        <ele>1925.8647199566</ele>
        <time>2001-05-23T16:27:29.480</time>
      </trkpt>
      <trkpt lat="42.51891" lon="2.04776">
        <ele>1926.40444219</ele>
        <time>2001-05-23T16:27:30.480</time>
      </trkpt>
      <trkpt lat="42.51891" lon="2.04774">
        <ele>1927.3243863959</ele>
        <time>2001-05-23T16:27:31.480</time>
      </trkpt>
      <trkpt lat="42.51892" lon="2.04773">
        <ele>1928.1499019321</ele>
        <time>2001-05-23T16:27:32.480</time>
      </trkpt>
      <trkpt lat="42.51893" lon="2.04773">
        <ele>1928.8532351088</ele>
        <time>2001-05-23T16:27:33.480</time>
      </trkpt>
      <trkpt lat="42.51893" lon="2.04773">
        <ele>1929.5425262539</ele>
        <time>2001-05-23T16:27:34.480</time>
      </trkpt>
      <trkpt lat="42.51893" lon="2.04772">
        <ele>1930.378546555</ele>
        <time>2001-05-23T16:27:35.480</time>
      </trkpt>
      <trkpt lat="42.51893" lon="2.04771">
        <ele>1930.8582914295</ele>
        <time>2001-05-23T16:27:36.480</time>
      </trkpt>
      <trkpt lat="42.51892" lon="2.0477">
        <ele>1931.518982394</ele>
        <time>2001-05-23T16:27:37.480</time>
      </trkpt>
      <trkpt lat="42.51891" lon="2.04768">
        <ele>1931.9106838565</ele>
        <time>2001-05-23T16:27:38.480</time>
      </trkpt>
      <trkpt lat="42.51892" lon="2.04767">
        <ele>1932.0313985879</ele>
        <time>2001-05-23T16:27:39.480</time>
      </trkpt>
      <trkpt lat="42.51893" lon="2.04766">
        <ele>1932.196722012</ele>
        <time>2001-05-23T16:27:40.480</time>
      </trkpt>
      <trkpt lat="42.51893" lon="2.04766">
        <ele>1932.3519556986</ele>
        <time>2001-05-23T16:27:41.480</time>
      </trkpt>
      <trkpt lat="42.51891" lon="2.04764">
        <ele>1932.3154211774</ele>
        <time>2001-05-23T16:27:42.482</time>
      </trkpt>
      <trkpt lat="42.5189" lon="2.04763">
        <ele>1932.3666585572</ele>
        <time>2001-05-23T16:27:43.482</time>
      </trkpt>
      <trkpt lat="42.5189" lon="2.04762">
        <ele>1932.2196391849</ele>
        <time>2001-05-23T16:27:44.482</time>
      </trkpt>
      <trkpt lat="42.5189" lon="2.04761">
        <ele>1931.8090527555</ele>
        <time>2001-05-23T16:27:45.482</time>
      </trkpt>
      <trkpt lat="42.51889" lon="2.0476">
        <ele>1931.5182459535</ele>
        <time>2001-05-23T16:27:46.482</time>
      </trkpt>
      <trkpt lat="42.51889" lon="2.04759">
        <ele>1931.3446137805</ele>
        <time>2001-05-23T16:27:47.482</time>
      </trkpt>
      <trkpt lat="42.51888" lon="2.04758">
        <ele>1931.3310198804</ele>
        <time>2001-05-23T16:27:48.482</time>
      </trkpt>
      <trkpt lat="42.51888" lon="2.04757">
        <ele>1931.6564244231</ele>
        <time>2001-05-23T16:27:49.482</time>
      </trkpt>
      <trkpt lat="42.51888" lon="2.04755">
        <ele>1932.2268978953</ele>
        <time>2001-05-23T16:27:50.482</time>
      </trkpt>
      <trkpt lat="42.51888" lon="2.04753">
        <ele>1932.4685692428</ele>
        <time>2001-05-23T16:27:51.482</time>
      </trkpt>
      <trkpt lat="42.51888" lon="2.0475">
        <ele>1932.0146835234</ele>
        <time>2001-05-23T16:27:52.482</time>
      </trkpt>
      <trkpt lat="42.51888" lon="2.04749">
        <ele>1931.3469295986</ele>
        <time>2001-05-23T16:27:53.482</time>
      </trkpt>
      <trkpt lat="42.51887" lon="2.04749">
        <ele>1930.3750286661</ele>
        <time>2001-05-23T16:27:54.482</time>
      </trkpt>
      <trkpt lat="42.51885" lon="2.04749">
        <ele>1929.0107760679</ele>
        <time>2001-05-23T16:27:55.482</time>
      </trkpt>
      <trkpt lat="42.51884" lon="2.04749">
        <ele>1927.6807592403</ele>
        <time>2001-05-23T16:27:56.482</time>
      </trkpt>
      <trkpt lat="42.51883" lon="2.04748">
        <ele>1926.8655990729</ele>
        <time>2001-05-23T16:27:57.482</time>
      </trkpt>
      <trkpt lat="42.51882" lon="2.04748">
        <ele>1926.6249785252</ele>
        <time>2001-05-23T16:27:58.482</time>
      </trkpt>
      <trkpt lat="42.51882" lon="2.04748">
        <ele>1926.6010390928</ele>
        <time>2001-05-23T16:27:59.482</time>
      </trkpt>
      <trkpt lat="42.51882" lon="2.04748">
        <ele>1926.8524922291</ele>
        <time>2001-05-23T16:28:00.482</time>
      </trkpt>
      <trkpt lat="42.51882" lon="2.04745">
        <ele>1927.2254465431</ele>
        <time>2001-05-23T16:28:01.484</time>
      </trkpt>
      <trkpt lat="42.51882" lon="2.04745">
        <ele>1927.6300331697</ele>
        <time>2001-05-23T16:28:02.484</time>
      </trkpt>
      <trkpt lat="42.51883" lon="2.04744">
        <ele>1927.4644288043</ele>
        <time>2001-05-23T16:28:03.487</time>
      </trkpt>
      <trkpt lat="42.51882" lon="2.04742">
        <ele>1927.3756932</ele>
        <time>2001-05-23T16:28:04.487</time>
      </trkpt>
      <trkpt lat="42.51882" lon="2.04741">
        <ele>1927.2151095767</ele>
        <time>2001-05-23T16:28:05.487</time>
      </trkpt>
      <trkpt lat="42.51882" lon="2.04741">
        <ele>1927.1915489892</ele>
        <time>2001-05-23T16:28:06.487</time>
      </trkpt>
      <trkpt lat="42.51881" lon="2.0474">
        <ele>1927.3813965939</ele>
        <time>2001-05-23T16:28:07.487</time>
      </trkpt>
      <trkpt lat="42.51881" lon="2.04739">
        <ele>1928.0172723932</ele>
        <time>2001-05-23T16:28:08.487</time>
      </trkpt>
      <trkpt lat="42.5188" lon="2.04738">
        <ele>1928.6638470331</ele>
        <time>2001-05-23T16:28:09.487</time>
      </trkpt>
      <trkpt lat="42.51879" lon="2.04737">
        <ele>1929.0832393304</ele>
        <time>2001-05-23T16:28:10.487</time>
      </trkpt>
      <trkpt lat="42.51879" lon="2.04736">
        <ele>1929.2585689219</ele>
        <time>2001-05-23T16:28:11.487</time>
      </trkpt>
      <trkpt lat="42.51879" lon="2.04736">
        <ele>1929.1404967032</ele>
        <time>2001-05-23T16:28:12.487</time>
      </trkpt>
      <trkpt lat="42.51878" lon="2.04735">
        <ele>1928.7425432773</ele>
        <time>2001-05-23T16:28:13.487</time>
      </trkpt>
      <trkpt lat="42.51877" lon="2.04735">
        <ele>1928.5175734885</ele>
        <time>2001-05-23T16:28:14.487</time>
      </trkpt>
      <trkpt lat="42.51876" lon="2.04734">
        <ele>1928.6325394293</ele>
        <time>2001-05-23T16:28:15.487</time>
      </trkpt>
      <trkpt lat="42.51875" lon="2.04734">
        <ele>1928.6175776046</ele>
        <time>2001-05-23T16:28:16.487</time>
      </trkpt>
      <trkpt lat="42.51874" lon="2.04733">
        <ele>1928.0500909405</ele>
        <time>2001-05-23T16:28:17.487</time>
      </trkpt>
      <trkpt lat="42.51873" lon="2.04732">
        <ele>1927.3797941819</ele>
        <time>2001-05-23T16:28:18.487</time>
      </trkpt>
      <trkpt lat="42.51873" lon="2.04731">
        <ele>1926.5242147949</ele>
        <time>2001-05-23T16:28:19.487</time>
      </trkpt>
      <trkpt lat="42.51873" lon="2.0473">
        <ele>1925.5766894383</ele>
        <time>2001-05-23T16:28:20.487</time>
      </trkpt>
      <trkpt lat="42.51873" lon="2.04729">
        <ele>1924.710440064</ele>
        <time>2001-05-23T16:28:21.487</time>
      </trkpt>
      <trkpt lat="42.51872" lon="2.04728">
        <ele>1924.342944392</ele>
        <time>2001-05-23T16:28:22.487</time>
      </trkpt>
      <trkpt lat="42.51873" lon="2.04726">
        <ele>1924.082970269</ele>
        <time>2001-05-23T16:28:23.489</time>
      </trkpt>
      <trkpt lat="42.51874" lon="2.04725">
        <ele>1923.9158046782</ele>
        <time>2001-05-23T16:28:24.489</time>
      </trkpt>
      <trkpt lat="42.51874" lon="2.04724">
        <ele>1923.7183651142</ele>
        <time>2001-05-23T16:28:25.489</time>
      </trkpt>
      <trkpt lat="42.51874" lon="2.04723">
        <ele>1923.7863165146</ele>
        <time>2001-05-23T16:28:26.489</time>
      </trkpt>
      <trkpt lat="42.51873" lon="2.04722">
        <ele>1924.2589311697</ele>
        <time>2001-05-23T16:28:27.489</time>
      </trkpt>
      <trkpt lat="42.51872" lon="2.04721">
        <ele>1924.6712466687</ele>
        <time>2001-05-23T16:28:28.489</time>
      </trkpt>
      <trkpt lat="42.51872" lon="2.04721">
        <ele>1924.9828315984</ele>
        <time>2001-05-23T16:28:29.489</time>
      </trkpt>
      <trkpt lat="42.51873" lon="2.0472">
        <ele>1925.3644852171</ele>
        <time>2001-05-23T16:28:30.489</time>
      </trkpt>
      <trkpt lat="42.51873" lon="2.04719">
        <ele>1925.7048560658</ele>
        <time>2001-05-23T16:28:31.489</time>
      </trkpt>
      <trkpt lat="42.51873" lon="2.04718">
        <ele>1925.7599254487</ele>
        <time>2001-05-23T16:28:32.489</time>
      </trkpt>
      <trkpt lat="42.51872" lon="2.04715">
        <ele>1925.798864303</ele>
        <time>2001-05-23T16:28:33.489</time>
      </trkpt>
      <trkpt lat="42.51872" lon="2.04714">
        <ele>1925.709446943</ele>
        <time>2001-05-23T16:28:34.489</time>
      </trkpt>
      <trkpt lat="42.51872" lon="2.04713">
        <ele>1925.5337818809</ele>
        <time>2001-05-23T16:28:35.489</time>
      </trkpt>
      <trkpt lat="42.51872" lon="2.04712">
        <ele>1925.0438653495</ele>
        <time>2001-05-23T16:28:36.489</time>
      </trkpt>
      <trkpt lat="42.51872" lon="2.04711">
        <ele>1924.6264089048</ele>
        <time>2001-05-23T16:28:37.489</time>
      </trkpt>
      <trkpt lat="42.51872" lon="2.04709">
        <ele>1924.5158634897</ele>
        <time>2001-05-23T16:28:38.491</time>
      </trkpt>
      <trkpt lat="42.51872" lon="2.04708">
        <ele>1924.8881582037</ele>
        <time>2001-05-23T16:28:39.491</time>
      </trkpt>
      <trkpt lat="42.51873" lon="2.04707">
        <ele>1925.6042206632</ele>
        <time>2001-05-23T16:28:40.491</time>
      </trkpt>
      <trkpt lat="42.51872" lon="2.04706">
        <ele>1926.5990276804</ele>
        <time>2001-05-23T16:28:41.491</time>
      </trkpt>
      <trkpt lat="42.51872" lon="2.04705">
        <ele>1927.4560083944</ele>
        <time>2001-05-23T16:28:42.491</time>
      </trkpt>
      <trkpt lat="42.51872" lon="2.04704">
        <ele>1927.6340731109</ele>
        <time>2001-05-23T16:28:43.491</time>
      </trkpt>
      <trkpt lat="42.51873" lon="2.04702">
        <ele>1927.7253194161</ele>
        <time>2001-05-23T16:28:44.491</time>
      </trkpt>
      <trkpt lat="42.51874" lon="2.04701">
        <ele>1927.6595437629</ele>
        <time>2001-05-23T16:28:45.491</time>
      </trkpt>
      <trkpt lat="42.51874" lon="2.047">
        <ele>1927.4897550566</ele>
        <time>2001-05-23T16:28:46.491</time>
      </trkpt>
      <trkpt lat="42.51874" lon="2.047">
        <ele>1927.3997355331</ele>
        <time>2001-05-23T16:28:47.491</time>
      </trkpt>
      <trkpt lat="42.51874" lon="2.047">
        <ele>1927.6067030644</ele>
        <time>2001-05-23T16:28:48.491</time>
      </trkpt>
      <trkpt lat="42.51872" lon="2.04698">
        <ele>1927.7562290456</ele>
        <time>2001-05-23T16:28:49.502</time>
      </trkpt>
      <trkpt lat="42.51872" lon="2.04698">
        <ele>1927.8165028276</ele>
        <time>2001-05-23T16:28:50.502</time>
      </trkpt>
      <trkpt lat="42.51872" lon="2.04695">
        <ele>1928.2750156086</ele>
        <time>2001-05-23T16:28:51.516</time>
      </trkpt>
      <trkpt lat="42.51872" lon="2.04694">
        <ele>1928.807528902</ele>
        <time>2001-05-23T16:28:52.516</time>
      </trkpt>
      <trkpt lat="42.51871" lon="2.04692">
        <ele>1928.8782500135</ele>
        <time>2001-05-23T16:28:53.518</time>
      </trkpt>
      <trkpt lat="42.5187" lon="2.04692">
        <ele>1928.6476460882</ele>
        <time>2001-05-23T16:28:54.518</time>
      </trkpt>
      <trkpt lat="42.51869" lon="2.04691">
        <ele>1928.39617719</ele>
        <time>2001-05-23T16:28:55.518</time>
      </trkpt>
      <trkpt lat="42.51869" lon="2.0469">
        <ele>1928.2246238818</ele>
        <time>2001-05-23T16:28:56.518</time>
      </trkpt>
      <trkpt lat="42.51867" lon="2.0469">
        <ele>1928.1933253422</ele>
        <time>2001-05-23T16:28:57.518</time>
      </trkpt>
      <trkpt lat="42.51867" lon="2.04689">
        <ele>1928.4944593791</ele>
        <time>2001-05-23T16:28:58.518</time>
      </trkpt>
      <trkpt lat="42.51866" lon="2.04688">
        <ele>1928.90284738</ele>
        <time>2001-05-23T16:28:59.518</time>
      </trkpt>
      <trkpt lat="42.51865" lon="2.04687">
        <ele>1929.3770996796</ele>
        <time>2001-05-23T16:29:00.518</time>
      </trkpt>
      <trkpt lat="42.51864" lon="2.04687">
        <ele>1929.3172753608</ele>
        <time>2001-05-23T16:29:01.518</time>
      </trkpt>
      <trkpt lat="42.51864" lon="2.04686">
        <ele>1929.2669410041</ele>
        <time>2001-05-23T16:29:02.518</time>
      </trkpt>
      <trkpt lat="42.51863" lon="2.04685">
        <ele>1929.3913567573</ele>
        <time>2001-05-23T16:29:03.518</time>
      </trkpt>
      <trkpt lat="42.51862" lon="2.04684">
        <ele>1929.4444738057</ele>
        <time>2001-05-23T16:29:04.518</time>
      </trkpt>
      <trkpt lat="42.51862" lon="2.04684">
        <ele>1929.4228249744</ele>
        <time>2001-05-23T16:29:05.518</time>
      </trkpt>
      <trkpt lat="42.51861" lon="2.04682">
        <ele>1929.5112994974</ele>
        <time>2001-05-23T16:29:06.529</time>
      </trkpt>
      <trkpt lat="42.5186" lon="2.04681">
        <ele>1929.712112131</ele>
        <time>2001-05-23T16:29:07.529</time>
      </trkpt>
      <trkpt lat="42.51859" lon="2.04682">
        <ele>1929.7658569245</ele>
        <time>2001-05-23T16:29:08.529</time>
      </trkpt>
      <trkpt lat="42.51859" lon="2.04682">
        <ele>1929.8074009689</ele>
        <time>2001-05-23T16:29:09.529</time>
      </trkpt>
      <trkpt lat="42.51859" lon="2.04681">
        <ele>1930.0131105995</ele>
        <time>2001-05-23T16:29:10.532</time>
      </trkpt>
      <trkpt lat="42.51859" lon="2.04681">
        <ele>1930.2890076775</ele>
        <time>2001-05-23T16:29:11.532</time>
      </trkpt>
      <trkpt lat="42.51859" lon="2.04681">
        <ele>1930.0668425003</ele>
        <time>2001-05-23T16:29:12.536</time>
      </trkpt>
      <trkpt lat="42.51859" lon="2.04681">
        <ele>1930.039262631</ele>
        <time>2001-05-23T16:29:13.536</time>
      </trkpt>
      <trkpt lat="42.51858" lon="2.04678">
        <ele>1930.5893317208</ele>
        <time>2001-05-23T16:29:14.536</time>
      </trkpt>
      <trkpt lat="42.51857" lon="2.04677">
        <ele>1930.9073067961</ele>
        <time>2001-05-23T16:29:15.536</time>
      </trkpt>
      <trkpt lat="42.51856" lon="2.04677">
        <ele>1931.2623248503</ele>
        <time>2001-05-23T16:29:16.536</time>
      </trkpt>
      <trkpt lat="42.51855" lon="2.04676">
        <ele>1931.806974354</ele>
        <time>2001-05-23T16:29:17.536</time>
      </trkpt>
      <trkpt lat="42.51853" lon="2.04676">
        <ele>1932.4183013178</ele>
        <time>2001-05-23T16:29:18.536</time>
      </trkpt>
      <trkpt lat="42.51853" lon="2.04676">
        <ele>1932.4519793225</ele>
        <time>2001-05-23T16:29:19.536</time>
      </trkpt>
      <trkpt lat="42.51853" lon="2.04675">
        <ele>1932.7723422147</ele>
        <time>2001-05-23T16:29:20.535</time>
      </trkpt>
      <trkpt lat="42.51852" lon="2.04674">
        <ele>1933.3326001031</ele>
        <time>2001-05-23T16:29:21.535</time>
      </trkpt>
      <trkpt lat="42.51851" lon="2.04673">
        <ele>1933.9107167818</ele>
        <time>2001-05-23T16:29:22.535</time>
      </trkpt>
      <trkpt lat="42.5185" lon="2.04672">
        <ele>1934.3701722486</ele>
        <time>2001-05-23T16:29:23.535</time>
      </trkpt>
      <trkpt lat="42.51849" lon="2.04672">
        <ele>1934.5879272144</ele>
        <time>2001-05-23T16:29:24.535</time>
      </trkpt>
      <trkpt lat="42.51849" lon="2.04671">
        <ele>1934.6351743273</ele>
        <time>2001-05-23T16:29:25.535</time>
      </trkpt>
      <trkpt lat="42.51849" lon="2.04671">
        <ele>1934.3641634209</ele>
        <time>2001-05-23T16:29:26.535</time>
      </trkpt>
      <trkpt lat="42.51847" lon="2.04669">
        <ele>1934.3784359572</ele>
        <time>2001-05-23T16:29:27.535</time>
      </trkpt>
      <trkpt lat="42.51845" lon="2.04669">
        <ele>1934.4701654037</ele>
        <time>2001-05-23T16:29:28.535</time>
      </trkpt>
      <trkpt lat="42.51844" lon="2.04669">
        <ele>1935.0345121922</ele>
        <time>2001-05-23T16:29:29.535</time>
      </trkpt>
      <trkpt lat="42.51843" lon="2.04668">
        <ele>1936.1370884204</ele>
        <time>2001-05-23T16:29:30.535</time>
      </trkpt>
      <trkpt lat="42.51844" lon="2.04668">
        <ele>1937.6897636306</ele>
        <time>2001-05-23T16:29:31.535</time>
      </trkpt>
      <trkpt lat="42.51844" lon="2.04669">
        <ele>1939.1348522272</ele>
        <time>2001-05-23T16:29:32.535</time>
      </trkpt>
      <trkpt lat="42.51841" lon="2.04667">
        <ele>1940.8519312294</ele>
        <time>2001-05-23T16:29:33.530</time>
      </trkpt>
      <trkpt lat="42.51838" lon="2.04667">
        <ele>1942.0963729324</ele>
        <time>2001-05-23T16:29:34.530</time>
      </trkpt>
      <trkpt lat="42.51837" lon="2.04667">
        <ele>1943.0396501034</ele>
        <time>2001-05-23T16:29:35.530</time>
      </trkpt>
      <trkpt lat="42.51837" lon="2.04666">
        <ele>1943.575672357</ele>
        <time>2001-05-23T16:29:36.530</time>
      </trkpt>
      <trkpt lat="42.51837" lon="2.04666">
        <ele>1943.9120067751</ele>
        <time>2001-05-23T16:29:37.530</time>
      </trkpt>
      <trkpt lat="42.51837" lon="2.04666">
        <ele>1943.7542750536</ele>
        <time>2001-05-23T16:29:38.530</time>
      </trkpt>
      <trkpt lat="42.51835" lon="2.04664">
        <ele>1943.7965590376</ele>
        <time>2001-05-23T16:29:39.532</time>
      </trkpt>
      <trkpt lat="42.51834" lon="2.04664">
        <ele>1943.3815594284</ele>
        <time>2001-05-23T16:29:40.532</time>
      </trkpt>
      <trkpt lat="42.51833" lon="2.04663">
        <ele>1942.7845720951</ele>
        <time>2001-05-23T16:29:41.532</time>
      </trkpt>
      <trkpt lat="42.51833" lon="2.04661">
        <ele>1942.1167326072</ele>
        <time>2001-05-23T16:29:42.532</time>
      </trkpt>
      <trkpt lat="42.51833" lon="2.04659">
        <ele>1941.2405996263</ele>
        <time>2001-05-23T16:29:43.532</time>
      </trkpt>
      <trkpt lat="42.51833" lon="2.04658">
        <ele>1940.5191622641</ele>
        <time>2001-05-23T16:29:44.532</time>
      </trkpt>
      <trkpt lat="42.51833" lon="2.04658">
        <ele>1939.909194497</ele>
        <time>2001-05-23T16:29:45.532</time>
      </trkpt>
      <trkpt lat="42.51833" lon="2.04658">
        <ele>1939.479690434</ele>
        <time>2001-05-23T16:29:46.532</time>
      </trkpt>
      <trkpt lat="42.51833" lon="2.04657">
        <ele>1938.8900102992</ele>
        <time>2001-05-23T16:29:47.532</time>
      </trkpt>
      <trkpt lat="42.51833" lon="2.04657">
        <ele>1938.705226233</ele>
        <time>2001-05-23T16:29:48.532</time>
      </trkpt>
      <trkpt lat="42.51832" lon="2.04657">
        <ele>1938.3292178227</ele>
        <time>2001-05-23T16:29:49.532</time>
      </trkpt>
      <trkpt lat="42.51831" lon="2.04657">
        <ele>1937.8754065778</ele>
        <time>2001-05-23T16:29:50.532</time>
      </trkpt>
      <trkpt lat="42.51832" lon="2.04655">
        <ele>1937.894526591</ele>
        <time>2001-05-23T16:29:51.528</time>
      </trkpt>
      <trkpt lat="42.51832" lon="2.04655">
        <ele>1938.1211544985</ele>
        <time>2001-05-23T16:29:52.528</time>
      </trkpt>
      <trkpt lat="42.51833" lon="2.04656">
        <ele>1938.4301943371</ele>
        <time>2001-05-23T16:29:53.529</time>
      </trkpt>
      <trkpt lat="42.51833" lon="2.04656">
        <ele>1938.8174676539</ele>
        <time>2001-05-23T16:29:54.529</time>
      </trkpt>
      <trkpt lat="42.51834" lon="2.04656">
        <ele>1939.1092916194</ele>
        <time>2001-05-23T16:29:55.531</time>
      </trkpt>
      <trkpt lat="42.51834" lon="2.04656">
        <ele>1938.9281843269</ele>
        <time>2001-05-23T16:29:56.531</time>
      </trkpt>
      <trkpt lat="42.51835" lon="2.04657">
        <ele>1938.9390828302</ele>
        <time>2001-05-23T16:29:57.530</time>
      </trkpt>
      <trkpt lat="42.51835" lon="2.04657">
        <ele>1938.8675694024</ele>
        <time>2001-05-23T16:29:58.530</time>
      </trkpt>
      <trkpt lat="42.51834" lon="2.04658">
        <ele>1938.9442025494</ele>
        <time>2001-05-23T16:29:59.527</time>
      </trkpt>
      <trkpt lat="42.51834" lon="2.04658">
        <ele>1939.4386896266</ele>
        <time>2001-05-23T16:30:00.527</time>
      </trkpt>
      <trkpt lat="42.51833" lon="2.04657">
        <ele>1939.9479215806</ele>
        <time>2001-05-23T16:30:01.526</time>
      </trkpt>
      <trkpt lat="42.51831" lon="2.04657">
        <ele>1940.4789907726</ele>
        <time>2001-05-23T16:30:02.526</time>
      </trkpt>
      <trkpt lat="42.51829" lon="2.04656">
        <ele>1941.2330472039</ele>
        <time>2001-05-23T16:30:03.526</time>
      </trkpt>
      <trkpt lat="42.51828" lon="2.04656">
        <ele>1941.8959940374</ele>
        <time>2001-05-23T16:30:04.526</time>
      </trkpt>
      <trkpt lat="42.51827" lon="2.04656">
        <ele>1942.3775713747</ele>
        <time>2001-05-23T16:30:05.526</time>
      </trkpt>
      <trkpt lat="42.51826" lon="2.04655">
        <ele>1942.7624275364</ele>
        <time>2001-05-23T16:30:06.526</time>
      </trkpt>
      <trkpt lat="42.51826" lon="2.04655">
        <ele>1942.783824021</ele>
        <time>2001-05-23T16:30:07.526</time>
      </trkpt>
      <trkpt lat="42.51825" lon="2.04655">
        <ele>1942.5404666437</ele>
        <time>2001-05-23T16:30:08.526</time>
      </trkpt>
      <trkpt lat="42.51823" lon="2.04656">
        <ele>1941.9994323472</ele>
        <time>2001-05-23T16:30:09.526</time>
      </trkpt>
      <trkpt lat="42.51822" lon="2.04655">
        <ele>1941.234062198</ele>
        <time>2001-05-23T16:30:10.526</time>
      </trkpt>
      <trkpt lat="42.51822" lon="2.04654">
        <ele>1940.3391033031</ele>
        <time>2001-05-23T16:30:11.526</time>
      </trkpt>
      <trkpt lat="42.51821" lon="2.04654">
        <ele>1939.3851100441</ele>
        <time>2001-05-23T16:30:12.526</time>
      </trkpt>
      <trkpt lat="42.51819" lon="2.04653">
        <ele>1938.221283599</ele>
        <time>2001-05-23T16:30:13.526</time>
      </trkpt>
      <trkpt lat="42.51817" lon="2.04654">
        <ele>1936.7113246452</ele>
        <time>2001-05-23T16:30:14.526</time>
      </trkpt>
      <trkpt lat="42.51816" lon="2.04654">
        <ele>1935.23470768</ele>
        <time>2001-05-23T16:30:15.526</time>
      </trkpt>
      <trkpt lat="42.51816" lon="2.04654">
        <ele>1933.951454258</ele>
        <time>2001-05-23T16:30:16.526</time>
      </trkpt>
      <trkpt lat="42.51815" lon="2.04655">
        <ele>1932.9292636894</ele>
        <time>2001-05-23T16:30:17.526</time>
      </trkpt>
      <trkpt lat="42.51815" lon="2.04656">
        <ele>1932.2266737211</ele>
        <time>2001-05-23T16:30:18.526</time>
      </trkpt>
      <trkpt lat="42.51814" lon="2.04656">
        <ele>1931.9631461484</ele>
        <time>2001-05-23T16:30:19.526</time>
      </trkpt>
      <trkpt lat="42.51812" lon="2.04656">
        <ele>1931.8454027276</ele>
        <time>2001-05-23T16:30:20.526</time>
      </trkpt>
      <trkpt lat="42.51812" lon="2.04657">
        <ele>1931.7647349797</ele>
        <time>2001-05-23T16:30:21.526</time>
      </trkpt>
      <trkpt lat="42.51811" lon="2.04657">
        <ele>1931.4324422186</ele>
        <time>2001-05-23T16:30:22.529</time>
      </trkpt>
      <trkpt lat="42.5181" lon="2.04657">
        <ele>1930.8954170199</ele>
        <time>2001-05-23T16:30:23.529</time>
      </trkpt>
      <trkpt lat="42.51809" lon="2.04658">
        <ele>1930.428031042</ele>
        <time>2001-05-23T16:30:24.529</time>
      </trkpt>
      <trkpt lat="42.51809" lon="2.04659">
        <ele>1930.211859847</ele>
        <time>2001-05-23T16:30:25.529</time>
      </trkpt>
      <trkpt lat="42.51808" lon="2.04659">
        <ele>1929.9199395711</ele>
        <time>2001-05-23T16:30:26.529</time>
      </trkpt>
      <trkpt lat="42.51808" lon="2.0466">
        <ele>1929.7051773194</ele>
        <time>2001-05-23T16:30:27.529</time>
      </trkpt>
      <trkpt lat="42.51807" lon="2.04661">
        <ele>1929.5798715934</ele>
        <time>2001-05-23T16:30:28.528</time>
      </trkpt>
      <trkpt lat="42.51806" lon="2.04662">
        <ele>1929.5542218769</ele>
        <time>2001-05-23T16:30:29.528</time>
      </trkpt>
      <trkpt lat="42.51805" lon="2.04663">
        <ele>1929.3405343477</ele>
        <time>2001-05-23T16:30:30.528</time>
      </trkpt>
      <trkpt lat="42.51804" lon="2.04664">
        <ele>1929.1153584557</ele>
        <time>2001-05-23T16:30:31.528</time>
      </trkpt>
      <trkpt lat="42.51803" lon="2.04664">
        <ele>1928.9764994783</ele>
        <time>2001-05-23T16:30:32.528</time>
      </trkpt>
      <trkpt lat="42.51802" lon="2.04664">
        <ele>1928.8616158353</ele>
        <time>2001-05-23T16:30:33.528</time>
      </trkpt>
      <trkpt lat="42.51801" lon="2.04665">
        <ele>1928.8296981916</ele>
        <time>2001-05-23T16:30:34.528</time>
      </trkpt>
      <trkpt lat="42.51801" lon="2.04665">
        <ele>1928.9415481893</ele>
        <time>2001-05-23T16:30:35.528</time>
      </trkpt>
      <trkpt lat="42.51799" lon="2.04665">
        <ele>1929.3130079245</ele>
        <time>2001-05-23T16:30:36.527</time>
      </trkpt>
      <trkpt lat="42.51799" lon="2.04666">
        <ele>1929.8584155448</ele>
        <time>2001-05-23T16:30:37.527</time>
      </trkpt>
      <trkpt lat="42.51798" lon="2.04665">
        <ele>1930.6638387207</ele>
        <time>2001-05-23T16:30:38.527</time>
      </trkpt>
      <trkpt lat="42.51797" lon="2.04665">
        <ele>1931.5622905185</ele>
        <time>2001-05-23T16:30:39.527</time>
      </trkpt>
      <trkpt lat="42.51796" lon="2.04666">
        <ele>1932.1743096756</ele>
        <time>2001-05-23T16:30:40.522</time>
      </trkpt>
      <trkpt lat="42.51795" lon="2.04667">
        <ele>1932.5065269222</ele>
        <time>2001-05-23T16:30:41.522</time>
      </trkpt>
      <trkpt lat="42.51794" lon="2.04668">
        <ele>1932.5214672985</ele>
        <time>2001-05-23T16:30:42.519</time>
      </trkpt>
      <trkpt lat="42.51793" lon="2.04669">
        <ele>1932.2395543262</ele>
        <time>2001-05-23T16:30:43.519</time>
      </trkpt>
      <trkpt lat="42.51791" lon="2.04669">
        <ele>1931.8093125513</ele>
        <time>2001-05-23T16:30:44.519</time>
      </trkpt>
      <trkpt lat="42.51791" lon="2.0467">
        <ele>1931.8100247642</ele>
        <time>2001-05-23T16:30:45.519</time>
      </trkpt>
      <trkpt lat="42.5179" lon="2.0467">
        <ele>1932.0437588353</ele>
        <time>2001-05-23T16:30:46.519</time>
      </trkpt>
      <trkpt lat="42.5179" lon="2.04671">
        <ele>1932.4970194139</ele>
        <time>2001-05-23T16:30:47.519</time>
      </trkpt>
      <trkpt lat="42.51788" lon="2.04673">
        <ele>1932.6860450679</ele>
        <time>2001-05-23T16:30:48.519</time>
      </trkpt>
      <trkpt lat="42.51789" lon="2.04674">
        <ele>1932.7195829799</ele>
        <time>2001-05-23T16:30:49.519</time>
      </trkpt>
      <trkpt lat="42.51788" lon="2.04675">
        <ele>1932.2078438073</ele>
        <time>2001-05-23T16:30:50.519</time>
      </trkpt>
      <trkpt lat="42.51787" lon="2.04676">
        <ele>1931.4824293787</ele>
        <time>2001-05-23T16:30:51.519</time>
      </trkpt>
      <trkpt lat="42.51787" lon="2.04677">
        <ele>1930.8067646379</ele>
        <time>2001-05-23T16:30:52.519</time>
      </trkpt>
      <trkpt lat="42.51786" lon="2.04678">
        <ele>1930.3598877775</ele>
        <time>2001-05-23T16:30:53.519</time>
      </trkpt>
      <trkpt lat="42.51786" lon="2.04679">
        <ele>1929.9990502404</ele>
        <time>2001-05-23T16:30:54.519</time>
      </trkpt>
      <trkpt lat="42.51787" lon="2.0468">
        <ele>1929.769782521</ele>
        <time>2001-05-23T16:30:55.519</time>
      </trkpt>
      <trkpt lat="42.51787" lon="2.04681">
        <ele>1929.474460982</ele>
        <time>2001-05-23T16:30:56.519</time>
      </trkpt>
      <trkpt lat="42.51787" lon="2.04682">
        <ele>1929.1240056688</ele>
        <time>2001-05-23T16:30:57.519</time>
      </trkpt>
      <trkpt lat="42.51787" lon="2.04683">
        <ele>1928.8715096315</ele>
        <time>2001-05-23T16:30:58.519</time>
      </trkpt>
      <trkpt lat="42.51786" lon="2.04684">
        <ele>1928.7869364699</ele>
        <time>2001-05-23T16:30:59.519</time>
      </trkpt>
      <trkpt lat="42.51784" lon="2.04685">
        <ele>1928.7356664445</ele>
        <time>2001-05-23T16:31:00.519</time>
      </trkpt>
      <trkpt lat="42.51783" lon="2.04686">
        <ele>1928.5914384115</ele>
        <time>2001-05-23T16:31:01.519</time>
      </trkpt>
      <trkpt lat="42.51782" lon="2.04686">
        <ele>1928.4377563078</ele>
        <time>2001-05-23T16:31:02.519</time>
      </trkpt>
      <trkpt lat="42.51782" lon="2.04686">
        <ele>1928.3778250916</ele>
        <time>2001-05-23T16:31:03.519</time>
      </trkpt>
      <trkpt lat="42.51782" lon="2.04687">
        <ele>1928.1410801576</ele>
        <time>2001-05-23T16:31:04.519</time>
      </trkpt>
      <trkpt lat="42.51781" lon="2.04688">
        <ele>1927.9957885798</ele>
        <time>2001-05-23T16:31:05.519</time>
      </trkpt>
      <trkpt lat="42.5178" lon="2.04689">
        <ele>1928.3075397521</ele>
        <time>2001-05-23T16:31:06.518</time>
      </trkpt>
      <trkpt lat="42.51779" lon="2.0469">
        <ele>1928.6570961596</ele>
        <time>2001-05-23T16:31:07.518</time>
      </trkpt>
      <trkpt lat="42.51778" lon="2.04691">
        <ele>1928.9756235499</ele>
        <time>2001-05-23T16:31:08.518</time>
      </trkpt>
      <trkpt lat="42.51778" lon="2.04691">
        <ele>1929.4466364397</ele>
        <time>2001-05-23T16:31:09.518</time>
      </trkpt>
      <trkpt lat="42.51779" lon="2.04693">
        <ele>1929.8079962879</ele>
        <time>2001-05-23T16:31:10.518</time>
      </trkpt>
      <trkpt lat="42.51779" lon="2.04695">
        <ele>1930.1130786523</ele>
        <time>2001-05-23T16:31:11.518</time>
      </trkpt>
      <trkpt lat="42.5178" lon="2.04698">
        <ele>1930.2775561644</ele>
        <time>2001-05-23T16:31:12.518</time>
      </trkpt>
      <trkpt lat="42.5178" lon="2.04699">
        <ele>1930.5528784947</ele>
        <time>2001-05-23T16:31:13.518</time>
      </trkpt>
      <trkpt lat="42.5178" lon="2.047">
        <ele>1930.7847920379</ele>
        <time>2001-05-23T16:31:14.518</time>
      </trkpt>
      <trkpt lat="42.5178" lon="2.04701">
        <ele>1931.1717247088</ele>
        <time>2001-05-23T16:31:15.518</time>
      </trkpt>
      <trkpt lat="42.5178" lon="2.04702">
        <ele>1931.4006991962</ele>
        <time>2001-05-23T16:31:16.518</time>
      </trkpt>
      <trkpt lat="42.51779" lon="2.04704">
        <ele>1931.9099669568</ele>
        <time>2001-05-23T16:31:17.519</time>
      </trkpt>
      <trkpt lat="42.51778" lon="2.04705">
        <ele>1932.0618851056</ele>
        <time>2001-05-23T16:31:18.519</time>
      </trkpt>
      <trkpt lat="42.51779" lon="2.04707">
        <ele>1932.5720053747</ele>
        <time>2001-05-23T16:31:19.519</time>
      </trkpt>
      <trkpt lat="42.5178" lon="2.04707">
        <ele>1933.1041289801</ele>
        <time>2001-05-23T16:31:20.519</time>
      </trkpt>
      <trkpt lat="42.51779" lon="2.04708">
        <ele>1933.7266729308</ele>
        <time>2001-05-23T16:31:21.519</time>
      </trkpt>
      <trkpt lat="42.51779" lon="2.04709">
        <ele>1933.9839310957</ele>
        <time>2001-05-23T16:31:22.519</time>
      </trkpt>
      <trkpt lat="42.51777" lon="2.0471">
        <ele>1934.1862526966</ele>
        <time>2001-05-23T16:31:23.480</time>
      </trkpt>
      <trkpt lat="42.51775" lon="2.04709">
        <ele>1933.9893680934</ele>
        <time>2001-05-23T16:31:24.480</time>
      </trkpt>
      <trkpt lat="42.51774" lon="2.04709">
        <ele>1934.2386057083</ele>
        <time>2001-05-23T16:31:25.480</time>
      </trkpt>
      <trkpt lat="42.51773" lon="2.04708">
        <ele>1934.9184483835</ele>
        <time>2001-05-23T16:31:26.480</time>
      </trkpt>
      <trkpt lat="42.51772" lon="2.04709">
        <ele>1935.9383912997</ele>
        <time>2001-05-23T16:31:27.480</time>
      </trkpt>
      <trkpt lat="42.51772" lon="2.04709">
        <ele>1937.19467905</ele>
        <time>2001-05-23T16:31:28.480</time>
      </trkpt>
      <trkpt lat="42.51772" lon="2.04711">
        <ele>1938.2545265533</ele>
        <time>2001-05-23T16:31:29.479</time>
      </trkpt>
      <trkpt lat="42.51772" lon="2.04711">
        <ele>1938.8106117336</ele>
        <time>2001-05-23T16:31:30.479</time>
      </trkpt>
      <trkpt lat="42.51771" lon="2.04709">
        <ele>1938.4192327572</ele>
        <time>2001-05-23T16:31:31.482</time>
      </trkpt>
      <trkpt lat="42.51771" lon="2.04709">
        <ele>1937.8499245329</ele>
        <time>2001-05-23T16:31:32.482</time>
      </trkpt>
      <trkpt lat="42.51771" lon="2.04708">
        <ele>1937.1635341775</ele>
        <time>2001-05-23T16:31:33.483</time>
      </trkpt>
      <trkpt lat="42.51771" lon="2.04707">
        <ele>1936.5170809271</ele>
        <time>2001-05-23T16:31:34.483</time>
      </trkpt>
      <trkpt lat="42.51771" lon="2.04706">
        <ele>1935.9366588609</ele>
        <time>2001-05-23T16:31:35.483</time>
      </trkpt>
      <trkpt lat="42.51771" lon="2.04704">
        <ele>1935.4767051337</ele>
        <time>2001-05-23T16:31:36.486</time>
      </trkpt>
      <trkpt lat="42.51772" lon="2.04703">
        <ele>1934.6387164375</ele>
        <time>2001-05-23T16:31:37.486</time>
      </trkpt>
      <trkpt lat="42.51771" lon="2.04702">
        <ele>1933.9120153373</ele>
        <time>2001-05-23T16:31:38.486</time>
      </trkpt>
      <trkpt lat="42.5177" lon="2.047">
        <ele>1933.6585531453</ele>
        <time>2001-05-23T16:31:39.486</time>
      </trkpt>
      <trkpt lat="42.5177" lon="2.04699">
        <ele>1933.447671783</ele>
        <time>2001-05-23T16:31:40.486</time>
      </trkpt>
      <trkpt lat="42.51771" lon="2.04697">
        <ele>1933.6443074297</ele>
        <time>2001-05-23T16:31:41.486</time>
      </trkpt>
      <trkpt lat="42.51771" lon="2.04696">
        <ele>1934.382104817</ele>
        <time>2001-05-23T16:31:42.486</time>
      </trkpt>
      <trkpt lat="42.51771" lon="2.04696">
        <ele>1935.1256967394</ele>
        <time>2001-05-23T16:31:43.486</time>
      </trkpt>
      <trkpt lat="42.51773" lon="2.04694">
        <ele>1935.6666831065</ele>
        <time>2001-05-23T16:31:44.486</time>
      </trkpt>
      <trkpt lat="42.51774" lon="2.04694">
        <ele>1935.5393479809</ele>
        <time>2001-05-23T16:31:45.486</time>
      </trkpt>
      <trkpt lat="42.51774" lon="2.04693">
        <ele>1935.097048803</ele>
        <time>2001-05-23T16:31:46.486</time>
      </trkpt>
      <trkpt lat="42.51775" lon="2.04693">
        <ele>1934.256534037</ele>
        <time>2001-05-23T16:31:47.486</time>
      </trkpt>
      <trkpt lat="42.51777" lon="2.04692">
        <ele>1933.1199881407</ele>
        <time>2001-05-23T16:31:48.486</time>
      </trkpt>
      <trkpt lat="42.51778" lon="2.04691">
        <ele>1931.729123283</ele>
        <time>2001-05-23T16:31:49.486</time>
      </trkpt>
      <trkpt lat="42.51778" lon="2.04691">
        <ele>1930.850646174</ele>
        <time>2001-05-23T16:31:50.486</time>
      </trkpt>
      <trkpt lat="42.51779" lon="2.0469">
        <ele>1930.5226462504</ele>
        <time>2001-05-23T16:31:51.486</time>
      </trkpt>
      <trkpt lat="42.5178" lon="2.0469">
        <ele>1930.7033561513</ele>
        <time>2001-05-23T16:31:52.486</time>
      </trkpt>
      <trkpt lat="42.5178" lon="2.04689">
        <ele>1931.4206975827</ele>
        <time>2001-05-23T16:31:53.486</time>
      </trkpt>
      <trkpt lat="42.5178" lon="2.04688">
        <ele>1932.4536602175</ele>
        <time>2001-05-23T16:31:54.486</time>
      </trkpt>
      <trkpt lat="42.51778" lon="2.04688">
        <ele>1933.1194932526</ele>
        <time>2001-05-23T16:31:55.489</time>
      </trkpt>
      <trkpt lat="42.51778" lon="2.04688">
        <ele>1933.4336801449</ele>
        <time>2001-05-23T16:31:56.489</time>
      </trkpt>
      <trkpt lat="42.51779" lon="2.04687">
        <ele>1933.4735468034</ele>
        <time>2001-05-23T16:31:57.488</time>
      </trkpt>
      <trkpt lat="42.5178" lon="2.04685">
        <ele>1933.2430265605</ele>
        <time>2001-05-23T16:31:58.488</time>
      </trkpt>
      <trkpt lat="42.51782" lon="2.04684">
        <ele>1932.8437213549</ele>
        <time>2001-05-23T16:31:59.488</time>
      </trkpt>
      <trkpt lat="42.51782" lon="2.04682">
        <ele>1932.8602209458</ele>
        <time>2001-05-23T16:32:00.488</time>
      </trkpt>
      <trkpt lat="42.51784" lon="2.04681">
        <ele>1932.8866170909</ele>
        <time>2001-05-23T16:32:01.488</time>
      </trkpt>
      <trkpt lat="42.51785" lon="2.0468">
        <ele>1932.661269474</ele>
        <time>2001-05-23T16:32:02.488</time>
      </trkpt>
      <trkpt lat="42.51786" lon="2.0468">
        <ele>1932.4452602366</ele>
        <time>2001-05-23T16:32:03.488</time>
      </trkpt>
      <trkpt lat="42.51786" lon="2.04679">
        <ele>1932.0611047244</ele>
        <time>2001-05-23T16:32:04.488</time>
      </trkpt>
      <trkpt lat="42.51786" lon="2.04679">
        <ele>1931.6601412458</ele>
        <time>2001-05-23T16:32:05.488</time>
      </trkpt>
      <trkpt lat="42.51788" lon="2.04678">
        <ele>1931.4785020389</ele>
        <time>2001-05-23T16:32:06.487</time>
      </trkpt>
      <trkpt lat="42.51789" lon="2.04676">
        <ele>1931.7816350933</ele>
        <time>2001-05-23T16:32:07.487</time>
      </trkpt>
      <trkpt lat="42.5179" lon="2.04674">
        <ele>1931.9713974716</ele>
        <time>2001-05-23T16:32:08.487</time>
      </trkpt>
      <trkpt lat="42.51791" lon="2.04672">
        <ele>1932.1457961755</ele>
        <time>2001-05-23T16:32:09.487</time>
      </trkpt>
      <trkpt lat="42.51791" lon="2.04671">
        <ele>1932.3534999184</ele>
        <time>2001-05-23T16:32:10.487</time>
      </trkpt>
      <trkpt lat="42.51792" lon="2.0467">
        <ele>1932.2115340028</ele>
        <time>2001-05-23T16:32:11.487</time>
      </trkpt>
      <trkpt lat="42.51792" lon="2.0467">
        <ele>1931.6739457132</ele>
        <time>2001-05-23T16:32:12.487</time>
      </trkpt>
      <trkpt lat="42.51793" lon="2.04669">
        <ele>1931.1749025125</ele>
        <time>2001-05-23T16:32:13.487</time>
      </trkpt>
      <trkpt lat="42.51794" lon="2.04667">
        <ele>1930.6927248791</ele>
        <time>2001-05-23T16:32:14.487</time>
      </trkpt>
      <trkpt lat="42.51795" lon="2.04666">
        <ele>1930.4578607989</ele>
        <time>2001-05-23T16:32:15.487</time>
      </trkpt>
      <trkpt lat="42.51795" lon="2.04664">
        <ele>1930.3446239276</ele>
        <time>2001-05-23T16:32:16.487</time>
      </trkpt>
      <trkpt lat="42.51796" lon="2.04663">
        <ele>1930.6330376113</ele>
        <time>2001-05-23T16:32:17.487</time>
      </trkpt>
      <trkpt lat="42.51796" lon="2.04662">
        <ele>1930.8881502748</ele>
        <time>2001-05-23T16:32:18.487</time>
      </trkpt>
      <trkpt lat="42.51797" lon="2.04661">
        <ele>1931.233388163</ele>
        <time>2001-05-23T16:32:19.487</time>
      </trkpt>
      <trkpt lat="42.51799" lon="2.04661">
        <ele>1931.5643695917</ele>
        <time>2001-05-23T16:32:20.487</time>
      </trkpt>
      <trkpt lat="42.51799" lon="2.0466">
        <ele>1932.1033368038</ele>
        <time>2001-05-23T16:32:21.487</time>
      </trkpt>
      <trkpt lat="42.51799" lon="2.04658">
        <ele>1933.3261382399</ele>
        <time>2001-05-23T16:32:22.487</time>
      </trkpt>
      <trkpt lat="42.51799" lon="2.04657">
        <ele>1934.7995783867</ele>
        <time>2001-05-23T16:32:23.487</time>
      </trkpt>
      <trkpt lat="42.51799" lon="2.04656">
        <ele>1936.355533112</ele>
        <time>2001-05-23T16:32:24.487</time>
      </trkpt>
      <trkpt lat="42.51798" lon="2.04656">
        <ele>1937.5570944488</ele>
        <time>2001-05-23T16:32:25.487</time>
      </trkpt>
      <trkpt lat="42.51798" lon="2.04655">
        <ele>1937.8781041747</ele>
        <time>2001-05-23T16:32:26.487</time>
      </trkpt>
      <trkpt lat="42.518" lon="2.04654">
        <ele>1937.5186615789</ele>
        <time>2001-05-23T16:32:27.487</time>
      </trkpt>
      <trkpt lat="42.51801" lon="2.04653">
        <ele>1936.9870766755</ele>
        <time>2001-05-23T16:32:28.487</time>
      </trkpt>
      <trkpt lat="42.51801" lon="2.04652">
        <ele>1936.2255030861</ele>
        <time>2001-05-23T16:32:29.487</time>
      </trkpt>
      <trkpt lat="42.518" lon="2.04651">
        <ele>1935.513120403</ele>
        <time>2001-05-23T16:32:30.487</time>
      </trkpt>
      <trkpt lat="42.518" lon="2.04651">
        <ele>1935.4226059912</ele>
        <time>2001-05-23T16:32:31.487</time>
      </trkpt>
      <trkpt lat="42.51802" lon="2.04649">
        <ele>1935.083187424</ele>
        <time>2001-05-23T16:32:32.473</time>
      </trkpt>
      <trkpt lat="42.51802" lon="2.04649">
        <ele>1934.6632673902</ele>
        <time>2001-05-23T16:32:33.473</time>
      </trkpt>
      <trkpt lat="42.51801" lon="2.04647">
        <ele>1933.5011042628</ele>
        <time>2001-05-23T16:32:34.475</time>
      </trkpt>
      <trkpt lat="42.51801" lon="2.04646">
        <ele>1932.4396512847</ele>
        <time>2001-05-23T16:32:35.475</time>
      </trkpt>
      <trkpt lat="42.51802" lon="2.04645">
        <ele>1931.664171873</ele>
        <time>2001-05-23T16:32:36.473</time>
      </trkpt>
      <trkpt lat="42.51802" lon="2.04644">
        <ele>1931.0467524737</ele>
        <time>2001-05-23T16:32:37.473</time>
      </trkpt>
      <trkpt lat="42.51803" lon="2.04643">
        <ele>1930.6308162633</ele>
        <time>2001-05-23T16:32:38.473</time>
      </trkpt>
      <trkpt lat="42.51804" lon="2.04642">
        <ele>1931.2714625396</ele>
        <time>2001-05-23T16:32:39.473</time>
      </trkpt>
      <trkpt lat="42.51805" lon="2.04641">
        <ele>1931.6001442101</ele>
        <time>2001-05-23T16:32:40.473</time>
      </trkpt>
      <trkpt lat="42.51806" lon="2.04639">
        <ele>1931.1818625191</ele>
        <time>2001-05-23T16:32:41.473</time>
      </trkpt>
      <trkpt lat="42.51808" lon="2.04639">
        <ele>1929.9735077828</ele>
        <time>2001-05-23T16:32:42.473</time>
      </trkpt>
      <trkpt lat="42.51808" lon="2.04637">
        <ele>1928.77261445</ele>
        <time>2001-05-23T16:32:43.473</time>
      </trkpt>
      <trkpt lat="42.51808" lon="2.04636">
        <ele>1927.4832258398</ele>
        <time>2001-05-23T16:32:44.473</time>
      </trkpt>
      <trkpt lat="42.51808" lon="2.04636">
        <ele>1926.459386535</ele>
        <time>2001-05-23T16:32:45.473</time>
      </trkpt>
      <trkpt lat="42.51808" lon="2.04636">
        <ele>1925.9460562054</ele>
        <time>2001-05-23T16:32:46.473</time>
      </trkpt>
      <trkpt lat="42.5181" lon="2.04634">
        <ele>1926.0724167345</ele>
        <time>2001-05-23T16:32:47.476</time>
      </trkpt>
      <trkpt lat="42.5181" lon="2.04633">
        <ele>1926.1449406656</ele>
        <time>2001-05-23T16:32:48.476</time>
      </trkpt>
      <trkpt lat="42.5181" lon="2.04632">
        <ele>1926.0177689718</ele>
        <time>2001-05-23T16:32:49.476</time>
      </trkpt>
      <trkpt lat="42.5181" lon="2.04631">
        <ele>1925.6563167479</ele>
        <time>2001-05-23T16:32:50.476</time>
      </trkpt>
      <trkpt lat="42.5181" lon="2.0463">
        <ele>1925.1537002344</ele>
        <time>2001-05-23T16:32:51.476</time>
      </trkpt>
      <trkpt lat="42.5181" lon="2.04631">
        <ele>1924.7676728869</ele>
        <time>2001-05-23T16:32:52.475</time>
      </trkpt>
      <trkpt lat="42.5181" lon="2.04631">
        <ele>1924.3571173377</ele>
        <time>2001-05-23T16:32:53.475</time>
      </trkpt>
      <trkpt lat="42.51809" lon="2.04631">
        <ele>1924.1130909469</ele>
        <time>2001-05-23T16:32:54.476</time>
      </trkpt>
      <trkpt lat="42.51809" lon="2.04631">
        <ele>1924.1033450862</ele>
        <time>2001-05-23T16:32:55.476</time>
      </trkpt>
      <trkpt lat="42.51807" lon="2.04632">
        <ele>1924.4615537602</ele>
        <time>2001-05-23T16:32:56.472</time>
      </trkpt>
      <trkpt lat="42.51806" lon="2.04633">
        <ele>1925.0815861166</ele>
        <time>2001-05-23T16:32:57.472</time>
      </trkpt>
      <trkpt lat="42.51807" lon="2.04634">
        <ele>1925.5612914972</ele>
        <time>2001-05-23T16:32:58.470</time>
      </trkpt>
      <trkpt lat="42.51807" lon="2.04634">
        <ele>1926.0266806422</ele>
        <time>2001-05-23T16:32:59.470</time>
      </trkpt>
      <trkpt lat="42.51807" lon="2.04635">
        <ele>1926.4954058999</ele>
        <time>2001-05-23T16:33:00.468</time>
      </trkpt>
      <trkpt lat="42.51807" lon="2.04637">
        <ele>1926.9542421084</ele>
        <time>2001-05-23T16:33:01.468</time>
      </trkpt>
      <trkpt lat="42.51807" lon="2.04638">
        <ele>1927.276923264</ele>
        <time>2001-05-23T16:33:02.468</time>
      </trkpt>
      <trkpt lat="42.51808" lon="2.04637">
        <ele>1927.6660899017</ele>
        <time>2001-05-23T16:33:03.465</time>
      </trkpt>
      <trkpt lat="42.51808" lon="2.04637">
        <ele>1928.0552565394</ele>
        <time>2001-05-23T16:33:04.465</time>
      </trkpt>
      <trkpt lat="42.51808" lon="2.04636">
        <ele>1927.8784156146</ele>
        <time>2001-05-23T16:33:05.463</time>
      </trkpt>
      <trkpt lat="42.51808" lon="2.04636">
        <ele>1927.4846734939</ele>
        <time>2001-05-23T16:33:06.463</time>
      </trkpt>
      <trkpt lat="42.5181" lon="2.04638">
        <ele>1926.579756145</ele>
        <time>2001-05-23T16:33:07.466</time>
      </trkpt>
      <trkpt lat="42.51811" lon="2.04638">
        <ele>1925.8166023975</ele>
        <time>2001-05-23T16:33:08.466</time>
      </trkpt>
      <trkpt lat="42.51812" lon="2.04639">
        <ele>1924.9899537064</ele>
        <time>2001-05-23T16:33:09.466</time>
      </trkpt>
      <trkpt lat="42.51812" lon="2.0464">
        <ele>1924.7598045407</ele>
        <time>2001-05-23T16:33:10.466</time>
      </trkpt>
      <trkpt lat="42.51813" lon="2.0464">
        <ele>1924.4750749739</ele>
        <time>2001-05-23T16:33:11.466</time>
      </trkpt>
      <trkpt lat="42.51814" lon="2.04641">
        <ele>1924.5231251892</ele>
        <time>2001-05-23T16:33:12.466</time>
      </trkpt>
      <trkpt lat="42.51815" lon="2.04641">
        <ele>1924.6445169404</ele>
        <time>2001-05-23T16:33:13.466</time>
      </trkpt>
      <trkpt lat="42.51815" lon="2.04642">
        <ele>1924.8080358349</ele>
        <time>2001-05-23T16:33:14.466</time>
      </trkpt>
      <trkpt lat="42.51816" lon="2.04643">
        <ele>1924.8588532375</ele>
        <time>2001-05-23T16:33:15.466</time>
      </trkpt>
      <trkpt lat="42.51817" lon="2.04644">
        <ele>1924.9162850784</ele>
        <time>2001-05-23T16:33:16.466</time>
      </trkpt>
      <trkpt lat="42.51818" lon="2.04645">
        <ele>1924.8711888799</ele>
        <time>2001-05-23T16:33:17.466</time>
      </trkpt>
      <trkpt lat="42.51818" lon="2.04646">
        <ele>1924.6763969641</ele>
        <time>2001-05-23T16:33:18.466</time>
      </trkpt>
      <trkpt lat="42.51818" lon="2.04647">
        <ele>1924.5218283908</ele>
        <time>2001-05-23T16:33:19.466</time>
      </trkpt>
      <trkpt lat="42.51818" lon="2.04648">
        <ele>1924.6851323051</ele>
        <time>2001-05-23T16:33:20.466</time>
      </trkpt>
      <trkpt lat="42.51819" lon="2.04648">
        <ele>1924.8952695446</ele>
        <time>2001-05-23T16:33:21.466</time>
      </trkpt>
      <trkpt lat="42.5182" lon="2.04648">
        <ele>1925.2336186698</ele>
        <time>2001-05-23T16:33:22.466</time>
      </trkpt>
      <trkpt lat="42.51823" lon="2.04651">
        <ele>1925.7565147165</ele>
        <time>2001-05-23T16:33:23.467</time>
      </trkpt>
      <trkpt lat="42.51824" lon="2.04652">
        <ele>1926.5552030711</ele>
        <time>2001-05-23T16:33:24.467</time>
      </trkpt>
      <trkpt lat="42.51825" lon="2.04654">
        <ele>1926.8924541501</ele>
        <time>2001-05-23T16:33:25.467</time>
      </trkpt>
      <trkpt lat="42.51825" lon="2.04654">
        <ele>1927.3562886244</ele>
        <time>2001-05-23T16:33:26.467</time>
      </trkpt>
      <trkpt lat="42.51827" lon="2.04656">
        <ele>1927.6812386276</ele>
        <time>2001-05-23T16:33:27.467</time>
      </trkpt>
      <trkpt lat="42.51828" lon="2.04657">
        <ele>1927.7762743613</ele>
        <time>2001-05-23T16:33:28.467</time>
      </trkpt>
      <trkpt lat="42.51829" lon="2.04657">
        <ele>1927.526477241</ele>
        <time>2001-05-23T16:33:29.467</time>
      </trkpt>
      <trkpt lat="42.5183" lon="2.04659">
        <ele>1927.4270506656</ele>
        <time>2001-05-23T16:33:30.467</time>
      </trkpt>
      <trkpt lat="42.5183" lon="2.0466">
        <ele>1927.5591902638</ele>
        <time>2001-05-23T16:33:31.467</time>
      </trkpt>
      <trkpt lat="42.5183" lon="2.04661">
        <ele>1927.7915617166</ele>
        <time>2001-05-23T16:33:32.467</time>
      </trkpt>
      <trkpt lat="42.51831" lon="2.04661">
        <ele>1927.9762885852</ele>
        <time>2001-05-23T16:33:33.467</time>
      </trkpt>
      <trkpt lat="42.51831" lon="2.04663">
        <ele>1928.4828821441</ele>
        <time>2001-05-23T16:33:34.467</time>
      </trkpt>
      <trkpt lat="42.51832" lon="2.04665">
        <ele>1929.0443726117</ele>
        <time>2001-05-23T16:33:35.467</time>
      </trkpt>
      <trkpt lat="42.51833" lon="2.04666">
        <ele>1929.1177942723</ele>
        <time>2001-05-23T16:33:36.467</time>
      </trkpt>
      <trkpt lat="42.51835" lon="2.04667">
        <ele>1929.0363694372</ele>
        <time>2001-05-23T16:33:37.467</time>
      </trkpt>
      <trkpt lat="42.51835" lon="2.04668">
        <ele>1929.0891149074</ele>
        <time>2001-05-23T16:33:38.467</time>
      </trkpt>
      <trkpt lat="42.51836" lon="2.04669">
        <ele>1928.9862601459</ele>
        <time>2001-05-23T16:33:39.467</time>
      </trkpt>
      <trkpt lat="42.51836" lon="2.04669">
        <ele>1929.1216661444</ele>
        <time>2001-05-23T16:33:40.467</time>
      </trkpt>
      <trkpt lat="42.51837" lon="2.04669">
        <ele>1929.5215045761</ele>
        <time>2001-05-23T16:33:41.467</time>
      </trkpt>
      <trkpt lat="42.51837" lon="2.04671">
        <ele>1930.1502967089</ele>
        <time>2001-05-23T16:33:42.479</time>
      </trkpt>
      <trkpt lat="42.51838" lon="2.04672">
        <ele>1930.6544323217</ele>
        <time>2001-05-23T16:33:43.479</time>
      </trkpt>
      <trkpt lat="42.51839" lon="2.04674">
        <ele>1931.1089545358</ele>
        <time>2001-05-23T16:33:44.494</time>
      </trkpt>
      <trkpt lat="42.51839" lon="2.04675">
        <ele>1931.3930861812</ele>
        <time>2001-05-23T16:33:45.494</time>
      </trkpt>
      <trkpt lat="42.51841" lon="2.04676">
        <ele>1931.7793494368</ele>
        <time>2001-05-23T16:33:46.500</time>
      </trkpt>
      <trkpt lat="42.51843" lon="2.04676">
        <ele>1932.5171090851</ele>
        <time>2001-05-23T16:33:47.500</time>
      </trkpt>
      <trkpt lat="42.51843" lon="2.04676">
        <ele>1933.9535159644</ele>
        <time>2001-05-23T16:33:48.500</time>
      </trkpt>
      <trkpt lat="42.51845" lon="2.04677">
        <ele>1935.9427091373</ele>
        <time>2001-05-23T16:33:49.500</time>
      </trkpt>
      <trkpt lat="42.51846" lon="2.04678">
        <ele>1938.0253718963</ele>
        <time>2001-05-23T16:33:50.500</time>
      </trkpt>
      <trkpt lat="42.51847" lon="2.04678">
        <ele>1939.9842422845</ele>
        <time>2001-05-23T16:33:51.500</time>
      </trkpt>
      <trkpt lat="42.51848" lon="2.04678">
        <ele>1941.3383888064</ele>
        <time>2001-05-23T16:33:52.500</time>
      </trkpt>
      <trkpt lat="42.51848" lon="2.04678">
        <ele>1941.9248189023</ele>
        <time>2001-05-23T16:33:53.500</time>
      </trkpt>
      <trkpt lat="42.5185" lon="2.04679">
        <ele>1941.579640743</ele>
        <time>2001-05-23T16:33:54.500</time>
      </trkpt>
      <trkpt lat="42.5185" lon="2.04678">
        <ele>1941.0898123436</ele>
        <time>2001-05-23T16:33:55.500</time>
      </trkpt>
      <trkpt lat="42.51851" lon="2.04678">
        <ele>1940.5465715284</ele>
        <time>2001-05-23T16:33:56.500</time>
      </trkpt>
      <trkpt lat="42.51852" lon="2.04678">
        <ele>1940.1902591811</ele>
        <time>2001-05-23T16:33:57.500</time>
      </trkpt>
      <trkpt lat="42.51853" lon="2.04678">
        <ele>1939.8701104598</ele>
        <time>2001-05-23T16:33:58.500</time>
      </trkpt>
      <trkpt lat="42.51855" lon="2.04679">
        <ele>1939.4340181537</ele>
        <time>2001-05-23T16:33:59.500</time>
      </trkpt>
      <trkpt lat="42.51855" lon="2.04679">
        <ele>1938.9984070608</ele>
        <time>2001-05-23T16:34:00.500</time>
      </trkpt>
      <trkpt lat="42.51856" lon="2.04678">
        <ele>1938.3232697889</ele>
        <time>2001-05-23T16:34:01.500</time>
      </trkpt>
      <trkpt lat="42.51858" lon="2.04678">
        <ele>1937.4466830377</ele>
        <time>2001-05-23T16:34:02.500</time>
      </trkpt>
      <trkpt lat="42.5186" lon="2.04678">
        <ele>1936.8599624105</ele>
        <time>2001-05-23T16:34:03.500</time>
      </trkpt>
      <trkpt lat="42.51861" lon="2.04677">
        <ele>1936.590188119</ele>
        <time>2001-05-23T16:34:04.500</time>
      </trkpt>
      <trkpt lat="42.51862" lon="2.04677">
        <ele>1936.2775579976</ele>
        <time>2001-05-23T16:34:05.500</time>
      </trkpt>
      <trkpt lat="42.51864" lon="2.04676">
        <ele>1936.1286800722</ele>
        <time>2001-05-23T16:34:06.500</time>
      </trkpt>
      <trkpt lat="42.51865" lon="2.04675">
        <ele>1936.0950710371</ele>
        <time>2001-05-23T16:34:07.500</time>
      </trkpt>
      <trkpt lat="42.51868" lon="2.04673">
        <ele>1935.5986727882</ele>
        <time>2001-05-23T16:34:08.500</time>
      </trkpt>
      <trkpt lat="42.51871" lon="2.04671">
        <ele>1935.0479998991</ele>
        <time>2001-05-23T16:34:09.500</time>
      </trkpt>
      <trkpt lat="42.51872" lon="2.04671">
        <ele>1934.5330622992</ele>
        <time>2001-05-23T16:34:10.500</time>
      </trkpt>
      <trkpt lat="42.51873" lon="2.0467">
        <ele>1933.9020605043</ele>
        <time>2001-05-23T16:34:11.500</time>
      </trkpt>
      <trkpt lat="42.51874" lon="2.0467">
        <ele>1933.1325406631</ele>
        <time>2001-05-23T16:34:12.500</time>
      </trkpt>
      <trkpt lat="42.51875" lon="2.0467">
        <ele>1932.6150923701</ele>
        <time>2001-05-23T16:34:13.500</time>
      </trkpt>
      <trkpt lat="42.51877" lon="2.04669">
        <ele>1931.9732229352</ele>
        <time>2001-05-23T16:34:14.500</time>
      </trkpt>
      <trkpt lat="42.51878" lon="2.04668">
        <ele>1931.340956939</ele>
        <time>2001-05-23T16:34:15.500</time>
      </trkpt>
      <trkpt lat="42.51878" lon="2.04668">
        <ele>1930.7571122887</ele>
        <time>2001-05-23T16:34:16.500</time>
      </trkpt>
      <trkpt lat="42.51879" lon="2.04669">
        <ele>1930.2152878366</ele>
        <time>2001-05-23T16:34:17.500</time>
      </trkpt>
      <trkpt lat="42.5188" lon="2.0467">
        <ele>1929.8991765579</ele>
        <time>2001-05-23T16:34:18.500</time>
      </trkpt>
      <trkpt lat="42.51881" lon="2.0467">
        <ele>1929.9564047182</ele>
        <time>2001-05-23T16:34:19.500</time>
      </trkpt>
      <trkpt lat="42.51882" lon="2.0467">
        <ele>1930.0599571446</ele>
        <time>2001-05-23T16:34:20.500</time>
      </trkpt>
      <trkpt lat="42.51883" lon="2.04671">
        <ele>1930.2652317751</ele>
        <time>2001-05-23T16:34:21.500</time>
      </trkpt>
      <trkpt lat="42.51883" lon="2.04671">
        <ele>1930.7008230641</ele>
        <time>2001-05-23T16:34:22.500</time>
      </trkpt>
      <trkpt lat="42.51883" lon="2.04671">
        <ele>1931.1081920672</ele>
        <time>2001-05-23T16:34:23.500</time>
      </trkpt>
      <trkpt lat="42.51885" lon="2.04671">
        <ele>1932.2805705292</ele>
        <time>2001-05-23T16:34:24.502</time>
      </trkpt>
      <trkpt lat="42.51885" lon="2.04671">
        <ele>1933.7108370474</ele>
        <time>2001-05-23T16:34:25.502</time>
      </trkpt>
      <trkpt lat="42.51886" lon="2.04672">
        <ele>1934.9631658813</ele>
        <time>2001-05-23T16:34:26.502</time>
      </trkpt>
      <trkpt lat="42.51887" lon="2.0467">
        <ele>1936.3918757601</ele>
        <time>2001-05-23T16:34:27.503</time>
      </trkpt>
      <trkpt lat="42.51888" lon="2.0467">
        <ele>1937.6559216172</ele>
        <time>2001-05-23T16:34:28.503</time>
      </trkpt>
      <trkpt lat="42.51889" lon="2.04671">
        <ele>1938.1079536153</ele>
        <time>2001-05-23T16:34:29.503</time>
      </trkpt>
      <trkpt lat="42.51889" lon="2.04672">
        <ele>1937.8866131129</ele>
        <time>2001-05-23T16:34:30.503</time>
      </trkpt>
      <trkpt lat="42.51889" lon="2.04673">
        <ele>1938.0224391483</ele>
        <time>2001-05-23T16:34:31.503</time>
      </trkpt>
      <trkpt lat="42.51889" lon="2.04675">
        <ele>1938.3188635625</ele>
        <time>2001-05-23T16:34:32.503</time>
      </trkpt>
      <trkpt lat="42.5189" lon="2.04675">
        <ele>1938.7614748279</ele>
        <time>2001-05-23T16:34:33.503</time>
      </trkpt>
      <trkpt lat="42.51891" lon="2.04676">
        <ele>1939.3051711814</ele>
        <time>2001-05-23T16:34:34.503</time>
      </trkpt>
      <trkpt lat="42.51892" lon="2.04676">
        <ele>1940.2144950101</ele>
        <time>2001-05-23T16:34:35.503</time>
      </trkpt>
      <trkpt lat="42.51893" lon="2.04676">
        <ele>1941.0902300909</ele>
        <time>2001-05-23T16:34:36.503</time>
      </trkpt>
      <trkpt lat="42.51894" lon="2.04676">
        <ele>1941.6683559753</ele>
        <time>2001-05-23T16:34:37.503</time>
      </trkpt>
      <trkpt lat="42.51896" lon="2.04677">
        <ele>1941.6786468878</ele>
        <time>2001-05-23T16:34:38.503</time>
      </trkpt>
      <trkpt lat="42.51897" lon="2.04677">
        <ele>1941.4970788412</ele>
        <time>2001-05-23T16:34:39.503</time>
      </trkpt>
      <trkpt lat="42.51898" lon="2.04676">
        <ele>1941.328210737</ele>
        <time>2001-05-23T16:34:40.503</time>
      </trkpt>
      <trkpt lat="42.51899" lon="2.04677">
        <ele>1940.8595889362</ele>
        <time>2001-05-23T16:34:41.503</time>
      </trkpt>
      <trkpt lat="42.51899" lon="2.04678">
        <ele>1940.4112544844</ele>
        <time>2001-05-23T16:34:42.503</time>
      </trkpt>
      <trkpt lat="42.519" lon="2.04679">
        <ele>1940.3584104719</ele>
        <time>2001-05-23T16:34:43.503</time>
      </trkpt>
      <trkpt lat="42.51901" lon="2.04679">
        <ele>1940.1464433087</ele>
        <time>2001-05-23T16:34:44.503</time>
      </trkpt>
      <trkpt lat="42.51902" lon="2.04679">
        <ele>1939.8199078675</ele>
        <time>2001-05-23T16:34:45.503</time>
      </trkpt>
      <trkpt lat="42.51903" lon="2.04679">
        <ele>1939.7589023471</ele>
        <time>2001-05-23T16:34:46.503</time>
      </trkpt>
      <trkpt lat="42.51905" lon="2.04678">
        <ele>1939.5091534678</ele>
        <time>2001-05-23T16:34:47.503</time>
      </trkpt>
      <trkpt lat="42.51906" lon="2.04676">
        <ele>1938.7899957921</ele>
        <time>2001-05-23T16:34:48.503</time>
      </trkpt>
      <trkpt lat="42.51907" lon="2.04677">
        <ele>1938.3714937788</ele>
        <time>2001-05-23T16:34:49.503</time>
      </trkpt>
      <trkpt lat="42.51909" lon="2.04676">
        <ele>1937.8353071742</ele>
        <time>2001-05-23T16:34:50.503</time>
      </trkpt>
      <trkpt lat="42.5191" lon="2.04676">
        <ele>1936.7029144036</ele>
        <time>2001-05-23T16:34:51.503</time>
      </trkpt>
      <trkpt lat="42.5191" lon="2.04675">
        <ele>1935.2605905715</ele>
        <time>2001-05-23T16:34:52.503</time>
      </trkpt>
      <trkpt lat="42.51912" lon="2.04674">
        <ele>1934.1786744347</ele>
        <time>2001-05-23T16:34:53.503</time>
      </trkpt>
      <trkpt lat="42.51913" lon="2.04674">
        <ele>1932.90090877</ele>
        <time>2001-05-23T16:34:54.503</time>
      </trkpt>
      <trkpt lat="42.51915" lon="2.04674">
        <ele>1931.9525731096</ele>
        <time>2001-05-23T16:34:55.503</time>
      </trkpt>
      <trkpt lat="42.51916" lon="2.04673">
        <ele>1931.4688067956</ele>
        <time>2001-05-23T16:34:56.503</time>
      </trkpt>
      <trkpt lat="42.51917" lon="2.04674">
        <ele>1931.3089720747</ele>
        <time>2001-05-23T16:34:57.503</time>
      </trkpt>
      <trkpt lat="42.51918" lon="2.04674">
        <ele>1931.744165655</ele>
        <time>2001-05-23T16:34:58.503</time>
      </trkpt>
      <trkpt lat="42.5192" lon="2.04674">
        <ele>1932.5934387084</ele>
        <time>2001-05-23T16:34:59.503</time>
      </trkpt>
      <trkpt lat="42.51924" lon="2.04675">
        <ele>1933.0508196769</ele>
        <time>2001-05-23T16:35:00.503</time>
      </trkpt>
      <trkpt lat="42.51925" lon="2.04675">
        <ele>1933.6664960803</ele>
        <time>2001-05-23T16:35:01.503</time>
      </trkpt>
      <trkpt lat="42.51925" lon="2.04674">
        <ele>1934.2257343935</ele>
        <time>2001-05-23T16:35:02.503</time>
      </trkpt>
      <trkpt lat="42.51927" lon="2.04672">
        <ele>1934.2728363045</ele>
        <time>2001-05-23T16:35:03.503</time>
      </trkpt>
      <trkpt lat="42.51928" lon="2.0467">
        <ele>1933.6910166277</ele>
        <time>2001-05-23T16:35:04.503</time>
      </trkpt>
      <trkpt lat="42.51928" lon="2.0467">
        <ele>1933.0510378584</ele>
        <time>2001-05-23T16:35:05.503</time>
      </trkpt>
      <trkpt lat="42.5193" lon="2.0467">
        <ele>1931.953412701</ele>
        <time>2001-05-23T16:35:06.503</time>
      </trkpt>
      <trkpt lat="42.51931" lon="2.04669">
        <ele>1930.6981908552</ele>
        <time>2001-05-23T16:35:07.503</time>
      </trkpt>
      <trkpt lat="42.51931" lon="2.04669">
        <ele>1929.6520474106</ele>
        <time>2001-05-23T16:35:08.503</time>
      </trkpt>
      <trkpt lat="42.51932" lon="2.04669">
        <ele>1929.1880308583</ele>
        <time>2001-05-23T16:35:09.503</time>
      </trkpt>
      <trkpt lat="42.51933" lon="2.04669">
        <ele>1929.2674123928</ele>
        <time>2001-05-23T16:35:10.503</time>
      </trkpt>
      <trkpt lat="42.51935" lon="2.04669">
        <ele>1929.5817404797</ele>
        <time>2001-05-23T16:35:11.503</time>
      </trkpt>
      <trkpt lat="42.51936" lon="2.04669">
        <ele>1930.150835043</ele>
        <time>2001-05-23T16:35:12.503</time>
      </trkpt>
      <trkpt lat="42.51937" lon="2.04669">
        <ele>1930.4544949634</ele>
        <time>2001-05-23T16:35:13.503</time>
      </trkpt>
      <trkpt lat="42.51937" lon="2.04669">
        <ele>1930.2603052529</ele>
        <time>2001-05-23T16:35:14.503</time>
      </trkpt>
      <trkpt lat="42.51937" lon="2.0467">
        <ele>1929.7517337615</ele>
        <time>2001-05-23T16:35:15.503</time>
      </trkpt>
      <trkpt lat="42.51938" lon="2.04668">
        <ele>1928.5464016069</ele>
        <time>2001-05-23T16:35:16.505</time>
      </trkpt>
      <trkpt lat="42.51939" lon="2.04667">
        <ele>1927.2794595171</ele>
        <time>2001-05-23T16:35:17.505</time>
      </trkpt>
      <trkpt lat="42.5194" lon="2.04666">
        <ele>1926.0860475389</ele>
        <time>2001-05-23T16:35:18.505</time>
      </trkpt>
      <trkpt lat="42.51941" lon="2.04666">
        <ele>1925.1618631903</ele>
        <time>2001-05-23T16:35:19.505</time>
      </trkpt>
      <trkpt lat="42.51943" lon="2.04666">
        <ele>1924.2613777887</ele>
        <time>2001-05-23T16:35:20.505</time>
      </trkpt>
      <trkpt lat="42.51945" lon="2.04666">
        <ele>1924.2074973552</ele>
        <time>2001-05-23T16:35:21.505</time>
      </trkpt>
      <trkpt lat="42.51947" lon="2.04666">
        <ele>1924.2901395263</ele>
        <time>2001-05-23T16:35:22.505</time>
      </trkpt>
      <trkpt lat="42.51947" lon="2.04666">
        <ele>1924.6498996703</ele>
        <time>2001-05-23T16:35:23.505</time>
      </trkpt>
      <trkpt lat="42.51948" lon="2.04667">
        <ele>1925.5127446007</ele>
        <time>2001-05-23T16:35:24.505</time>
      </trkpt>
      <trkpt lat="42.51949" lon="2.04667">
        <ele>1926.5237503534</ele>
        <time>2001-05-23T16:35:25.505</time>
      </trkpt>
      <trkpt lat="42.51951" lon="2.04668">
        <ele>1927.5153491851</ele>
        <time>2001-05-23T16:35:26.505</time>
      </trkpt>
      <trkpt lat="42.51952" lon="2.04667">
        <ele>1928.4669351747</ele>
        <time>2001-05-23T16:35:27.505</time>
      </trkpt>
      <trkpt lat="42.51953" lon="2.04667">
        <ele>1929.3936381003</ele>
        <time>2001-05-23T16:35:28.505</time>
      </trkpt>
      <trkpt lat="42.51954" lon="2.04668">
        <ele>1929.9621424574</ele>
        <time>2001-05-23T16:35:29.505</time>
      </trkpt>
      <trkpt lat="42.51954" lon="2.04668">
        <ele>1930.5443982061</ele>
        <time>2001-05-23T16:35:30.505</time>
      </trkpt>
      <trkpt lat="42.51955" lon="2.04668">
        <ele>1930.7061103165</ele>
        <time>2001-05-23T16:35:31.505</time>
      </trkpt>
      <trkpt lat="42.51956" lon="2.04668">
        <ele>1930.5912750086</ele>
        <time>2001-05-23T16:35:32.505</time>
      </trkpt>
      <trkpt lat="42.51957" lon="2.04668">
        <ele>1930.0016760828</ele>
        <time>2001-05-23T16:35:33.505</time>
      </trkpt>
      <trkpt lat="42.51958" lon="2.04669">
        <ele>1929.1479166383</ele>
        <time>2001-05-23T16:35:34.505</time>
      </trkpt>
      <trkpt lat="42.5196" lon="2.0467">
        <ele>1928.269523439</ele>
        <time>2001-05-23T16:35:35.505</time>
      </trkpt>
      <trkpt lat="42.51961" lon="2.0467">
        <ele>1927.8427452816</ele>
        <time>2001-05-23T16:35:36.505</time>
      </trkpt>
      <trkpt lat="42.51962" lon="2.04671">
        <ele>1928.1495045919</ele>
        <time>2001-05-23T16:35:37.505</time>
      </trkpt>
      <trkpt lat="42.51963" lon="2.04672">
        <ele>1928.9270782718</ele>
        <time>2001-05-23T16:35:38.505</time>
      </trkpt>
      <trkpt lat="42.51964" lon="2.04672">
        <ele>1929.7826794544</ele>
        <time>2001-05-23T16:35:39.505</time>
      </trkpt>
      <trkpt lat="42.51965" lon="2.04673">
        <ele>1930.7733086016</ele>
        <time>2001-05-23T16:35:40.505</time>
      </trkpt>
      <trkpt lat="42.51967" lon="2.04673">
        <ele>1931.6953353228</ele>
        <time>2001-05-23T16:35:41.505</time>
      </trkpt>
      <trkpt lat="42.51969" lon="2.04674">
        <ele>1932.0555356782</ele>
        <time>2001-05-23T16:35:42.505</time>
      </trkpt>
      <trkpt lat="42.51969" lon="2.04673">
        <ele>1932.5435191454</ele>
        <time>2001-05-23T16:35:43.505</time>
      </trkpt>
      <trkpt lat="42.5197" lon="2.04673">
        <ele>1932.9100821352</ele>
        <time>2001-05-23T16:35:44.505</time>
      </trkpt>
      <trkpt lat="42.51971" lon="2.04674">
        <ele>1933.1078631159</ele>
        <time>2001-05-23T16:35:45.505</time>
      </trkpt>
      <trkpt lat="42.51971" lon="2.04674">
        <ele>1933.3038630443</ele>
        <time>2001-05-23T16:35:46.505</time>
      </trkpt>
      <trkpt lat="42.51973" lon="2.04674">
        <ele>1933.3063582243</ele>
        <time>2001-05-23T16:35:47.505</time>
      </trkpt>
      <trkpt lat="42.51974" lon="2.04674">
        <ele>1932.9216194771</ele>
        <time>2001-05-23T16:35:48.505</time>
      </trkpt>
      <trkpt lat="42.51976" lon="2.04674">
        <ele>1932.4439015802</ele>
        <time>2001-05-23T16:35:49.505</time>
      </trkpt>
      <trkpt lat="42.51977" lon="2.04674">
        <ele>1932.5403718041</ele>
        <time>2001-05-23T16:35:50.505</time>
      </trkpt>
      <trkpt lat="42.51977" lon="2.04674">
        <ele>1932.6633656684</ele>
        <time>2001-05-23T16:35:51.505</time>
      </trkpt>
      <trkpt lat="42.51977" lon="2.04674">
        <ele>1932.7356063297</ele>
        <time>2001-05-23T16:35:52.505</time>
      </trkpt>
      <trkpt lat="42.51977" lon="2.04676">
        <ele>1933.1550571198</ele>
        <time>2001-05-23T16:35:53.505</time>
      </trkpt>
      <trkpt lat="42.51979" lon="2.04675">
        <ele>1933.8324583327</ele>
        <time>2001-05-23T16:35:54.505</time>
      </trkpt>
      <trkpt lat="42.51981" lon="2.04674">
        <ele>1933.9263053404</ele>
        <time>2001-05-23T16:35:55.505</time>
      </trkpt>
      <trkpt lat="42.51981" lon="2.04674">
        <ele>1934.0698747125</ele>
        <time>2001-05-23T16:35:56.505</time>
      </trkpt>
      <trkpt lat="42.51982" lon="2.04674">
        <ele>1934.4732769722</ele>
        <time>2001-05-23T16:35:57.505</time>
      </trkpt>
      <trkpt lat="42.51983" lon="2.04675">
        <ele>1934.6322878737</ele>
        <time>2001-05-23T16:35:58.505</time>
      </trkpt>
      <trkpt lat="42.51983" lon="2.04675">
        <ele>1934.6534179443</ele>
        <time>2001-05-23T16:35:59.505</time>
      </trkpt>
      <trkpt lat="42.51985" lon="2.04675">
        <ele>1934.6442278069</ele>
        <time>2001-05-23T16:36:00.505</time>
      </trkpt>
      <trkpt lat="42.51986" lon="2.04674">
        <ele>1934.3965792492</ele>
        <time>2001-05-23T16:36:01.505</time>
      </trkpt>
      <trkpt lat="42.51987" lon="2.04673">
        <ele>1933.9229662331</ele>
        <time>2001-05-23T16:36:02.505</time>
      </trkpt>
      <trkpt lat="42.51988" lon="2.04673">
        <ele>1933.4606105654</ele>
        <time>2001-05-23T16:36:03.505</time>
      </trkpt>
      <trkpt lat="42.51988" lon="2.04673">
        <ele>1933.1263046253</ele>
        <time>2001-05-23T16:36:04.505</time>
      </trkpt>
      <trkpt lat="42.5199" lon="2.04673">
        <ele>1932.805101328</ele>
        <time>2001-05-23T16:36:05.505</time>
      </trkpt>
      <trkpt lat="42.51991" lon="2.04673">
        <ele>1932.5539221253</ele>
        <time>2001-05-23T16:36:06.505</time>
      </trkpt>
      <trkpt lat="42.51992" lon="2.04673">
        <ele>1932.5999378592</ele>
        <time>2001-05-23T16:36:07.505</time>
      </trkpt>
      <trkpt lat="42.51994" lon="2.04673">
        <ele>1932.7561833713</ele>
        <time>2001-05-23T16:36:08.505</time>
      </trkpt>
      <trkpt lat="42.51994" lon="2.04674">
        <ele>1933.029163135</ele>
        <time>2001-05-23T16:36:09.505</time>
      </trkpt>
      <trkpt lat="42.51996" lon="2.04674">
        <ele>1933.4237609949</ele>
        <time>2001-05-23T16:36:10.505</time>
      </trkpt>
      <trkpt lat="42.51997" lon="2.04675">
        <ele>1933.8211420758</ele>
        <time>2001-05-23T16:36:11.505</time>
      </trkpt>
      <trkpt lat="42.52" lon="2.04675">
        <ele>1933.9873900274</ele>
        <time>2001-05-23T16:36:12.505</time>
      </trkpt>
      <trkpt lat="42.52001" lon="2.04675">
        <ele>1934.1504751412</ele>
        <time>2001-05-23T16:36:13.505</time>
      </trkpt>
      <trkpt lat="42.52003" lon="2.04675">
        <ele>1933.7366983159</ele>
        <time>2001-05-23T16:36:14.505</time>
      </trkpt>
      <trkpt lat="42.52003" lon="2.04675">
        <ele>1933.1415799391</ele>
        <time>2001-05-23T16:36:15.505</time>
      </trkpt>
      <trkpt lat="42.52004" lon="2.04674">
        <ele>1932.395102194</ele>
        <time>2001-05-23T16:36:16.505</time>
      </trkpt>
      <trkpt lat="42.52006" lon="2.04674">
        <ele>1931.6584246451</ele>
        <time>2001-05-23T16:36:17.505</time>
      </trkpt>
      <trkpt lat="42.52007" lon="2.04673">
        <ele>1930.5368290586</ele>
        <time>2001-05-23T16:36:18.505</time>
      </trkpt>
      <trkpt lat="42.52008" lon="2.04672">
        <ele>1929.7600449964</ele>
        <time>2001-05-23T16:36:19.505</time>
      </trkpt>
      <trkpt lat="42.52009" lon="2.04672">
        <ele>1929.283625941</ele>
        <time>2001-05-23T16:36:20.505</time>
      </trkpt>
      <trkpt lat="42.5201" lon="2.04671">
        <ele>1929.0654685445</ele>
        <time>2001-05-23T16:36:21.505</time>
      </trkpt>
      <trkpt lat="42.52011" lon="2.04671">
        <ele>1928.9486798605</ele>
        <time>2001-05-23T16:36:22.505</time>
      </trkpt>
      <trkpt lat="42.52013" lon="2.04671">
        <ele>1928.7681900078</ele>
        <time>2001-05-23T16:36:23.505</time>
      </trkpt>
      <trkpt lat="42.52014" lon="2.04671">
        <ele>1928.8651829865</ele>
        <time>2001-05-23T16:36:24.505</time>
      </trkpt>
      <trkpt lat="42.52015" lon="2.04672">
        <ele>1928.7716531146</ele>
        <time>2001-05-23T16:36:25.505</time>
      </trkpt>
      <trkpt lat="42.52016" lon="2.04672">
        <ele>1928.1759280797</ele>
        <time>2001-05-23T16:36:26.505</time>
      </trkpt>
      <trkpt lat="42.52017" lon="2.04671">
        <ele>1927.5152230835</ele>
        <time>2001-05-23T16:36:27.505</time>
      </trkpt>
      <trkpt lat="42.52018" lon="2.04671">
        <ele>1926.935307955</ele>
        <time>2001-05-23T16:36:28.505</time>
      </trkpt>
      <trkpt lat="42.52019" lon="2.0467">
        <ele>1926.0735202324</ele>
        <time>2001-05-23T16:36:29.505</time>
      </trkpt>
      <trkpt lat="42.52021" lon="2.0467">
        <ele>1925.3770305935</ele>
        <time>2001-05-23T16:36:30.505</time>
      </trkpt>
      <trkpt lat="42.52021" lon="2.0467">
        <ele>1925.2584863774</ele>
        <time>2001-05-23T16:36:31.505</time>
      </trkpt>
      <trkpt lat="42.52021" lon="2.0467">
        <ele>1925.1678462412</ele>
        <time>2001-05-23T16:36:32.505</time>
      </trkpt>
      <trkpt lat="42.52022" lon="2.0467">
        <ele>1925.5897314917</ele>
        <time>2001-05-23T16:36:33.505</time>
      </trkpt>
      <trkpt lat="42.52023" lon="2.04669">
        <ele>1926.0786667597</ele>
        <time>2001-05-23T16:36:34.505</time>
      </trkpt>
      <trkpt lat="42.52024" lon="2.04668">
        <ele>1926.2311626201</ele>
        <time>2001-05-23T16:36:35.505</time>
      </trkpt>
      <trkpt lat="42.52024" lon="2.04668">
        <ele>1926.2202175137</ele>
        <time>2001-05-23T16:36:36.505</time>
      </trkpt>
      <trkpt lat="42.52025" lon="2.04667">
        <ele>1926.1594892783</ele>
        <time>2001-05-23T16:36:37.505</time>
      </trkpt>
      <trkpt lat="42.52026" lon="2.04667">
        <ele>1925.9882044338</ele>
        <time>2001-05-23T16:36:38.505</time>
      </trkpt>
      <trkpt lat="42.52028" lon="2.04665">
        <ele>1925.8968339927</ele>
        <time>2001-05-23T16:36:39.505</time>
      </trkpt>
      <trkpt lat="42.52029" lon="2.04665">
        <ele>1926.0659267623</ele>
        <time>2001-05-23T16:36:40.505</time>
      </trkpt>
      <trkpt lat="42.52031" lon="2.04665">
        <ele>1925.9476782123</ele>
        <time>2001-05-23T16:36:41.505</time>
      </trkpt>
      <trkpt lat="42.52034" lon="2.04663">
        <ele>1925.4914851595</ele>
        <time>2001-05-23T16:36:42.505</time>
      </trkpt>
      <trkpt lat="42.52035" lon="2.04662">
        <ele>1924.9382097207</ele>
        <time>2001-05-23T16:36:43.505</time>
      </trkpt>
      <trkpt lat="42.52037" lon="2.04662">
        <ele>1924.1825369213</ele>
        <time>2001-05-23T16:36:44.505</time>
      </trkpt>
      <trkpt lat="42.52039" lon="2.0466">
        <ele>1922.8874924475</ele>
        <time>2001-05-23T16:36:45.505</time>
      </trkpt>
      <trkpt lat="42.5204" lon="2.04659">
        <ele>1921.7157602364</ele>
        <time>2001-05-23T16:36:46.505</time>
      </trkpt>
      <trkpt lat="42.52041" lon="2.04659">
        <ele>1920.8825237831</ele>
        <time>2001-05-23T16:36:47.505</time>
      </trkpt>
      <trkpt lat="42.52041" lon="2.04659">
        <ele>1919.5895065002</ele>
        <time>2001-05-23T16:36:48.505</time>
      </trkpt>
      <trkpt lat="42.52041" lon="2.04658">
        <ele>1918.395225192</ele>
        <time>2001-05-23T16:36:49.505</time>
      </trkpt>
      <trkpt lat="42.52042" lon="2.04657">
        <ele>1917.5211757956</ele>
        <time>2001-05-23T16:36:50.505</time>
      </trkpt>
      <trkpt lat="42.52045" lon="2.04656">
        <ele>1917.2550874241</ele>
        <time>2001-05-23T16:36:51.503</time>
      </trkpt>
      <trkpt lat="42.52046" lon="2.04656">
        <ele>1917.1957741143</ele>
        <time>2001-05-23T16:36:52.503</time>
      </trkpt>
      <trkpt lat="42.52047" lon="2.04657">
        <ele>1917.9567395981</ele>
        <time>2001-05-23T16:36:53.503</time>
      </trkpt>
      <trkpt lat="42.52048" lon="2.04656">
        <ele>1918.8001587389</ele>
        <time>2001-05-23T16:36:54.502</time>
      </trkpt>
      <trkpt lat="42.52049" lon="2.04656">
        <ele>1919.8089523306</ele>
        <time>2001-05-23T16:36:55.502</time>
      </trkpt>
      <trkpt lat="42.5205" lon="2.04656">
        <ele>1920.3878206706</ele>
        <time>2001-05-23T16:36:56.502</time>
      </trkpt>
      <trkpt lat="42.52051" lon="2.04655">
        <ele>1920.823168966</ele>
        <time>2001-05-23T16:36:57.502</time>
      </trkpt>
      <trkpt lat="42.52052" lon="2.04654">
        <ele>1920.9792751007</ele>
        <time>2001-05-23T16:36:58.502</time>
      </trkpt>
      <trkpt lat="42.52054" lon="2.04652">
        <ele>1921.1321692895</ele>
        <time>2001-05-23T16:36:59.502</time>
      </trkpt>
      <trkpt lat="42.52055" lon="2.04651">
        <ele>1921.4095569903</ele>
        <time>2001-05-23T16:37:00.502</time>
      </trkpt>
      <trkpt lat="42.52056" lon="2.0465">
        <ele>1921.8716802869</ele>
        <time>2001-05-23T16:37:01.502</time>
      </trkpt>
      <trkpt lat="42.52057" lon="2.04649">
        <ele>1922.2071925454</ele>
        <time>2001-05-23T16:37:02.502</time>
      </trkpt>
      <trkpt lat="42.52058" lon="2.04649">
        <ele>1922.4393486541</ele>
        <time>2001-05-23T16:37:03.502</time>
      </trkpt>
      <trkpt lat="42.52059" lon="2.04648">
        <ele>1922.6813751692</ele>
        <time>2001-05-23T16:37:04.502</time>
      </trkpt>
      <trkpt lat="42.5206" lon="2.04647">
        <ele>1922.7876751339</ele>
        <time>2001-05-23T16:37:05.502</time>
      </trkpt>
      <trkpt lat="42.5206" lon="2.04646">
        <ele>1922.9554476107</ele>
        <time>2001-05-23T16:37:06.502</time>
      </trkpt>
      <trkpt lat="42.52063" lon="2.04645">
        <ele>1923.1018440215</ele>
        <time>2001-05-23T16:37:07.502</time>
      </trkpt>
      <trkpt lat="42.52065" lon="2.04644">
        <ele>1923.1235211017</ele>
        <time>2001-05-23T16:37:08.502</time>
      </trkpt>
      <trkpt lat="42.52066" lon="2.04643">
        <ele>1922.9755399328</ele>
        <time>2001-05-23T16:37:09.502</time>
      </trkpt>
      <trkpt lat="42.52067" lon="2.04642">
        <ele>1922.5630146896</ele>
        <time>2001-05-23T16:37:10.502</time>
      </trkpt>
      <trkpt lat="42.52068" lon="2.04642">
        <ele>1921.6891913651</ele>
        <time>2001-05-23T16:37:11.502</time>
      </trkpt>
      <trkpt lat="42.52069" lon="2.04642">
        <ele>1920.9220290994</ele>
        <time>2001-05-23T16:37:12.502</time>
      </trkpt>
      <trkpt lat="42.52069" lon="2.04642">
        <ele>1920.2696906475</ele>
        <time>2001-05-23T16:37:13.502</time>
      </trkpt>
      <trkpt lat="42.5207" lon="2.0464">
        <ele>1919.5029312665</ele>
        <time>2001-05-23T16:37:14.502</time>
      </trkpt>
      <trkpt lat="42.5207" lon="2.04639">
        <ele>1918.7261771914</ele>
        <time>2001-05-23T16:37:15.502</time>
      </trkpt>
      <trkpt lat="42.52071" lon="2.04639">
        <ele>1918.3044467567</ele>
        <time>2001-05-23T16:37:16.502</time>
      </trkpt>
      <trkpt lat="42.52071" lon="2.04638">
        <ele>1917.9068859052</ele>
        <time>2001-05-23T16:37:17.502</time>
      </trkpt>
      <trkpt lat="42.52072" lon="2.04638">
        <ele>1917.6964365728</ele>
        <time>2001-05-23T16:37:18.502</time>
      </trkpt>
      <trkpt lat="42.52074" lon="2.04637">
        <ele>1918.2374174498</ele>
        <time>2001-05-23T16:37:19.502</time>
      </trkpt>
      <trkpt lat="42.52074" lon="2.04637">
        <ele>1919.3934147036</ele>
        <time>2001-05-23T16:37:20.502</time>
      </trkpt>
      <trkpt lat="42.52075" lon="2.04637">
        <ele>1920.4955983186</ele>
        <time>2001-05-23T16:37:21.502</time>
      </trkpt>
      <trkpt lat="42.52076" lon="2.04636">
        <ele>1921.7182180483</ele>
        <time>2001-05-23T16:37:22.502</time>
      </trkpt>
      <trkpt lat="42.52077" lon="2.04635">
        <ele>1922.7176624775</ele>
        <time>2001-05-23T16:37:23.502</time>
      </trkpt>
      <trkpt lat="42.52079" lon="2.04634">
        <ele>1922.8126336185</ele>
        <time>2001-05-23T16:37:24.502</time>
      </trkpt>
      <trkpt lat="42.5208" lon="2.04633">
        <ele>1922.5718155116</ele>
        <time>2001-05-23T16:37:25.502</time>
      </trkpt>
      <trkpt lat="42.52081" lon="2.04632">
        <ele>1922.4509789001</ele>
        <time>2001-05-23T16:37:26.502</time>
      </trkpt>
      <trkpt lat="42.52081" lon="2.04631">
        <ele>1922.6730211167</ele>
        <time>2001-05-23T16:37:27.502</time>
      </trkpt>
      <trkpt lat="42.52082" lon="2.0463">
        <ele>1922.9982515201</ele>
        <time>2001-05-23T16:37:28.502</time>
      </trkpt>
      <trkpt lat="42.52084" lon="2.04629">
        <ele>1923.6567711266</ele>
        <time>2001-05-23T16:37:29.502</time>
      </trkpt>
      <trkpt lat="42.52085" lon="2.04629">
        <ele>1924.2215576738</ele>
        <time>2001-05-23T16:37:30.502</time>
      </trkpt>
      <trkpt lat="42.52085" lon="2.04629">
        <ele>1924.6546616189</ele>
        <time>2001-05-23T16:37:31.502</time>
      </trkpt>
      <trkpt lat="42.52086" lon="2.04629">
        <ele>1924.9447392637</ele>
        <time>2001-05-23T16:37:32.502</time>
      </trkpt>
      <trkpt lat="42.52087" lon="2.0463">
        <ele>1925.447450568</ele>
        <time>2001-05-23T16:37:33.502</time>
      </trkpt>
      <trkpt lat="42.52088" lon="2.04629">
        <ele>1926.0246288164</ele>
        <time>2001-05-23T16:37:34.502</time>
      </trkpt>
      <trkpt lat="42.52089" lon="2.04629">
        <ele>1926.6994077927</ele>
        <time>2001-05-23T16:37:35.502</time>
      </trkpt>
      <trkpt lat="42.5209" lon="2.04629">
        <ele>1927.348156639</ele>
        <time>2001-05-23T16:37:36.502</time>
      </trkpt>
      <trkpt lat="42.52091" lon="2.04628">
        <ele>1928.1075635444</ele>
        <time>2001-05-23T16:37:37.502</time>
      </trkpt>
      <trkpt lat="42.52092" lon="2.04627">
        <ele>1928.6503271453</ele>
        <time>2001-05-23T16:37:38.502</time>
      </trkpt>
      <trkpt lat="42.52094" lon="2.04628">
        <ele>1929.0858651932</ele>
        <time>2001-05-23T16:37:39.502</time>
      </trkpt>
      <trkpt lat="42.52094" lon="2.04627">
        <ele>1928.9862945795</ele>
        <time>2001-05-23T16:37:40.502</time>
      </trkpt>
      <trkpt lat="42.52095" lon="2.04628">
        <ele>1928.6704185985</ele>
        <time>2001-05-23T16:37:41.502</time>
      </trkpt>
      <trkpt lat="42.52095" lon="2.04632">
        <ele>1928.8414276849</ele>
        <time>2001-05-23T16:37:42.502</time>
      </trkpt>
      <trkpt lat="42.52096" lon="2.04632">
        <ele>1928.9516334131</ele>
        <time>2001-05-23T16:37:43.502</time>
      </trkpt>
      <trkpt lat="42.52096" lon="2.04632">
        <ele>1929.5169650862</ele>
        <time>2001-05-23T16:37:44.502</time>
      </trkpt>
      <trkpt lat="42.52097" lon="2.04633">
        <ele>1930.7256532665</ele>
        <time>2001-05-23T16:37:45.502</time>
      </trkpt>
      <trkpt lat="42.52098" lon="2.04633">
        <ele>1932.2699236602</ele>
        <time>2001-05-23T16:37:46.502</time>
      </trkpt>
      <trkpt lat="42.52099" lon="2.04634">
        <ele>1932.9591091683</ele>
        <time>2001-05-23T16:37:47.502</time>
      </trkpt>
      <trkpt lat="42.52099" lon="2.04636">
        <ele>1933.3708091067</ele>
        <time>2001-05-23T16:37:48.502</time>
      </trkpt>
      <trkpt lat="42.52099" lon="2.04637">
        <ele>1933.3350317623</ele>
        <time>2001-05-23T16:37:49.502</time>
      </trkpt>
      <trkpt lat="42.521" lon="2.04637">
        <ele>1932.6588330999</ele>
        <time>2001-05-23T16:37:50.502</time>
      </trkpt>
      <trkpt lat="42.521" lon="2.04637">
        <ele>1931.0678951494</ele>
        <time>2001-05-23T16:37:51.502</time>
      </trkpt>
      <trkpt lat="42.521" lon="2.04638">
        <ele>1929.2151107112</ele>
        <time>2001-05-23T16:37:52.502</time>
      </trkpt>
      <trkpt lat="42.52101" lon="2.04639">
        <ele>1927.325795855</ele>
        <time>2001-05-23T16:37:53.502</time>
      </trkpt>
      <trkpt lat="42.52102" lon="2.04639">
        <ele>1925.1413507083</ele>
        <time>2001-05-23T16:37:54.502</time>
      </trkpt>
      <trkpt lat="42.52103" lon="2.04639">
        <ele>1923.2748413358</ele>
        <time>2001-05-23T16:37:55.502</time>
      </trkpt>
      <trkpt lat="42.52104" lon="2.04641">
        <ele>1922.0816633791</ele>
        <time>2001-05-23T16:37:56.502</time>
      </trkpt>
      <trkpt lat="42.52104" lon="2.04643">
        <ele>1921.0988559401</ele>
        <time>2001-05-23T16:37:57.502</time>
      </trkpt>
      <trkpt lat="42.52105" lon="2.04645">
        <ele>1920.312153786</ele>
        <time>2001-05-23T16:37:58.502</time>
      </trkpt>
      <trkpt lat="42.52106" lon="2.04645">
        <ele>1919.6105567228</ele>
        <time>2001-05-23T16:37:59.502</time>
      </trkpt>
      <trkpt lat="42.52107" lon="2.04645">
        <ele>1919.0864526527</ele>
        <time>2001-05-23T16:38:00.502</time>
      </trkpt>
      <trkpt lat="42.52108" lon="2.04646">
        <ele>1918.6735772004</ele>
        <time>2001-05-23T16:38:01.502</time>
      </trkpt>
      <trkpt lat="42.52108" lon="2.04648">
        <ele>1918.2818248868</ele>
        <time>2001-05-23T16:38:02.502</time>
      </trkpt>
      <trkpt lat="42.52108" lon="2.0465">
        <ele>1917.9624797652</ele>
        <time>2001-05-23T16:38:03.502</time>
      </trkpt>
      <trkpt lat="42.52108" lon="2.04651">
        <ele>1917.8025226463</ele>
        <time>2001-05-23T16:38:04.502</time>
      </trkpt>
      <trkpt lat="42.52108" lon="2.04652">
        <ele>1917.479408272</ele>
        <time>2001-05-23T16:38:05.502</time>
      </trkpt>
      <trkpt lat="42.52109" lon="2.04653">
        <ele>1917.0837658452</ele>
        <time>2001-05-23T16:38:06.502</time>
      </trkpt>
      <trkpt lat="42.5211" lon="2.04654">
        <ele>1916.9084206939</ele>
        <time>2001-05-23T16:38:07.502</time>
      </trkpt>
      <trkpt lat="42.5211" lon="2.04655">
        <ele>1916.8669543674</ele>
        <time>2001-05-23T16:38:08.502</time>
      </trkpt>
      <trkpt lat="42.5211" lon="2.04657">
        <ele>1917.159210101</ele>
        <time>2001-05-23T16:38:09.502</time>
      </trkpt>
      <trkpt lat="42.52111" lon="2.04658">
        <ele>1917.3565758195</ele>
        <time>2001-05-23T16:38:10.502</time>
      </trkpt>
      <trkpt lat="42.52112" lon="2.0466">
        <ele>1917.6095430903</ele>
        <time>2001-05-23T16:38:11.502</time>
      </trkpt>
      <trkpt lat="42.52113" lon="2.04661">
        <ele>1917.7227455363</ele>
        <time>2001-05-23T16:38:12.502</time>
      </trkpt>
      <trkpt lat="42.52113" lon="2.04662">
        <ele>1917.6352294708</ele>
        <time>2001-05-23T16:38:13.502</time>
      </trkpt>
      <trkpt lat="42.52114" lon="2.04663">
        <ele>1917.3570784153</ele>
        <time>2001-05-23T16:38:14.502</time>
      </trkpt>
      <trkpt lat="42.52115" lon="2.04664">
        <ele>1917.4095690396</ele>
        <time>2001-05-23T16:38:15.502</time>
      </trkpt>
      <trkpt lat="42.52115" lon="2.04666">
        <ele>1917.1723068889</ele>
        <time>2001-05-23T16:38:16.502</time>
      </trkpt>
      <trkpt lat="42.52115" lon="2.04668">
        <ele>1916.8123920709</ele>
        <time>2001-05-23T16:38:17.502</time>
      </trkpt>
      <trkpt lat="42.52115" lon="2.04669">
        <ele>1916.1313005131</ele>
        <time>2001-05-23T16:38:18.502</time>
      </trkpt>
      <trkpt lat="42.52115" lon="2.04669">
        <ele>1915.141347337</ele>
        <time>2001-05-23T16:38:19.502</time>
      </trkpt>
      <trkpt lat="42.52116" lon="2.0467">
        <ele>1913.8553961577</ele>
        <time>2001-05-23T16:38:20.502</time>
      </trkpt>
      <trkpt lat="42.52116" lon="2.04671">
        <ele>1912.6713713231</ele>
        <time>2001-05-23T16:38:21.502</time>
      </trkpt>
      <trkpt lat="42.52115" lon="2.04672">
        <ele>1911.2343467949</ele>
        <time>2001-05-23T16:38:22.506</time>
      </trkpt>
      <trkpt lat="42.52115" lon="2.04674">
        <ele>1910.0017746987</ele>
        <time>2001-05-23T16:38:23.506</time>
      </trkpt>
      <trkpt lat="42.52115" lon="2.04677">
        <ele>1908.7703078212</ele>
        <time>2001-05-23T16:38:24.506</time>
      </trkpt>
      <trkpt lat="42.52115" lon="2.04678">
        <ele>1907.6624762572</ele>
        <time>2001-05-23T16:38:25.506</time>
      </trkpt>
      <trkpt lat="42.52114" lon="2.0468">
        <ele>1906.9252328584</ele>
        <time>2001-05-23T16:38:26.506</time>
      </trkpt>
      <trkpt lat="42.52114" lon="2.04681">
        <ele>1906.5343894303</ele>
        <time>2001-05-23T16:38:27.506</time>
      </trkpt>
      <trkpt lat="42.52113" lon="2.04682">
        <ele>1906.5408010172</ele>
        <time>2001-05-23T16:38:28.506</time>
      </trkpt>
      <trkpt lat="42.52113" lon="2.04683">
        <ele>1906.7803828109</ele>
        <time>2001-05-23T16:38:29.506</time>
      </trkpt>
      <trkpt lat="42.52112" lon="2.04684">
        <ele>1907.1112116085</ele>
        <time>2001-05-23T16:38:30.506</time>
      </trkpt>
      <trkpt lat="42.52111" lon="2.04686">
        <ele>1907.3319353547</ele>
        <time>2001-05-23T16:38:31.506</time>
      </trkpt>
      <trkpt lat="42.5211" lon="2.04687">
        <ele>1907.5301827343</ele>
        <time>2001-05-23T16:38:32.506</time>
      </trkpt>
      <trkpt lat="42.5211" lon="2.04688">
        <ele>1907.666901614</ele>
        <time>2001-05-23T16:38:33.506</time>
      </trkpt>
      <trkpt lat="42.5211" lon="2.0469">
        <ele>1907.789380604</ele>
        <time>2001-05-23T16:38:34.506</time>
      </trkpt>
      <trkpt lat="42.52109" lon="2.04692">
        <ele>1907.8500753155</ele>
        <time>2001-05-23T16:38:35.506</time>
      </trkpt>
      <trkpt lat="42.52107" lon="2.04694">
        <ele>1908.030962646</ele>
        <time>2001-05-23T16:38:36.506</time>
      </trkpt>
      <trkpt lat="42.52108" lon="2.04695">
        <ele>1908.2924881557</ele>
        <time>2001-05-23T16:38:37.506</time>
      </trkpt>
      <trkpt lat="42.52108" lon="2.04696">
        <ele>1908.2222883724</ele>
        <time>2001-05-23T16:38:38.506</time>
      </trkpt>
      <trkpt lat="42.52108" lon="2.04697">
        <ele>1908.0407054674</ele>
        <time>2001-05-23T16:38:39.506</time>
      </trkpt>
      <trkpt lat="42.52108" lon="2.04699">
        <ele>1907.8833474834</ele>
        <time>2001-05-23T16:38:40.506</time>
      </trkpt>
      <trkpt lat="42.52109" lon="2.04701">
        <ele>1907.3933946576</ele>
        <time>2001-05-23T16:38:41.506</time>
      </trkpt>
      <trkpt lat="42.5211" lon="2.04702">
        <ele>1906.8644124566</ele>
        <time>2001-05-23T16:38:42.506</time>
      </trkpt>
      <trkpt lat="42.5211" lon="2.04703">
        <ele>1906.4311827181</ele>
        <time>2001-05-23T16:38:43.506</time>
      </trkpt>
      <trkpt lat="42.52111" lon="2.04705">
        <ele>1906.2506330308</ele>
        <time>2001-05-23T16:38:44.506</time>
      </trkpt>
      <trkpt lat="42.52112" lon="2.04706">
        <ele>1906.1610294253</ele>
        <time>2001-05-23T16:38:45.506</time>
      </trkpt>
      <trkpt lat="42.52113" lon="2.04708">
        <ele>1906.2192597749</ele>
        <time>2001-05-23T16:38:46.506</time>
      </trkpt>
      <trkpt lat="42.52114" lon="2.04709">
        <ele>1906.4573575249</ele>
        <time>2001-05-23T16:38:47.506</time>
      </trkpt>
      <trkpt lat="42.52115" lon="2.04711">
        <ele>1906.8830516873</ele>
        <time>2001-05-23T16:38:48.506</time>
      </trkpt>
      <trkpt lat="42.52116" lon="2.04712">
        <ele>1907.3574830949</ele>
        <time>2001-05-23T16:38:49.506</time>
      </trkpt>
      <trkpt lat="42.52117" lon="2.04713">
        <ele>1907.9415636161</ele>
        <time>2001-05-23T16:38:50.506</time>
      </trkpt>
      <trkpt lat="42.52117" lon="2.04715">
        <ele>1908.7657469317</ele>
        <time>2001-05-23T16:38:51.506</time>
      </trkpt>
      <trkpt lat="42.52117" lon="2.04716">
        <ele>1909.7351610623</ele>
        <time>2001-05-23T16:38:52.506</time>
      </trkpt>
      <trkpt lat="42.52118" lon="2.04717">
        <ele>1910.5937763305</ele>
        <time>2001-05-23T16:38:53.506</time>
      </trkpt>
      <trkpt lat="42.52119" lon="2.04719">
        <ele>1911.3022762906</ele>
        <time>2001-05-23T16:38:54.506</time>
      </trkpt>
      <trkpt lat="42.5212" lon="2.0472">
        <ele>1911.6164480759</ele>
        <time>2001-05-23T16:38:55.506</time>
      </trkpt>
      <trkpt lat="42.5212" lon="2.04721">
        <ele>1911.5777506188</ele>
        <time>2001-05-23T16:38:56.506</time>
      </trkpt>
      <trkpt lat="42.5212" lon="2.04722">
        <ele>1911.6323851796</ele>
        <time>2001-05-23T16:38:57.506</time>
      </trkpt>
      <trkpt lat="42.52122" lon="2.04724">
        <ele>1911.3637992729</ele>
        <time>2001-05-23T16:38:58.506</time>
      </trkpt>
      <trkpt lat="42.52124" lon="2.04726">
        <ele>1911.2260937423</ele>
        <time>2001-05-23T16:38:59.506</time>
      </trkpt>
      <trkpt lat="42.52125" lon="2.04728">
        <ele>1911.2832038593</ele>
        <time>2001-05-23T16:39:00.506</time>
      </trkpt>
      <trkpt lat="42.52126" lon="2.04729">
        <ele>1911.2486433631</ele>
        <time>2001-05-23T16:39:01.506</time>
      </trkpt>
      <trkpt lat="42.52127" lon="2.0473">
        <ele>1910.8964194058</ele>
        <time>2001-05-23T16:39:02.506</time>
      </trkpt>
      <trkpt lat="42.52128" lon="2.04732">
        <ele>1910.6483909095</ele>
        <time>2001-05-23T16:39:03.506</time>
      </trkpt>
      <trkpt lat="42.52128" lon="2.04732">
        <ele>1910.3928962039</ele>
        <time>2001-05-23T16:39:04.506</time>
      </trkpt>
      <trkpt lat="42.52129" lon="2.04733">
        <ele>1910.1642998263</ele>
        <time>2001-05-23T16:39:05.506</time>
      </trkpt>
      <trkpt lat="42.5213" lon="2.04735">
        <ele>1910.179855381</ele>
        <time>2001-05-23T16:39:06.506</time>
      </trkpt>
      <trkpt lat="42.5213" lon="2.04737">
        <ele>1909.9085352644</ele>
        <time>2001-05-23T16:39:07.506</time>
      </trkpt>
      <trkpt lat="42.5213" lon="2.04739">
        <ele>1909.6458908323</ele>
        <time>2001-05-23T16:39:08.506</time>
      </trkpt>
      <trkpt lat="42.5213" lon="2.04741">
        <ele>1909.5540396128</ele>
        <time>2001-05-23T16:39:09.506</time>
      </trkpt>
      <trkpt lat="42.52131" lon="2.04744">
        <ele>1909.6491268374</ele>
        <time>2001-05-23T16:39:10.506</time>
      </trkpt>
      <trkpt lat="42.52131" lon="2.04746">
        <ele>1909.8136694601</ele>
        <time>2001-05-23T16:39:11.506</time>
      </trkpt>
      <trkpt lat="42.52133" lon="2.04746">
        <ele>1910.7065977219</ele>
        <time>2001-05-23T16:39:12.506</time>
      </trkpt>
      <trkpt lat="42.52133" lon="2.04747">
        <ele>1911.6888848439</ele>
        <time>2001-05-23T16:39:13.506</time>
      </trkpt>
      <trkpt lat="42.52132" lon="2.04748">
        <ele>1912.1049113169</ele>
        <time>2001-05-23T16:39:14.506</time>
      </trkpt>
      <trkpt lat="42.52134" lon="2.0475">
        <ele>1911.7742399173</ele>
        <time>2001-05-23T16:39:15.506</time>
      </trkpt>
      <trkpt lat="42.52133" lon="2.04753">
        <ele>1910.988312814</ele>
        <time>2001-05-23T16:39:16.506</time>
      </trkpt>
      <trkpt lat="42.52133" lon="2.04754">
        <ele>1909.4750991423</ele>
        <time>2001-05-23T16:39:17.506</time>
      </trkpt>
      <trkpt lat="42.52133" lon="2.04755">
        <ele>1908.1395975035</ele>
        <time>2001-05-23T16:39:18.506</time>
      </trkpt>
      <trkpt lat="42.52132" lon="2.04756">
        <ele>1907.2320575045</ele>
        <time>2001-05-23T16:39:19.506</time>
      </trkpt>
      <trkpt lat="42.52131" lon="2.04758">
        <ele>1906.9153912293</ele>
        <time>2001-05-23T16:39:20.506</time>
      </trkpt>
      <trkpt lat="42.52131" lon="2.04759">
        <ele>1907.1453939069</ele>
        <time>2001-05-23T16:39:21.506</time>
      </trkpt>
      <trkpt lat="42.5213" lon="2.04761">
        <ele>1907.6861733811</ele>
        <time>2001-05-23T16:39:22.506</time>
      </trkpt>
      <trkpt lat="42.5213" lon="2.04762">
        <ele>1907.8856759671</ele>
        <time>2001-05-23T16:39:23.506</time>
      </trkpt>
      <trkpt lat="42.5213" lon="2.04763">
        <ele>1907.8878540352</ele>
        <time>2001-05-23T16:39:24.506</time>
      </trkpt>
      <trkpt lat="42.5213" lon="2.04762">
        <ele>1907.6030398684</ele>
        <time>2001-05-23T16:39:25.506</time>
      </trkpt>
      <trkpt lat="42.5213" lon="2.04763">
        <ele>1907.1467622852</ele>
        <time>2001-05-23T16:39:26.506</time>
      </trkpt>
      <trkpt lat="42.52129" lon="2.04765">
        <ele>1906.8224381549</ele>
        <time>2001-05-23T16:39:27.507</time>
      </trkpt>
      <trkpt lat="42.52129" lon="2.04767">
        <ele>1906.7415218195</ele>
        <time>2001-05-23T16:39:28.507</time>
      </trkpt>
      <trkpt lat="42.52129" lon="2.04769">
        <ele>1906.3933456058</ele>
        <time>2001-05-23T16:39:29.507</time>
      </trkpt>
      <trkpt lat="42.52129" lon="2.04769">
        <ele>1906.2890582696</ele>
        <time>2001-05-23T16:39:30.507</time>
      </trkpt>
      <trkpt lat="42.52129" lon="2.04769">
        <ele>1906.2155076612</ele>
        <time>2001-05-23T16:39:31.507</time>
      </trkpt>
      <trkpt lat="42.52128" lon="2.0477">
        <ele>1906.0759937886</ele>
        <time>2001-05-23T16:39:32.507</time>
      </trkpt>
      <trkpt lat="42.52126" lon="2.04771">
        <ele>1906.3057080468</ele>
        <time>2001-05-23T16:39:33.505</time>
      </trkpt>
      <trkpt lat="42.52126" lon="2.04772">
        <ele>1907.2717735343</ele>
        <time>2001-05-23T16:39:34.505</time>
      </trkpt>
      <trkpt lat="42.52125" lon="2.04773">
        <ele>1908.1959174117</ele>
        <time>2001-05-23T16:39:35.505</time>
      </trkpt>
      <trkpt lat="42.52124" lon="2.04774">
        <ele>1909.063209274</ele>
        <time>2001-05-23T16:39:36.505</time>
      </trkpt>
      <trkpt lat="42.52124" lon="2.04775">
        <ele>1909.5967505408</ele>
        <time>2001-05-23T16:39:37.505</time>
      </trkpt>
      <trkpt lat="42.52123" lon="2.04776">
        <ele>1909.5830847127</ele>
        <time>2001-05-23T16:39:38.505</time>
      </trkpt>
      <trkpt lat="42.52123" lon="2.04778">
        <ele>1908.8321150843</ele>
        <time>2001-05-23T16:39:39.505</time>
      </trkpt>
      <trkpt lat="42.52122" lon="2.0478">
        <ele>1907.9718439242</ele>
        <time>2001-05-23T16:39:40.505</time>
      </trkpt>
      <trkpt lat="42.52122" lon="2.04781">
        <ele>1907.1581533654</ele>
        <time>2001-05-23T16:39:41.505</time>
      </trkpt>
      <trkpt lat="42.52122" lon="2.04782">
        <ele>1906.505268837</ele>
        <time>2001-05-23T16:39:42.505</time>
      </trkpt>
      <trkpt lat="42.52122" lon="2.04783">
        <ele>1905.9011541458</ele>
        <time>2001-05-23T16:39:43.505</time>
      </trkpt>
      <trkpt lat="42.52122" lon="2.04786">
        <ele>1905.7549213164</ele>
        <time>2001-05-23T16:39:44.505</time>
      </trkpt>
      <trkpt lat="42.52121" lon="2.04788">
        <ele>1905.799958742</ele>
        <time>2001-05-23T16:39:45.505</time>
      </trkpt>
      <trkpt lat="42.5212" lon="2.0479">
        <ele>1905.9234450385</ele>
        <time>2001-05-23T16:39:46.505</time>
      </trkpt>
      <trkpt lat="42.5212" lon="2.0479">
        <ele>1906.2414987376</ele>
        <time>2001-05-23T16:39:47.505</time>
      </trkpt>
      <trkpt lat="42.5212" lon="2.04791">
        <ele>1906.9652958684</ele>
        <time>2001-05-23T16:39:48.505</time>
      </trkpt>
      <trkpt lat="42.5212" lon="2.04792">
        <ele>1907.6095535733</ele>
        <time>2001-05-23T16:39:49.505</time>
      </trkpt>
      <trkpt lat="42.5212" lon="2.04794">
        <ele>1908.217931194</ele>
        <time>2001-05-23T16:39:50.505</time>
      </trkpt>
      <trkpt lat="42.5212" lon="2.04795">
        <ele>1908.707857048</ele>
        <time>2001-05-23T16:39:51.505</time>
      </trkpt>
      <trkpt lat="42.5212" lon="2.04797">
        <ele>1908.6214577518</ele>
        <time>2001-05-23T16:39:52.505</time>
      </trkpt>
      <trkpt lat="42.52121" lon="2.04798">
        <ele>1908.4272827901</ele>
        <time>2001-05-23T16:39:53.505</time>
      </trkpt>
      <trkpt lat="42.52123" lon="2.048">
        <ele>1908.0535828032</ele>
        <time>2001-05-23T16:39:54.505</time>
      </trkpt>
      <trkpt lat="42.52124" lon="2.04801">
        <ele>1907.7130365336</ele>
        <time>2001-05-23T16:39:55.505</time>
      </trkpt>
      <trkpt lat="42.52124" lon="2.04802">
        <ele>1907.3146200232</ele>
        <time>2001-05-23T16:39:56.505</time>
      </trkpt>
      <trkpt lat="42.52124" lon="2.04804">
        <ele>1907.2933159092</ele>
        <time>2001-05-23T16:39:57.505</time>
      </trkpt>
      <trkpt lat="42.52125" lon="2.04806">
        <ele>1906.9937543256</ele>
        <time>2001-05-23T16:39:58.505</time>
      </trkpt>
      <trkpt lat="42.52124" lon="2.04807">
        <ele>1906.6966195894</ele>
        <time>2001-05-23T16:39:59.505</time>
      </trkpt>
      <trkpt lat="42.52124" lon="2.04809">
        <ele>1906.2727243343</ele>
        <time>2001-05-23T16:40:00.505</time>
      </trkpt>
      <trkpt lat="42.52124" lon="2.04811">
        <ele>1905.9317539467</ele>
        <time>2001-05-23T16:40:01.505</time>
      </trkpt>
      <trkpt lat="42.52124" lon="2.04812">
        <ele>1905.4574557979</ele>
        <time>2001-05-23T16:40:02.505</time>
      </trkpt>
      <trkpt lat="42.52125" lon="2.04814">
        <ele>1904.8964006489</ele>
        <time>2001-05-23T16:40:03.505</time>
      </trkpt>
      <trkpt lat="42.52125" lon="2.04815">
        <ele>1904.2059899686</ele>
        <time>2001-05-23T16:40:04.505</time>
      </trkpt>
      <trkpt lat="42.52124" lon="2.04817">
        <ele>1903.3276031284</ele>
        <time>2001-05-23T16:40:05.505</time>
      </trkpt>
      <trkpt lat="42.52124" lon="2.04819">
        <ele>1902.5817609958</ele>
        <time>2001-05-23T16:40:06.505</time>
      </trkpt>
      <trkpt lat="42.52125" lon="2.04821">
        <ele>1902.0225601597</ele>
        <time>2001-05-23T16:40:07.505</time>
      </trkpt>
      <trkpt lat="42.52126" lon="2.04823">
        <ele>1901.537892011</ele>
        <time>2001-05-23T16:40:08.505</time>
      </trkpt>
      <trkpt lat="42.52125" lon="2.04824">
        <ele>1901.5683283381</ele>
        <time>2001-05-23T16:40:09.505</time>
      </trkpt>
      <trkpt lat="42.52124" lon="2.04825">
        <ele>1902.4034856198</ele>
        <time>2001-05-23T16:40:10.505</time>
      </trkpt>
      <trkpt lat="42.52124" lon="2.04827">
        <ele>1903.0627435992</ele>
        <time>2001-05-23T16:40:11.505</time>
      </trkpt>
      <trkpt lat="42.52124" lon="2.04829">
        <ele>1903.1701717382</ele>
        <time>2001-05-23T16:40:12.505</time>
      </trkpt>
      <trkpt lat="42.52123" lon="2.0483">
        <ele>1903.1918801889</ele>
        <time>2001-05-23T16:40:13.505</time>
      </trkpt>
      <trkpt lat="42.52122" lon="2.04831">
        <ele>1902.8340388546</ele>
        <time>2001-05-23T16:40:14.505</time>
      </trkpt>
      <trkpt lat="42.52122" lon="2.04832">
        <ele>1901.780284797</ele>
        <time>2001-05-23T16:40:15.505</time>
      </trkpt>
      <trkpt lat="42.52121" lon="2.04834">
        <ele>1900.6778070696</ele>
        <time>2001-05-23T16:40:16.505</time>
      </trkpt>
      <trkpt lat="42.5212" lon="2.04835">
        <ele>1900.1112622591</ele>
        <time>2001-05-23T16:40:17.505</time>
      </trkpt>
      <trkpt lat="42.5212" lon="2.04837">
        <ele>1899.8020735264</ele>
        <time>2001-05-23T16:40:18.505</time>
      </trkpt>
      <trkpt lat="42.52119" lon="2.04837">
        <ele>1899.8070664313</ele>
        <time>2001-05-23T16:40:19.505</time>
      </trkpt>
      <trkpt lat="42.52119" lon="2.04837">
        <ele>1900.2406410074</ele>
        <time>2001-05-23T16:40:20.505</time>
      </trkpt>
      <trkpt lat="42.52118" lon="2.04837">
        <ele>1900.9355181811</ele>
        <time>2001-05-23T16:40:21.505</time>
      </trkpt>
      <trkpt lat="42.52119" lon="2.04838">
        <ele>1901.3066017153</ele>
        <time>2001-05-23T16:40:22.505</time>
      </trkpt>
      <trkpt lat="42.52119" lon="2.0484">
        <ele>1901.4710355677</ele>
        <time>2001-05-23T16:40:23.505</time>
      </trkpt>
      <trkpt lat="42.52118" lon="2.04841">
        <ele>1901.4944760688</ele>
        <time>2001-05-23T16:40:24.505</time>
      </trkpt>
      <trkpt lat="42.52117" lon="2.04843">
        <ele>1901.3783058891</ele>
        <time>2001-05-23T16:40:25.505</time>
      </trkpt>
      <trkpt lat="42.52116" lon="2.04844">
        <ele>1901.1874705959</ele>
        <time>2001-05-23T16:40:26.505</time>
      </trkpt>
      <trkpt lat="42.52115" lon="2.04846">
        <ele>1901.1489232969</ele>
        <time>2001-05-23T16:40:27.505</time>
      </trkpt>
      <trkpt lat="42.52114" lon="2.04847">
        <ele>1901.4036444398</ele>
        <time>2001-05-23T16:40:28.505</time>
      </trkpt>
      <trkpt lat="42.52113" lon="2.04849">
        <ele>1901.616294058</ele>
        <time>2001-05-23T16:40:29.505</time>
      </trkpt>
      <trkpt lat="42.52113" lon="2.0485">
        <ele>1901.6724568168</ele>
        <time>2001-05-23T16:40:30.505</time>
      </trkpt>
      <trkpt lat="42.52113" lon="2.04852">
        <ele>1901.5615167085</ele>
        <time>2001-05-23T16:40:31.505</time>
      </trkpt>
      <trkpt lat="42.52113" lon="2.04853">
        <ele>1901.6395509215</ele>
        <time>2001-05-23T16:40:32.505</time>
      </trkpt>
      <trkpt lat="42.52113" lon="2.04856">
        <ele>1901.5660759982</ele>
        <time>2001-05-23T16:40:33.505</time>
      </trkpt>
      <trkpt lat="42.52112" lon="2.04858">
        <ele>1901.9233687392</ele>
        <time>2001-05-23T16:40:34.505</time>
      </trkpt>
      <trkpt lat="42.52112" lon="2.0486">
        <ele>1902.4765377499</ele>
        <time>2001-05-23T16:40:35.505</time>
      </trkpt>
      <trkpt lat="42.52113" lon="2.04861">
        <ele>1903.0588223364</ele>
        <time>2001-05-23T16:40:36.505</time>
      </trkpt>
      <trkpt lat="42.52113" lon="2.04863">
        <ele>1903.7234987764</ele>
        <time>2001-05-23T16:40:37.505</time>
      </trkpt>
      <trkpt lat="42.52114" lon="2.04864">
        <ele>1904.4558338962</ele>
        <time>2001-05-23T16:40:38.505</time>
      </trkpt>
      <trkpt lat="42.52114" lon="2.04865">
        <ele>1904.6968007101</ele>
        <time>2001-05-23T16:40:39.505</time>
      </trkpt>
      <trkpt lat="42.52115" lon="2.04867">
        <ele>1904.8083131565</ele>
        <time>2001-05-23T16:40:40.505</time>
      </trkpt>
      <trkpt lat="42.52115" lon="2.04868">
        <ele>1904.9701422326</ele>
        <time>2001-05-23T16:40:41.505</time>
      </trkpt>
      <trkpt lat="42.52116" lon="2.04868">
        <ele>1904.7515635218</ele>
        <time>2001-05-23T16:40:42.505</time>
      </trkpt>
      <trkpt lat="42.52117" lon="2.0487">
        <ele>1904.3568303615</ele>
        <time>2001-05-23T16:40:43.505</time>
      </trkpt>
      <trkpt lat="42.52117" lon="2.04871">
        <ele>1903.9552584805</ele>
        <time>2001-05-23T16:40:44.505</time>
      </trkpt>
      <trkpt lat="42.52118" lon="2.04873">
        <ele>1903.3243609387</ele>
        <time>2001-05-23T16:40:45.505</time>
      </trkpt>
      <trkpt lat="42.52119" lon="2.04874">
        <ele>1902.797766277</ele>
        <time>2001-05-23T16:40:46.505</time>
      </trkpt>
      <trkpt lat="42.5212" lon="2.04875">
        <ele>1902.6456856648</ele>
        <time>2001-05-23T16:40:47.505</time>
      </trkpt>
      <trkpt lat="42.52121" lon="2.04877">
        <ele>1902.7077409519</ele>
        <time>2001-05-23T16:40:48.505</time>
      </trkpt>
      <trkpt lat="42.52121" lon="2.04879">
        <ele>1902.9429203523</ele>
        <time>2001-05-23T16:40:49.505</time>
      </trkpt>
      <trkpt lat="42.52121" lon="2.0488">
        <ele>1903.3613181833</ele>
        <time>2001-05-23T16:40:50.505</time>
      </trkpt>
      <trkpt lat="42.5212" lon="2.04881">
        <ele>1903.7015815271</ele>
        <time>2001-05-23T16:40:51.505</time>
      </trkpt>
      <trkpt lat="42.52121" lon="2.04882">
        <ele>1903.8953214858</ele>
        <time>2001-05-23T16:40:52.505</time>
      </trkpt>
      <trkpt lat="42.52121" lon="2.04882">
        <ele>1903.4269054076</ele>
        <time>2001-05-23T16:40:53.505</time>
      </trkpt>
      <trkpt lat="42.52122" lon="2.04885">
        <ele>1902.2446015099</ele>
        <time>2001-05-23T16:40:54.513</time>
      </trkpt>
      <trkpt lat="42.52122" lon="2.04887">
        <ele>1901.070942984</ele>
        <time>2001-05-23T16:40:55.513</time>
      </trkpt>
      <trkpt lat="42.52123" lon="2.04889">
        <ele>1900.7647643473</ele>
        <time>2001-05-23T16:40:56.513</time>
      </trkpt>
      <trkpt lat="42.52125" lon="2.04889">
        <ele>1900.5167345786</ele>
        <time>2001-05-23T16:40:57.513</time>
      </trkpt>
      <trkpt lat="42.52126" lon="2.0489">
        <ele>1901.096957369</ele>
        <time>2001-05-23T16:40:58.513</time>
      </trkpt>
      <trkpt lat="42.52127" lon="2.04892">
        <ele>1902.2842464786</ele>
        <time>2001-05-23T16:40:59.513</time>
      </trkpt>
      <trkpt lat="42.52128" lon="2.04893">
        <ele>1903.3471619619</ele>
        <time>2001-05-23T16:41:00.513</time>
      </trkpt>
      <trkpt lat="42.52128" lon="2.04894">
        <ele>1903.3291949229</ele>
        <time>2001-05-23T16:41:01.513</time>
      </trkpt>
      <trkpt lat="42.5213" lon="2.04895">
        <ele>1903.1634619966</ele>
        <time>2001-05-23T16:41:02.513</time>
      </trkpt>
      <trkpt lat="42.52131" lon="2.04897">
        <ele>1902.527815563</ele>
        <time>2001-05-23T16:41:03.513</time>
      </trkpt>
      <trkpt lat="42.52131" lon="2.04898">
        <ele>1901.7660007065</ele>
        <time>2001-05-23T16:41:04.513</time>
      </trkpt>
      <trkpt lat="42.52132" lon="2.04899">
        <ele>1900.938942988</ele>
        <time>2001-05-23T16:41:05.513</time>
      </trkpt>
      <trkpt lat="42.52132" lon="2.049">
        <ele>1900.2544782249</ele>
        <time>2001-05-23T16:41:06.513</time>
      </trkpt>
      <trkpt lat="42.52133" lon="2.049">
        <ele>1899.7279090688</ele>
        <time>2001-05-23T16:41:07.513</time>
      </trkpt>
      <trkpt lat="42.52134" lon="2.04902">
        <ele>1899.3715582844</ele>
        <time>2001-05-23T16:41:08.513</time>
      </trkpt>
      <trkpt lat="42.52135" lon="2.04904">
        <ele>1898.834314489</ele>
        <time>2001-05-23T16:41:09.513</time>
      </trkpt>
      <trkpt lat="42.52135" lon="2.04905">
        <ele>1898.1113671092</ele>
        <time>2001-05-23T16:41:10.513</time>
      </trkpt>
      <trkpt lat="42.52135" lon="2.04906">
        <ele>1896.9886788903</ele>
        <time>2001-05-23T16:41:11.513</time>
      </trkpt>
      <trkpt lat="42.52136" lon="2.04907">
        <ele>1895.8109418139</ele>
        <time>2001-05-23T16:41:12.513</time>
      </trkpt>
      <trkpt lat="42.52137" lon="2.04907">
        <ele>1894.8231607184</ele>
        <time>2001-05-23T16:41:13.513</time>
      </trkpt>
      <trkpt lat="42.52137" lon="2.04909">
        <ele>1894.2592198586</ele>
        <time>2001-05-23T16:41:14.513</time>
      </trkpt>
      <trkpt lat="42.52137" lon="2.04911">
        <ele>1894.4471396105</ele>
        <time>2001-05-23T16:41:15.513</time>
      </trkpt>
      <trkpt lat="42.52137" lon="2.04911">
        <ele>1895.048931702</ele>
        <time>2001-05-23T16:41:16.513</time>
      </trkpt>
      <trkpt lat="42.52138" lon="2.04913">
        <ele>1895.6468133897</ele>
        <time>2001-05-23T16:41:17.513</time>
      </trkpt>
      <trkpt lat="42.52138" lon="2.04914">
        <ele>1896.3995732026</ele>
        <time>2001-05-23T16:41:18.513</time>
      </trkpt>
      <trkpt lat="42.52139" lon="2.04914">
        <ele>1897.2632414689</ele>
        <time>2001-05-23T16:41:19.513</time>
      </trkpt>
      <trkpt lat="42.52139" lon="2.04915">
        <ele>1898.0205080675</ele>
        <time>2001-05-23T16:41:20.513</time>
      </trkpt>
      <trkpt lat="42.52138" lon="2.04916">
        <ele>1898.8498211093</ele>
        <time>2001-05-23T16:41:21.513</time>
      </trkpt>
      <trkpt lat="42.52137" lon="2.04917">
        <ele>1899.830884775</ele>
        <time>2001-05-23T16:41:22.513</time>
      </trkpt>
      <trkpt lat="42.52138" lon="2.04919">
        <ele>1900.4279765589</ele>
        <time>2001-05-23T16:41:23.513</time>
      </trkpt>
      <trkpt lat="42.52139" lon="2.0492">
        <ele>1900.888149043</ele>
        <time>2001-05-23T16:41:24.513</time>
      </trkpt>
      <trkpt lat="42.5214" lon="2.04922">
        <ele>1901.1127609856</ele>
        <time>2001-05-23T16:41:25.513</time>
      </trkpt>
      <trkpt lat="42.52141" lon="2.04924">
        <ele>1900.7641347906</ele>
        <time>2001-05-23T16:41:26.513</time>
      </trkpt>
      <trkpt lat="42.52142" lon="2.04925">
        <ele>1900.1527261626</ele>
        <time>2001-05-23T16:41:27.513</time>
      </trkpt>
      <trkpt lat="42.52142" lon="2.04926">
        <ele>1899.7565703744</ele>
        <time>2001-05-23T16:41:28.513</time>
      </trkpt>
      <trkpt lat="42.52143" lon="2.04928">
        <ele>1899.6165316906</ele>
        <time>2001-05-23T16:41:29.513</time>
      </trkpt>
      <trkpt lat="42.52144" lon="2.04928">
        <ele>1899.5327481806</ele>
        <time>2001-05-23T16:41:30.513</time>
      </trkpt>
      <trkpt lat="42.52145" lon="2.04928">
        <ele>1900.2058337476</ele>
        <time>2001-05-23T16:41:31.513</time>
      </trkpt>
      <trkpt lat="42.52146" lon="2.04929">
        <ele>1901.4360957943</ele>
        <time>2001-05-23T16:41:32.513</time>
      </trkpt>
      <trkpt lat="42.52147" lon="2.0493">
        <ele>1902.5439292593</ele>
        <time>2001-05-23T16:41:33.513</time>
      </trkpt>
      <trkpt lat="42.52148" lon="2.04931">
        <ele>1903.2065829748</ele>
        <time>2001-05-23T16:41:34.513</time>
      </trkpt>
      <trkpt lat="42.52148" lon="2.04931">
        <ele>1903.5138272416</ele>
        <time>2001-05-23T16:41:35.513</time>
      </trkpt>
      <trkpt lat="42.52149" lon="2.04932">
        <ele>1903.3611735227</ele>
        <time>2001-05-23T16:41:36.513</time>
      </trkpt>
      <trkpt lat="42.5215" lon="2.04934">
        <ele>1902.7725579094</ele>
        <time>2001-05-23T16:41:37.513</time>
      </trkpt>
      <trkpt lat="42.5215" lon="2.04935">
        <ele>1902.1768233627</ele>
        <time>2001-05-23T16:41:38.513</time>
      </trkpt>
      <trkpt lat="42.52152" lon="2.04936">
        <ele>1901.5715982029</ele>
        <time>2001-05-23T16:41:39.513</time>
      </trkpt>
      <trkpt lat="42.52153" lon="2.04937">
        <ele>1901.1136458246</ele>
        <time>2001-05-23T16:41:40.513</time>
      </trkpt>
      <trkpt lat="42.52154" lon="2.04937">
        <ele>1900.9103325877</ele>
        <time>2001-05-23T16:41:41.513</time>
      </trkpt>
      <trkpt lat="42.52154" lon="2.04937">
        <ele>1901.0249903908</ele>
        <time>2001-05-23T16:41:42.513</time>
      </trkpt>
      <trkpt lat="42.52154" lon="2.04938">
        <ele>1901.6158912728</ele>
        <time>2001-05-23T16:41:43.513</time>
      </trkpt>
      <trkpt lat="42.52156" lon="2.04938">
        <ele>1903.0234816486</ele>
        <time>2001-05-23T16:41:44.510</time>
      </trkpt>
      <trkpt lat="42.52157" lon="2.04938">
        <ele>1904.4554187136</ele>
        <time>2001-05-23T16:41:45.510</time>
      </trkpt>
      <trkpt lat="42.52158" lon="2.04938">
        <ele>1905.8301939584</ele>
        <time>2001-05-23T16:41:46.510</time>
      </trkpt>
      <trkpt lat="42.52158" lon="2.04938">
        <ele>1906.8764672717</ele>
        <time>2001-05-23T16:41:47.510</time>
      </trkpt>
      <trkpt lat="42.5216" lon="2.04938">
        <ele>1907.2258577425</ele>
        <time>2001-05-23T16:41:48.513</time>
      </trkpt>
      <trkpt lat="42.52162" lon="2.04938">
        <ele>1906.6848248865</ele>
        <time>2001-05-23T16:41:49.513</time>
      </trkpt>
      <trkpt lat="42.52164" lon="2.04939">
        <ele>1905.9682938879</ele>
        <time>2001-05-23T16:41:50.513</time>
      </trkpt>
      <trkpt lat="42.52164" lon="2.0494">
        <ele>1905.3390596272</ele>
        <time>2001-05-23T16:41:51.513</time>
      </trkpt>
      <trkpt lat="42.52165" lon="2.0494">
        <ele>1904.5822703071</ele>
        <time>2001-05-23T16:41:52.513</time>
      </trkpt>
      <trkpt lat="42.52166" lon="2.04941">
        <ele>1904.1245482352</ele>
        <time>2001-05-23T16:41:53.513</time>
      </trkpt>
      <trkpt lat="42.52167" lon="2.04941">
        <ele>1904.0395597471</ele>
        <time>2001-05-23T16:41:54.513</time>
      </trkpt>
      <trkpt lat="42.52169" lon="2.04943">
        <ele>1904.288503441</ele>
        <time>2001-05-23T16:41:55.513</time>
      </trkpt>
      <trkpt lat="42.5217" lon="2.04943">
        <ele>1904.7462074855</ele>
        <time>2001-05-23T16:41:56.513</time>
      </trkpt>
      <trkpt lat="42.52171" lon="2.04945">
        <ele>1905.3689551281</ele>
        <time>2001-05-23T16:41:57.513</time>
      </trkpt>
      <trkpt lat="42.52173" lon="2.04947">
        <ele>1905.6843505975</ele>
        <time>2001-05-23T16:41:58.513</time>
      </trkpt>
      <trkpt lat="42.52173" lon="2.04948">
        <ele>1906.0568097115</ele>
        <time>2001-05-23T16:41:59.513</time>
      </trkpt>
      <trkpt lat="42.52174" lon="2.04947">
        <ele>1906.6854477791</ele>
        <time>2001-05-23T16:42:00.513</time>
      </trkpt>
      <trkpt lat="42.52174" lon="2.04947">
        <ele>1907.3803793674</ele>
        <time>2001-05-23T16:42:01.513</time>
      </trkpt>
      <trkpt lat="42.52175" lon="2.04948">
        <ele>1908.1455682881</ele>
        <time>2001-05-23T16:42:02.513</time>
      </trkpt>
      <trkpt lat="42.52177" lon="2.04949">
        <ele>1908.88475373</ele>
        <time>2001-05-23T16:42:03.511</time>
      </trkpt>
      <trkpt lat="42.52178" lon="2.04949">
        <ele>1909.6495704122</ele>
        <time>2001-05-23T16:42:04.511</time>
      </trkpt>
      <trkpt lat="42.52179" lon="2.0495">
        <ele>1910.0603447698</ele>
        <time>2001-05-23T16:42:05.511</time>
      </trkpt>
      <trkpt lat="42.5218" lon="2.0495">
        <ele>1910.0125290249</ele>
        <time>2001-05-23T16:42:06.511</time>
      </trkpt>
      <trkpt lat="42.52182" lon="2.04951">
        <ele>1909.7163828092</ele>
        <time>2001-05-23T16:42:07.511</time>
      </trkpt>
      <trkpt lat="42.52183" lon="2.04951">
        <ele>1909.9883307155</ele>
        <time>2001-05-23T16:42:08.511</time>
      </trkpt>
      <trkpt lat="42.52184" lon="2.04952">
        <ele>1909.9990714282</ele>
        <time>2001-05-23T16:42:09.511</time>
      </trkpt>
      <trkpt lat="42.52185" lon="2.04953">
        <ele>1910.0895425679</ele>
        <time>2001-05-23T16:42:10.511</time>
      </trkpt>
      <trkpt lat="42.52187" lon="2.04954">
        <ele>1910.4156237748</ele>
        <time>2001-05-23T16:42:11.511</time>
      </trkpt>
      <trkpt lat="42.52188" lon="2.04954">
        <ele>1910.7834962731</ele>
        <time>2001-05-23T16:42:12.511</time>
      </trkpt>
      <trkpt lat="42.5219" lon="2.04954">
        <ele>1910.4444414936</ele>
        <time>2001-05-23T16:42:13.511</time>
      </trkpt>
      <trkpt lat="42.52191" lon="2.04954">
        <ele>1909.9905885186</ele>
        <time>2001-05-23T16:42:14.511</time>
      </trkpt>
      <trkpt lat="42.52192" lon="2.04954">
        <ele>1909.4291276349</ele>
        <time>2001-05-23T16:42:15.511</time>
      </trkpt>
      <trkpt lat="42.52194" lon="2.04954">
        <ele>1908.7231862267</ele>
        <time>2001-05-23T16:42:16.511</time>
      </trkpt>
      <trkpt lat="42.52194" lon="2.04954">
        <ele>1908.2101388862</ele>
        <time>2001-05-23T16:42:17.511</time>
      </trkpt>
      <trkpt lat="42.52195" lon="2.04955">
        <ele>1908.1189621372</ele>
        <time>2001-05-23T16:42:18.511</time>
      </trkpt>
      <trkpt lat="42.52195" lon="2.04956">
        <ele>1907.9395881012</ele>
        <time>2001-05-23T16:42:19.511</time>
      </trkpt>
      <trkpt lat="42.52196" lon="2.04957">
        <ele>1907.6890520792</ele>
        <time>2001-05-23T16:42:20.511</time>
      </trkpt>
      <trkpt lat="42.52197" lon="2.04957">
        <ele>1907.4333948428</ele>
        <time>2001-05-23T16:42:21.511</time>
      </trkpt>
      <trkpt lat="42.52198" lon="2.04958">
        <ele>1907.264667633</ele>
        <time>2001-05-23T16:42:22.511</time>
      </trkpt>
      <trkpt lat="42.52198" lon="2.04959">
        <ele>1907.4830730282</ele>
        <time>2001-05-23T16:42:23.511</time>
      </trkpt>
      <trkpt lat="42.522" lon="2.04958">
        <ele>1907.7225168804</ele>
        <time>2001-05-23T16:42:24.511</time>
      </trkpt>
      <trkpt lat="42.52202" lon="2.04959">
        <ele>1907.5903380655</ele>
        <time>2001-05-23T16:42:25.511</time>
      </trkpt>
      <trkpt lat="42.52203" lon="2.0496">
        <ele>1907.5305482438</ele>
        <time>2001-05-23T16:42:26.511</time>
      </trkpt>
      <trkpt lat="42.52204" lon="2.04961">
        <ele>1907.64505284</ele>
        <time>2001-05-23T16:42:27.511</time>
      </trkpt>
      <trkpt lat="42.52205" lon="2.04961">
        <ele>1907.5154505413</ele>
        <time>2001-05-23T16:42:28.511</time>
      </trkpt>
      <trkpt lat="42.52206" lon="2.0496">
        <ele>1907.0604738509</ele>
        <time>2001-05-23T16:42:29.511</time>
      </trkpt>
      <trkpt lat="42.52207" lon="2.0496">
        <ele>1906.7458407389</ele>
        <time>2001-05-23T16:42:30.511</time>
      </trkpt>
      <trkpt lat="42.52208" lon="2.04961">
        <ele>1906.2209725685</ele>
        <time>2001-05-23T16:42:31.511</time>
      </trkpt>
      <trkpt lat="42.52208" lon="2.04961">
        <ele>1905.3137750044</ele>
        <time>2001-05-23T16:42:32.511</time>
      </trkpt>
      <trkpt lat="42.5221" lon="2.0496">
        <ele>1904.1747556772</ele>
        <time>2001-05-23T16:42:33.511</time>
      </trkpt>
      <trkpt lat="42.52211" lon="2.04961">
        <ele>1903.468226918</ele>
        <time>2001-05-23T16:42:34.511</time>
      </trkpt>
      <trkpt lat="42.52212" lon="2.04961">
        <ele>1903.0321184728</ele>
        <time>2001-05-23T16:42:35.511</time>
      </trkpt>
      <trkpt lat="42.52214" lon="2.04961">
        <ele>1902.5917041309</ele>
        <time>2001-05-23T16:42:36.511</time>
      </trkpt>
      <trkpt lat="42.52214" lon="2.04962">
        <ele>1902.3592146559</ele>
        <time>2001-05-23T16:42:37.511</time>
      </trkpt>
      <trkpt lat="42.52215" lon="2.04965">
        <ele>1902.1415766582</ele>
        <time>2001-05-23T16:42:38.511</time>
      </trkpt>
      <trkpt lat="42.52216" lon="2.04965">
        <ele>1902.1950888271</ele>
        <time>2001-05-23T16:42:39.511</time>
      </trkpt>
      <trkpt lat="42.52217" lon="2.04965">
        <ele>1902.3238512671</ele>
        <time>2001-05-23T16:42:40.511</time>
      </trkpt>
      <trkpt lat="42.52217" lon="2.04966">
        <ele>1902.4215570388</ele>
        <time>2001-05-23T16:42:41.511</time>
      </trkpt>
      <trkpt lat="42.52218" lon="2.04967">
        <ele>1901.6771442972</ele>
        <time>2001-05-23T16:42:42.511</time>
      </trkpt>
      <trkpt lat="42.5222" lon="2.04967">
        <ele>1900.3349396652</ele>
        <time>2001-05-23T16:42:43.511</time>
      </trkpt>
      <trkpt lat="42.52222" lon="2.04967">
        <ele>1898.5140090728</ele>
        <time>2001-05-23T16:42:44.511</time>
      </trkpt>
      <trkpt lat="42.52224" lon="2.04968">
        <ele>1897.0834643271</ele>
        <time>2001-05-23T16:42:45.511</time>
      </trkpt>
      <trkpt lat="42.52225" lon="2.04969">
        <ele>1895.9018059852</ele>
        <time>2001-05-23T16:42:46.511</time>
      </trkpt>
      <trkpt lat="42.52226" lon="2.04969">
        <ele>1895.5491755372</ele>
        <time>2001-05-23T16:42:47.511</time>
      </trkpt>
      <trkpt lat="42.52227" lon="2.0497">
        <ele>1895.896668808</ele>
        <time>2001-05-23T16:42:48.511</time>
      </trkpt>
      <trkpt lat="42.52227" lon="2.04971">
        <ele>1896.5170202443</ele>
        <time>2001-05-23T16:42:49.511</time>
      </trkpt>
      <trkpt lat="42.52226" lon="2.04972">
        <ele>1896.3608710827</ele>
        <time>2001-05-23T16:42:50.511</time>
      </trkpt>
      <trkpt lat="42.52226" lon="2.04972">
        <ele>1896.0338626139</ele>
        <time>2001-05-23T16:42:51.511</time>
      </trkpt>
      <trkpt lat="42.52227" lon="2.04972">
        <ele>1895.320455455</ele>
        <time>2001-05-23T16:42:52.511</time>
      </trkpt>
      <trkpt lat="42.52228" lon="2.04972">
        <ele>1895.2850911578</ele>
        <time>2001-05-23T16:42:53.509</time>
      </trkpt>
      <trkpt lat="42.52229" lon="2.04972">
        <ele>1895.7703956064</ele>
        <time>2001-05-23T16:42:54.509</time>
      </trkpt>
      <trkpt lat="42.52231" lon="2.04971">
        <ele>1897.0526039731</ele>
        <time>2001-05-23T16:42:55.509</time>
      </trkpt>
      <trkpt lat="42.52231" lon="2.04971">
        <ele>1898.7858372016</ele>
        <time>2001-05-23T16:42:56.509</time>
      </trkpt>
      <trkpt lat="42.52232" lon="2.0497">
        <ele>1900.8665921493</ele>
        <time>2001-05-23T16:42:57.509</time>
      </trkpt>
      <trkpt lat="42.52233" lon="2.0497">
        <ele>1902.3950905211</ele>
        <time>2001-05-23T16:42:58.509</time>
      </trkpt>
      <trkpt lat="42.52234" lon="2.0497">
        <ele>1903.4874786224</ele>
        <time>2001-05-23T16:42:59.509</time>
      </trkpt>
      <trkpt lat="42.52236" lon="2.04969">
        <ele>1904.0558731353</ele>
        <time>2001-05-23T16:43:00.509</time>
      </trkpt>
      <trkpt lat="42.52237" lon="2.04968">
        <ele>1904.3164768944</ele>
        <time>2001-05-23T16:43:01.509</time>
      </trkpt>
      <trkpt lat="42.52237" lon="2.04968">
        <ele>1904.5021272615</ele>
        <time>2001-05-23T16:43:02.509</time>
      </trkpt>
      <trkpt lat="42.52238" lon="2.04969">
        <ele>1904.3234816581</ele>
        <time>2001-05-23T16:43:03.509</time>
      </trkpt>
      <trkpt lat="42.52238" lon="2.04969">
        <ele>1903.7615588104</ele>
        <time>2001-05-23T16:43:04.509</time>
      </trkpt>
      <trkpt lat="42.52239" lon="2.04971">
        <ele>1903.0638541969</ele>
        <time>2001-05-23T16:43:05.509</time>
      </trkpt>
      <trkpt lat="42.5224" lon="2.04971">
        <ele>1902.1904715862</ele>
        <time>2001-05-23T16:43:06.509</time>
      </trkpt>
      <trkpt lat="42.52241" lon="2.04972">
        <ele>1901.8807260992</ele>
        <time>2001-05-23T16:43:07.509</time>
      </trkpt>
      <trkpt lat="42.52242" lon="2.04973">
        <ele>1902.1976058949</ele>
        <time>2001-05-23T16:43:08.509</time>
      </trkpt>
      <trkpt lat="42.52243" lon="2.04974">
        <ele>1903.0638033643</ele>
        <time>2001-05-23T16:43:09.509</time>
      </trkpt>
      <trkpt lat="42.52244" lon="2.04974">
        <ele>1904.562808446</ele>
        <time>2001-05-23T16:43:10.509</time>
      </trkpt>
      <trkpt lat="42.52245" lon="2.04975">
        <ele>1906.7954282265</ele>
        <time>2001-05-23T16:43:11.509</time>
      </trkpt>
      <trkpt lat="42.52245" lon="2.04975">
        <ele>1908.4104111886</ele>
        <time>2001-05-23T16:43:12.509</time>
      </trkpt>
      <trkpt lat="42.52245" lon="2.04976">
        <ele>1909.7719372243</ele>
        <time>2001-05-23T16:43:13.509</time>
      </trkpt>
      <trkpt lat="42.52246" lon="2.04977">
        <ele>1911.2129492158</ele>
        <time>2001-05-23T16:43:14.509</time>
      </trkpt>
      <trkpt lat="42.52248" lon="2.04977">
        <ele>1911.8252728278</ele>
        <time>2001-05-23T16:43:15.509</time>
      </trkpt>
      <trkpt lat="42.5225" lon="2.04976">
        <ele>1911.6481865263</ele>
        <time>2001-05-23T16:43:16.509</time>
      </trkpt>
      <trkpt lat="42.52251" lon="2.04976">
        <ele>1911.5719916202</ele>
        <time>2001-05-23T16:43:17.509</time>
      </trkpt>
      <trkpt lat="42.52252" lon="2.04976">
        <ele>1911.3131194625</ele>
        <time>2001-05-23T16:43:18.509</time>
      </trkpt>
      <trkpt lat="42.52253" lon="2.04975">
        <ele>1910.1583592061</ele>
        <time>2001-05-23T16:43:19.509</time>
      </trkpt>
      <trkpt lat="42.52254" lon="2.04976">
        <ele>1909.2966055326</ele>
        <time>2001-05-23T16:43:20.509</time>
      </trkpt>
      <trkpt lat="42.52256" lon="2.04975">
        <ele>1908.409245592</ele>
        <time>2001-05-23T16:43:21.509</time>
      </trkpt>
      <trkpt lat="42.52257" lon="2.04974">
        <ele>1907.3022320928</ele>
        <time>2001-05-23T16:43:22.509</time>
      </trkpt>
      <trkpt lat="42.52258" lon="2.04973">
        <ele>1905.7818442572</ele>
        <time>2001-05-23T16:43:23.509</time>
      </trkpt>
      <trkpt lat="42.52259" lon="2.04973">
        <ele>1904.6444519779</ele>
        <time>2001-05-23T16:43:24.509</time>
      </trkpt>
      <trkpt lat="42.5226" lon="2.04974">
        <ele>1903.4843851348</ele>
        <time>2001-05-23T16:43:25.509</time>
      </trkpt>
      <trkpt lat="42.52261" lon="2.04974">
        <ele>1902.2707753919</ele>
        <time>2001-05-23T16:43:26.509</time>
      </trkpt>
      <trkpt lat="42.52263" lon="2.04974">
        <ele>1901.1127721455</ele>
        <time>2001-05-23T16:43:27.509</time>
      </trkpt>
      <trkpt lat="42.52264" lon="2.04974">
        <ele>1900.4623521</ele>
        <time>2001-05-23T16:43:28.509</time>
      </trkpt>
      <trkpt lat="42.52265" lon="2.04974">
        <ele>1900.0302850453</ele>
        <time>2001-05-23T16:43:29.509</time>
      </trkpt>
      <trkpt lat="42.52266" lon="2.04975">
        <ele>1899.9861977002</ele>
        <time>2001-05-23T16:43:30.509</time>
      </trkpt>
      <trkpt lat="42.52266" lon="2.04976">
        <ele>1900.7467762198</ele>
        <time>2001-05-23T16:43:31.509</time>
      </trkpt>
      <trkpt lat="42.52267" lon="2.04977">
        <ele>1901.8478286169</ele>
        <time>2001-05-23T16:43:32.509</time>
      </trkpt>
      <trkpt lat="42.52268" lon="2.04977">
        <ele>1903.1333536493</ele>
        <time>2001-05-23T16:43:33.509</time>
      </trkpt>
      <trkpt lat="42.52269" lon="2.04977">
        <ele>1904.780402025</ele>
        <time>2001-05-23T16:43:34.509</time>
      </trkpt>
      <trkpt lat="42.5227" lon="2.04978">
        <ele>1906.0309658047</ele>
        <time>2001-05-23T16:43:35.509</time>
      </trkpt>
      <trkpt lat="42.52272" lon="2.04979">
        <ele>1906.5740584593</ele>
        <time>2001-05-23T16:43:36.509</time>
      </trkpt>
      <trkpt lat="42.52274" lon="2.0498">
        <ele>1906.0587558795</ele>
        <time>2001-05-23T16:43:37.509</time>
      </trkpt>
      <trkpt lat="42.52275" lon="2.0498">
        <ele>1904.7964188676</ele>
        <time>2001-05-23T16:43:38.509</time>
      </trkpt>
      <trkpt lat="42.52276" lon="2.0498">
        <ele>1902.8994991919</ele>
        <time>2001-05-23T16:43:39.509</time>
      </trkpt>
      <trkpt lat="42.52277" lon="2.04981">
        <ele>1901.0517708965</ele>
        <time>2001-05-23T16:43:40.509</time>
      </trkpt>
      <trkpt lat="42.52278" lon="2.04981">
        <ele>1899.4333228862</ele>
        <time>2001-05-23T16:43:41.509</time>
      </trkpt>
      <trkpt lat="42.52279" lon="2.04981">
        <ele>1898.5812678313</ele>
        <time>2001-05-23T16:43:42.509</time>
      </trkpt>
      <trkpt lat="42.5228" lon="2.04982">
        <ele>1898.3128452854</ele>
        <time>2001-05-23T16:43:43.509</time>
      </trkpt>
      <trkpt lat="42.52281" lon="2.04982">
        <ele>1898.1670117462</ele>
        <time>2001-05-23T16:43:44.509</time>
      </trkpt>
      <trkpt lat="42.52283" lon="2.04981">
        <ele>1897.3804407861</ele>
        <time>2001-05-23T16:43:45.509</time>
      </trkpt>
      <trkpt lat="42.52283" lon="2.04982">
        <ele>1896.4340717804</ele>
        <time>2001-05-23T16:43:46.509</time>
      </trkpt>
      <trkpt lat="42.52284" lon="2.04983">
        <ele>1895.6032673765</ele>
        <time>2001-05-23T16:43:47.509</time>
      </trkpt>
      <trkpt lat="42.52285" lon="2.04986">
        <ele>1894.9376702461</ele>
        <time>2001-05-23T16:43:48.509</time>
      </trkpt>
      <trkpt lat="42.52285" lon="2.04991">
        <ele>1895.0207383061</ele>
        <time>2001-05-23T16:43:49.509</time>
      </trkpt>
      <trkpt lat="42.52286" lon="2.04992">
        <ele>1895.8649768166</ele>
        <time>2001-05-23T16:43:50.509</time>
      </trkpt>
      <trkpt lat="42.52286" lon="2.04994">
        <ele>1896.871789269</ele>
        <time>2001-05-23T16:43:51.509</time>
      </trkpt>
      <trkpt lat="42.52287" lon="2.04995">
        <ele>1897.5405793089</ele>
        <time>2001-05-23T16:43:52.509</time>
      </trkpt>
      <trkpt lat="42.52287" lon="2.04995">
        <ele>1897.9455462249</ele>
        <time>2001-05-23T16:43:53.509</time>
      </trkpt>
      <trkpt lat="42.52287" lon="2.04996">
        <ele>1897.3895807859</ele>
        <time>2001-05-23T16:43:54.509</time>
      </trkpt>
      <trkpt lat="42.52287" lon="2.04997">
        <ele>1896.89669179</ele>
        <time>2001-05-23T16:43:55.509</time>
      </trkpt>
      <trkpt lat="42.52286" lon="2.04998">
        <ele>1896.6438089522</ele>
        <time>2001-05-23T16:43:56.509</time>
      </trkpt>
      <trkpt lat="42.52287" lon="2.05001">
        <ele>1897.891482137</ele>
        <time>2001-05-23T16:43:57.509</time>
      </trkpt>
      <trkpt lat="42.52286" lon="2.05002">
        <ele>1899.3698878804</ele>
        <time>2001-05-23T16:43:58.509</time>
      </trkpt>
      <trkpt lat="42.52286" lon="2.05003">
        <ele>1901.0914450997</ele>
        <time>2001-05-23T16:43:59.509</time>
      </trkpt>
      <trkpt lat="42.52285" lon="2.05006">
        <ele>1902.6221816417</ele>
        <time>2001-05-23T16:44:00.506</time>
      </trkpt>
      <trkpt lat="42.52284" lon="2.05008">
        <ele>1903.1816197986</ele>
        <time>2001-05-23T16:44:01.506</time>
      </trkpt>
      <trkpt lat="42.52283" lon="2.05008">
        <ele>1901.8795993183</ele>
        <time>2001-05-23T16:44:02.506</time>
      </trkpt>
      <trkpt lat="42.52284" lon="2.05008">
        <ele>1899.9009062573</ele>
        <time>2001-05-23T16:44:03.506</time>
      </trkpt>
      <trkpt lat="42.52284" lon="2.05008">
        <ele>1897.824497653</ele>
        <time>2001-05-23T16:44:04.506</time>
      </trkpt>
      <trkpt lat="42.52284" lon="2.05009">
        <ele>1895.8125153583</ele>
        <time>2001-05-23T16:44:05.506</time>
      </trkpt>
      <trkpt lat="42.52284" lon="2.05011">
        <ele>1894.1330183102</ele>
        <time>2001-05-23T16:44:06.507</time>
      </trkpt>
      <trkpt lat="42.52285" lon="2.05013">
        <ele>1893.0830935696</ele>
        <time>2001-05-23T16:44:07.507</time>
      </trkpt>
      <trkpt lat="42.52285" lon="2.05015">
        <ele>1891.5233393781</ele>
        <time>2001-05-23T16:44:08.509</time>
      </trkpt>
      <trkpt lat="42.52284" lon="2.05017">
        <ele>1890.1288588867</ele>
        <time>2001-05-23T16:44:09.509</time>
      </trkpt>
      <trkpt lat="42.52284" lon="2.05019">
        <ele>1888.5912031718</ele>
        <time>2001-05-23T16:44:10.509</time>
      </trkpt>
      <trkpt lat="42.52287" lon="2.0502">
        <ele>1887.2675397789</ele>
        <time>2001-05-23T16:44:11.509</time>
      </trkpt>
      <trkpt lat="42.52287" lon="2.05021">
        <ele>1885.8357347967</ele>
        <time>2001-05-23T16:44:12.509</time>
      </trkpt>
      <trkpt lat="42.52288" lon="2.05022">
        <ele>1885.1973946618</ele>
        <time>2001-05-23T16:44:13.509</time>
      </trkpt>
      <trkpt lat="42.52288" lon="2.05022">
        <ele>1884.3900371958</ele>
        <time>2001-05-23T16:44:14.509</time>
      </trkpt>
      <trkpt lat="42.52288" lon="2.05023">
        <ele>1883.9319741331</ele>
        <time>2001-05-23T16:44:15.509</time>
      </trkpt>
      <trkpt lat="42.52288" lon="2.05024">
        <ele>1883.6019650454</ele>
        <time>2001-05-23T16:44:16.509</time>
      </trkpt>
      <trkpt lat="42.52287" lon="2.05025">
        <ele>1883.1595156197</ele>
        <time>2001-05-23T16:44:17.509</time>
      </trkpt>
      <trkpt lat="42.52286" lon="2.05027">
        <ele>1882.7329538736</ele>
        <time>2001-05-23T16:44:18.509</time>
      </trkpt>
      <trkpt lat="42.52287" lon="2.05028">
        <ele>1882.8297143461</ele>
        <time>2001-05-23T16:44:19.509</time>
      </trkpt>
      <trkpt lat="42.52286" lon="2.05029">
        <ele>1882.9594957035</ele>
        <time>2001-05-23T16:44:20.509</time>
      </trkpt>
      <trkpt lat="42.52286" lon="2.05031">
        <ele>1882.8032418555</ele>
        <time>2001-05-23T16:44:21.509</time>
      </trkpt>
      <trkpt lat="42.52285" lon="2.05031">
        <ele>1882.9630187135</ele>
        <time>2001-05-23T16:44:22.509</time>
      </trkpt>
      <trkpt lat="42.52284" lon="2.05033">
        <ele>1883.2369742079</ele>
        <time>2001-05-23T16:44:23.509</time>
      </trkpt>
      <trkpt lat="42.52284" lon="2.05034">
        <ele>1883.2926287033</ele>
        <time>2001-05-23T16:44:24.509</time>
      </trkpt>
      <trkpt lat="42.52284" lon="2.05035">
        <ele>1883.2042454004</ele>
        <time>2001-05-23T16:44:25.509</time>
      </trkpt>
      <trkpt lat="42.52283" lon="2.05035">
        <ele>1883.2386032715</ele>
        <time>2001-05-23T16:44:26.509</time>
      </trkpt>
      <trkpt lat="42.52283" lon="2.05037">
        <ele>1883.1554404737</ele>
        <time>2001-05-23T16:44:27.509</time>
      </trkpt>
      <trkpt lat="42.52282" lon="2.05038">
        <ele>1882.9372580396</ele>
        <time>2001-05-23T16:44:28.509</time>
      </trkpt>
      <trkpt lat="42.52282" lon="2.05038">
        <ele>1882.6538580626</ele>
        <time>2001-05-23T16:44:29.509</time>
      </trkpt>
      <trkpt lat="42.52282" lon="2.05038">
        <ele>1882.571080892</ele>
        <time>2001-05-23T16:44:30.509</time>
      </trkpt>
      <trkpt lat="42.52281" lon="2.05039">
        <ele>1882.8698703131</ele>
        <time>2001-05-23T16:44:31.509</time>
      </trkpt>
      <trkpt lat="42.5228" lon="2.05041">
        <ele>1883.0098704258</ele>
        <time>2001-05-23T16:44:32.510</time>
      </trkpt>
      <trkpt lat="42.5228" lon="2.05043">
        <ele>1883.4399342669</ele>
        <time>2001-05-23T16:44:33.510</time>
      </trkpt>
      <trkpt lat="42.52279" lon="2.05044">
        <ele>1883.7765843427</ele>
        <time>2001-05-23T16:44:34.510</time>
      </trkpt>
      <trkpt lat="42.52277" lon="2.05046">
        <ele>1883.8932915861</ele>
        <time>2001-05-23T16:44:35.510</time>
      </trkpt>
      <trkpt lat="42.52276" lon="2.05048">
        <ele>1883.42825153</ele>
        <time>2001-05-23T16:44:36.510</time>
      </trkpt>
      <trkpt lat="42.52275" lon="2.05049">
        <ele>1882.9580991078</ele>
        <time>2001-05-23T16:44:37.510</time>
      </trkpt>
      <trkpt lat="42.52274" lon="2.0505">
        <ele>1882.2786207372</ele>
        <time>2001-05-23T16:44:38.510</time>
      </trkpt>
      <trkpt lat="42.52273" lon="2.05051">
        <ele>1881.5629395204</ele>
        <time>2001-05-23T16:44:39.510</time>
      </trkpt>
      <trkpt lat="42.52273" lon="2.05051">
        <ele>1880.9803342722</ele>
        <time>2001-05-23T16:44:40.510</time>
      </trkpt>
      <trkpt lat="42.52271" lon="2.05051">
        <ele>1880.4348278547</ele>
        <time>2001-05-23T16:44:41.510</time>
      </trkpt>
      <trkpt lat="42.5227" lon="2.05053">
        <ele>1880.0696768962</ele>
        <time>2001-05-23T16:44:42.510</time>
      </trkpt>
      <trkpt lat="42.5227" lon="2.05054">
        <ele>1879.8216022264</ele>
        <time>2001-05-23T16:44:43.510</time>
      </trkpt>
      <trkpt lat="42.52269" lon="2.05055">
        <ele>1879.5943474159</ele>
        <time>2001-05-23T16:44:44.510</time>
      </trkpt>
      <trkpt lat="42.52268" lon="2.05056">
        <ele>1879.2461652536</ele>
        <time>2001-05-23T16:44:45.510</time>
      </trkpt>
      <trkpt lat="42.52267" lon="2.05057">
        <ele>1879.3147112444</ele>
        <time>2001-05-23T16:44:46.510</time>
      </trkpt>
      <trkpt lat="42.52266" lon="2.05058">
        <ele>1879.4291531624</ele>
        <time>2001-05-23T16:44:47.510</time>
      </trkpt>
      <trkpt lat="42.52265" lon="2.05058">
        <ele>1879.4457074611</ele>
        <time>2001-05-23T16:44:48.510</time>
      </trkpt>
      <trkpt lat="42.52264" lon="2.05059">
        <ele>1879.524452264</ele>
        <time>2001-05-23T16:44:49.510</time>
      </trkpt>
      <trkpt lat="42.52262" lon="2.0506">
        <ele>1879.6802012583</ele>
        <time>2001-05-23T16:44:50.510</time>
      </trkpt>
      <trkpt lat="42.52261" lon="2.05062">
        <ele>1879.700332161</ele>
        <time>2001-05-23T16:44:51.510</time>
      </trkpt>
      <trkpt lat="42.52261" lon="2.05063">
        <ele>1879.1253015809</ele>
        <time>2001-05-23T16:44:52.510</time>
      </trkpt>
      <trkpt lat="42.52261" lon="2.05065">
        <ele>1878.1232174348</ele>
        <time>2001-05-23T16:44:53.510</time>
      </trkpt>
      <trkpt lat="42.52261" lon="2.05067">
        <ele>1876.9750083571</ele>
        <time>2001-05-23T16:44:54.510</time>
      </trkpt>
      <trkpt lat="42.52262" lon="2.0507">
        <ele>1875.7372170264</ele>
        <time>2001-05-23T16:44:55.510</time>
      </trkpt>
      <trkpt lat="42.52261" lon="2.05072">
        <ele>1874.684230615</ele>
        <time>2001-05-23T16:44:56.510</time>
      </trkpt>
      <trkpt lat="42.52262" lon="2.05073">
        <ele>1874.0851191349</ele>
        <time>2001-05-23T16:44:57.510</time>
      </trkpt>
      <trkpt lat="42.52262" lon="2.05074">
        <ele>1874.0250076044</ele>
        <time>2001-05-23T16:44:58.510</time>
      </trkpt>
      <trkpt lat="42.52261" lon="2.05075">
        <ele>1874.2890037019</ele>
        <time>2001-05-23T16:44:59.510</time>
      </trkpt>
      <trkpt lat="42.52262" lon="2.05076">
        <ele>1874.6136503804</ele>
        <time>2001-05-23T16:45:00.510</time>
      </trkpt>
      <trkpt lat="42.52262" lon="2.05078">
        <ele>1874.7106172798</ele>
        <time>2001-05-23T16:45:01.510</time>
      </trkpt>
      <trkpt lat="42.52262" lon="2.0508">
        <ele>1874.9463821188</ele>
        <time>2001-05-23T16:45:02.510</time>
      </trkpt>
      <trkpt lat="42.52262" lon="2.05082">
        <ele>1874.9153944092</ele>
        <time>2001-05-23T16:45:03.510</time>
      </trkpt>
      <trkpt lat="42.52263" lon="2.05084">
        <ele>1874.3675099785</ele>
        <time>2001-05-23T16:45:04.510</time>
      </trkpt>
      <trkpt lat="42.52263" lon="2.05085">
        <ele>1873.793118377</ele>
        <time>2001-05-23T16:45:05.510</time>
      </trkpt>
      <trkpt lat="42.52262" lon="2.05086">
        <ele>1873.5192119161</ele>
        <time>2001-05-23T16:45:06.510</time>
      </trkpt>
      <trkpt lat="42.52261" lon="2.05088">
        <ele>1873.4244790243</ele>
        <time>2001-05-23T16:45:07.510</time>
      </trkpt>
      <trkpt lat="42.52261" lon="2.05089">
        <ele>1873.638490558</ele>
        <time>2001-05-23T16:45:08.510</time>
      </trkpt>
      <trkpt lat="42.5226" lon="2.05091">
        <ele>1874.1612068681</ele>
        <time>2001-05-23T16:45:09.510</time>
      </trkpt>
      <trkpt lat="42.5226" lon="2.05093">
        <ele>1874.5730122723</ele>
        <time>2001-05-23T16:45:10.510</time>
      </trkpt>
      <trkpt lat="42.5226" lon="2.05094">
        <ele>1874.7863578603</ele>
        <time>2001-05-23T16:45:11.510</time>
      </trkpt>
      <trkpt lat="42.52259" lon="2.05095">
        <ele>1875.0260407062</ele>
        <time>2001-05-23T16:45:12.510</time>
      </trkpt>
      <trkpt lat="42.52259" lon="2.05097">
        <ele>1875.2166419532</ele>
        <time>2001-05-23T16:45:13.510</time>
      </trkpt>
      <trkpt lat="42.52258" lon="2.05098">
        <ele>1875.5382713627</ele>
        <time>2001-05-23T16:45:14.510</time>
      </trkpt>
      <trkpt lat="42.52258" lon="2.05098">
        <ele>1876.2304757431</ele>
        <time>2001-05-23T16:45:15.510</time>
      </trkpt>
      <trkpt lat="42.52257" lon="2.05099">
        <ele>1877.1345423175</ele>
        <time>2001-05-23T16:45:16.510</time>
      </trkpt>
      <trkpt lat="42.52256" lon="2.05099">
        <ele>1877.8928620739</ele>
        <time>2001-05-23T16:45:17.510</time>
      </trkpt>
      <trkpt lat="42.52255" lon="2.05099">
        <ele>1878.8224418361</ele>
        <time>2001-05-23T16:45:18.510</time>
      </trkpt>
      <trkpt lat="42.52254" lon="2.051">
        <ele>1879.8117318172</ele>
        <time>2001-05-23T16:45:19.510</time>
      </trkpt>
      <trkpt lat="42.52255" lon="2.051">
        <ele>1880.2318917798</ele>
        <time>2001-05-23T16:45:20.510</time>
      </trkpt>
      <trkpt lat="42.52255" lon="2.05101">
        <ele>1880.3956385076</ele>
        <time>2001-05-23T16:45:21.510</time>
      </trkpt>
      <trkpt lat="42.52255" lon="2.05103">
        <ele>1880.2457306013</ele>
        <time>2001-05-23T16:45:22.510</time>
      </trkpt>
      <trkpt lat="42.52254" lon="2.05104">
        <ele>1879.8568005219</ele>
        <time>2001-05-23T16:45:23.510</time>
      </trkpt>
      <trkpt lat="42.52254" lon="2.05106">
        <ele>1879.5288866198</ele>
        <time>2001-05-23T16:45:24.510</time>
      </trkpt>
      <trkpt lat="42.52254" lon="2.05107">
        <ele>1879.6897094334</ele>
        <time>2001-05-23T16:45:25.510</time>
      </trkpt>
      <trkpt lat="42.52254" lon="2.05107">
        <ele>1880.11733431</ele>
        <time>2001-05-23T16:45:26.510</time>
      </trkpt>
      <trkpt lat="42.52253" lon="2.05108">
        <ele>1880.8817213058</ele>
        <time>2001-05-23T16:45:27.510</time>
      </trkpt>
      <trkpt lat="42.52253" lon="2.0511">
        <ele>1881.6655443218</ele>
        <time>2001-05-23T16:45:28.510</time>
      </trkpt>
      <trkpt lat="42.52253" lon="2.05111">
        <ele>1882.0089596679</ele>
        <time>2001-05-23T16:45:29.510</time>
      </trkpt>
      <trkpt lat="42.52252" lon="2.05113">
        <ele>1882.0250962745</ele>
        <time>2001-05-23T16:45:30.510</time>
      </trkpt>
      <trkpt lat="42.52252" lon="2.05114">
        <ele>1881.5732990896</ele>
        <time>2001-05-23T16:45:31.510</time>
      </trkpt>
      <trkpt lat="42.52251" lon="2.05115">
        <ele>1881.0358689534</ele>
        <time>2001-05-23T16:45:32.510</time>
      </trkpt>
      <trkpt lat="42.5225" lon="2.05116">
        <ele>1880.5444611154</ele>
        <time>2001-05-23T16:45:33.510</time>
      </trkpt>
      <trkpt lat="42.52249" lon="2.05117">
        <ele>1880.3728383128</ele>
        <time>2001-05-23T16:45:34.510</time>
      </trkpt>
      <trkpt lat="42.52248" lon="2.05119">
        <ele>1880.2521514546</ele>
        <time>2001-05-23T16:45:35.510</time>
      </trkpt>
      <trkpt lat="42.52247" lon="2.0512">
        <ele>1880.2288643587</ele>
        <time>2001-05-23T16:45:36.510</time>
      </trkpt>
      <trkpt lat="42.52247" lon="2.05122">
        <ele>1880.0542984623</ele>
        <time>2001-05-23T16:45:37.510</time>
      </trkpt>
      <trkpt lat="42.52246" lon="2.05123">
        <ele>1880.1177764317</ele>
        <time>2001-05-23T16:45:38.510</time>
      </trkpt>
      <trkpt lat="42.52245" lon="2.05123">
        <ele>1880.1829326497</ele>
        <time>2001-05-23T16:45:39.510</time>
      </trkpt>
      <trkpt lat="42.52244" lon="2.05124">
        <ele>1880.6148458479</ele>
        <time>2001-05-23T16:45:40.510</time>
      </trkpt>
      <trkpt lat="42.52244" lon="2.05126">
        <ele>1881.3776153505</ele>
        <time>2001-05-23T16:45:41.510</time>
      </trkpt>
      <trkpt lat="42.52243" lon="2.05127">
        <ele>1882.1789227497</ele>
        <time>2001-05-23T16:45:42.510</time>
      </trkpt>
      <trkpt lat="42.52242" lon="2.05129">
        <ele>1882.5505208474</ele>
        <time>2001-05-23T16:45:43.510</time>
      </trkpt>
      <trkpt lat="42.52241" lon="2.0513">
        <ele>1882.7924401268</ele>
        <time>2001-05-23T16:45:44.510</time>
      </trkpt>
      <trkpt lat="42.5224" lon="2.05132">
        <ele>1882.5292120589</ele>
        <time>2001-05-23T16:45:45.510</time>
      </trkpt>
      <trkpt lat="42.5224" lon="2.05134">
        <ele>1882.0148444392</ele>
        <time>2001-05-23T16:45:46.510</time>
      </trkpt>
      <trkpt lat="42.5224" lon="2.05136">
        <ele>1881.7278325023</ele>
        <time>2001-05-23T16:45:47.510</time>
      </trkpt>
      <trkpt lat="42.52239" lon="2.05137">
        <ele>1881.4163363799</ele>
        <time>2001-05-23T16:45:48.510</time>
      </trkpt>
      <trkpt lat="42.52239" lon="2.05138">
        <ele>1881.2199705558</ele>
        <time>2001-05-23T16:45:49.510</time>
      </trkpt>
      <trkpt lat="42.52238" lon="2.0514">
        <ele>1881.3457369471</ele>
        <time>2001-05-23T16:45:50.510</time>
      </trkpt>
      <trkpt lat="42.52237" lon="2.05142">
        <ele>1881.5773077182</ele>
        <time>2001-05-23T16:45:51.510</time>
      </trkpt>
      <trkpt lat="42.52236" lon="2.05144">
        <ele>1881.6053170836</ele>
        <time>2001-05-23T16:45:52.510</time>
      </trkpt>
      <trkpt lat="42.52235" lon="2.05145">
        <ele>1881.7924668225</ele>
        <time>2001-05-23T16:45:53.510</time>
      </trkpt>
      <trkpt lat="42.52235" lon="2.05147">
        <ele>1881.7005610807</ele>
        <time>2001-05-23T16:45:54.510</time>
      </trkpt>
      <trkpt lat="42.52235" lon="2.05148">
        <ele>1881.4086881842</ele>
        <time>2001-05-23T16:45:55.510</time>
      </trkpt>
      <trkpt lat="42.52235" lon="2.05148">
        <ele>1880.8716615206</ele>
        <time>2001-05-23T16:45:56.510</time>
      </trkpt>
      <trkpt lat="42.52236" lon="2.05147">
        <ele>1880.1587038593</ele>
        <time>2001-05-23T16:45:57.510</time>
      </trkpt>
      <trkpt lat="42.52236" lon="2.05148">
        <ele>1879.4909427935</ele>
        <time>2001-05-23T16:45:58.510</time>
      </trkpt>
      <trkpt lat="42.52235" lon="2.05149">
        <ele>1878.8953189423</ele>
        <time>2001-05-23T16:45:59.510</time>
      </trkpt>
      <trkpt lat="42.52234" lon="2.05151">
        <ele>1878.330225048</ele>
        <time>2001-05-23T16:46:00.510</time>
      </trkpt>
      <trkpt lat="42.52233" lon="2.05153">
        <ele>1878.0444493925</ele>
        <time>2001-05-23T16:46:01.510</time>
      </trkpt>
      <trkpt lat="42.52232" lon="2.05154">
        <ele>1878.1321852751</ele>
        <time>2001-05-23T16:46:02.510</time>
      </trkpt>
      <trkpt lat="42.52231" lon="2.05155">
        <ele>1878.2973245494</ele>
        <time>2001-05-23T16:46:03.510</time>
      </trkpt>
      <trkpt lat="42.5223" lon="2.05156">
        <ele>1878.3038428362</ele>
        <time>2001-05-23T16:46:04.510</time>
      </trkpt>
      <trkpt lat="42.5223" lon="2.05157">
        <ele>1878.2835571313</ele>
        <time>2001-05-23T16:46:05.510</time>
      </trkpt>
      <trkpt lat="42.5223" lon="2.05157">
        <ele>1878.2082669154</ele>
        <time>2001-05-23T16:46:06.510</time>
      </trkpt>
      <trkpt lat="42.52229" lon="2.05157">
        <ele>1878.1554572111</ele>
        <time>2001-05-23T16:46:07.510</time>
      </trkpt>
      <trkpt lat="42.52228" lon="2.05159">
        <ele>1878.0526962845</ele>
        <time>2001-05-23T16:46:08.510</time>
      </trkpt>
      <trkpt lat="42.52228" lon="2.05161">
        <ele>1878.4799191965</ele>
        <time>2001-05-23T16:46:09.510</time>
      </trkpt>
      <trkpt lat="42.52227" lon="2.05164">
        <ele>1878.8809510056</ele>
        <time>2001-05-23T16:46:10.510</time>
      </trkpt>
      <trkpt lat="42.52225" lon="2.05166">
        <ele>1879.0399829073</ele>
        <time>2001-05-23T16:46:11.510</time>
      </trkpt>
      <trkpt lat="42.52224" lon="2.05168">
        <ele>1878.9379565127</ele>
        <time>2001-05-23T16:46:12.510</time>
      </trkpt>
      <trkpt lat="42.52224" lon="2.0517">
        <ele>1878.7610919921</ele>
        <time>2001-05-23T16:46:13.510</time>
      </trkpt>
      <trkpt lat="42.52224" lon="2.05172">
        <ele>1878.2563803805</ele>
        <time>2001-05-23T16:46:14.510</time>
      </trkpt>
      <trkpt lat="42.52223" lon="2.05173">
        <ele>1878.0142878305</ele>
        <time>2001-05-23T16:46:15.510</time>
      </trkpt>
      <trkpt lat="42.52223" lon="2.05173">
        <ele>1878.3705073882</ele>
        <time>2001-05-23T16:46:16.510</time>
      </trkpt>
      <trkpt lat="42.52222" lon="2.05174">
        <ele>1879.371263743</ele>
        <time>2001-05-23T16:46:17.510</time>
      </trkpt>
      <trkpt lat="42.52221" lon="2.05176">
        <ele>1880.6742485292</ele>
        <time>2001-05-23T16:46:18.510</time>
      </trkpt>
      <trkpt lat="42.52221" lon="2.05176">
        <ele>1882.1833723357</ele>
        <time>2001-05-23T16:46:19.510</time>
      </trkpt>
      <trkpt lat="42.5222" lon="2.05177">
        <ele>1883.5624804899</ele>
        <time>2001-05-23T16:46:20.510</time>
      </trkpt>
      <trkpt lat="42.52219" lon="2.05179">
        <ele>1884.4044457085</ele>
        <time>2001-05-23T16:46:21.510</time>
      </trkpt>
      <trkpt lat="42.52219" lon="2.05181">
        <ele>1884.7538113168</ele>
        <time>2001-05-23T16:46:22.510</time>
      </trkpt>
      <trkpt lat="42.52219" lon="2.05182">
        <ele>1884.7218788158</ele>
        <time>2001-05-23T16:46:23.510</time>
      </trkpt>
      <trkpt lat="42.52219" lon="2.05184">
        <ele>1884.3702230919</ele>
        <time>2001-05-23T16:46:24.510</time>
      </trkpt>
      <trkpt lat="42.52219" lon="2.05185">
        <ele>1883.9512249647</ele>
        <time>2001-05-23T16:46:25.510</time>
      </trkpt>
      <trkpt lat="42.52218" lon="2.05186">
        <ele>1883.6378527036</ele>
        <time>2001-05-23T16:46:26.510</time>
      </trkpt>
      <trkpt lat="42.52218" lon="2.05187">
        <ele>1883.3502701906</ele>
        <time>2001-05-23T16:46:27.510</time>
      </trkpt>
      <trkpt lat="42.52218" lon="2.05188">
        <ele>1883.3878281346</ele>
        <time>2001-05-23T16:46:28.510</time>
      </trkpt>
      <trkpt lat="42.52217" lon="2.05188">
        <ele>1884.155673177</ele>
        <time>2001-05-23T16:46:29.510</time>
      </trkpt>
      <trkpt lat="42.52217" lon="2.05189">
        <ele>1884.9304676207</ele>
        <time>2001-05-23T16:46:30.510</time>
      </trkpt>
      <trkpt lat="42.52217" lon="2.05192">
        <ele>1885.3322294574</ele>
        <time>2001-05-23T16:46:31.510</time>
      </trkpt>
      <trkpt lat="42.52217" lon="2.05193">
        <ele>1885.4845517909</ele>
        <time>2001-05-23T16:46:32.510</time>
      </trkpt>
      <trkpt lat="42.52216" lon="2.05194">
        <ele>1885.2679417603</ele>
        <time>2001-05-23T16:46:33.510</time>
      </trkpt>
      <trkpt lat="42.52215" lon="2.05197">
        <ele>1884.1762343215</ele>
        <time>2001-05-23T16:46:34.510</time>
      </trkpt>
      <trkpt lat="42.52216" lon="2.05199">
        <ele>1882.9123188477</ele>
        <time>2001-05-23T16:46:35.510</time>
      </trkpt>
      <trkpt lat="42.52216" lon="2.05201">
        <ele>1882.2294441707</ele>
        <time>2001-05-23T16:46:36.510</time>
      </trkpt>
      <trkpt lat="42.52216" lon="2.05202">
        <ele>1881.9109623004</ele>
        <time>2001-05-23T16:46:37.510</time>
      </trkpt>
      <trkpt lat="42.52215" lon="2.05203">
        <ele>1881.6701584551</ele>
        <time>2001-05-23T16:46:38.510</time>
      </trkpt>
      <trkpt lat="42.52215" lon="2.05205">
        <ele>1881.6865831001</ele>
        <time>2001-05-23T16:46:39.510</time>
      </trkpt>
      <trkpt lat="42.52214" lon="2.05206">
        <ele>1882.0688762512</ele>
        <time>2001-05-23T16:46:40.510</time>
      </trkpt>
      <trkpt lat="42.52214" lon="2.05207">
        <ele>1882.3189913807</ele>
        <time>2001-05-23T16:46:41.510</time>
      </trkpt>
      <trkpt lat="42.52214" lon="2.05209">
        <ele>1882.2364281898</ele>
        <time>2001-05-23T16:46:42.510</time>
      </trkpt>
      <trkpt lat="42.52214" lon="2.0521">
        <ele>1882.3692775862</ele>
        <time>2001-05-23T16:46:43.510</time>
      </trkpt>
      <trkpt lat="42.52213" lon="2.0521">
        <ele>1882.4175839441</ele>
        <time>2001-05-23T16:46:44.510</time>
      </trkpt>
      <trkpt lat="42.52214" lon="2.05211">
        <ele>1882.3466180058</ele>
        <time>2001-05-23T16:46:45.510</time>
      </trkpt>
      <trkpt lat="42.52214" lon="2.05212">
        <ele>1882.1456025919</ele>
        <time>2001-05-23T16:46:46.510</time>
      </trkpt>
      <trkpt lat="42.52213" lon="2.05214">
        <ele>1881.7800563695</ele>
        <time>2001-05-23T16:46:47.510</time>
      </trkpt>
      <trkpt lat="42.52213" lon="2.05215">
        <ele>1881.2058001673</ele>
        <time>2001-05-23T16:46:48.510</time>
      </trkpt>
      <trkpt lat="42.52213" lon="2.05216">
        <ele>1880.8739100359</ele>
        <time>2001-05-23T16:46:49.510</time>
      </trkpt>
      <trkpt lat="42.52213" lon="2.05217">
        <ele>1880.6091093525</ele>
        <time>2001-05-23T16:46:50.510</time>
      </trkpt>
      <trkpt lat="42.52214" lon="2.05218">
        <ele>1880.1730155338</ele>
        <time>2001-05-23T16:46:51.510</time>
      </trkpt>
      <trkpt lat="42.52213" lon="2.05217">
        <ele>1880.2832371887</ele>
        <time>2001-05-23T16:46:52.510</time>
      </trkpt>
      <trkpt lat="42.52212" lon="2.05216">
        <ele>1880.4940053735</ele>
        <time>2001-05-23T16:46:53.510</time>
      </trkpt>
      <trkpt lat="42.52212" lon="2.05218">
        <ele>1880.8435122559</ele>
        <time>2001-05-23T16:46:54.512</time>
      </trkpt>
      <trkpt lat="42.52212" lon="2.05218">
        <ele>1880.9174001224</ele>
        <time>2001-05-23T16:46:55.512</time>
      </trkpt>
      <trkpt lat="42.52211" lon="2.05218">
        <ele>1881.4941312594</ele>
        <time>2001-05-23T16:46:56.490</time>
      </trkpt>
      <trkpt lat="42.52211" lon="2.05219">
        <ele>1881.6868540136</ele>
        <time>2001-05-23T16:46:57.490</time>
      </trkpt>
      <trkpt lat="42.5221" lon="2.0522">
        <ele>1881.7600858323</ele>
        <time>2001-05-23T16:46:58.490</time>
      </trkpt>
      <trkpt lat="42.52209" lon="2.05222">
        <ele>1881.4416475087</ele>
        <time>2001-05-23T16:46:59.490</time>
      </trkpt>
      <trkpt lat="42.52209" lon="2.05223">
        <ele>1881.1416254822</ele>
        <time>2001-05-23T16:47:00.490</time>
      </trkpt>
      <trkpt lat="42.52209" lon="2.05224">
        <ele>1880.6014062438</ele>
        <time>2001-05-23T16:47:01.490</time>
      </trkpt>
      <trkpt lat="42.52208" lon="2.05225">
        <ele>1880.1154621854</ele>
        <time>2001-05-23T16:47:02.490</time>
      </trkpt>
      <trkpt lat="42.52207" lon="2.05227">
        <ele>1879.6604371715</ele>
        <time>2001-05-23T16:47:03.490</time>
      </trkpt>
      <trkpt lat="42.52207" lon="2.05228">
        <ele>1879.3310454672</ele>
        <time>2001-05-23T16:47:04.490</time>
      </trkpt>
      <trkpt lat="42.52207" lon="2.05229">
        <ele>1879.3853210786</ele>
        <time>2001-05-23T16:47:05.490</time>
      </trkpt>
      <trkpt lat="42.52206" lon="2.0523">
        <ele>1879.4889236225</ele>
        <time>2001-05-23T16:47:06.490</time>
      </trkpt>
      <trkpt lat="42.52205" lon="2.0523">
        <ele>1879.6642138746</ele>
        <time>2001-05-23T16:47:07.490</time>
      </trkpt>
      <trkpt lat="42.52204" lon="2.0523">
        <ele>1879.9871240133</ele>
        <time>2001-05-23T16:47:08.490</time>
      </trkpt>
      <trkpt lat="42.52204" lon="2.05231">
        <ele>1880.229554073</ele>
        <time>2001-05-23T16:47:09.490</time>
      </trkpt>
      <trkpt lat="42.52204" lon="2.05232">
        <ele>1879.7740878286</ele>
        <time>2001-05-23T16:47:10.490</time>
      </trkpt>
      <trkpt lat="42.52203" lon="2.05233">
        <ele>1878.6745559672</ele>
        <time>2001-05-23T16:47:11.491</time>
      </trkpt>
      <trkpt lat="42.52202" lon="2.05233">
        <ele>1877.5869523995</ele>
        <time>2001-05-23T16:47:12.491</time>
      </trkpt>
      <trkpt lat="42.52201" lon="2.05234">
        <ele>1876.2096088361</ele>
        <time>2001-05-23T16:47:13.491</time>
      </trkpt>
      <trkpt lat="42.52199" lon="2.05235">
        <ele>1874.845987873</ele>
        <time>2001-05-23T16:47:14.491</time>
      </trkpt>
      <trkpt lat="42.52199" lon="2.05235">
        <ele>1874.0086029081</ele>
        <time>2001-05-23T16:47:15.491</time>
      </trkpt>
      <trkpt lat="42.52197" lon="2.05235">
        <ele>1874.1285490558</ele>
        <time>2001-05-23T16:47:16.491</time>
      </trkpt>
      <trkpt lat="42.52196" lon="2.05236">
        <ele>1874.3843516922</ele>
        <time>2001-05-23T16:47:17.491</time>
      </trkpt>
      <trkpt lat="42.52196" lon="2.05237">
        <ele>1874.824290733</ele>
        <time>2001-05-23T16:47:18.491</time>
      </trkpt>
      <trkpt lat="42.52195" lon="2.05238">
        <ele>1875.3239615956</ele>
        <time>2001-05-23T16:47:19.491</time>
      </trkpt>
      <trkpt lat="42.52195" lon="2.05239">
        <ele>1875.9193109363</ele>
        <time>2001-05-23T16:47:20.491</time>
      </trkpt>
      <trkpt lat="42.52194" lon="2.0524">
        <ele>1876.148286033</ele>
        <time>2001-05-23T16:47:21.491</time>
      </trkpt>
      <trkpt lat="42.52192" lon="2.0524">
        <ele>1876.1871875031</ele>
        <time>2001-05-23T16:47:22.491</time>
      </trkpt>
      <trkpt lat="42.52192" lon="2.05241">
        <ele>1876.1812690813</ele>
        <time>2001-05-23T16:47:23.491</time>
      </trkpt>
      <trkpt lat="42.52191" lon="2.05242">
        <ele>1876.2019049456</ele>
        <time>2001-05-23T16:47:24.491</time>
      </trkpt>
      <trkpt lat="42.52189" lon="2.05242">
        <ele>1876.4100651246</ele>
        <time>2001-05-23T16:47:25.491</time>
      </trkpt>
      <trkpt lat="42.52188" lon="2.05243">
        <ele>1876.5229170477</ele>
        <time>2001-05-23T16:47:26.491</time>
      </trkpt>
      <trkpt lat="42.52188" lon="2.05244">
        <ele>1876.2912036391</ele>
        <time>2001-05-23T16:47:27.491</time>
      </trkpt>
      <trkpt lat="42.52186" lon="2.05245">
        <ele>1876.2267844008</ele>
        <time>2001-05-23T16:47:28.491</time>
      </trkpt>
      <trkpt lat="42.52185" lon="2.05247">
        <ele>1876.276508173</ele>
        <time>2001-05-23T16:47:29.491</time>
      </trkpt>
      <trkpt lat="42.52184" lon="2.05247">
        <ele>1876.2434845684</ele>
        <time>2001-05-23T16:47:30.491</time>
      </trkpt>
      <trkpt lat="42.52183" lon="2.05248">
        <ele>1876.4275569221</ele>
        <time>2001-05-23T16:47:31.491</time>
      </trkpt>
      <trkpt lat="42.52183" lon="2.05248">
        <ele>1876.7841655811</ele>
        <time>2001-05-23T16:47:32.491</time>
      </trkpt>
      <trkpt lat="42.52182" lon="2.05248">
        <ele>1876.9584455414</ele>
        <time>2001-05-23T16:47:33.491</time>
      </trkpt>
      <trkpt lat="42.52179" lon="2.05252">
        <ele>1877.2361827396</ele>
        <time>2001-05-23T16:47:34.491</time>
      </trkpt>
      <trkpt lat="42.52178" lon="2.05253">
        <ele>1877.2744412327</ele>
        <time>2001-05-23T16:47:35.491</time>
      </trkpt>
      <trkpt lat="42.52176" lon="2.05254">
        <ele>1877.2752525546</ele>
        <time>2001-05-23T16:47:36.491</time>
      </trkpt>
      <trkpt lat="42.52176" lon="2.05255">
        <ele>1877.3836126713</ele>
        <time>2001-05-23T16:47:37.491</time>
      </trkpt>
      <trkpt lat="42.52176" lon="2.05254">
        <ele>1877.5794102788</ele>
        <time>2001-05-23T16:47:38.491</time>
      </trkpt>
      <trkpt lat="42.52177" lon="2.05254">
        <ele>1877.2173269182</ele>
        <time>2001-05-23T16:47:39.491</time>
      </trkpt>
      <trkpt lat="42.52176" lon="2.05255">
        <ele>1876.6827930722</ele>
        <time>2001-05-23T16:47:40.491</time>
      </trkpt>
      <trkpt lat="42.52175" lon="2.05256">
        <ele>1875.7850324614</ele>
        <time>2001-05-23T16:47:41.489</time>
      </trkpt>
      <trkpt lat="42.52174" lon="2.05257">
        <ele>1874.998201271</ele>
        <time>2001-05-23T16:47:42.489</time>
      </trkpt>
      <trkpt lat="42.52173" lon="2.05258">
        <ele>1874.0996601114</ele>
        <time>2001-05-23T16:47:43.489</time>
      </trkpt>
      <trkpt lat="42.52172" lon="2.05258">
        <ele>1873.6318053065</ele>
        <time>2001-05-23T16:47:44.489</time>
      </trkpt>
      <trkpt lat="42.52171" lon="2.05259">
        <ele>1873.4046718076</ele>
        <time>2001-05-23T16:47:45.489</time>
      </trkpt>
      <trkpt lat="42.52171" lon="2.0526">
        <ele>1873.3173430448</ele>
        <time>2001-05-23T16:47:46.489</time>
      </trkpt>
      <trkpt lat="42.52169" lon="2.05261">
        <ele>1873.3325658847</ele>
        <time>2001-05-23T16:47:47.489</time>
      </trkpt>
      <trkpt lat="42.52167" lon="2.05261">
        <ele>1873.5355388716</ele>
        <time>2001-05-23T16:47:48.489</time>
      </trkpt>
      <trkpt lat="42.52166" lon="2.05262">
        <ele>1873.7286526611</ele>
        <time>2001-05-23T16:47:49.489</time>
      </trkpt>
      <trkpt lat="42.52165" lon="2.05263">
        <ele>1873.6799595565</ele>
        <time>2001-05-23T16:47:50.489</time>
      </trkpt>
      <trkpt lat="42.52164" lon="2.05264">
        <ele>1873.4625438645</ele>
        <time>2001-05-23T16:47:51.489</time>
      </trkpt>
      <trkpt lat="42.52161" lon="2.05263">
        <ele>1873.1412588388</ele>
        <time>2001-05-23T16:47:52.489</time>
      </trkpt>
      <trkpt lat="42.52159" lon="2.05263">
        <ele>1873.0218514981</ele>
        <time>2001-05-23T16:47:53.489</time>
      </trkpt>
      <trkpt lat="42.52158" lon="2.05264">
        <ele>1873.0122549798</ele>
        <time>2001-05-23T16:47:54.489</time>
      </trkpt>
      <trkpt lat="42.52158" lon="2.05264">
        <ele>1873.0861357</ele>
        <time>2001-05-23T16:47:55.489</time>
      </trkpt>
      <trkpt lat="42.52159" lon="2.05266">
        <ele>1873.1856344434</ele>
        <time>2001-05-23T16:47:56.489</time>
      </trkpt>
      <trkpt lat="42.52159" lon="2.05266">
        <ele>1873.2476428384</ele>
        <time>2001-05-23T16:47:57.489</time>
      </trkpt>
      <trkpt lat="42.52158" lon="2.05267">
        <ele>1872.9551956519</ele>
        <time>2001-05-23T16:47:58.489</time>
      </trkpt>
      <trkpt lat="42.52157" lon="2.05268">
        <ele>1872.4914320169</ele>
        <time>2001-05-23T16:47:59.489</time>
      </trkpt>
      <trkpt lat="42.52156" lon="2.05269">
        <ele>1872.0854646793</ele>
        <time>2001-05-23T16:48:00.489</time>
      </trkpt>
      <trkpt lat="42.52155" lon="2.05269">
        <ele>1872.0425773675</ele>
        <time>2001-05-23T16:48:01.489</time>
      </trkpt>
      <trkpt lat="42.52154" lon="2.05269">
        <ele>1871.9280535171</ele>
        <time>2001-05-23T16:48:02.489</time>
      </trkpt>
      <trkpt lat="42.52152" lon="2.0527">
        <ele>1872.063234647</ele>
        <time>2001-05-23T16:48:03.489</time>
      </trkpt>
      <trkpt lat="42.52149" lon="2.05271">
        <ele>1872.6389630636</ele>
        <time>2001-05-23T16:48:04.489</time>
      </trkpt>
      <trkpt lat="42.52148" lon="2.05272">
        <ele>1872.9827307466</ele>
        <time>2001-05-23T16:48:05.489</time>
      </trkpt>
      <trkpt lat="42.52147" lon="2.05273">
        <ele>1872.8791429602</ele>
        <time>2001-05-23T16:48:06.489</time>
      </trkpt>
      <trkpt lat="42.52147" lon="2.05274">
        <ele>1872.8271841766</ele>
        <time>2001-05-23T16:48:07.489</time>
      </trkpt>
      <trkpt lat="42.52147" lon="2.05274">
        <ele>1872.3861937521</ele>
        <time>2001-05-23T16:48:08.489</time>
      </trkpt>
      <trkpt lat="42.52146" lon="2.05275">
        <ele>1871.4034969494</ele>
        <time>2001-05-23T16:48:09.489</time>
      </trkpt>
      <trkpt lat="42.52144" lon="2.05277">
        <ele>1870.1243554441</ele>
        <time>2001-05-23T16:48:10.492</time>
      </trkpt>
      <trkpt lat="42.52144" lon="2.05278">
        <ele>1869.0436490431</ele>
        <time>2001-05-23T16:48:11.492</time>
      </trkpt>
      <trkpt lat="42.52143" lon="2.0528">
        <ele>1868.0893026562</ele>
        <time>2001-05-23T16:48:12.483</time>
      </trkpt>
      <trkpt lat="42.52141" lon="2.05281">
        <ele>1867.3742338797</ele>
        <time>2001-05-23T16:48:13.483</time>
      </trkpt>
      <trkpt lat="42.5214" lon="2.05282">
        <ele>1866.9220731208</ele>
        <time>2001-05-23T16:48:14.483</time>
      </trkpt>
      <trkpt lat="42.52138" lon="2.05283">
        <ele>1867.066366226</ele>
        <time>2001-05-23T16:48:15.483</time>
      </trkpt>
      <trkpt lat="42.52138" lon="2.05284">
        <ele>1867.3355595579</ele>
        <time>2001-05-23T16:48:16.483</time>
      </trkpt>
      <trkpt lat="42.52137" lon="2.05285">
        <ele>1867.3743442159</ele>
        <time>2001-05-23T16:48:17.483</time>
      </trkpt>
      <trkpt lat="42.52136" lon="2.05286">
        <ele>1867.569442066</ele>
        <time>2001-05-23T16:48:18.483</time>
      </trkpt>
      <trkpt lat="42.52135" lon="2.05288">
        <ele>1867.6803647513</ele>
        <time>2001-05-23T16:48:19.483</time>
      </trkpt>
      <trkpt lat="42.52133" lon="2.05289">
        <ele>1867.9494537661</ele>
        <time>2001-05-23T16:48:20.483</time>
      </trkpt>
      <trkpt lat="42.52131" lon="2.0529">
        <ele>1868.4724590113</ele>
        <time>2001-05-23T16:48:21.483</time>
      </trkpt>
      <trkpt lat="42.5213" lon="2.05291">
        <ele>1869.0080460206</ele>
        <time>2001-05-23T16:48:22.483</time>
      </trkpt>
      <trkpt lat="42.52129" lon="2.05292">
        <ele>1869.1865852324</ele>
        <time>2001-05-23T16:48:23.483</time>
      </trkpt>
      <trkpt lat="42.52128" lon="2.05292">
        <ele>1869.3292736527</ele>
        <time>2001-05-23T16:48:24.483</time>
      </trkpt>
      <trkpt lat="42.52127" lon="2.05294">
        <ele>1869.2176258633</ele>
        <time>2001-05-23T16:48:25.483</time>
      </trkpt>
      <trkpt lat="42.52126" lon="2.05295">
        <ele>1868.9108188029</ele>
        <time>2001-05-23T16:48:26.483</time>
      </trkpt>
      <trkpt lat="42.52125" lon="2.05297">
        <ele>1868.4417492131</ele>
        <time>2001-05-23T16:48:27.483</time>
      </trkpt>
      <trkpt lat="42.52124" lon="2.05297">
        <ele>1868.1673841197</ele>
        <time>2001-05-23T16:48:28.483</time>
      </trkpt>
      <trkpt lat="42.52123" lon="2.05297">
        <ele>1867.7655678233</ele>
        <time>2001-05-23T16:48:29.483</time>
      </trkpt>
      <trkpt lat="42.52122" lon="2.05298">
        <ele>1867.6286554435</ele>
        <time>2001-05-23T16:48:30.483</time>
      </trkpt>
      <trkpt lat="42.52122" lon="2.05297">
        <ele>1868.2525039038</ele>
        <time>2001-05-23T16:48:31.483</time>
      </trkpt>
      <trkpt lat="42.52122" lon="2.05297">
        <ele>1869.9880071603</ele>
        <time>2001-05-23T16:48:32.483</time>
      </trkpt>
      <trkpt lat="42.52121" lon="2.05299">
        <ele>1871.7094055876</ele>
        <time>2001-05-23T16:48:33.483</time>
      </trkpt>
      <trkpt lat="42.52119" lon="2.053">
        <ele>1873.4524103029</ele>
        <time>2001-05-23T16:48:34.483</time>
      </trkpt>
      <trkpt lat="42.52118" lon="2.05301">
        <ele>1874.8870252125</ele>
        <time>2001-05-23T16:48:35.483</time>
      </trkpt>
      <trkpt lat="42.52117" lon="2.05302">
        <ele>1875.460881249</ele>
        <time>2001-05-23T16:48:36.483</time>
      </trkpt>
      <trkpt lat="42.52117" lon="2.05301">
        <ele>1875.3854979025</ele>
        <time>2001-05-23T16:48:37.483</time>
      </trkpt>
      <trkpt lat="42.52117" lon="2.05301">
        <ele>1875.265496386</ele>
        <time>2001-05-23T16:48:38.483</time>
      </trkpt>
      <trkpt lat="42.52115" lon="2.05303">
        <ele>1875.1931588111</ele>
        <time>2001-05-23T16:48:39.481</time>
      </trkpt>
      <trkpt lat="42.52114" lon="2.05306">
        <ele>1875.013226789</ele>
        <time>2001-05-23T16:48:40.481</time>
      </trkpt>
      <trkpt lat="42.52114" lon="2.05308">
        <ele>1874.75441365</ele>
        <time>2001-05-23T16:48:41.481</time>
      </trkpt>
      <trkpt lat="42.52113" lon="2.0531">
        <ele>1874.2685734563</ele>
        <time>2001-05-23T16:48:42.481</time>
      </trkpt>
      <trkpt lat="42.52112" lon="2.05311">
        <ele>1874.0490041114</ele>
        <time>2001-05-23T16:48:43.481</time>
      </trkpt>
      <trkpt lat="42.52112" lon="2.05312">
        <ele>1873.714731374</ele>
        <time>2001-05-23T16:48:44.481</time>
      </trkpt>
      <trkpt lat="42.52112" lon="2.05313">
        <ele>1873.3534328487</ele>
        <time>2001-05-23T16:48:45.481</time>
      </trkpt>
      <trkpt lat="42.5211" lon="2.05313">
        <ele>1873.277837746</ele>
        <time>2001-05-23T16:48:46.481</time>
      </trkpt>
      <trkpt lat="42.52109" lon="2.05314">
        <ele>1873.2477601035</ele>
        <time>2001-05-23T16:48:47.481</time>
      </trkpt>
      <trkpt lat="42.52108" lon="2.05315">
        <ele>1872.8967605585</ele>
        <time>2001-05-23T16:48:48.481</time>
      </trkpt>
      <trkpt lat="42.52107" lon="2.05316">
        <ele>1872.1694784595</ele>
        <time>2001-05-23T16:48:49.481</time>
      </trkpt>
      <trkpt lat="42.52106" lon="2.05317">
        <ele>1871.4238158353</ele>
        <time>2001-05-23T16:48:50.481</time>
      </trkpt>
      <trkpt lat="42.52106" lon="2.05318">
        <ele>1870.5532285048</ele>
        <time>2001-05-23T16:48:51.481</time>
      </trkpt>
      <trkpt lat="42.52105" lon="2.0532">
        <ele>1869.6427984705</ele>
        <time>2001-05-23T16:48:52.481</time>
      </trkpt>
      <trkpt lat="42.52105" lon="2.05322">
        <ele>1868.5903354984</ele>
        <time>2001-05-23T16:48:53.481</time>
      </trkpt>
      <trkpt lat="42.52105" lon="2.05323">
        <ele>1868.0375192618</ele>
        <time>2001-05-23T16:48:54.481</time>
      </trkpt>
      <trkpt lat="42.52103" lon="2.05325">
        <ele>1867.7324392976</ele>
        <time>2001-05-23T16:48:55.481</time>
      </trkpt>
      <trkpt lat="42.521" lon="2.05326">
        <ele>1867.6017870573</ele>
        <time>2001-05-23T16:48:56.481</time>
      </trkpt>
      <trkpt lat="42.52099" lon="2.05327">
        <ele>1867.4929129627</ele>
        <time>2001-05-23T16:48:57.481</time>
      </trkpt>
      <trkpt lat="42.52099" lon="2.05328">
        <ele>1867.5611265227</ele>
        <time>2001-05-23T16:48:58.481</time>
      </trkpt>
      <trkpt lat="42.52098" lon="2.05328">
        <ele>1867.749366512</ele>
        <time>2001-05-23T16:48:59.481</time>
      </trkpt>
      <trkpt lat="42.52098" lon="2.05329">
        <ele>1867.9837848295</ele>
        <time>2001-05-23T16:49:00.481</time>
      </trkpt>
      <trkpt lat="42.52097" lon="2.0533">
        <ele>1867.9749534901</ele>
        <time>2001-05-23T16:49:01.481</time>
      </trkpt>
      <trkpt lat="42.52097" lon="2.05331">
        <ele>1868.0893226877</ele>
        <time>2001-05-23T16:49:02.481</time>
      </trkpt>
      <trkpt lat="42.52096" lon="2.05332">
        <ele>1868.1115495725</ele>
        <time>2001-05-23T16:49:03.481</time>
      </trkpt>
      <trkpt lat="42.52095" lon="2.05331">
        <ele>1868.1408747351</ele>
        <time>2001-05-23T16:49:04.481</time>
      </trkpt>
      <trkpt lat="42.52095" lon="2.05331">
        <ele>1868.1540904118</ele>
        <time>2001-05-23T16:49:05.481</time>
      </trkpt>
      <trkpt lat="42.52094" lon="2.05334">
        <ele>1868.1696870668</ele>
        <time>2001-05-23T16:49:06.481</time>
      </trkpt>
      <trkpt lat="42.52093" lon="2.05335">
        <ele>1867.9502240401</ele>
        <time>2001-05-23T16:49:07.481</time>
      </trkpt>
      <trkpt lat="42.52092" lon="2.05336">
        <ele>1867.7164086927</ele>
        <time>2001-05-23T16:49:08.481</time>
      </trkpt>
      <trkpt lat="42.52091" lon="2.05337">
        <ele>1867.4400408134</ele>
        <time>2001-05-23T16:49:09.481</time>
      </trkpt>
      <trkpt lat="42.5209" lon="2.05336">
        <ele>1867.0133094065</ele>
        <time>2001-05-23T16:49:10.481</time>
      </trkpt>
      <trkpt lat="42.52089" lon="2.05336">
        <ele>1866.6250790816</ele>
        <time>2001-05-23T16:49:11.481</time>
      </trkpt>
      <trkpt lat="42.52088" lon="2.05337">
        <ele>1866.3333093945</ele>
        <time>2001-05-23T16:49:12.481</time>
      </trkpt>
      <trkpt lat="42.52087" lon="2.05337">
        <ele>1866.0408448992</ele>
        <time>2001-05-23T16:49:13.481</time>
      </trkpt>
      <trkpt lat="42.52087" lon="2.05337">
        <ele>1865.5827014444</ele>
        <time>2001-05-23T16:49:14.481</time>
      </trkpt>
      <trkpt lat="42.52086" lon="2.05337">
        <ele>1865.0106206948</ele>
        <time>2001-05-23T16:49:15.481</time>
      </trkpt>
      <trkpt lat="42.52084" lon="2.05337">
        <ele>1864.3299120275</ele>
        <time>2001-05-23T16:49:16.481</time>
      </trkpt>
      <trkpt lat="42.52083" lon="2.05337">
        <ele>1863.5859606199</ele>
        <time>2001-05-23T16:49:17.481</time>
      </trkpt>
      <trkpt lat="42.52083" lon="2.05337">
        <ele>1862.9803627606</ele>
        <time>2001-05-23T16:49:18.481</time>
      </trkpt>
      <trkpt lat="42.52083" lon="2.05337">
        <ele>1862.4828128627</ele>
        <time>2001-05-23T16:49:19.481</time>
      </trkpt>
      <trkpt lat="42.52084" lon="2.05337">
        <ele>1862.2701073652</ele>
        <time>2001-05-23T16:49:20.482</time>
      </trkpt>
      <trkpt lat="42.52087" lon="2.05339">
        <ele>1862.4085222632</ele>
        <time>2001-05-23T16:49:21.482</time>
      </trkpt>
      <trkpt lat="42.52088" lon="2.0534">
        <ele>1862.5224236868</ele>
        <time>2001-05-23T16:49:22.482</time>
      </trkpt>
      <trkpt lat="42.52089" lon="2.0534">
        <ele>1862.5636408035</ele>
        <time>2001-05-23T16:49:23.482</time>
      </trkpt>
      <trkpt lat="42.52089" lon="2.0534">
        <ele>1862.6048579201</ele>
        <time>2001-05-23T16:49:24.482</time>
      </trkpt>
      <trkpt lat="42.52089" lon="2.05342">
        <ele>1862.5633337276</ele>
        <time>2001-05-23T16:49:25.482</time>
      </trkpt>
      <trkpt lat="42.52088" lon="2.05342">
        <ele>1862.1579290517</ele>
        <time>2001-05-23T16:49:26.484</time>
      </trkpt>
      <trkpt lat="42.52088" lon="2.05343">
        <ele>1861.8806778738</ele>
        <time>2001-05-23T16:49:27.484</time>
      </trkpt>
      <trkpt lat="42.52088" lon="2.05345">
        <ele>1861.5463414766</ele>
        <time>2001-05-23T16:49:28.484</time>
      </trkpt>
      <trkpt lat="42.52087" lon="2.05347">
        <ele>1861.0299766742</ele>
        <time>2001-05-23T16:49:29.484</time>
      </trkpt>
      <trkpt lat="42.52086" lon="2.05349">
        <ele>1860.7728774523</ele>
        <time>2001-05-23T16:49:30.484</time>
      </trkpt>
      <trkpt lat="42.52085" lon="2.0535">
        <ele>1860.8193278002</ele>
        <time>2001-05-23T16:49:31.484</time>
      </trkpt>
      <trkpt lat="42.52083" lon="2.05352">
        <ele>1860.8162912225</ele>
        <time>2001-05-23T16:49:32.484</time>
      </trkpt>
      <trkpt lat="42.52084" lon="2.05353">
        <ele>1860.9767715257</ele>
        <time>2001-05-23T16:49:33.484</time>
      </trkpt>
      <trkpt lat="42.52083" lon="2.05354">
        <ele>1861.3004100608</ele>
        <time>2001-05-23T16:49:34.484</time>
      </trkpt>
      <trkpt lat="42.52083" lon="2.05355">
        <ele>1861.2519134596</ele>
        <time>2001-05-23T16:49:35.484</time>
      </trkpt>
      <trkpt lat="42.52082" lon="2.05356">
        <ele>1861.1960008413</ele>
        <time>2001-05-23T16:49:36.484</time>
      </trkpt>
      <trkpt lat="42.52082" lon="2.05357">
        <ele>1861.2655144511</ele>
        <time>2001-05-23T16:49:37.484</time>
      </trkpt>
      <trkpt lat="42.52081" lon="2.05358">
        <ele>1861.411018052</ele>
        <time>2001-05-23T16:49:38.484</time>
      </trkpt>
      <trkpt lat="42.52081" lon="2.05359">
        <ele>1861.6122350661</ele>
        <time>2001-05-23T16:49:39.484</time>
      </trkpt>
      <trkpt lat="42.5208" lon="2.0536">
        <ele>1862.1428493978</ele>
        <time>2001-05-23T16:49:40.484</time>
      </trkpt>
      <trkpt lat="42.5208" lon="2.05362">
        <ele>1862.6584878221</ele>
        <time>2001-05-23T16:49:41.484</time>
      </trkpt>
      <trkpt lat="42.52079" lon="2.05362">
        <ele>1863.2239796394</ele>
        <time>2001-05-23T16:49:42.484</time>
      </trkpt>
      <trkpt lat="42.52078" lon="2.05364">
        <ele>1863.7650311105</ele>
        <time>2001-05-23T16:49:43.484</time>
      </trkpt>
      <trkpt lat="42.52077" lon="2.05365">
        <ele>1864.1085764296</ele>
        <time>2001-05-23T16:49:44.484</time>
      </trkpt>
      <trkpt lat="42.52076" lon="2.05367">
        <ele>1863.8091105914</ele>
        <time>2001-05-23T16:49:45.484</time>
      </trkpt>
      <trkpt lat="42.52075" lon="2.05368">
        <ele>1863.2129191075</ele>
        <time>2001-05-23T16:49:46.484</time>
      </trkpt>
      <trkpt lat="42.52074" lon="2.05368">
        <ele>1862.5726159258</ele>
        <time>2001-05-23T16:49:47.484</time>
      </trkpt>
      <trkpt lat="42.52074" lon="2.05369">
        <ele>1862.0338367186</ele>
        <time>2001-05-23T16:49:48.484</time>
      </trkpt>
      <trkpt lat="42.52073" lon="2.05369">
        <ele>1861.7837699492</ele>
        <time>2001-05-23T16:49:49.484</time>
      </trkpt>
      <trkpt lat="42.52072" lon="2.05371">
        <ele>1861.961850512</ele>
        <time>2001-05-23T16:49:50.484</time>
      </trkpt>
      <trkpt lat="42.52071" lon="2.05372">
        <ele>1862.2496249758</ele>
        <time>2001-05-23T16:49:51.484</time>
      </trkpt>
      <trkpt lat="42.5207" lon="2.05374">
        <ele>1862.2294765495</ele>
        <time>2001-05-23T16:49:52.484</time>
      </trkpt>
      <trkpt lat="42.52069" lon="2.05375">
        <ele>1862.084486478</ele>
        <time>2001-05-23T16:49:53.484</time>
      </trkpt>
      <trkpt lat="42.52068" lon="2.05377">
        <ele>1861.7791081576</ele>
        <time>2001-05-23T16:49:54.484</time>
      </trkpt>
      <trkpt lat="42.52067" lon="2.05378">
        <ele>1861.7050116401</ele>
        <time>2001-05-23T16:49:55.484</time>
      </trkpt>
      <trkpt lat="42.52066" lon="2.05379">
        <ele>1861.8361642277</ele>
        <time>2001-05-23T16:49:56.484</time>
      </trkpt>
      <trkpt lat="42.52065" lon="2.05379">
        <ele>1861.9396634625</ele>
        <time>2001-05-23T16:49:57.484</time>
      </trkpt>
      <trkpt lat="42.52064" lon="2.0538">
        <ele>1861.7785753274</ele>
        <time>2001-05-23T16:49:58.484</time>
      </trkpt>
      <trkpt lat="42.52063" lon="2.0538">
        <ele>1861.8628872892</ele>
        <time>2001-05-23T16:49:59.484</time>
      </trkpt>
      <trkpt lat="42.52062" lon="2.0538">
        <ele>1862.0342429243</ele>
        <time>2001-05-23T16:50:00.484</time>
      </trkpt>
      <trkpt lat="42.52061" lon="2.05381">
        <ele>1862.0830167603</ele>
        <time>2001-05-23T16:50:01.484</time>
      </trkpt>
      <trkpt lat="42.5206" lon="2.05382">
        <ele>1862.4498796074</ele>
        <time>2001-05-23T16:50:02.484</time>
      </trkpt>
      <trkpt lat="42.52059" lon="2.05383">
        <ele>1862.7689108592</ele>
        <time>2001-05-23T16:50:03.484</time>
      </trkpt>
      <trkpt lat="42.52058" lon="2.05384">
        <ele>1862.8553378258</ele>
        <time>2001-05-23T16:50:04.484</time>
      </trkpt>
      <trkpt lat="42.52058" lon="2.05387">
        <ele>1862.4683178643</ele>
        <time>2001-05-23T16:50:05.484</time>
      </trkpt>
      <trkpt lat="42.52058" lon="2.05388">
        <ele>1861.866706826</ele>
        <time>2001-05-23T16:50:06.484</time>
      </trkpt>
      <trkpt lat="42.52057" lon="2.0539">
        <ele>1861.2238592375</ele>
        <time>2001-05-23T16:50:07.484</time>
      </trkpt>
      <trkpt lat="42.52056" lon="2.0539">
        <ele>1860.8400818789</ele>
        <time>2001-05-23T16:50:08.484</time>
      </trkpt>
      <trkpt lat="42.52056" lon="2.05391">
        <ele>1859.9592185523</ele>
        <time>2001-05-23T16:50:09.484</time>
      </trkpt>
      <trkpt lat="42.52056" lon="2.05392">
        <ele>1859.1460033583</ele>
        <time>2001-05-23T16:50:10.484</time>
      </trkpt>
      <trkpt lat="42.52055" lon="2.05392">
        <ele>1858.5299529165</ele>
        <time>2001-05-23T16:50:11.484</time>
      </trkpt>
      <trkpt lat="42.52057" lon="2.05394">
        <ele>1857.8552832741</ele>
        <time>2001-05-23T16:50:12.484</time>
      </trkpt>
      <trkpt lat="42.52057" lon="2.05394">
        <ele>1857.1385533031</ele>
        <time>2001-05-23T16:50:13.484</time>
      </trkpt>
      <trkpt lat="42.52058" lon="2.05395">
        <ele>1857.0349218722</ele>
        <time>2001-05-23T16:50:14.484</time>
      </trkpt>
      <trkpt lat="42.52058" lon="2.05395">
        <ele>1857.0514939835</ele>
        <time>2001-05-23T16:50:15.484</time>
      </trkpt>
      <trkpt lat="42.52056" lon="2.05396">
        <ele>1857.176815269</ele>
        <time>2001-05-23T16:50:16.483</time>
      </trkpt>
      <trkpt lat="42.52054" lon="2.05397">
        <ele>1857.1869360467</ele>
        <time>2001-05-23T16:50:17.483</time>
      </trkpt>
      <trkpt lat="42.52054" lon="2.05399">
        <ele>1857.2072492355</ele>
        <time>2001-05-23T16:50:18.483</time>
      </trkpt>
      <trkpt lat="42.52053" lon="2.054">
        <ele>1857.2681672189</ele>
        <time>2001-05-23T16:50:19.483</time>
      </trkpt>
      <trkpt lat="42.52052" lon="2.05401">
        <ele>1857.618693977</ele>
        <time>2001-05-23T16:50:20.483</time>
      </trkpt>
      <trkpt lat="42.52052" lon="2.05401">
        <ele>1858.1726653339</ele>
        <time>2001-05-23T16:50:21.483</time>
      </trkpt>
      <trkpt lat="42.52051" lon="2.05402">
        <ele>1858.9778613849</ele>
        <time>2001-05-23T16:50:22.483</time>
      </trkpt>
      <trkpt lat="42.5205" lon="2.05403">
        <ele>1859.8373105798</ele>
        <time>2001-05-23T16:50:23.483</time>
      </trkpt>
      <trkpt lat="42.52049" lon="2.05404">
        <ele>1860.5032330362</ele>
        <time>2001-05-23T16:50:24.483</time>
      </trkpt>
      <trkpt lat="42.52048" lon="2.05405">
        <ele>1860.6771898158</ele>
        <time>2001-05-23T16:50:25.483</time>
      </trkpt>
      <trkpt lat="42.52047" lon="2.05406">
        <ele>1860.5204556417</ele>
        <time>2001-05-23T16:50:26.483</time>
      </trkpt>
      <trkpt lat="42.52046" lon="2.05408">
        <ele>1860.2383285666</ele>
        <time>2001-05-23T16:50:27.483</time>
      </trkpt>
      <trkpt lat="42.52045" lon="2.05409">
        <ele>1859.9852471245</ele>
        <time>2001-05-23T16:50:28.483</time>
      </trkpt>
      <trkpt lat="42.52044" lon="2.0541">
        <ele>1859.7644900955</ele>
        <time>2001-05-23T16:50:29.483</time>
      </trkpt>
      <trkpt lat="42.52044" lon="2.05411">
        <ele>1859.6867856784</ele>
        <time>2001-05-23T16:50:30.483</time>
      </trkpt>
      <trkpt lat="42.52043" lon="2.05411">
        <ele>1859.6289083574</ele>
        <time>2001-05-23T16:50:31.483</time>
      </trkpt>
      <trkpt lat="42.52042" lon="2.05412">
        <ele>1859.5511739096</ele>
        <time>2001-05-23T16:50:32.483</time>
      </trkpt>
      <trkpt lat="42.52041" lon="2.05412">
        <ele>1859.528124167</ele>
        <time>2001-05-23T16:50:33.483</time>
      </trkpt>
      <trkpt lat="42.52039" lon="2.05413">
        <ele>1859.6474872744</ele>
        <time>2001-05-23T16:50:34.483</time>
      </trkpt>
      <trkpt lat="42.52038" lon="2.05414">
        <ele>1859.9044505479</ele>
        <time>2001-05-23T16:50:35.483</time>
      </trkpt>
      <trkpt lat="42.52037" lon="2.05415">
        <ele>1860.094950659</ele>
        <time>2001-05-23T16:50:36.483</time>
      </trkpt>
      <trkpt lat="42.52036" lon="2.05415">
        <ele>1860.1914753607</ele>
        <time>2001-05-23T16:50:37.483</time>
      </trkpt>
      <trkpt lat="42.52036" lon="2.05416">
        <ele>1860.4322607925</ele>
        <time>2001-05-23T16:50:38.483</time>
      </trkpt>
      <trkpt lat="42.52035" lon="2.05417">
        <ele>1860.650672736</ele>
        <time>2001-05-23T16:50:39.483</time>
      </trkpt>
      <trkpt lat="42.52034" lon="2.05417">
        <ele>1860.8322615905</ele>
        <time>2001-05-23T16:50:40.483</time>
      </trkpt>
      <trkpt lat="42.52033" lon="2.05419">
        <ele>1860.9970344946</ele>
        <time>2001-05-23T16:50:41.483</time>
      </trkpt>
      <trkpt lat="42.52031" lon="2.0542">
        <ele>1861.5300512686</ele>
        <time>2001-05-23T16:50:42.483</time>
      </trkpt>
      <trkpt lat="42.52031" lon="2.05421">
        <ele>1861.6409442822</ele>
        <time>2001-05-23T16:50:43.483</time>
      </trkpt>
      <trkpt lat="42.5203" lon="2.05421">
        <ele>1861.7342101375</ele>
        <time>2001-05-23T16:50:44.483</time>
      </trkpt>
      <trkpt lat="42.52028" lon="2.05422">
        <ele>1861.7796407042</ele>
        <time>2001-05-23T16:50:45.483</time>
      </trkpt>
      <trkpt lat="42.52027" lon="2.05423">
        <ele>1861.9246783229</ele>
        <time>2001-05-23T16:50:46.483</time>
      </trkpt>
      <trkpt lat="42.52027" lon="2.05423">
        <ele>1861.7966971288</ele>
        <time>2001-05-23T16:50:47.483</time>
      </trkpt>
      <trkpt lat="42.52026" lon="2.05425">
        <ele>1861.6969694877</ele>
        <time>2001-05-23T16:50:48.483</time>
      </trkpt>
      <trkpt lat="42.52025" lon="2.05428">
        <ele>1861.1461499427</ele>
        <time>2001-05-23T16:50:49.483</time>
      </trkpt>
      <trkpt lat="42.52023" lon="2.05429">
        <ele>1860.4582754975</ele>
        <time>2001-05-23T16:50:50.483</time>
      </trkpt>
      <trkpt lat="42.52022" lon="2.05431">
        <ele>1859.7100551018</ele>
        <time>2001-05-23T16:50:51.483</time>
      </trkpt>
      <trkpt lat="42.52022" lon="2.05432">
        <ele>1859.0425290771</ele>
        <time>2001-05-23T16:50:52.483</time>
      </trkpt>
      <trkpt lat="42.52021" lon="2.05434">
        <ele>1858.4467196645</ele>
        <time>2001-05-23T16:50:53.483</time>
      </trkpt>
      <trkpt lat="42.5202" lon="2.05434">
        <ele>1858.130169948</ele>
        <time>2001-05-23T16:50:54.483</time>
      </trkpt>
      <trkpt lat="42.5202" lon="2.05436">
        <ele>1857.9926814873</ele>
        <time>2001-05-23T16:50:55.483</time>
      </trkpt>
      <trkpt lat="42.52019" lon="2.05437">
        <ele>1858.1153323103</ele>
        <time>2001-05-23T16:50:56.483</time>
      </trkpt>
      <trkpt lat="42.52019" lon="2.05438">
        <ele>1858.498234904</ele>
        <time>2001-05-23T16:50:57.483</time>
      </trkpt>
      <trkpt lat="42.52018" lon="2.05439">
        <ele>1858.9486607436</ele>
        <time>2001-05-23T16:50:58.483</time>
      </trkpt>
      <trkpt lat="42.52017" lon="2.05439">
        <ele>1859.5097236598</ele>
        <time>2001-05-23T16:50:59.483</time>
      </trkpt>
      <trkpt lat="42.52016" lon="2.05439">
        <ele>1860.1177208297</ele>
        <time>2001-05-23T16:51:00.483</time>
      </trkpt>
      <trkpt lat="42.52015" lon="2.05439">
        <ele>1860.4501330001</ele>
        <time>2001-05-23T16:51:01.483</time>
      </trkpt>
      <trkpt lat="42.52014" lon="2.0544">
        <ele>1860.4399583396</ele>
        <time>2001-05-23T16:51:02.483</time>
      </trkpt>
      <trkpt lat="42.52013" lon="2.05441">
        <ele>1860.4183617922</ele>
        <time>2001-05-23T16:51:03.483</time>
      </trkpt>
      <trkpt lat="42.52013" lon="2.05442">
        <ele>1860.3974316599</ele>
        <time>2001-05-23T16:51:04.483</time>
      </trkpt>
      <trkpt lat="42.52013" lon="2.05444">
        <ele>1860.2039700152</ele>
        <time>2001-05-23T16:51:05.483</time>
      </trkpt>
      <trkpt lat="42.52012" lon="2.05445">
        <ele>1859.9648203006</ele>
        <time>2001-05-23T16:51:06.483</time>
      </trkpt>
      <trkpt lat="42.52012" lon="2.05445">
        <ele>1859.7700288987</ele>
        <time>2001-05-23T16:51:07.483</time>
      </trkpt>
      <trkpt lat="42.52011" lon="2.05446">
        <ele>1859.7183177153</ele>
        <time>2001-05-23T16:51:08.483</time>
      </trkpt>
      <trkpt lat="42.5201" lon="2.05446">
        <ele>1860.0453713713</ele>
        <time>2001-05-23T16:51:09.483</time>
      </trkpt>
      <trkpt lat="42.52009" lon="2.05447">
        <ele>1860.6435926899</ele>
        <time>2001-05-23T16:51:10.483</time>
      </trkpt>
      <trkpt lat="42.52008" lon="2.05447">
        <ele>1861.3577070793</ele>
        <time>2001-05-23T16:51:11.483</time>
      </trkpt>
      <trkpt lat="42.52007" lon="2.05448">
        <ele>1862.0552944303</ele>
        <time>2001-05-23T16:51:12.483</time>
      </trkpt>
      <trkpt lat="42.52006" lon="2.05449">
        <ele>1862.6856523678</ele>
        <time>2001-05-23T16:51:13.483</time>
      </trkpt>
      <trkpt lat="42.52006" lon="2.0545">
        <ele>1863.4227408629</ele>
        <time>2001-05-23T16:51:14.483</time>
      </trkpt>
      <trkpt lat="42.52005" lon="2.05451">
        <ele>1863.8646416543</ele>
        <time>2001-05-23T16:51:15.483</time>
      </trkpt>
      <trkpt lat="42.52005" lon="2.05451">
        <ele>1864.206672564</ele>
        <time>2001-05-23T16:51:16.483</time>
      </trkpt>
      <trkpt lat="42.52005" lon="2.05454">
        <ele>1864.675063817</ele>
        <time>2001-05-23T16:51:17.483</time>
      </trkpt>
      <trkpt lat="42.52003" lon="2.05455">
        <ele>1864.8751544673</ele>
        <time>2001-05-23T16:51:18.483</time>
      </trkpt>
      <trkpt lat="42.52002" lon="2.05457">
        <ele>1864.5411336998</ele>
        <time>2001-05-23T16:51:19.483</time>
      </trkpt>
      <trkpt lat="42.52002" lon="2.05457">
        <ele>1864.4148706149</ele>
        <time>2001-05-23T16:51:20.483</time>
      </trkpt>
      <trkpt lat="42.52" lon="2.05457">
        <ele>1864.238297927</ele>
        <time>2001-05-23T16:51:21.483</time>
      </trkpt>
      <trkpt lat="42.51999" lon="2.05458">
        <ele>1863.9298024066</ele>
        <time>2001-05-23T16:51:22.483</time>
      </trkpt>
      <trkpt lat="42.51998" lon="2.05459">
        <ele>1863.7215506461</ele>
        <time>2001-05-23T16:51:23.483</time>
      </trkpt>
      <trkpt lat="42.51998" lon="2.0546">
        <ele>1863.3125153651</ele>
        <time>2001-05-23T16:51:24.483</time>
      </trkpt>
      <trkpt lat="42.51998" lon="2.05461">
        <ele>1862.6519283744</ele>
        <time>2001-05-23T16:51:25.483</time>
      </trkpt>
      <trkpt lat="42.51997" lon="2.05462">
        <ele>1862.2415553544</ele>
        <time>2001-05-23T16:51:26.483</time>
      </trkpt>
      <trkpt lat="42.51996" lon="2.05462">
        <ele>1862.0755853748</ele>
        <time>2001-05-23T16:51:27.483</time>
      </trkpt>
      <trkpt lat="42.51995" lon="2.05463">
        <ele>1862.2171441253</ele>
        <time>2001-05-23T16:51:28.483</time>
      </trkpt>
      <trkpt lat="42.51994" lon="2.05464">
        <ele>1862.6852391979</ele>
        <time>2001-05-23T16:51:29.483</time>
      </trkpt>
      <trkpt lat="42.51993" lon="2.05465">
        <ele>1862.8093035463</ele>
        <time>2001-05-23T16:51:30.483</time>
      </trkpt>
      <trkpt lat="42.51991" lon="2.05467">
        <ele>1862.2616748631</ele>
        <time>2001-05-23T16:51:31.483</time>
      </trkpt>
      <trkpt lat="42.51989" lon="2.05469">
        <ele>1861.3184322301</ele>
        <time>2001-05-23T16:51:32.483</time>
      </trkpt>
      <trkpt lat="42.51988" lon="2.05469">
        <ele>1860.1862496955</ele>
        <time>2001-05-23T16:51:33.483</time>
      </trkpt>
      <trkpt lat="42.51987" lon="2.0547">
        <ele>1858.8765935723</ele>
        <time>2001-05-23T16:51:34.483</time>
      </trkpt>
      <trkpt lat="42.51986" lon="2.0547">
        <ele>1858.0442932235</ele>
        <time>2001-05-23T16:51:35.483</time>
      </trkpt>
      <trkpt lat="42.51985" lon="2.05472">
        <ele>1857.5873930579</ele>
        <time>2001-05-23T16:51:36.483</time>
      </trkpt>
      <trkpt lat="42.51984" lon="2.05473">
        <ele>1857.2456395078</ele>
        <time>2001-05-23T16:51:37.483</time>
      </trkpt>
      <trkpt lat="42.51983" lon="2.05474">
        <ele>1856.703087209</ele>
        <time>2001-05-23T16:51:38.483</time>
      </trkpt>
      <trkpt lat="42.51982" lon="2.05474">
        <ele>1856.4608630843</ele>
        <time>2001-05-23T16:51:39.483</time>
      </trkpt>
      <trkpt lat="42.5198" lon="2.05476">
        <ele>1855.9116815809</ele>
        <time>2001-05-23T16:51:40.483</time>
      </trkpt>
      <trkpt lat="42.51979" lon="2.05478">
        <ele>1855.2853147957</ele>
        <time>2001-05-23T16:51:41.483</time>
      </trkpt>
      <trkpt lat="42.51979" lon="2.05478">
        <ele>1854.7594307777</ele>
        <time>2001-05-23T16:51:42.483</time>
      </trkpt>
      <trkpt lat="42.51979" lon="2.05479">
        <ele>1854.6451215109</ele>
        <time>2001-05-23T16:51:43.483</time>
      </trkpt>
      <trkpt lat="42.51978" lon="2.0548">
        <ele>1854.4914956404</ele>
        <time>2001-05-23T16:51:44.483</time>
      </trkpt>
      <trkpt lat="42.51978" lon="2.0548">
        <ele>1854.8461892128</ele>
        <time>2001-05-23T16:51:45.483</time>
      </trkpt>
      <trkpt lat="42.51976" lon="2.05481">
        <ele>1856.1721472651</ele>
        <time>2001-05-23T16:51:46.483</time>
      </trkpt>
      <trkpt lat="42.51975" lon="2.05482">
        <ele>1857.5040607722</ele>
        <time>2001-05-23T16:51:47.483</time>
      </trkpt>
      <trkpt lat="42.51975" lon="2.05483">
        <ele>1858.4478267023</ele>
        <time>2001-05-23T16:51:48.483</time>
      </trkpt>
      <trkpt lat="42.51974" lon="2.05484">
        <ele>1859.2120362569</ele>
        <time>2001-05-23T16:51:49.483</time>
      </trkpt>
      <trkpt lat="42.51973" lon="2.05484">
        <ele>1859.884547345</ele>
        <time>2001-05-23T16:51:50.483</time>
      </trkpt>
      <trkpt lat="42.51973" lon="2.05485">
        <ele>1859.6320392862</ele>
        <time>2001-05-23T16:51:51.483</time>
      </trkpt>
      <trkpt lat="42.51972" lon="2.05486">
        <ele>1859.1387108203</ele>
        <time>2001-05-23T16:51:52.483</time>
      </trkpt>
      <trkpt lat="42.51972" lon="2.05486">
        <ele>1858.9492190706</ele>
        <time>2001-05-23T16:51:53.483</time>
      </trkpt>
      <trkpt lat="42.51973" lon="2.05485">
        <ele>1858.9515937591</ele>
        <time>2001-05-23T16:51:54.484</time>
      </trkpt>
      <trkpt lat="42.51973" lon="2.05485">
        <ele>1858.8687472725</ele>
        <time>2001-05-23T16:51:55.484</time>
      </trkpt>
      <trkpt lat="42.51972" lon="2.05486">
        <ele>1859.0347461836</ele>
        <time>2001-05-23T16:51:56.484</time>
      </trkpt>
      <trkpt lat="42.51971" lon="2.05486">
        <ele>1859.410422747</ele>
        <time>2001-05-23T16:51:57.484</time>
      </trkpt>
      <trkpt lat="42.51971" lon="2.05487">
        <ele>1859.5070971651</ele>
        <time>2001-05-23T16:51:58.484</time>
      </trkpt>
      <trkpt lat="42.51971" lon="2.05487">
        <ele>1859.4130311409</ele>
        <time>2001-05-23T16:51:59.484</time>
      </trkpt>
      <trkpt lat="42.5197" lon="2.05488">
        <ele>1859.1581197053</ele>
        <time>2001-05-23T16:52:00.486</time>
      </trkpt>
      <trkpt lat="42.5197" lon="2.05489">
        <ele>1858.7715651259</ele>
        <time>2001-05-23T16:52:01.486</time>
      </trkpt>
      <trkpt lat="42.51968" lon="2.0549">
        <ele>1858.1639819162</ele>
        <time>2001-05-23T16:52:02.486</time>
      </trkpt>
      <trkpt lat="42.51968" lon="2.05492">
        <ele>1857.5932573032</ele>
        <time>2001-05-23T16:52:03.486</time>
      </trkpt>
      <trkpt lat="42.51967" lon="2.05492">
        <ele>1857.0540025167</ele>
        <time>2001-05-23T16:52:04.486</time>
      </trkpt>
      <trkpt lat="42.51966" lon="2.05493">
        <ele>1856.7215254935</ele>
        <time>2001-05-23T16:52:05.486</time>
      </trkpt>
      <trkpt lat="42.51965" lon="2.05494">
        <ele>1856.5206833268</ele>
        <time>2001-05-23T16:52:06.486</time>
      </trkpt>
      <trkpt lat="42.51964" lon="2.05494">
        <ele>1856.6302322632</ele>
        <time>2001-05-23T16:52:07.486</time>
      </trkpt>
      <trkpt lat="42.51963" lon="2.05494">
        <ele>1857.2175484525</ele>
        <time>2001-05-23T16:52:08.486</time>
      </trkpt>
      <trkpt lat="42.51962" lon="2.05494">
        <ele>1857.8373291638</ele>
        <time>2001-05-23T16:52:09.486</time>
      </trkpt>
      <trkpt lat="42.51959" lon="2.05495">
        <ele>1858.5789504416</ele>
        <time>2001-05-23T16:52:10.486</time>
      </trkpt>
      <trkpt lat="42.51958" lon="2.05496">
        <ele>1859.5147030225</ele>
        <time>2001-05-23T16:52:11.486</time>
      </trkpt>
      <trkpt lat="42.51958" lon="2.05496">
        <ele>1860.3885356715</ele>
        <time>2001-05-23T16:52:12.486</time>
      </trkpt>
      <trkpt lat="42.51957" lon="2.05497">
        <ele>1860.6899046903</ele>
        <time>2001-05-23T16:52:13.486</time>
      </trkpt>
      <trkpt lat="42.51956" lon="2.05497">
        <ele>1861.0310246589</ele>
        <time>2001-05-23T16:52:14.486</time>
      </trkpt>
      <trkpt lat="42.51955" lon="2.05498">
        <ele>1860.8571584746</ele>
        <time>2001-05-23T16:52:15.486</time>
      </trkpt>
      <trkpt lat="42.51955" lon="2.05499">
        <ele>1860.3584944861</ele>
        <time>2001-05-23T16:52:16.486</time>
      </trkpt>
      <trkpt lat="42.51954" lon="2.05499">
        <ele>1859.5866058048</ele>
        <time>2001-05-23T16:52:17.486</time>
      </trkpt>
      <trkpt lat="42.51953" lon="2.055">
        <ele>1859.2894605888</ele>
        <time>2001-05-23T16:52:18.485</time>
      </trkpt>
      <trkpt lat="42.51951" lon="2.05501">
        <ele>1858.8781309001</ele>
        <time>2001-05-23T16:52:19.485</time>
      </trkpt>
      <trkpt lat="42.5195" lon="2.05502">
        <ele>1858.8116635947</ele>
        <time>2001-05-23T16:52:20.485</time>
      </trkpt>
      <trkpt lat="42.51949" lon="2.05503">
        <ele>1858.820094618</ele>
        <time>2001-05-23T16:52:21.485</time>
      </trkpt>
      <trkpt lat="42.51949" lon="2.05504">
        <ele>1858.9898577344</ele>
        <time>2001-05-23T16:52:22.485</time>
      </trkpt>
      <trkpt lat="42.51948" lon="2.05504">
        <ele>1858.9277362129</ele>
        <time>2001-05-23T16:52:23.485</time>
      </trkpt>
      <trkpt lat="42.51946" lon="2.05505">
        <ele>1858.8990936505</ele>
        <time>2001-05-23T16:52:24.485</time>
      </trkpt>
      <trkpt lat="42.51945" lon="2.05505">
        <ele>1858.9710490376</ele>
        <time>2001-05-23T16:52:25.485</time>
      </trkpt>
      <trkpt lat="42.51943" lon="2.05504">
        <ele>1859.3736070061</ele>
        <time>2001-05-23T16:52:26.485</time>
      </trkpt>
      <trkpt lat="42.51942" lon="2.05503">
        <ele>1859.9797796946</ele>
        <time>2001-05-23T16:52:27.485</time>
      </trkpt>
      <trkpt lat="42.51941" lon="2.05504">
        <ele>1860.6606692694</ele>
        <time>2001-05-23T16:52:28.485</time>
      </trkpt>
      <trkpt lat="42.5194" lon="2.05504">
        <ele>1861.3378980828</ele>
        <time>2001-05-23T16:52:29.485</time>
      </trkpt>
      <trkpt lat="42.5194" lon="2.05505">
        <ele>1861.9379171148</ele>
        <time>2001-05-23T16:52:30.485</time>
      </trkpt>
      <trkpt lat="42.51939" lon="2.05505">
        <ele>1862.1431441735</ele>
        <time>2001-05-23T16:52:31.485</time>
      </trkpt>
      <trkpt lat="42.51938" lon="2.05507">
        <ele>1862.1731977846</ele>
        <time>2001-05-23T16:52:32.485</time>
      </trkpt>
      <trkpt lat="42.51937" lon="2.05508">
        <ele>1861.9258407604</ele>
        <time>2001-05-23T16:52:33.485</time>
      </trkpt>
      <trkpt lat="42.51937" lon="2.0551">
        <ele>1861.3485254286</ele>
        <time>2001-05-23T16:52:34.485</time>
      </trkpt>
      <trkpt lat="42.51936" lon="2.05511">
        <ele>1860.6030525338</ele>
        <time>2001-05-23T16:52:35.485</time>
      </trkpt>
      <trkpt lat="42.51936" lon="2.05511">
        <ele>1859.9637950299</ele>
        <time>2001-05-23T16:52:36.485</time>
      </trkpt>
      <trkpt lat="42.51936" lon="2.05512">
        <ele>1859.3443146238</ele>
        <time>2001-05-23T16:52:37.485</time>
      </trkpt>
      <trkpt lat="42.51934" lon="2.05511">
        <ele>1859.1782767979</ele>
        <time>2001-05-23T16:52:38.485</time>
      </trkpt>
      <trkpt lat="42.51933" lon="2.05513">
        <ele>1859.3485328207</ele>
        <time>2001-05-23T16:52:39.485</time>
      </trkpt>
      <trkpt lat="42.51932" lon="2.05514">
        <ele>1859.6232574137</ele>
        <time>2001-05-23T16:52:40.485</time>
      </trkpt>
      <trkpt lat="42.51932" lon="2.05515">
        <ele>1859.8405966273</ele>
        <time>2001-05-23T16:52:41.485</time>
      </trkpt>
      <trkpt lat="42.51932" lon="2.05517">
        <ele>1860.0367248256</ele>
        <time>2001-05-23T16:52:42.485</time>
      </trkpt>
      <trkpt lat="42.51932" lon="2.05518">
        <ele>1859.8939665593</ele>
        <time>2001-05-23T16:52:43.485</time>
      </trkpt>
      <trkpt lat="42.51932" lon="2.0552">
        <ele>1859.6954555428</ele>
        <time>2001-05-23T16:52:44.485</time>
      </trkpt>
      <trkpt lat="42.51931" lon="2.05522">
        <ele>1859.5357802778</ele>
        <time>2001-05-23T16:52:45.485</time>
      </trkpt>
      <trkpt lat="42.51931" lon="2.05524">
        <ele>1859.5898922052</ele>
        <time>2001-05-23T16:52:46.485</time>
      </trkpt>
      <trkpt lat="42.51931" lon="2.05525">
        <ele>1859.7909960674</ele>
        <time>2001-05-23T16:52:47.485</time>
      </trkpt>
      <trkpt lat="42.51931" lon="2.05526">
        <ele>1860.1225841029</ele>
        <time>2001-05-23T16:52:48.485</time>
      </trkpt>
      <trkpt lat="42.5193" lon="2.05526">
        <ele>1860.7097359542</ele>
        <time>2001-05-23T16:52:49.485</time>
      </trkpt>
      <trkpt lat="42.5193" lon="2.05527">
        <ele>1861.4675201647</ele>
        <time>2001-05-23T16:52:50.485</time>
      </trkpt>
      <trkpt lat="42.51929" lon="2.05528">
        <ele>1862.0314754188</ele>
        <time>2001-05-23T16:52:51.485</time>
      </trkpt>
      <trkpt lat="42.51929" lon="2.0553">
        <ele>1862.0648581723</ele>
        <time>2001-05-23T16:52:52.485</time>
      </trkpt>
      <trkpt lat="42.51928" lon="2.05531">
        <ele>1861.9073269119</ele>
        <time>2001-05-23T16:52:53.485</time>
      </trkpt>
      <trkpt lat="42.51927" lon="2.05532">
        <ele>1861.5091174757</ele>
        <time>2001-05-23T16:52:54.485</time>
      </trkpt>
      <trkpt lat="42.51926" lon="2.05534">
        <ele>1861.0613466416</ele>
        <time>2001-05-23T16:52:55.485</time>
      </trkpt>
      <trkpt lat="42.51925" lon="2.05535">
        <ele>1860.5334576784</ele>
        <time>2001-05-23T16:52:56.485</time>
      </trkpt>
      <trkpt lat="42.51925" lon="2.05536">
        <ele>1860.453207648</ele>
        <time>2001-05-23T16:52:57.485</time>
      </trkpt>
      <trkpt lat="42.51924" lon="2.05537">
        <ele>1860.3799543176</ele>
        <time>2001-05-23T16:52:58.485</time>
      </trkpt>
      <trkpt lat="42.51923" lon="2.05539">
        <ele>1860.2678601757</ele>
        <time>2001-05-23T16:52:59.485</time>
      </trkpt>
      <trkpt lat="42.51923" lon="2.0554">
        <ele>1860.0890179373</ele>
        <time>2001-05-23T16:53:00.485</time>
      </trkpt>
      <trkpt lat="42.51921" lon="2.05541">
        <ele>1860.1205468735</ele>
        <time>2001-05-23T16:53:01.485</time>
      </trkpt>
      <trkpt lat="42.51919" lon="2.05543">
        <ele>1859.7477479467</ele>
        <time>2001-05-23T16:53:02.485</time>
      </trkpt>
      <trkpt lat="42.51919" lon="2.05544">
        <ele>1859.1327605532</ele>
        <time>2001-05-23T16:53:03.485</time>
      </trkpt>
      <trkpt lat="42.51917" lon="2.05545">
        <ele>1858.7231201997</ele>
        <time>2001-05-23T16:53:04.485</time>
      </trkpt>
      <trkpt lat="42.51916" lon="2.05546">
        <ele>1858.2196870286</ele>
        <time>2001-05-23T16:53:05.485</time>
      </trkpt>
      <trkpt lat="42.51915" lon="2.05548">
        <ele>1857.6125233574</ele>
        <time>2001-05-23T16:53:06.485</time>
      </trkpt>
      <trkpt lat="42.51915" lon="2.05549">
        <ele>1857.4153758811</ele>
        <time>2001-05-23T16:53:07.485</time>
      </trkpt>
      <trkpt lat="42.51915" lon="2.0555">
        <ele>1857.5118929373</ele>
        <time>2001-05-23T16:53:08.485</time>
      </trkpt>
      <trkpt lat="42.51915" lon="2.05551">
        <ele>1857.3743170515</ele>
        <time>2001-05-23T16:53:09.485</time>
      </trkpt>
      <trkpt lat="42.51916" lon="2.05552">
        <ele>1857.2371873286</ele>
        <time>2001-05-23T16:53:10.485</time>
      </trkpt>
      <trkpt lat="42.51916" lon="2.05553">
        <ele>1857.1159637531</ele>
        <time>2001-05-23T16:53:11.485</time>
      </trkpt>
      <trkpt lat="42.51918" lon="2.05556">
        <ele>1856.81716932</ele>
        <time>2001-05-23T16:53:12.485</time>
      </trkpt>
      <trkpt lat="42.51918" lon="2.05558">
        <ele>1856.6024140777</ele>
        <time>2001-05-23T16:53:13.485</time>
      </trkpt>
      <trkpt lat="42.51919" lon="2.05559">
        <ele>1856.561421294</ele>
        <time>2001-05-23T16:53:14.485</time>
      </trkpt>
      <trkpt lat="42.51919" lon="2.05561">
        <ele>1856.5799918752</ele>
        <time>2001-05-23T16:53:15.485</time>
      </trkpt>
      <trkpt lat="42.51919" lon="2.05562">
        <ele>1856.8270296494</ele>
        <time>2001-05-23T16:53:16.485</time>
      </trkpt>
      <trkpt lat="42.51919" lon="2.05563">
        <ele>1857.4407350017</ele>
        <time>2001-05-23T16:53:17.485</time>
      </trkpt>
      <trkpt lat="42.51919" lon="2.05565">
        <ele>1858.0492247639</ele>
        <time>2001-05-23T16:53:18.485</time>
      </trkpt>
      <trkpt lat="42.51919" lon="2.05566">
        <ele>1858.350267308</ele>
        <time>2001-05-23T16:53:19.485</time>
      </trkpt>
      <trkpt lat="42.51919" lon="2.05567">
        <ele>1858.5333699761</ele>
        <time>2001-05-23T16:53:20.485</time>
      </trkpt>
      <trkpt lat="42.51919" lon="2.05567">
        <ele>1858.5699425027</ele>
        <time>2001-05-23T16:53:21.485</time>
      </trkpt>
      <trkpt lat="42.51919" lon="2.05568">
        <ele>1858.4963256819</ele>
        <time>2001-05-23T16:53:22.484</time>
      </trkpt>
      <trkpt lat="42.5192" lon="2.05569">
        <ele>1858.4087863848</ele>
        <time>2001-05-23T16:53:23.484</time>
      </trkpt>
      <trkpt lat="42.5192" lon="2.0557">
        <ele>1858.5593075788</ele>
        <time>2001-05-23T16:53:24.484</time>
      </trkpt>
      <trkpt lat="42.51921" lon="2.05571">
        <ele>1858.8338612178</ele>
        <time>2001-05-23T16:53:25.483</time>
      </trkpt>
      <trkpt lat="42.51921" lon="2.05571">
        <ele>1859.005972876</ele>
        <time>2001-05-23T16:53:26.483</time>
      </trkpt>
      <trkpt lat="42.51922" lon="2.05573">
        <ele>1859.0385640126</ele>
        <time>2001-05-23T16:53:27.483</time>
      </trkpt>
      <trkpt lat="42.51922" lon="2.05576">
        <ele>1858.9925913269</ele>
        <time>2001-05-23T16:53:28.483</time>
      </trkpt>
      <trkpt lat="42.51922" lon="2.05578">
        <ele>1858.9283160321</ele>
        <time>2001-05-23T16:53:29.483</time>
      </trkpt>
      <trkpt lat="42.51923" lon="2.0558">
        <ele>1858.7771509254</ele>
        <time>2001-05-23T16:53:30.483</time>
      </trkpt>
      <trkpt lat="42.51923" lon="2.0558">
        <ele>1858.4389396561</ele>
        <time>2001-05-23T16:53:31.483</time>
      </trkpt>
      <trkpt lat="42.51923" lon="2.05581">
        <ele>1857.9298551396</ele>
        <time>2001-05-23T16:53:32.483</time>
      </trkpt>
      <trkpt lat="42.51923" lon="2.05582">
        <ele>1857.3894493148</ele>
        <time>2001-05-23T16:53:33.483</time>
      </trkpt>
      <trkpt lat="42.51924" lon="2.05583">
        <ele>1856.9177229788</ele>
        <time>2001-05-23T16:53:34.483</time>
      </trkpt>
      <trkpt lat="42.51925" lon="2.05584">
        <ele>1856.8215772213</ele>
        <time>2001-05-23T16:53:35.485</time>
      </trkpt>
      <trkpt lat="42.51925" lon="2.05585">
        <ele>1856.9626233365</ele>
        <time>2001-05-23T16:53:36.485</time>
      </trkpt>
      <trkpt lat="42.51926" lon="2.05586">
        <ele>1857.2731668087</ele>
        <time>2001-05-23T16:53:37.485</time>
      </trkpt>
      <trkpt lat="42.51926" lon="2.05588">
        <ele>1857.6346913248</ele>
        <time>2001-05-23T16:53:38.485</time>
      </trkpt>
      <trkpt lat="42.51926" lon="2.0559">
        <ele>1857.8238905527</ele>
        <time>2001-05-23T16:53:39.485</time>
      </trkpt>
      <trkpt lat="42.51927" lon="2.05591">
        <ele>1857.5137916252</ele>
        <time>2001-05-23T16:53:40.485</time>
      </trkpt>
      <trkpt lat="42.51927" lon="2.05593">
        <ele>1857.1395109784</ele>
        <time>2001-05-23T16:53:41.485</time>
      </trkpt>
      <trkpt lat="42.51928" lon="2.05594">
        <ele>1856.7355388716</ele>
        <time>2001-05-23T16:53:42.485</time>
      </trkpt>
      <trkpt lat="42.51929" lon="2.05596">
        <ele>1855.9212330839</ele>
        <time>2001-05-23T16:53:43.485</time>
      </trkpt>
      <trkpt lat="42.51929" lon="2.05597">
        <ele>1855.1844151516</ele>
        <time>2001-05-23T16:53:44.485</time>
      </trkpt>
      <trkpt lat="42.51928" lon="2.05597">
        <ele>1854.6553790545</ele>
        <time>2001-05-23T16:53:45.485</time>
      </trkpt>
      <trkpt lat="42.51928" lon="2.05599">
        <ele>1853.8880911475</ele>
        <time>2001-05-23T16:53:46.485</time>
      </trkpt>
      <trkpt lat="42.51929" lon="2.056">
        <ele>1853.2845080188</ele>
        <time>2001-05-23T16:53:47.485</time>
      </trkpt>
      <trkpt lat="42.51929" lon="2.05602">
        <ele>1853.4270224726</ele>
        <time>2001-05-23T16:53:48.485</time>
      </trkpt>
      <trkpt lat="42.51929" lon="2.05603">
        <ele>1853.8235355187</ele>
        <time>2001-05-23T16:53:49.485</time>
      </trkpt>
      <trkpt lat="42.5193" lon="2.05604">
        <ele>1854.3262303205</ele>
        <time>2001-05-23T16:53:50.485</time>
      </trkpt>
      <trkpt lat="42.5193" lon="2.05605">
        <ele>1855.0886928409</ele>
        <time>2001-05-23T16:53:51.485</time>
      </trkpt>
      <trkpt lat="42.51931" lon="2.05605">
        <ele>1855.9127580078</ele>
        <time>2001-05-23T16:53:52.485</time>
      </trkpt>
      <trkpt lat="42.51931" lon="2.05607">
        <ele>1856.413852598</ele>
        <time>2001-05-23T16:53:53.485</time>
      </trkpt>
      <trkpt lat="42.51931" lon="2.05608">
        <ele>1856.5865019824</ele>
        <time>2001-05-23T16:53:54.485</time>
      </trkpt>
      <trkpt lat="42.51931" lon="2.0561">
        <ele>1856.3902002066</ele>
        <time>2001-05-23T16:53:55.485</time>
      </trkpt>
      <trkpt lat="42.51931" lon="2.05611">
        <ele>1856.2483597295</ele>
        <time>2001-05-23T16:53:56.485</time>
      </trkpt>
      <trkpt lat="42.51931" lon="2.05611">
        <ele>1856.0429085076</ele>
        <time>2001-05-23T16:53:57.485</time>
      </trkpt>
      <trkpt lat="42.51931" lon="2.05613">
        <ele>1855.9060599722</ele>
        <time>2001-05-23T16:53:58.485</time>
      </trkpt>
      <trkpt lat="42.51931" lon="2.05614">
        <ele>1855.9572548028</ele>
        <time>2001-05-23T16:53:59.485</time>
      </trkpt>
      <trkpt lat="42.5193" lon="2.05616">
        <ele>1855.9071927998</ele>
        <time>2001-05-23T16:54:00.485</time>
      </trkpt>
      <trkpt lat="42.5193" lon="2.05617">
        <ele>1855.5750338195</ele>
        <time>2001-05-23T16:54:01.485</time>
      </trkpt>
      <trkpt lat="42.5193" lon="2.05619">
        <ele>1855.109276323</ele>
        <time>2001-05-23T16:54:02.485</time>
      </trkpt>
      <trkpt lat="42.51931" lon="2.05621">
        <ele>1854.5975993821</ele>
        <time>2001-05-23T16:54:03.485</time>
      </trkpt>
      <trkpt lat="42.51931" lon="2.05622">
        <ele>1854.0519163651</ele>
        <time>2001-05-23T16:54:04.485</time>
      </trkpt>
      <trkpt lat="42.51931" lon="2.05623">
        <ele>1853.936093693</ele>
        <time>2001-05-23T16:54:05.485</time>
      </trkpt>
      <trkpt lat="42.51931" lon="2.05624">
        <ele>1853.8131892715</ele>
        <time>2001-05-23T16:54:06.485</time>
      </trkpt>
      <trkpt lat="42.51931" lon="2.05624">
        <ele>1853.8588945428</ele>
        <time>2001-05-23T16:54:07.485</time>
      </trkpt>
      <trkpt lat="42.51931" lon="2.05626">
        <ele>1854.0146863453</ele>
        <time>2001-05-23T16:54:08.485</time>
      </trkpt>
      <trkpt lat="42.51931" lon="2.05628">
        <ele>1854.2164147587</ele>
        <time>2001-05-23T16:54:09.485</time>
      </trkpt>
      <trkpt lat="42.51932" lon="2.05628">
        <ele>1854.4532501595</ele>
        <time>2001-05-23T16:54:10.485</time>
      </trkpt>
      <trkpt lat="42.51932" lon="2.0563">
        <ele>1854.9917700658</ele>
        <time>2001-05-23T16:54:11.485</time>
      </trkpt>
      <trkpt lat="42.51933" lon="2.05631">
        <ele>1855.614005021</ele>
        <time>2001-05-23T16:54:12.485</time>
      </trkpt>
      <trkpt lat="42.51933" lon="2.05633">
        <ele>1856.0106243499</ele>
        <time>2001-05-23T16:54:13.485</time>
      </trkpt>
      <trkpt lat="42.51933" lon="2.05634">
        <ele>1856.3917679545</ele>
        <time>2001-05-23T16:54:14.485</time>
      </trkpt>
      <trkpt lat="42.51933" lon="2.05635">
        <ele>1856.5248350384</ele>
        <time>2001-05-23T16:54:15.485</time>
      </trkpt>
      <trkpt lat="42.51933" lon="2.05637">
        <ele>1856.7489388933</ele>
        <time>2001-05-23T16:54:16.485</time>
      </trkpt>
      <trkpt lat="42.51933" lon="2.05639">
        <ele>1856.8093140021</ele>
        <time>2001-05-23T16:54:17.485</time>
      </trkpt>
      <trkpt lat="42.51934" lon="2.05641">
        <ele>1857.0056822103</ele>
        <time>2001-05-23T16:54:18.485</time>
      </trkpt>
      <trkpt lat="42.51933" lon="2.05642">
        <ele>1857.3124743396</ele>
        <time>2001-05-23T16:54:19.485</time>
      </trkpt>
      <trkpt lat="42.51934" lon="2.05643">
        <ele>1858.138529193</ele>
        <time>2001-05-23T16:54:20.485</time>
      </trkpt>
      <trkpt lat="42.51933" lon="2.05646">
        <ele>1858.7558095381</ele>
        <time>2001-05-23T16:54:21.485</time>
      </trkpt>
      <trkpt lat="42.51933" lon="2.05648">
        <ele>1859.0624678342</ele>
        <time>2001-05-23T16:54:22.485</time>
      </trkpt>
      <trkpt lat="42.51932" lon="2.0565">
        <ele>1859.202785708</ele>
        <time>2001-05-23T16:54:23.485</time>
      </trkpt>
      <trkpt lat="42.51933" lon="2.05651">
        <ele>1859.1178179711</ele>
        <time>2001-05-23T16:54:24.485</time>
      </trkpt>
      <trkpt lat="42.51933" lon="2.05652">
        <ele>1858.7511547692</ele>
        <time>2001-05-23T16:54:25.485</time>
      </trkpt>
      <trkpt lat="42.51933" lon="2.05653">
        <ele>1858.4807413135</ele>
        <time>2001-05-23T16:54:26.485</time>
      </trkpt>
      <trkpt lat="42.51933" lon="2.05655">
        <ele>1858.393908279</ele>
        <time>2001-05-23T16:54:27.485</time>
      </trkpt>
      <trkpt lat="42.51936" lon="2.05655">
        <ele>1858.4651515093</ele>
        <time>2001-05-23T16:54:28.485</time>
      </trkpt>
      <trkpt lat="42.51937" lon="2.05656">
        <ele>1858.2363803873</ele>
        <time>2001-05-23T16:54:29.485</time>
      </trkpt>
      <trkpt lat="42.51937" lon="2.05658">
        <ele>1857.514112532</ele>
        <time>2001-05-23T16:54:30.485</time>
      </trkpt>
      <trkpt lat="42.51937" lon="2.0566">
        <ele>1856.2920807209</ele>
        <time>2001-05-23T16:54:31.485</time>
      </trkpt>
      <trkpt lat="42.51938" lon="2.05661">
        <ele>1855.0910337176</ele>
        <time>2001-05-23T16:54:32.485</time>
      </trkpt>
      <trkpt lat="42.5194" lon="2.05661">
        <ele>1853.9476637704</ele>
        <time>2001-05-23T16:54:33.485</time>
      </trkpt>
      <trkpt lat="42.5194" lon="2.05662">
        <ele>1853.4122521225</ele>
        <time>2001-05-23T16:54:34.485</time>
      </trkpt>
      <trkpt lat="42.5194" lon="2.05662">
        <ele>1853.8396212077</ele>
        <time>2001-05-23T16:54:35.485</time>
      </trkpt>
      <trkpt lat="42.51942" lon="2.05663">
        <ele>1854.7963725097</ele>
        <time>2001-05-23T16:54:36.485</time>
      </trkpt>
      <trkpt lat="42.51942" lon="2.05665">
        <ele>1856.0667515652</ele>
        <time>2001-05-23T16:54:37.485</time>
      </trkpt>
      <trkpt lat="42.51943" lon="2.05666">
        <ele>1857.3552625459</ele>
        <time>2001-05-23T16:54:38.485</time>
      </trkpt>
      <trkpt lat="42.5194" lon="2.05669">
        <ele>1858.5493925679</ele>
        <time>2001-05-23T16:54:39.485</time>
      </trkpt>
      <trkpt lat="42.51937" lon="2.05672">
        <ele>1859.4931452796</ele>
        <time>2001-05-23T16:54:40.485</time>
      </trkpt>
      <trkpt lat="42.51939" lon="2.05673">
        <ele>1860.333922907</ele>
        <time>2001-05-23T16:54:41.485</time>
      </trkpt>
      <trkpt lat="42.5194" lon="2.05673">
        <ele>1861.0402037496</ele>
        <time>2001-05-23T16:54:42.485</time>
      </trkpt>
      <trkpt lat="42.5194" lon="2.05675">
        <ele>1861.3792246612</ele>
        <time>2001-05-23T16:54:43.485</time>
      </trkpt>
      <trkpt lat="42.51942" lon="2.05676">
        <ele>1861.4563798282</ele>
        <time>2001-05-23T16:54:44.485</time>
      </trkpt>
      <trkpt lat="42.51943" lon="2.05677">
        <ele>1861.0458254879</ele>
        <time>2001-05-23T16:54:45.485</time>
      </trkpt>
      <trkpt lat="42.51943" lon="2.05678">
        <ele>1860.3440089017</ele>
        <time>2001-05-23T16:54:46.485</time>
      </trkpt>
      <trkpt lat="42.51944" lon="2.05677">
        <ele>1859.1410077948</ele>
        <time>2001-05-23T16:54:47.485</time>
      </trkpt>
      <trkpt lat="42.51946" lon="2.05678">
        <ele>1858.1735541165</ele>
        <time>2001-05-23T16:54:48.485</time>
      </trkpt>
      <trkpt lat="42.51947" lon="2.05679">
        <ele>1857.1116282903</ele>
        <time>2001-05-23T16:54:49.485</time>
      </trkpt>
      <trkpt lat="42.51948" lon="2.05681">
        <ele>1855.975633302</ele>
        <time>2001-05-23T16:54:50.485</time>
      </trkpt>
      <trkpt lat="42.51948" lon="2.05682">
        <ele>1854.6467442494</ele>
        <time>2001-05-23T16:54:51.485</time>
      </trkpt>
      <trkpt lat="42.5195" lon="2.05683">
        <ele>1853.6078632358</ele>
        <time>2001-05-23T16:54:52.485</time>
      </trkpt>
      <trkpt lat="42.5195" lon="2.05685">
        <ele>1852.6084854659</ele>
        <time>2001-05-23T16:54:53.485</time>
      </trkpt>
      <trkpt lat="42.51949" lon="2.05688">
        <ele>1851.2828572938</ele>
        <time>2001-05-23T16:54:54.485</time>
      </trkpt>
      <trkpt lat="42.5195" lon="2.05688">
        <ele>1850.1341877682</ele>
        <time>2001-05-23T16:54:55.485</time>
      </trkpt>
      <trkpt lat="42.51949" lon="2.05689">
        <ele>1849.7192204531</ele>
        <time>2001-05-23T16:54:56.485</time>
      </trkpt>
      <trkpt lat="42.51949" lon="2.0569">
        <ele>1849.4699664705</ele>
        <time>2001-05-23T16:54:57.485</time>
      </trkpt>
      <trkpt lat="42.5195" lon="2.05692">
        <ele>1849.4167431679</ele>
        <time>2001-05-23T16:54:58.485</time>
      </trkpt>
      <trkpt lat="42.51951" lon="2.05693">
        <ele>1849.8958380083</ele>
        <time>2001-05-23T16:54:59.485</time>
      </trkpt>
      <trkpt lat="42.51952" lon="2.05696">
        <ele>1850.2464811843</ele>
        <time>2001-05-23T16:55:00.485</time>
      </trkpt>
      <trkpt lat="42.51952" lon="2.05698">
        <ele>1850.7097681496</ele>
        <time>2001-05-23T16:55:01.485</time>
      </trkpt>
      <trkpt lat="42.51952" lon="2.05699">
        <ele>1850.6894165868</ele>
        <time>2001-05-23T16:55:02.485</time>
      </trkpt>
      <trkpt lat="42.51953" lon="2.05701">
        <ele>1850.5920093356</ele>
        <time>2001-05-23T16:55:03.485</time>
      </trkpt>
      <trkpt lat="42.51952" lon="2.05703">
        <ele>1850.2810812414</ele>
        <time>2001-05-23T16:55:04.485</time>
      </trkpt>
      <trkpt lat="42.51951" lon="2.05706">
        <ele>1850.304385555</ele>
        <time>2001-05-23T16:55:05.485</time>
      </trkpt>
      <trkpt lat="42.51951" lon="2.05707">
        <ele>1849.9699700449</ele>
        <time>2001-05-23T16:55:06.485</time>
      </trkpt>
      <trkpt lat="42.51951" lon="2.05709">
        <ele>1849.7811022708</ele>
        <time>2001-05-23T16:55:07.485</time>
      </trkpt>
      <trkpt lat="42.51953" lon="2.0571">
        <ele>1849.8383541849</ele>
        <time>2001-05-23T16:55:08.485</time>
      </trkpt>
      <trkpt lat="42.51954" lon="2.0571">
        <ele>1850.1365857311</ele>
        <time>2001-05-23T16:55:09.485</time>
      </trkpt>
      <trkpt lat="42.51954" lon="2.0571">
        <ele>1850.5937246861</ele>
        <time>2001-05-23T16:55:10.485</time>
      </trkpt>
      <trkpt lat="42.51953" lon="2.05709">
        <ele>1851.3708117105</ele>
        <time>2001-05-23T16:55:11.485</time>
      </trkpt>
      <trkpt lat="42.51955" lon="2.05709">
        <ele>1852.0542773318</ele>
        <time>2001-05-23T16:55:12.483</time>
      </trkpt>
      <trkpt lat="42.51955" lon="2.0571">
        <ele>1852.0303393047</ele>
        <time>2001-05-23T16:55:13.483</time>
      </trkpt>
      <trkpt lat="42.51955" lon="2.05712">
        <ele>1851.5854315877</ele>
        <time>2001-05-23T16:55:14.481</time>
      </trkpt>
      <trkpt lat="42.51956" lon="2.05714">
        <ele>1850.7913499987</ele>
        <time>2001-05-23T16:55:15.481</time>
      </trkpt>
      <trkpt lat="42.51958" lon="2.05715">
        <ele>1849.7879179008</ele>
        <time>2001-05-23T16:55:16.481</time>
      </trkpt>
      <trkpt lat="42.51959" lon="2.05716">
        <ele>1849.2492363591</ele>
        <time>2001-05-23T16:55:17.481</time>
      </trkpt>
      <trkpt lat="42.5196" lon="2.05717">
        <ele>1849.0812635729</ele>
        <time>2001-05-23T16:55:18.481</time>
      </trkpt>
      <trkpt lat="42.5196" lon="2.05718">
        <ele>1849.449290539</ele>
        <time>2001-05-23T16:55:19.481</time>
      </trkpt>
      <trkpt lat="42.5196" lon="2.05718">
        <ele>1849.8925097536</ele>
        <time>2001-05-23T16:55:20.481</time>
      </trkpt>
      <trkpt lat="42.51961" lon="2.0572">
        <ele>1850.3692843286</ele>
        <time>2001-05-23T16:55:21.481</time>
      </trkpt>
      <trkpt lat="42.51962" lon="2.05722">
        <ele>1850.4316549454</ele>
        <time>2001-05-23T16:55:22.481</time>
      </trkpt>
      <trkpt lat="42.51963" lon="2.05723">
        <ele>1850.2548430601</ele>
        <time>2001-05-23T16:55:23.481</time>
      </trkpt>
      <trkpt lat="42.51964" lon="2.05724">
        <ele>1849.9856903089</ele>
        <time>2001-05-23T16:55:24.481</time>
      </trkpt>
      <trkpt lat="42.51966" lon="2.05725">
        <ele>1849.3177887449</ele>
        <time>2001-05-23T16:55:25.481</time>
      </trkpt>
      <trkpt lat="42.51969" lon="2.05725">
        <ele>1848.2398034468</ele>
        <time>2001-05-23T16:55:26.481</time>
      </trkpt>
      <trkpt lat="42.51968" lon="2.05727">
        <ele>1847.3440977557</ele>
        <time>2001-05-23T16:55:27.481</time>
      </trkpt>
      <trkpt lat="42.51967" lon="2.0573">
        <ele>1846.8344135176</ele>
        <time>2001-05-23T16:55:28.481</time>
      </trkpt>
      <trkpt lat="42.51969" lon="2.0573">
        <ele>1846.6013622526</ele>
        <time>2001-05-23T16:55:29.481</time>
      </trkpt>
      <trkpt lat="42.5197" lon="2.0573">
        <ele>1847.0509928018</ele>
        <time>2001-05-23T16:55:30.481</time>
      </trkpt>
      <trkpt lat="42.51971" lon="2.05731">
        <ele>1847.9249450684</ele>
        <time>2001-05-23T16:55:31.481</time>
      </trkpt>
      <trkpt lat="42.51969" lon="2.05734">
        <ele>1848.9703124281</ele>
        <time>2001-05-23T16:55:32.481</time>
      </trkpt>
      <trkpt lat="42.51967" lon="2.05737">
        <ele>1849.8476823775</ele>
        <time>2001-05-23T16:55:33.481</time>
      </trkpt>
      <trkpt lat="42.51967" lon="2.05739">
        <ele>1850.2835727951</ele>
        <time>2001-05-23T16:55:34.481</time>
      </trkpt>
      <trkpt lat="42.51967" lon="2.0574">
        <ele>1850.3481735418</ele>
        <time>2001-05-23T16:55:35.481</time>
      </trkpt>
      <trkpt lat="42.51969" lon="2.0574">
        <ele>1850.2102996914</ele>
        <time>2001-05-23T16:55:36.481</time>
      </trkpt>
      <trkpt lat="42.5197" lon="2.0574">
        <ele>1850.0925928915</ele>
        <time>2001-05-23T16:55:37.481</time>
      </trkpt>
      <trkpt lat="42.51972" lon="2.05741">
        <ele>1849.7491854068</ele>
        <time>2001-05-23T16:55:38.481</time>
      </trkpt>
      <trkpt lat="42.51973" lon="2.05742">
        <ele>1849.4945761904</ele>
        <time>2001-05-23T16:55:39.481</time>
      </trkpt>
      <trkpt lat="42.51973" lon="2.05743">
        <ele>1849.3163141394</ele>
        <time>2001-05-23T16:55:40.481</time>
      </trkpt>
      <trkpt lat="42.51974" lon="2.05744">
        <ele>1849.4273474466</ele>
        <time>2001-05-23T16:55:41.481</time>
      </trkpt>
      <trkpt lat="42.51977" lon="2.05743">
        <ele>1849.6628824009</ele>
        <time>2001-05-23T16:55:42.481</time>
      </trkpt>
      <trkpt lat="42.51978" lon="2.05744">
        <ele>1849.9668566374</ele>
        <time>2001-05-23T16:55:43.481</time>
      </trkpt>
      <trkpt lat="42.51979" lon="2.05745">
        <ele>1850.1459073246</ele>
        <time>2001-05-23T16:55:44.481</time>
      </trkpt>
      <trkpt lat="42.5198" lon="2.05746">
        <ele>1850.2406752037</ele>
        <time>2001-05-23T16:55:45.481</time>
      </trkpt>
      <trkpt lat="42.51983" lon="2.05745">
        <ele>1850.1729067782</ele>
        <time>2001-05-23T16:55:46.481</time>
      </trkpt>
      <trkpt lat="42.51983" lon="2.05746">
        <ele>1849.878023258</ele>
        <time>2001-05-23T16:55:47.481</time>
      </trkpt>
      <trkpt lat="42.51984" lon="2.05749">
        <ele>1849.3239717698</ele>
        <time>2001-05-23T16:55:48.481</time>
      </trkpt>
      <trkpt lat="42.51984" lon="2.0575">
        <ele>1848.9535047827</ele>
        <time>2001-05-23T16:55:49.481</time>
      </trkpt>
      <trkpt lat="42.51985" lon="2.05752">
        <ele>1848.5960415253</ele>
        <time>2001-05-23T16:55:50.481</time>
      </trkpt>
      <trkpt lat="42.51984" lon="2.05754">
        <ele>1847.9216881655</ele>
        <time>2001-05-23T16:55:51.481</time>
      </trkpt>
      <trkpt lat="42.51985" lon="2.05755">
        <ele>1847.2553772762</ele>
        <time>2001-05-23T16:55:52.481</time>
      </trkpt>
      <trkpt lat="42.51985" lon="2.05756">
        <ele>1847.1355397517</ele>
        <time>2001-05-23T16:55:53.481</time>
      </trkpt>
      <trkpt lat="42.51987" lon="2.05757">
        <ele>1846.8105519874</ele>
        <time>2001-05-23T16:55:54.481</time>
      </trkpt>
      <trkpt lat="42.51986" lon="2.05759">
        <ele>1846.5254737468</ele>
        <time>2001-05-23T16:55:55.481</time>
      </trkpt>
      <trkpt lat="42.51986" lon="2.0576">
        <ele>1846.566127361</ele>
        <time>2001-05-23T16:55:56.481</time>
      </trkpt>
      <trkpt lat="42.51986" lon="2.05761">
        <ele>1846.9642451156</ele>
        <time>2001-05-23T16:55:57.481</time>
      </trkpt>
      <trkpt lat="42.51987" lon="2.05761">
        <ele>1847.6480411217</ele>
        <time>2001-05-23T16:55:58.481</time>
      </trkpt>
      <trkpt lat="42.51986" lon="2.05763">
        <ele>1848.5583964594</ele>
        <time>2001-05-23T16:55:59.481</time>
      </trkpt>
      <trkpt lat="42.51986" lon="2.05765">
        <ele>1849.1818630792</ele>
        <time>2001-05-23T16:56:00.481</time>
      </trkpt>
      <trkpt lat="42.51988" lon="2.05764">
        <ele>1849.8278747808</ele>
        <time>2001-05-23T16:56:01.481</time>
      </trkpt>
      <trkpt lat="42.51988" lon="2.05766">
        <ele>1849.4449982326</ele>
        <time>2001-05-23T16:56:02.481</time>
      </trkpt>
      <trkpt lat="42.51988" lon="2.05765">
        <ele>1848.3800878255</ele>
        <time>2001-05-23T16:56:03.481</time>
      </trkpt>
      <trkpt lat="42.51989" lon="2.05765">
        <ele>1847.1820551246</ele>
        <time>2001-05-23T16:56:04.481</time>
      </trkpt>
      <trkpt lat="42.51989" lon="2.05767">
        <ele>1846.3376605054</ele>
        <time>2001-05-23T16:56:05.481</time>
      </trkpt>
      <trkpt lat="42.5199" lon="2.05767">
        <ele>1845.2998599537</ele>
        <time>2001-05-23T16:56:06.481</time>
      </trkpt>
      <trkpt lat="42.5199" lon="2.05768">
        <ele>1844.9511566127</ele>
        <time>2001-05-23T16:56:07.481</time>
      </trkpt>
      <trkpt lat="42.5199" lon="2.05769">
        <ele>1844.7402071008</ele>
        <time>2001-05-23T16:56:08.481</time>
      </trkpt>
      <trkpt lat="42.5199" lon="2.05769">
        <ele>1844.8076394778</ele>
        <time>2001-05-23T16:56:09.481</time>
      </trkpt>
      <trkpt lat="42.51989" lon="2.05771">
        <ele>1844.7135951031</ele>
        <time>2001-05-23T16:56:10.481</time>
      </trkpt>
      <trkpt lat="42.51988" lon="2.05774">
        <ele>1844.6090600843</ele>
        <time>2001-05-23T16:56:11.481</time>
      </trkpt>
      <trkpt lat="42.51989" lon="2.05773">
        <ele>1844.3826856369</ele>
        <time>2001-05-23T16:56:12.481</time>
      </trkpt>
      <trkpt lat="42.5199" lon="2.05773">
        <ele>1844.2984986104</ele>
        <time>2001-05-23T16:56:13.481</time>
      </trkpt>
      <trkpt lat="42.51991" lon="2.05774">
        <ele>1843.8869190758</ele>
        <time>2001-05-23T16:56:14.481</time>
      </trkpt>
      <trkpt lat="42.51993" lon="2.05775">
        <ele>1843.1799228793</ele>
        <time>2001-05-23T16:56:15.481</time>
      </trkpt>
      <trkpt lat="42.51993" lon="2.05777">
        <ele>1842.4152644491</ele>
        <time>2001-05-23T16:56:16.481</time>
      </trkpt>
      <trkpt lat="42.51995" lon="2.05777">
        <ele>1841.8064843416</ele>
        <time>2001-05-23T16:56:17.481</time>
      </trkpt>
      <trkpt lat="42.51998" lon="2.05776">
        <ele>1841.0919142671</ele>
        <time>2001-05-23T16:56:18.481</time>
      </trkpt>
      <trkpt lat="42.51999" lon="2.05776">
        <ele>1840.4606354905</ele>
        <time>2001-05-23T16:56:19.481</time>
      </trkpt>
      <trkpt lat="42.52" lon="2.05777">
        <ele>1839.966446705</ele>
        <time>2001-05-23T16:56:20.481</time>
      </trkpt>
      <trkpt lat="42.52" lon="2.05776">
        <ele>1839.3863179523</ele>
        <time>2001-05-23T16:56:21.481</time>
      </trkpt>
      <trkpt lat="42.52001" lon="2.05776">
        <ele>1838.7631383708</ele>
        <time>2001-05-23T16:56:22.481</time>
      </trkpt>
      <trkpt lat="42.52002" lon="2.05776">
        <ele>1838.5585130172</ele>
        <time>2001-05-23T16:56:23.481</time>
      </trkpt>
      <trkpt lat="42.52004" lon="2.05775">
        <ele>1839.1272969775</ele>
        <time>2001-05-23T16:56:24.478</time>
      </trkpt>
      <trkpt lat="42.52006" lon="2.05777">
        <ele>1839.3534420406</ele>
        <time>2001-05-23T16:56:25.478</time>
      </trkpt>
      <trkpt lat="42.52007" lon="2.05778">
        <ele>1839.4029398251</ele>
        <time>2001-05-23T16:56:26.478</time>
      </trkpt>
      <trkpt lat="42.52007" lon="2.05779">
        <ele>1839.4426452</ele>
        <time>2001-05-23T16:56:27.478</time>
      </trkpt>
      <trkpt lat="42.52008" lon="2.0578">
        <ele>1839.111169605</ele>
        <time>2001-05-23T16:56:28.478</time>
      </trkpt>
      <trkpt lat="42.52008" lon="2.05783">
        <ele>1838.0733543184</ele>
        <time>2001-05-23T16:56:29.478</time>
      </trkpt>
      <trkpt lat="42.52009" lon="2.05786">
        <ele>1838.5767726632</ele>
        <time>2001-05-23T16:56:30.478</time>
      </trkpt>
      <trkpt lat="42.5201" lon="2.05788">
        <ele>1840.093876281</ele>
        <time>2001-05-23T16:56:31.478</time>
      </trkpt>
      <trkpt lat="42.52011" lon="2.05788">
        <ele>1841.8641559554</ele>
        <time>2001-05-23T16:56:32.478</time>
      </trkpt>
      <trkpt lat="42.52014" lon="2.05788">
        <ele>1843.1352069927</ele>
        <time>2001-05-23T16:56:33.478</time>
      </trkpt>
      <trkpt lat="42.52015" lon="2.05788">
        <ele>1844.2257061621</ele>
        <time>2001-05-23T16:56:34.478</time>
      </trkpt>
      <trkpt lat="42.52014" lon="2.05791">
        <ele>1844.12718565</ele>
        <time>2001-05-23T16:56:35.478</time>
      </trkpt>
      <trkpt lat="42.52013" lon="2.05793">
        <ele>1843.0434013635</ele>
        <time>2001-05-23T16:56:36.478</time>
      </trkpt>
      <trkpt lat="42.52015" lon="2.05794">
        <ele>1841.7215950813</ele>
        <time>2001-05-23T16:56:37.478</time>
      </trkpt>
      <trkpt lat="42.52015" lon="2.05796">
        <ele>1841.0930044403</ele>
        <time>2001-05-23T16:56:38.478</time>
      </trkpt>
      <trkpt lat="42.52015" lon="2.05797">
        <ele>1840.7694775404</ele>
        <time>2001-05-23T16:56:39.478</time>
      </trkpt>
      <trkpt lat="42.52015" lon="2.05798">
        <ele>1840.6179610828</ele>
        <time>2001-05-23T16:56:40.478</time>
      </trkpt>
      <trkpt lat="42.52015" lon="2.058">
        <ele>1840.9592181966</ele>
        <time>2001-05-23T16:56:41.478</time>
      </trkpt>
      <trkpt lat="42.52015" lon="2.05801">
        <ele>1841.419637185</ele>
        <time>2001-05-23T16:56:42.478</time>
      </trkpt>
      <trkpt lat="42.52016" lon="2.05801">
        <ele>1841.8890395567</ele>
        <time>2001-05-23T16:56:43.478</time>
      </trkpt>
      <trkpt lat="42.52019" lon="2.058">
        <ele>1841.9652684452</ele>
        <time>2001-05-23T16:56:44.478</time>
      </trkpt>
      <trkpt lat="42.52018" lon="2.05802">
        <ele>1841.9208278602</ele>
        <time>2001-05-23T16:56:45.478</time>
      </trkpt>
      <trkpt lat="42.52018" lon="2.05803">
        <ele>1841.8885172892</ele>
        <time>2001-05-23T16:56:46.478</time>
      </trkpt>
      <trkpt lat="42.52018" lon="2.05804">
        <ele>1841.5317458492</ele>
        <time>2001-05-23T16:56:47.478</time>
      </trkpt>
      <trkpt lat="42.52017" lon="2.05805">
        <ele>1840.6939938355</ele>
        <time>2001-05-23T16:56:48.478</time>
      </trkpt>
      <trkpt lat="42.52018" lon="2.05806">
        <ele>1840.0283750838</ele>
        <time>2001-05-23T16:56:49.478</time>
      </trkpt>
      <trkpt lat="42.52019" lon="2.05807">
        <ele>1839.4344291711</ele>
        <time>2001-05-23T16:56:50.478</time>
      </trkpt>
      <trkpt lat="42.5202" lon="2.05809">
        <ele>1838.6564863687</ele>
        <time>2001-05-23T16:56:51.478</time>
      </trkpt>
      <trkpt lat="42.5202" lon="2.0581">
        <ele>1838.0992022963</ele>
        <time>2001-05-23T16:56:52.478</time>
      </trkpt>
      <trkpt lat="42.52021" lon="2.05811">
        <ele>1838.0120706145</ele>
        <time>2001-05-23T16:56:53.478</time>
      </trkpt>
      <trkpt lat="42.52022" lon="2.05811">
        <ele>1837.8809595285</ele>
        <time>2001-05-23T16:56:54.478</time>
      </trkpt>
      <trkpt lat="42.52021" lon="2.05814">
        <ele>1837.5691639611</ele>
        <time>2001-05-23T16:56:55.478</time>
      </trkpt>
      <trkpt lat="42.52022" lon="2.05816">
        <ele>1836.6778118951</ele>
        <time>2001-05-23T16:56:56.478</time>
      </trkpt>
      <trkpt lat="42.52023" lon="2.05817">
        <ele>1835.5924733158</ele>
        <time>2001-05-23T16:56:57.478</time>
      </trkpt>
      <trkpt lat="42.5202" lon="2.0582">
        <ele>1834.2848839343</ele>
        <time>2001-05-23T16:56:58.478</time>
      </trkpt>
      <trkpt lat="42.5202" lon="2.05821">
        <ele>1833.1262037998</ele>
        <time>2001-05-23T16:56:59.478</time>
      </trkpt>
      <trkpt lat="42.5202" lon="2.05822">
        <ele>1832.1754589036</ele>
        <time>2001-05-23T16:57:00.478</time>
      </trkpt>
      <trkpt lat="42.52022" lon="2.05823">
        <ele>1831.9860023594</ele>
        <time>2001-05-23T16:57:01.478</time>
      </trkpt>
      <trkpt lat="42.52023" lon="2.05823">
        <ele>1832.1275885239</ele>
        <time>2001-05-23T16:57:02.478</time>
      </trkpt>
      <trkpt lat="42.52024" lon="2.05825">
        <ele>1832.7301274287</ele>
        <time>2001-05-23T16:57:03.478</time>
      </trkpt>
      <trkpt lat="42.52024" lon="2.05825">
        <ele>1833.6061744051</ele>
        <time>2001-05-23T16:57:04.478</time>
      </trkpt>
      <trkpt lat="42.52025" lon="2.05825">
        <ele>1834.826283465</ele>
        <time>2001-05-23T16:57:05.478</time>
      </trkpt>
      <trkpt lat="42.52025" lon="2.05827">
        <ele>1835.936824937</ele>
        <time>2001-05-23T16:57:06.478</time>
      </trkpt>
      <trkpt lat="42.52026" lon="2.05828">
        <ele>1837.0553042656</ele>
        <time>2001-05-23T16:57:07.478</time>
      </trkpt>
      <trkpt lat="42.52026" lon="2.05829">
        <ele>1837.8525748417</ele>
        <time>2001-05-23T16:57:08.478</time>
      </trkpt>
      <trkpt lat="42.52026" lon="2.05831">
        <ele>1838.1916890705</ele>
        <time>2001-05-23T16:57:09.478</time>
      </trkpt>
      <trkpt lat="42.52027" lon="2.05831">
        <ele>1838.2192574997</ele>
        <time>2001-05-23T16:57:10.478</time>
      </trkpt>
      <trkpt lat="42.52027" lon="2.05833">
        <ele>1838.3033301702</ele>
        <time>2001-05-23T16:57:11.478</time>
      </trkpt>
      <trkpt lat="42.52028" lon="2.05834">
        <ele>1838.3202594463</ele>
        <time>2001-05-23T16:57:12.478</time>
      </trkpt>
      <trkpt lat="42.52031" lon="2.05834">
        <ele>1837.7498956332</ele>
        <time>2001-05-23T16:57:13.478</time>
      </trkpt>
      <trkpt lat="42.52033" lon="2.05835">
        <ele>1837.0840641374</ele>
        <time>2001-05-23T16:57:14.478</time>
      </trkpt>
      <trkpt lat="42.52035" lon="2.05836">
        <ele>1836.0828222949</ele>
        <time>2001-05-23T16:57:15.478</time>
      </trkpt>
      <trkpt lat="42.52035" lon="2.05838">
        <ele>1834.7752056539</ele>
        <time>2001-05-23T16:57:16.478</time>
      </trkpt>
      <trkpt lat="42.52036" lon="2.05839">
        <ele>1833.5327295812</ele>
        <time>2001-05-23T16:57:17.478</time>
      </trkpt>
      <trkpt lat="42.52036" lon="2.0584">
        <ele>1832.9790881174</ele>
        <time>2001-05-23T16:57:18.478</time>
      </trkpt>
      <trkpt lat="42.52037" lon="2.05841">
        <ele>1832.6070954034</ele>
        <time>2001-05-23T16:57:19.478</time>
      </trkpt>
      <trkpt lat="42.52037" lon="2.05842">
        <ele>1832.5948760929</ele>
        <time>2001-05-23T16:57:20.478</time>
      </trkpt>
      <trkpt lat="42.52038" lon="2.05844">
        <ele>1832.9249015113</ele>
        <time>2001-05-23T16:57:21.478</time>
      </trkpt>
      <trkpt lat="42.52038" lon="2.05845">
        <ele>1833.1094502009</ele>
        <time>2001-05-23T16:57:22.478</time>
      </trkpt>
      <trkpt lat="42.5204" lon="2.05845">
        <ele>1832.8732840538</ele>
        <time>2001-05-23T16:57:23.478</time>
      </trkpt>
      <trkpt lat="42.5204" lon="2.05846">
        <ele>1832.727317263</ele>
        <time>2001-05-23T16:57:24.478</time>
      </trkpt>
      <trkpt lat="42.52042" lon="2.05846">
        <ele>1832.2977735549</ele>
        <time>2001-05-23T16:57:25.478</time>
      </trkpt>
      <trkpt lat="42.52043" lon="2.05846">
        <ele>1831.6729799429</ele>
        <time>2001-05-23T16:57:26.478</time>
      </trkpt>
      <trkpt lat="42.52045" lon="2.05847">
        <ele>1830.9880647508</ele>
        <time>2001-05-23T16:57:27.478</time>
      </trkpt>
      <trkpt lat="42.52046" lon="2.05847">
        <ele>1830.6321593812</ele>
        <time>2001-05-23T16:57:28.478</time>
      </trkpt>
      <trkpt lat="42.52047" lon="2.05848">
        <ele>1830.3494374663</ele>
        <time>2001-05-23T16:57:29.478</time>
      </trkpt>
      <trkpt lat="42.52047" lon="2.0585">
        <ele>1830.5017514894</ele>
        <time>2001-05-23T16:57:30.478</time>
      </trkpt>
      <trkpt lat="42.52046" lon="2.05852">
        <ele>1831.6508801116</ele>
        <time>2001-05-23T16:57:31.478</time>
      </trkpt>
      <trkpt lat="42.52046" lon="2.05853">
        <ele>1833.0357354743</ele>
        <time>2001-05-23T16:57:32.478</time>
      </trkpt>
      <trkpt lat="42.52047" lon="2.05854">
        <ele>1834.4109437494</ele>
        <time>2001-05-23T16:57:33.478</time>
      </trkpt>
      <trkpt lat="42.52047" lon="2.05856">
        <ele>1835.5030448174</ele>
        <time>2001-05-23T16:57:34.478</time>
      </trkpt>
      <trkpt lat="42.52048" lon="2.05856">
        <ele>1836.3688725704</ele>
        <time>2001-05-23T16:57:35.478</time>
      </trkpt>
      <trkpt lat="42.52049" lon="2.05857">
        <ele>1836.1672368793</ele>
        <time>2001-05-23T16:57:36.478</time>
      </trkpt>
      <trkpt lat="42.52049" lon="2.05858">
        <ele>1835.5929253908</ele>
        <time>2001-05-23T16:57:37.478</time>
      </trkpt>
      <trkpt lat="42.52051" lon="2.05859">
        <ele>1834.6114295168</ele>
        <time>2001-05-23T16:57:38.478</time>
      </trkpt>
      <trkpt lat="42.52052" lon="2.05861">
        <ele>1833.3581634304</ele>
        <time>2001-05-23T16:57:39.478</time>
      </trkpt>
      <trkpt lat="42.52052" lon="2.05861">
        <ele>1831.9764902173</ele>
        <time>2001-05-23T16:57:40.478</time>
      </trkpt>
      <trkpt lat="42.52052" lon="2.05861">
        <ele>1830.8087667007</ele>
        <time>2001-05-23T16:57:41.478</time>
      </trkpt>
      <trkpt lat="42.52052" lon="2.05863">
        <ele>1829.7409704676</ele>
        <time>2001-05-23T16:57:42.478</time>
      </trkpt>
      <trkpt lat="42.52053" lon="2.05863">
        <ele>1828.9450814039</ele>
        <time>2001-05-23T16:57:43.478</time>
      </trkpt>
      <trkpt lat="42.52053" lon="2.05865">
        <ele>1828.7671236474</ele>
        <time>2001-05-23T16:57:44.478</time>
      </trkpt>
      <trkpt lat="42.52053" lon="2.05866">
        <ele>1828.7540876836</ele>
        <time>2001-05-23T16:57:45.478</time>
      </trkpt>
      <trkpt lat="42.52054" lon="2.05867">
        <ele>1828.8434942383</ele>
        <time>2001-05-23T16:57:46.478</time>
      </trkpt>
      <trkpt lat="42.52053" lon="2.05868">
        <ele>1829.1286089508</ele>
        <time>2001-05-23T16:57:47.478</time>
      </trkpt>
      <trkpt lat="42.52054" lon="2.05868">
        <ele>1829.6237808721</ele>
        <time>2001-05-23T16:57:48.478</time>
      </trkpt>
      <trkpt lat="42.52055" lon="2.05869">
        <ele>1829.8900877466</ele>
        <time>2001-05-23T16:57:49.478</time>
      </trkpt>
      <trkpt lat="42.52056" lon="2.05871">
        <ele>1829.9448117675</ele>
        <time>2001-05-23T16:57:50.478</time>
      </trkpt>
      <trkpt lat="42.52057" lon="2.05872">
        <ele>1829.5947750473</ele>
        <time>2001-05-23T16:57:51.478</time>
      </trkpt>
      <trkpt lat="42.52057" lon="2.05873">
        <ele>1829.1099135898</ele>
        <time>2001-05-23T16:57:52.478</time>
      </trkpt>
      <trkpt lat="42.52057" lon="2.05874">
        <ele>1828.3837966187</ele>
        <time>2001-05-23T16:57:53.478</time>
      </trkpt>
      <trkpt lat="42.52058" lon="2.05875">
        <ele>1827.6443293706</ele>
        <time>2001-05-23T16:57:54.478</time>
      </trkpt>
      <trkpt lat="42.52058" lon="2.05876">
        <ele>1827.0914347481</ele>
        <time>2001-05-23T16:57:55.478</time>
      </trkpt>
      <trkpt lat="42.52059" lon="2.05877">
        <ele>1826.9844221471</ele>
        <time>2001-05-23T16:57:56.478</time>
      </trkpt>
      <trkpt lat="42.52059" lon="2.05879">
        <ele>1827.0424789384</ele>
        <time>2001-05-23T16:57:57.478</time>
      </trkpt>
      <trkpt lat="42.52059" lon="2.0588">
        <ele>1827.3635926863</ele>
        <time>2001-05-23T16:57:58.478</time>
      </trkpt>
      <trkpt lat="42.52059" lon="2.05881">
        <ele>1827.7606652405</ele>
        <time>2001-05-23T16:57:59.478</time>
      </trkpt>
      <trkpt lat="42.52059" lon="2.05882">
        <ele>1828.1468028469</ele>
        <time>2001-05-23T16:58:00.478</time>
      </trkpt>
      <trkpt lat="42.52059" lon="2.05884">
        <ele>1828.5128697451</ele>
        <time>2001-05-23T16:58:01.478</time>
      </trkpt>
      <trkpt lat="42.5206" lon="2.05884">
        <ele>1828.8935117453</ele>
        <time>2001-05-23T16:58:02.478</time>
      </trkpt>
      <trkpt lat="42.52061" lon="2.05886">
        <ele>1828.9038823834</ele>
        <time>2001-05-23T16:58:03.478</time>
      </trkpt>
      <trkpt lat="42.52061" lon="2.05887">
        <ele>1828.8731654199</ele>
        <time>2001-05-23T16:58:04.478</time>
      </trkpt>
      <trkpt lat="42.52061" lon="2.05887">
        <ele>1829.0898356067</ele>
        <time>2001-05-23T16:58:05.478</time>
      </trkpt>
      <trkpt lat="42.52061" lon="2.05889">
        <ele>1829.0611988405</ele>
        <time>2001-05-23T16:58:06.478</time>
      </trkpt>
      <trkpt lat="42.52061" lon="2.0589">
        <ele>1828.9178538421</ele>
        <time>2001-05-23T16:58:07.478</time>
      </trkpt>
      <trkpt lat="42.52061" lon="2.05891">
        <ele>1828.9291602312</ele>
        <time>2001-05-23T16:58:08.478</time>
      </trkpt>
      <trkpt lat="42.52061" lon="2.05892">
        <ele>1828.6697831316</ele>
        <time>2001-05-23T16:58:09.478</time>
      </trkpt>
      <trkpt lat="42.52061" lon="2.05894">
        <ele>1828.2470391251</ele>
        <time>2001-05-23T16:58:10.478</time>
      </trkpt>
      <trkpt lat="42.52062" lon="2.05894">
        <ele>1827.8548211761</ele>
        <time>2001-05-23T16:58:11.478</time>
      </trkpt>
      <trkpt lat="42.52062" lon="2.05896">
        <ele>1827.3272101346</ele>
        <time>2001-05-23T16:58:12.478</time>
      </trkpt>
      <trkpt lat="42.52062" lon="2.05897">
        <ele>1826.3977817267</ele>
        <time>2001-05-23T16:58:13.478</time>
      </trkpt>
      <trkpt lat="42.52061" lon="2.05899">
        <ele>1825.9500774229</ele>
        <time>2001-05-23T16:58:14.478</time>
      </trkpt>
      <trkpt lat="42.52061" lon="2.059">
        <ele>1825.7813882224</ele>
        <time>2001-05-23T16:58:15.478</time>
      </trkpt>
      <trkpt lat="42.52061" lon="2.05902">
        <ele>1825.4226477228</ele>
        <time>2001-05-23T16:58:16.478</time>
      </trkpt>
      <trkpt lat="42.52061" lon="2.05903">
        <ele>1825.1092051739</ele>
        <time>2001-05-23T16:58:17.478</time>
      </trkpt>
      <trkpt lat="42.52061" lon="2.05905">
        <ele>1825.2196131665</ele>
        <time>2001-05-23T16:58:18.478</time>
      </trkpt>
      <trkpt lat="42.52061" lon="2.05906">
        <ele>1825.1447665421</ele>
        <time>2001-05-23T16:58:19.478</time>
      </trkpt>
      <trkpt lat="42.52061" lon="2.05908">
        <ele>1824.9532873781</ele>
        <time>2001-05-23T16:58:20.478</time>
      </trkpt>
      <trkpt lat="42.5206" lon="2.0591">
        <ele>1825.1169246081</ele>
        <time>2001-05-23T16:58:21.478</time>
      </trkpt>
      <trkpt lat="42.52059" lon="2.05912">
        <ele>1825.3243404187</ele>
        <time>2001-05-23T16:58:22.478</time>
      </trkpt>
      <trkpt lat="42.52059" lon="2.05913">
        <ele>1825.5407115163</ele>
        <time>2001-05-23T16:58:23.478</time>
      </trkpt>
      <trkpt lat="42.52059" lon="2.05914">
        <ele>1825.6590918032</ele>
        <time>2001-05-23T16:58:24.478</time>
      </trkpt>
      <trkpt lat="42.52059" lon="2.05915">
        <ele>1825.6028335793</ele>
        <time>2001-05-23T16:58:25.478</time>
      </trkpt>
      <trkpt lat="42.52058" lon="2.05915">
        <ele>1825.7097848237</ele>
        <time>2001-05-23T16:58:26.478</time>
      </trkpt>
      <trkpt lat="42.52059" lon="2.05918">
        <ele>1825.8474949939</ele>
        <time>2001-05-23T16:58:27.476</time>
      </trkpt>
      <trkpt lat="42.52059" lon="2.0592">
        <ele>1826.1405215103</ele>
        <time>2001-05-23T16:58:28.476</time>
      </trkpt>
      <trkpt lat="42.52059" lon="2.05921">
        <ele>1826.6308693383</ele>
        <time>2001-05-23T16:58:29.476</time>
      </trkpt>
      <trkpt lat="42.52059" lon="2.05923">
        <ele>1827.3652383255</ele>
        <time>2001-05-23T16:58:30.476</time>
      </trkpt>
      <trkpt lat="42.52059" lon="2.05925">
        <ele>1827.6547843056</ele>
        <time>2001-05-23T16:58:31.476</time>
      </trkpt>
      <trkpt lat="42.52059" lon="2.05926">
        <ele>1827.8732911963</ele>
        <time>2001-05-23T16:58:32.476</time>
      </trkpt>
      <trkpt lat="42.52058" lon="2.05927">
        <ele>1827.6804992437</ele>
        <time>2001-05-23T16:58:33.476</time>
      </trkpt>
      <trkpt lat="42.52058" lon="2.05928">
        <ele>1827.49727196</ele>
        <time>2001-05-23T16:58:34.476</time>
      </trkpt>
      <trkpt lat="42.52058" lon="2.05929">
        <ele>1827.2311582476</ele>
        <time>2001-05-23T16:58:35.476</time>
      </trkpt>
      <trkpt lat="42.52059" lon="2.05931">
        <ele>1826.7975579621</ele>
        <time>2001-05-23T16:58:36.476</time>
      </trkpt>
      <trkpt lat="42.52059" lon="2.05932">
        <ele>1826.3073555373</ele>
        <time>2001-05-23T16:58:37.476</time>
      </trkpt>
      <trkpt lat="42.52059" lon="2.05934">
        <ele>1826.0895312963</ele>
        <time>2001-05-23T16:58:38.476</time>
      </trkpt>
      <trkpt lat="42.52058" lon="2.05936">
        <ele>1825.6580172878</ele>
        <time>2001-05-23T16:58:39.476</time>
      </trkpt>
      <trkpt lat="42.52058" lon="2.05936">
        <ele>1825.1792217104</ele>
        <time>2001-05-23T16:58:40.476</time>
      </trkpt>
      <trkpt lat="42.52058" lon="2.05937">
        <ele>1824.9548848882</ele>
        <time>2001-05-23T16:58:41.476</time>
      </trkpt>
      <trkpt lat="42.52057" lon="2.05939">
        <ele>1824.8426074719</ele>
        <time>2001-05-23T16:58:42.476</time>
      </trkpt>
      <trkpt lat="42.52057" lon="2.0594">
        <ele>1824.771241669</ele>
        <time>2001-05-23T16:58:43.476</time>
      </trkpt>
      <trkpt lat="42.52057" lon="2.05941">
        <ele>1824.9040116936</ele>
        <time>2001-05-23T16:58:44.476</time>
      </trkpt>
      <trkpt lat="42.52056" lon="2.05943">
        <ele>1825.0143520392</ele>
        <time>2001-05-23T16:58:45.476</time>
      </trkpt>
      <trkpt lat="42.52056" lon="2.05944">
        <ele>1825.2018830622</ele>
        <time>2001-05-23T16:58:46.476</time>
      </trkpt>
      <trkpt lat="42.52056" lon="2.05945">
        <ele>1825.4791255655</ele>
        <time>2001-05-23T16:58:47.476</time>
      </trkpt>
      <trkpt lat="42.52056" lon="2.05946">
        <ele>1825.8569742968</ele>
        <time>2001-05-23T16:58:48.476</time>
      </trkpt>
      <trkpt lat="42.52056" lon="2.05947">
        <ele>1825.980142439</ele>
        <time>2001-05-23T16:58:49.476</time>
      </trkpt>
      <trkpt lat="42.52056" lon="2.05948">
        <ele>1825.9696118806</ele>
        <time>2001-05-23T16:58:50.476</time>
      </trkpt>
      <trkpt lat="42.52056" lon="2.0595">
        <ele>1826.0126300128</ele>
        <time>2001-05-23T16:58:51.476</time>
      </trkpt>
      <trkpt lat="42.52055" lon="2.05951">
        <ele>1826.0189133702</ele>
        <time>2001-05-23T16:58:52.476</time>
      </trkpt>
      <trkpt lat="42.52055" lon="2.05952">
        <ele>1826.0807177991</ele>
        <time>2001-05-23T16:58:53.476</time>
      </trkpt>
      <trkpt lat="42.52054" lon="2.05954">
        <ele>1826.4282971697</ele>
        <time>2001-05-23T16:58:54.476</time>
      </trkpt>
      <trkpt lat="42.52053" lon="2.05955">
        <ele>1826.8684141355</ele>
        <time>2001-05-23T16:58:55.476</time>
      </trkpt>
      <trkpt lat="42.52053" lon="2.05956">
        <ele>1827.0925817346</ele>
        <time>2001-05-23T16:58:56.476</time>
      </trkpt>
      <trkpt lat="42.52054" lon="2.05955">
        <ele>1827.2767237971</ele>
        <time>2001-05-23T16:58:57.476</time>
      </trkpt>
      <trkpt lat="42.52053" lon="2.05957">
        <ele>1827.1972787198</ele>
        <time>2001-05-23T16:58:58.480</time>
      </trkpt>
      <trkpt lat="42.52053" lon="2.05958">
        <ele>1826.9689426685</ele>
        <time>2001-05-23T16:58:59.480</time>
      </trkpt>
      <trkpt lat="42.52053" lon="2.0596">
        <ele>1826.5725681886</ele>
        <time>2001-05-23T16:59:00.492</time>
      </trkpt>
      <trkpt lat="42.52053" lon="2.05961">
        <ele>1826.3317641482</ele>
        <time>2001-05-23T16:59:01.492</time>
      </trkpt>
      <trkpt lat="42.52053" lon="2.05962">
        <ele>1826.1864614761</ele>
        <time>2001-05-23T16:59:02.492</time>
      </trkpt>
      <trkpt lat="42.52052" lon="2.05963">
        <ele>1826.1814325234</ele>
        <time>2001-05-23T16:59:03.492</time>
      </trkpt>
      <trkpt lat="42.52052" lon="2.05964">
        <ele>1826.313296775</ele>
        <time>2001-05-23T16:59:04.492</time>
      </trkpt>
      <trkpt lat="42.52052" lon="2.05965">
        <ele>1826.7298985291</ele>
        <time>2001-05-23T16:59:05.492</time>
      </trkpt>
      <trkpt lat="42.52052" lon="2.05965">
        <ele>1827.0565192046</ele>
        <time>2001-05-23T16:59:06.492</time>
      </trkpt>
      <trkpt lat="42.52053" lon="2.05966">
        <ele>1827.1035136878</ele>
        <time>2001-05-23T16:59:07.494</time>
      </trkpt>
      <trkpt lat="42.52053" lon="2.05967">
        <ele>1826.927607074</ele>
        <time>2001-05-23T16:59:08.494</time>
      </trkpt>
      <trkpt lat="42.52053" lon="2.05968">
        <ele>1826.6007585213</ele>
        <time>2001-05-23T16:59:09.494</time>
      </trkpt>
      <trkpt lat="42.52054" lon="2.05968">
        <ele>1826.1304497197</ele>
        <time>2001-05-23T16:59:10.494</time>
      </trkpt>
      <trkpt lat="42.52055" lon="2.05968">
        <ele>1825.7248290835</ele>
        <time>2001-05-23T16:59:11.494</time>
      </trkpt>
      <trkpt lat="42.52054" lon="2.0597">
        <ele>1825.6262954811</ele>
        <time>2001-05-23T16:59:12.494</time>
      </trkpt>
      <trkpt lat="42.52054" lon="2.05971">
        <ele>1825.8874217281</ele>
        <time>2001-05-23T16:59:13.494</time>
      </trkpt>
      <trkpt lat="42.52055" lon="2.05973">
        <ele>1826.1008704582</ele>
        <time>2001-05-23T16:59:14.494</time>
      </trkpt>
      <trkpt lat="42.52056" lon="2.05974">
        <ele>1826.2934938822</ele>
        <time>2001-05-23T16:59:15.494</time>
      </trkpt>
      <trkpt lat="42.52057" lon="2.05974">
        <ele>1826.7720937466</ele>
        <time>2001-05-23T16:59:16.494</time>
      </trkpt>
      <trkpt lat="42.52057" lon="2.05975">
        <ele>1827.3322905544</ele>
        <time>2001-05-23T16:59:17.494</time>
      </trkpt>
      <trkpt lat="42.52058" lon="2.05976">
        <ele>1827.8162646238</ele>
        <time>2001-05-23T16:59:18.494</time>
      </trkpt>
      <trkpt lat="42.52059" lon="2.05978">
        <ele>1827.5373681094</ele>
        <time>2001-05-23T16:59:19.494</time>
      </trkpt>
      <trkpt lat="42.5206" lon="2.05978">
        <ele>1827.2187662484</ele>
        <time>2001-05-23T16:59:20.494</time>
      </trkpt>
      <trkpt lat="42.52061" lon="2.05979">
        <ele>1826.6036224531</ele>
        <time>2001-05-23T16:59:21.494</time>
      </trkpt>
      <trkpt lat="42.52061" lon="2.05979">
        <ele>1825.6667846588</ele>
        <time>2001-05-23T16:59:22.494</time>
      </trkpt>
      <trkpt lat="42.52061" lon="2.0598">
        <ele>1824.6361027397</ele>
        <time>2001-05-23T16:59:23.494</time>
      </trkpt>
      <trkpt lat="42.5206" lon="2.05981">
        <ele>1824.5345942508</ele>
        <time>2001-05-23T16:59:24.494</time>
      </trkpt>
      <trkpt lat="42.5206" lon="2.05983">
        <ele>1824.5711158639</ele>
        <time>2001-05-23T16:59:25.493</time>
      </trkpt>
      <trkpt lat="42.52061" lon="2.05984">
        <ele>1824.4852705199</ele>
        <time>2001-05-23T16:59:26.493</time>
      </trkpt>
      <trkpt lat="42.52062" lon="2.05986">
        <ele>1824.3912469216</ele>
        <time>2001-05-23T16:59:27.493</time>
      </trkpt>
      <trkpt lat="42.52062" lon="2.05987">
        <ele>1824.2443483377</ele>
        <time>2001-05-23T16:59:28.493</time>
      </trkpt>
      <trkpt lat="42.52062" lon="2.05989">
        <ele>1824.1514230831</ele>
        <time>2001-05-23T16:59:29.493</time>
      </trkpt>
      <trkpt lat="42.52061" lon="2.0599">
        <ele>1824.2422117718</ele>
        <time>2001-05-23T16:59:30.493</time>
      </trkpt>
      <trkpt lat="42.52062" lon="2.05991">
        <ele>1825.0081174409</ele>
        <time>2001-05-23T16:59:31.493</time>
      </trkpt>
      <trkpt lat="42.52062" lon="2.05991">
        <ele>1825.8830680724</ele>
        <time>2001-05-23T16:59:32.493</time>
      </trkpt>
      <trkpt lat="42.52062" lon="2.05993">
        <ele>1826.7867990909</ele>
        <time>2001-05-23T16:59:33.493</time>
      </trkpt>
      <trkpt lat="42.52062" lon="2.05994">
        <ele>1827.5819965314</ele>
        <time>2001-05-23T16:59:34.493</time>
      </trkpt>
      <trkpt lat="42.52061" lon="2.05993">
        <ele>1828.3904679229</ele>
        <time>2001-05-23T16:59:35.495</time>
      </trkpt>
      <trkpt lat="42.52061" lon="2.05991">
        <ele>1828.5822157994</ele>
        <time>2001-05-23T16:59:36.495</time>
      </trkpt>
      <trkpt lat="42.5206" lon="2.05989">
        <ele>1828.2915900186</ele>
        <time>2001-05-23T16:59:37.495</time>
      </trkpt>
      <trkpt lat="42.5206" lon="2.05989">
        <ele>1827.9911663501</ele>
        <time>2001-05-23T16:59:38.495</time>
      </trkpt>
      <trkpt lat="42.5206" lon="2.05989">
        <ele>1827.646372487</ele>
        <time>2001-05-23T16:59:39.495</time>
      </trkpt>
      <trkpt lat="42.52059" lon="2.0599">
        <ele>1827.1119203866</ele>
        <time>2001-05-23T16:59:40.490</time>
      </trkpt>
      <trkpt lat="42.52059" lon="2.0599">
        <ele>1826.6918980645</ele>
        <time>2001-05-23T16:59:41.490</time>
      </trkpt>
      <trkpt lat="42.52059" lon="2.0599">
        <ele>1826.8835064901</ele>
        <time>2001-05-23T16:59:42.492</time>
      </trkpt>
      <trkpt lat="42.52059" lon="2.0599">
        <ele>1827.0751149157</ele>
        <time>2001-05-23T16:59:43.492</time>
      </trkpt>
      <trkpt lat="42.52058" lon="2.05989">
        <ele>1827.1163727226</ele>
        <time>2001-05-23T16:59:44.497</time>
      </trkpt>
      <trkpt lat="42.52059" lon="2.05988">
        <ele>1827.6899798993</ele>
        <time>2001-05-23T16:59:45.497</time>
      </trkpt>
    </trkseg>
  </trk>
</gpx>